<?xml version="1.0" encoding="UTF-8" standalone="no" ?>
<gpx xmlns="http://www.topografix.com/GPX/1/1" xmlns:xsi="http://www.w3.org/2001/XMLSchema-instance" xsi:schemaLocation="http://www.topografix.com/GPX/1/1 http://www.topografix.com/GPX/1/1/gpx.xsd" version="1.1" creator="VisuGPX - https://www.visugpx.com">
  <metadata>
    <name>Pascal Duquenne Classic 130 kms</name>
  </metadata>
  <wpt lat="50.62923" lon="3.54804">
    <ele>79.8</ele>
    <name><![CDATA[Ravito]]></name>
    <type><![CDATA[FOOD]]></type>
  </wpt>
  <trk>
    <name><![CDATA[Pascal Duquenne Classic 130 kms]]></name>
    <trkseg>
      <trkpt lat="50.546" lon="3.33987">
        <ele>60.23</ele>
        <time>2023-05-12T09:30:32.000Z</time>
      </trkpt>
      <trkpt lat="50.5463" lon="3.34006">
        <ele>60.52</ele>
        <time>2023-05-12T09:30:32.005Z</time>
      </trkpt>
      <trkpt lat="50.54665" lon="3.34027">
        <ele>60.3</ele>
        <time>2023-05-12T09:30:32.016Z</time>
      </trkpt>
      <trkpt lat="50.54678" lon="3.34035">
        <ele>59.76</ele>
        <time>2023-05-12T09:30:32.029Z</time>
      </trkpt>
      <trkpt lat="50.54703" lon="3.34047">
        <ele>61.06</ele>
        <time>2023-05-12T09:30:32.047Z</time>
      </trkpt>
      <trkpt lat="50.54734" lon="3.34061">
        <ele>61.08</ele>
        <time>2023-05-12T09:30:32.070Z</time>
      </trkpt>
      <trkpt lat="50.54765" lon="3.34081">
        <ele>61.14</ele>
        <time>2023-05-12T09:30:32.098Z</time>
      </trkpt>
      <trkpt lat="50.54787" lon="3.34095">
        <ele>61.13</ele>
        <time>2023-05-12T09:30:32.130Z</time>
      </trkpt>
      <trkpt lat="50.54822" lon="3.34122">
        <ele>61.02</ele>
        <time>2023-05-12T09:30:32.168Z</time>
      </trkpt>
      <trkpt lat="50.54835" lon="3.34127">
        <ele>60.95</ele>
        <time>2023-05-12T09:30:32.208Z</time>
      </trkpt>
      <trkpt lat="50.54854" lon="3.34131">
        <ele>60.8</ele>
        <time>2023-05-12T09:30:32.251Z</time>
      </trkpt>
      <trkpt lat="50.54884" lon="3.34136">
        <ele>60.7</ele>
        <time>2023-05-12T09:30:32.299Z</time>
      </trkpt>
      <trkpt lat="50.54906" lon="3.34146">
        <ele>60.74</ele>
        <time>2023-05-12T09:30:32.351Z</time>
      </trkpt>
      <trkpt lat="50.54929" lon="3.34157">
        <ele>60.78</ele>
        <time>2023-05-12T09:30:32.407Z</time>
      </trkpt>
      <trkpt lat="50.54932" lon="3.34158">
        <ele>60.77</ele>
        <time>2023-05-12T09:30:32.463Z</time>
      </trkpt>
      <trkpt lat="50.54946" lon="3.34164">
        <ele>60.75</ele>
        <time>2023-05-12T09:30:32.522Z</time>
      </trkpt>
      <trkpt lat="50.5496" lon="3.34169">
        <ele>60.7</ele>
        <time>2023-05-12T09:30:32.583Z</time>
      </trkpt>
      <trkpt lat="50.54971" lon="3.34173">
        <ele>60.66</ele>
        <time>2023-05-12T09:30:32.646Z</time>
      </trkpt>
      <trkpt lat="50.54982" lon="3.34177">
        <ele>60.61</ele>
        <time>2023-05-12T09:30:32.711Z</time>
      </trkpt>
      <trkpt lat="50.54991" lon="3.34175">
        <ele>60.6</ele>
        <time>2023-05-12T09:30:32.777Z</time>
      </trkpt>
      <trkpt lat="50.54994" lon="3.34177">
        <ele>60.56</ele>
        <time>2023-05-12T09:30:32.843Z</time>
      </trkpt>
      <trkpt lat="50.54998" lon="3.34176">
        <ele>60.52</ele>
        <time>2023-05-12T09:30:32.910Z</time>
      </trkpt>
      <trkpt lat="50.55016" lon="3.34193">
        <ele>60.39</ele>
        <time>2023-05-12T09:30:32.980Z</time>
      </trkpt>
      <trkpt lat="50.55072" lon="3.3433">
        <ele>60.44</ele>
        <time>2023-05-12T09:30:33.067Z</time>
      </trkpt>
      <trkpt lat="50.55104" lon="3.34381">
        <ele>60.11</ele>
        <time>2023-05-12T09:30:33.161Z</time>
      </trkpt>
      <trkpt lat="50.55127" lon="3.34429">
        <ele>59.73</ele>
        <time>2023-05-12T09:30:33.261Z</time>
      </trkpt>
      <trkpt lat="50.55157" lon="3.34525">
        <ele>59.82</ele>
        <time>2023-05-12T09:30:33.372Z</time>
      </trkpt>
      <trkpt lat="50.55157" lon="3.34525">
        <ele>59.82</ele>
        <time>2023-05-12T09:30:33.483Z</time>
      </trkpt>
      <trkpt lat="50.55157" lon="3.34525">
        <ele>59.82</ele>
        <time>2023-05-12T09:30:33.594Z</time>
      </trkpt>
      <trkpt lat="50.55157" lon="3.34525">
        <ele>59.82</ele>
        <time>2023-05-12T09:30:33.705Z</time>
      </trkpt>
      <trkpt lat="50.55157" lon="3.34524">
        <ele>59.83</ele>
        <time>2023-05-12T09:30:33.816Z</time>
      </trkpt>
      <trkpt lat="50.55182" lon="3.34606">
        <ele>59.8</ele>
        <time>2023-05-12T09:30:33.937Z</time>
      </trkpt>
      <trkpt lat="50.55214" lon="3.34716">
        <ele>59.96</ele>
        <time>2023-05-12T09:30:34.070Z</time>
      </trkpt>
      <trkpt lat="50.55224" lon="3.34741">
        <ele>59.88</ele>
        <time>2023-05-12T09:30:34.206Z</time>
      </trkpt>
      <trkpt lat="50.55228" lon="3.3475">
        <ele>59.65</ele>
        <time>2023-05-12T09:30:34.343Z</time>
      </trkpt>
      <trkpt lat="50.55234" lon="3.34759">
        <ele>59.29</ele>
        <time>2023-05-12T09:30:34.482Z</time>
      </trkpt>
      <trkpt lat="50.55268" lon="3.3479">
        <ele>58.77</ele>
        <time>2023-05-12T09:30:34.627Z</time>
      </trkpt>
      <trkpt lat="50.55307" lon="3.34833">
        <ele>58.26</ele>
        <time>2023-05-12T09:30:34.780Z</time>
      </trkpt>
      <trkpt lat="50.55317" lon="3.3482">
        <ele>57.66</ele>
        <time>2023-05-12T09:30:34.935Z</time>
      </trkpt>
      <trkpt lat="50.55358" lon="3.34795">
        <ele>56.77</ele>
        <time>2023-05-12T09:30:35.097Z</time>
      </trkpt>
      <trkpt lat="50.55365" lon="3.34793">
        <ele>56.02</ele>
        <time>2023-05-12T09:30:35.260Z</time>
      </trkpt>
      <trkpt lat="50.55414" lon="3.34794">
        <ele>54.96</ele>
        <time>2023-05-12T09:30:35.431Z</time>
      </trkpt>
      <trkpt lat="50.55444" lon="3.34787">
        <ele>54.13</ele>
        <time>2023-05-12T09:30:35.606Z</time>
      </trkpt>
      <trkpt lat="50.55446" lon="3.34789">
        <ele>53.52</ele>
        <time>2023-05-12T09:30:35.782Z</time>
      </trkpt>
      <trkpt lat="50.55461" lon="3.34783">
        <ele>53.02</ele>
        <time>2023-05-12T09:30:35.960Z</time>
      </trkpt>
      <trkpt lat="50.55461" lon="3.34783">
        <ele>52.62</ele>
        <time>2023-05-12T09:30:36.138Z</time>
      </trkpt>
      <trkpt lat="50.55513" lon="3.3476">
        <ele>52.24</ele>
        <time>2023-05-12T09:30:36.325Z</time>
      </trkpt>
      <trkpt lat="50.55521" lon="3.34761">
        <ele>51.99</ele>
        <time>2023-05-12T09:30:36.513Z</time>
      </trkpt>
      <trkpt lat="50.55527" lon="3.34765">
        <ele>51.81</ele>
        <time>2023-05-12T09:30:36.702Z</time>
      </trkpt>
      <trkpt lat="50.55534" lon="3.34776">
        <ele>51.74</ele>
        <time>2023-05-12T09:30:36.893Z</time>
      </trkpt>
      <trkpt lat="50.55539" lon="3.34803">
        <ele>51.75</ele>
        <time>2023-05-12T09:30:37.087Z</time>
      </trkpt>
      <trkpt lat="50.55548" lon="3.34877">
        <ele>51.75</ele>
        <time>2023-05-12T09:30:37.288Z</time>
      </trkpt>
      <trkpt lat="50.55551" lon="3.34888">
        <ele>51.84</ele>
        <time>2023-05-12T09:30:37.491Z</time>
      </trkpt>
      <trkpt lat="50.55555" lon="3.34897">
        <ele>51.98</ele>
        <time>2023-05-12T09:30:37.695Z</time>
      </trkpt>
      <trkpt lat="50.55562" lon="3.34906">
        <ele>52.18</ele>
        <time>2023-05-12T09:30:37.900Z</time>
      </trkpt>
      <trkpt lat="50.55576" lon="3.34915">
        <ele>52.43</ele>
        <time>2023-05-12T09:30:38.108Z</time>
      </trkpt>
      <trkpt lat="50.55583" lon="3.34921">
        <ele>52.5</ele>
        <time>2023-05-12T09:30:38.317Z</time>
      </trkpt>
      <trkpt lat="50.55628" lon="3.34924">
        <ele>52.29</ele>
        <time>2023-05-12T09:30:38.533Z</time>
      </trkpt>
      <trkpt lat="50.55697" lon="3.34946">
        <ele>52.05</ele>
        <time>2023-05-12T09:30:38.760Z</time>
      </trkpt>
      <trkpt lat="50.55697" lon="3.34946">
        <ele>52.06</ele>
        <time>2023-05-12T09:30:38.987Z</time>
      </trkpt>
      <trkpt lat="50.55745" lon="3.3496">
        <ele>50.09</ele>
        <time>2023-05-12T09:30:39.222Z</time>
      </trkpt>
      <trkpt lat="50.55745" lon="3.3496">
        <ele>50.08</ele>
        <time>2023-05-12T09:30:39.457Z</time>
      </trkpt>
      <trkpt lat="50.55745" lon="3.3496">
        <ele>50.08</ele>
        <time>2023-05-12T09:30:39.692Z</time>
      </trkpt>
      <trkpt lat="50.55745" lon="3.3496">
        <ele>50.08</ele>
        <time>2023-05-12T09:30:39.927Z</time>
      </trkpt>
      <trkpt lat="50.55745" lon="3.3496">
        <ele>50.08</ele>
        <time>2023-05-12T09:30:40.162Z</time>
      </trkpt>
      <trkpt lat="50.55881" lon="3.34999">
        <ele>48.28</ele>
        <time>2023-05-12T09:30:40.419Z</time>
      </trkpt>
      <trkpt lat="50.55892" lon="3.35006">
        <ele>47.75</ele>
        <time>2023-05-12T09:30:40.678Z</time>
      </trkpt>
      <trkpt lat="50.55908" lon="3.35018">
        <ele>47.58</ele>
        <time>2023-05-12T09:30:40.940Z</time>
      </trkpt>
      <trkpt lat="50.55921" lon="3.35037">
        <ele>47.66</ele>
        <time>2023-05-12T09:30:41.205Z</time>
      </trkpt>
      <trkpt lat="50.55917" lon="3.35057">
        <ele>47.98</ele>
        <time>2023-05-12T09:30:41.472Z</time>
      </trkpt>
      <trkpt lat="50.55905" lon="3.35167">
        <ele>48.74</ele>
        <time>2023-05-12T09:30:41.750Z</time>
      </trkpt>
      <trkpt lat="50.55896" lon="3.35226">
        <ele>49.71</ele>
        <time>2023-05-12T09:30:42.035Z</time>
      </trkpt>
      <trkpt lat="50.55888" lon="3.35289">
        <ele>50.9</ele>
        <time>2023-05-12T09:30:42.326Z</time>
      </trkpt>
      <trkpt lat="50.5588" lon="3.35367">
        <ele>52.19</ele>
        <time>2023-05-12T09:30:42.625Z</time>
      </trkpt>
      <trkpt lat="50.55876" lon="3.35462">
        <ele>53.91</ele>
        <time>2023-05-12T09:30:42.934Z</time>
      </trkpt>
      <trkpt lat="50.55879" lon="3.35799">
        <ele>57.3</ele>
        <time>2023-05-12T09:30:43.277Z</time>
      </trkpt>
      <trkpt lat="50.55883" lon="3.359">
        <ele>61.82</ele>
        <time>2023-05-12T09:30:43.631Z</time>
      </trkpt>
      <trkpt lat="50.55883" lon="3.359">
        <ele>61.82</ele>
        <time>2023-05-12T09:30:43.985Z</time>
      </trkpt>
      <trkpt lat="50.55883" lon="3.359">
        <ele>61.83</ele>
        <time>2023-05-12T09:30:44.339Z</time>
      </trkpt>
      <trkpt lat="50.55883" lon="3.35899">
        <ele>61.85</ele>
        <time>2023-05-12T09:30:44.693Z</time>
      </trkpt>
      <trkpt lat="50.55883" lon="3.359">
        <ele>61.89</ele>
        <time>2023-05-12T09:30:45.047Z</time>
      </trkpt>
      <trkpt lat="50.55883" lon="3.35899">
        <ele>61.9</ele>
        <time>2023-05-12T09:30:45.401Z</time>
      </trkpt>
      <trkpt lat="50.55888" lon="3.36021">
        <ele>63.11</ele>
        <time>2023-05-12T09:30:45.767Z</time>
      </trkpt>
      <trkpt lat="50.55893" lon="3.36112">
        <ele>63.98</ele>
        <time>2023-05-12T09:30:46.143Z</time>
      </trkpt>
      <trkpt lat="50.55895" lon="3.36179">
        <ele>64.63</ele>
        <time>2023-05-12T09:30:46.526Z</time>
      </trkpt>
      <trkpt lat="50.55892" lon="3.36207">
        <ele>65.04</ele>
        <time>2023-05-12T09:30:46.911Z</time>
      </trkpt>
      <trkpt lat="50.55887" lon="3.36239">
        <ele>65.36</ele>
        <time>2023-05-12T09:30:47.300Z</time>
      </trkpt>
      <trkpt lat="50.55828" lon="3.36467">
        <ele>66.07</ele>
        <time>2023-05-12T09:30:47.714Z</time>
      </trkpt>
      <trkpt lat="50.55774" lon="3.36646">
        <ele>65.98</ele>
        <time>2023-05-12T09:30:48.148Z</time>
      </trkpt>
      <trkpt lat="50.55771" lon="3.36663">
        <ele>65.91</ele>
        <time>2023-05-12T09:30:48.584Z</time>
      </trkpt>
      <trkpt lat="50.55773" lon="3.36684">
        <ele>66.16</ele>
        <time>2023-05-12T09:30:49.022Z</time>
      </trkpt>
      <trkpt lat="50.55779" lon="3.36697">
        <ele>66.56</ele>
        <time>2023-05-12T09:30:49.462Z</time>
      </trkpt>
      <trkpt lat="50.55874" lon="3.36834">
        <ele>67.5</ele>
        <time>2023-05-12T09:30:49.922Z</time>
      </trkpt>
      <trkpt lat="50.55882" lon="3.36841">
        <ele>67.85</ele>
        <time>2023-05-12T09:30:50.384Z</time>
      </trkpt>
      <trkpt lat="50.55894" lon="3.36844">
        <ele>68.13</ele>
        <time>2023-05-12T09:30:50.848Z</time>
      </trkpt>
      <trkpt lat="50.559" lon="3.36848">
        <ele>68.19</ele>
        <time>2023-05-12T09:30:51.313Z</time>
      </trkpt>
      <trkpt lat="50.55908" lon="3.36848">
        <ele>68.06</ele>
        <time>2023-05-12T09:30:51.779Z</time>
      </trkpt>
      <trkpt lat="50.55917" lon="3.36852">
        <ele>67.52</ele>
        <time>2023-05-12T09:30:52.247Z</time>
      </trkpt>
      <trkpt lat="50.56145" lon="3.3717">
        <ele>65.53</ele>
        <time>2023-05-12T09:30:52.763Z</time>
      </trkpt>
      <trkpt lat="50.56145" lon="3.3717">
        <ele>65.53</ele>
        <time>2023-05-12T09:30:53.279Z</time>
      </trkpt>
      <trkpt lat="50.56145" lon="3.3717">
        <ele>65.53</ele>
        <time>2023-05-12T09:30:53.795Z</time>
      </trkpt>
      <trkpt lat="50.56145" lon="3.3717">
        <ele>65.53</ele>
        <time>2023-05-12T09:30:54.312Z</time>
      </trkpt>
      <trkpt lat="50.56145" lon="3.3717">
        <ele>65.53</ele>
        <time>2023-05-12T09:30:54.829Z</time>
      </trkpt>
      <trkpt lat="50.56187" lon="3.37229">
        <ele>65.44</ele>
        <time>2023-05-12T09:30:55.355Z</time>
      </trkpt>
      <trkpt lat="50.56199" lon="3.3725">
        <ele>65.44</ele>
        <time>2023-05-12T09:30:55.884Z</time>
      </trkpt>
      <trkpt lat="50.56206" lon="3.3727">
        <ele>65.62</ele>
        <time>2023-05-12T09:30:56.415Z</time>
      </trkpt>
      <trkpt lat="50.56213" lon="3.37334">
        <ele>65.63</ele>
        <time>2023-05-12T09:30:56.952Z</time>
      </trkpt>
      <trkpt lat="50.56216" lon="3.37349">
        <ele>65.23</ele>
        <time>2023-05-12T09:30:57.491Z</time>
      </trkpt>
      <trkpt lat="50.56221" lon="3.37356">
        <ele>64.48</ele>
        <time>2023-05-12T09:30:58.031Z</time>
      </trkpt>
      <trkpt lat="50.56239" lon="3.37368">
        <ele>63.39</ele>
        <time>2023-05-12T09:30:58.574Z</time>
      </trkpt>
      <trkpt lat="50.56193" lon="3.37455">
        <ele>61.83</ele>
        <time>2023-05-12T09:30:59.129Z</time>
      </trkpt>
      <trkpt lat="50.56126" lon="3.37544">
        <ele>59.03</ele>
        <time>2023-05-12T09:30:59.698Z</time>
      </trkpt>
      <trkpt lat="50.55896" lon="3.37821">
        <ele>54.99</ele>
        <time>2023-05-12T09:31:00.313Z</time>
      </trkpt>
      <trkpt lat="50.55869" lon="3.37866">
        <ele>52.51</ele>
        <time>2023-05-12T09:31:00.935Z</time>
      </trkpt>
      <trkpt lat="50.5584" lon="3.37928">
        <ele>50.28</ele>
        <time>2023-05-12T09:31:01.564Z</time>
      </trkpt>
      <trkpt lat="50.55812" lon="3.37998">
        <ele>48.34</ele>
        <time>2023-05-12T09:31:02.202Z</time>
      </trkpt>
      <trkpt lat="50.55776" lon="3.38065">
        <ele>46.18</ele>
        <time>2023-05-12T09:31:02.849Z</time>
      </trkpt>
      <trkpt lat="50.55737" lon="3.38139">
        <ele>44.64</ele>
        <time>2023-05-12T09:31:03.506Z</time>
      </trkpt>
      <trkpt lat="50.5568" lon="3.38243">
        <ele>43.27</ele>
        <time>2023-05-12T09:31:04.177Z</time>
      </trkpt>
      <trkpt lat="50.55646" lon="3.38302">
        <ele>42.39</ele>
        <time>2023-05-12T09:31:04.856Z</time>
      </trkpt>
      <trkpt lat="50.5564" lon="3.38315">
        <ele>42.04</ele>
        <time>2023-05-12T09:31:05.536Z</time>
      </trkpt>
      <trkpt lat="50.5564" lon="3.38315">
        <ele>42.04</ele>
        <time>2023-05-12T09:31:06.216Z</time>
      </trkpt>
      <trkpt lat="50.5564" lon="3.38316">
        <ele>42.03</ele>
        <time>2023-05-12T09:31:06.896Z</time>
      </trkpt>
      <trkpt lat="50.5564" lon="3.38316">
        <ele>42.03</ele>
        <time>2023-05-12T09:31:07.576Z</time>
      </trkpt>
      <trkpt lat="50.5564" lon="3.38316">
        <ele>42.33</ele>
        <time>2023-05-12T09:31:08.256Z</time>
      </trkpt>
      <trkpt lat="50.55624" lon="3.38348">
        <ele>41.51</ele>
        <time>2023-05-12T09:31:08.941Z</time>
      </trkpt>
      <trkpt lat="50.55624" lon="3.38348">
        <ele>40.74</ele>
        <time>2023-05-12T09:31:09.626Z</time>
      </trkpt>
      <trkpt lat="50.55594" lon="3.3841">
        <ele>39.23</ele>
        <time>2023-05-12T09:31:10.318Z</time>
      </trkpt>
      <trkpt lat="50.55503" lon="3.38637">
        <ele>37.75</ele>
        <time>2023-05-12T09:31:11.038Z</time>
      </trkpt>
      <trkpt lat="50.55461" lon="3.38747">
        <ele>36.93</ele>
        <time>2023-05-12T09:31:11.771Z</time>
      </trkpt>
      <trkpt lat="50.55355" lon="3.38973">
        <ele>35.87</ele>
        <time>2023-05-12T09:31:12.533Z</time>
      </trkpt>
      <trkpt lat="50.55343" lon="3.38997">
        <ele>35.16</ele>
        <time>2023-05-12T09:31:13.298Z</time>
      </trkpt>
      <trkpt lat="50.5534" lon="3.39007">
        <ele>34.63</ele>
        <time>2023-05-12T09:31:14.064Z</time>
      </trkpt>
      <trkpt lat="50.55337" lon="3.39011">
        <ele>34.21</ele>
        <time>2023-05-12T09:31:14.830Z</time>
      </trkpt>
      <trkpt lat="50.55326" lon="3.3903">
        <ele>33.77</ele>
        <time>2023-05-12T09:31:15.599Z</time>
      </trkpt>
      <trkpt lat="50.55317" lon="3.39038">
        <ele>33.43</ele>
        <time>2023-05-12T09:31:16.370Z</time>
      </trkpt>
      <trkpt lat="50.55312" lon="3.39036">
        <ele>33.23</ele>
        <time>2023-05-12T09:31:17.142Z</time>
      </trkpt>
      <trkpt lat="50.55307" lon="3.3904">
        <ele>33.14</ele>
        <time>2023-05-12T09:31:17.914Z</time>
      </trkpt>
      <trkpt lat="50.55306" lon="3.39051">
        <ele>33.21</ele>
        <time>2023-05-12T09:31:18.687Z</time>
      </trkpt>
      <trkpt lat="50.55311" lon="3.39058">
        <ele>33.42</ele>
        <time>2023-05-12T09:31:19.462Z</time>
      </trkpt>
      <trkpt lat="50.55307" lon="3.39087">
        <ele>33.68</ele>
        <time>2023-05-12T09:31:20.240Z</time>
      </trkpt>
      <trkpt lat="50.55257" lon="3.39262">
        <ele>34.15</ele>
        <time>2023-05-12T09:31:21.037Z</time>
      </trkpt>
      <trkpt lat="50.55243" lon="3.39295">
        <ele>34.71</ele>
        <time>2023-05-12T09:31:21.838Z</time>
      </trkpt>
      <trkpt lat="50.55058" lon="3.39587">
        <ele>34.71</ele>
        <time>2023-05-12T09:31:22.681Z</time>
      </trkpt>
      <trkpt lat="50.55043" lon="3.39618">
        <ele>34.83</ele>
        <time>2023-05-12T09:31:23.528Z</time>
      </trkpt>
      <trkpt lat="50.55031" lon="3.3965">
        <ele>34.99</ele>
        <time>2023-05-12T09:31:24.379Z</time>
      </trkpt>
      <trkpt lat="50.55017" lon="3.39699">
        <ele>34.98</ele>
        <time>2023-05-12T09:31:25.235Z</time>
      </trkpt>
      <trkpt lat="50.55012" lon="3.39719">
        <ele>34.79</ele>
        <time>2023-05-12T09:31:26.094Z</time>
      </trkpt>
      <trkpt lat="50.55149" lon="3.39847">
        <ele>34.22</ele>
        <time>2023-05-12T09:31:26.978Z</time>
      </trkpt>
      <trkpt lat="50.55267" lon="3.39956">
        <ele>32.86</ele>
        <time>2023-05-12T09:31:27.884Z</time>
      </trkpt>
      <trkpt lat="50.55267" lon="3.39956">
        <ele>32.86</ele>
        <time>2023-05-12T09:31:28.790Z</time>
      </trkpt>
      <trkpt lat="50.55267" lon="3.39956">
        <ele>32.86</ele>
        <time>2023-05-12T09:31:29.696Z</time>
      </trkpt>
      <trkpt lat="50.55267" lon="3.39957">
        <ele>32.86</ele>
        <time>2023-05-12T09:31:30.602Z</time>
      </trkpt>
      <trkpt lat="50.55267" lon="3.39956">
        <ele>32.86</ele>
        <time>2023-05-12T09:31:31.508Z</time>
      </trkpt>
      <trkpt lat="50.55351" lon="3.40034">
        <ele>32.83</ele>
        <time>2023-05-12T09:31:32.430Z</time>
      </trkpt>
      <trkpt lat="50.55372" lon="3.40064">
        <ele>33.17</ele>
        <time>2023-05-12T09:31:33.356Z</time>
      </trkpt>
      <trkpt lat="50.55396" lon="3.40037">
        <ele>33.6</ele>
        <time>2023-05-12T09:31:34.287Z</time>
      </trkpt>
      <trkpt lat="50.55413" lon="3.40037">
        <ele>33.97</ele>
        <time>2023-05-12T09:31:35.221Z</time>
      </trkpt>
      <trkpt lat="50.55516" lon="3.40117">
        <ele>35.51</ele>
        <time>2023-05-12T09:31:36.173Z</time>
      </trkpt>
      <trkpt lat="50.55533" lon="3.40141">
        <ele>35.98</ele>
        <time>2023-05-12T09:31:37.129Z</time>
      </trkpt>
      <trkpt lat="50.55519" lon="3.40172">
        <ele>35.83</ele>
        <time>2023-05-12T09:31:38.089Z</time>
      </trkpt>
      <trkpt lat="50.55477" lon="3.40283">
        <ele>34.98</ele>
        <time>2023-05-12T09:31:39.062Z</time>
      </trkpt>
      <trkpt lat="50.55454" lon="3.40384">
        <ele>33.75</ele>
        <time>2023-05-12T09:31:40.046Z</time>
      </trkpt>
      <trkpt lat="50.55438" lon="3.40459">
        <ele>32.56</ele>
        <time>2023-05-12T09:31:41.038Z</time>
      </trkpt>
      <trkpt lat="50.55426" lon="3.40533">
        <ele>31.42</ele>
        <time>2023-05-12T09:31:42.038Z</time>
      </trkpt>
      <trkpt lat="50.55423" lon="3.40635">
        <ele>29.99</ele>
        <time>2023-05-12T09:31:43.048Z</time>
      </trkpt>
      <trkpt lat="50.55423" lon="3.40685">
        <ele>29.14</ele>
        <time>2023-05-12T09:31:44.063Z</time>
      </trkpt>
      <trkpt lat="50.5544" lon="3.40777">
        <ele>28.78</ele>
        <time>2023-05-12T09:31:45.088Z</time>
      </trkpt>
      <trkpt lat="50.55459" lon="3.40862">
        <ele>29.05</ele>
        <time>2023-05-12T09:31:46.122Z</time>
      </trkpt>
      <trkpt lat="50.55491" lon="3.40865">
        <ele>30.35</ele>
        <time>2023-05-12T09:31:47.161Z</time>
      </trkpt>
      <trkpt lat="50.55797" lon="3.40766">
        <ele>34.06</ele>
        <time>2023-05-12T09:31:48.250Z</time>
      </trkpt>
      <trkpt lat="50.55872" lon="3.40738">
        <ele>35.67</ele>
        <time>2023-05-12T09:31:49.352Z</time>
      </trkpt>
      <trkpt lat="50.55896" lon="3.40728">
        <ele>36.95</ele>
        <time>2023-05-12T09:31:50.458Z</time>
      </trkpt>
      <trkpt lat="50.55896" lon="3.40728">
        <ele>36.95</ele>
        <time>2023-05-12T09:31:51.564Z</time>
      </trkpt>
      <trkpt lat="50.55896" lon="3.40728">
        <ele>36.96</ele>
        <time>2023-05-12T09:31:52.670Z</time>
      </trkpt>
      <trkpt lat="50.55896" lon="3.40728">
        <ele>36.99</ele>
        <time>2023-05-12T09:31:53.776Z</time>
      </trkpt>
      <trkpt lat="50.55896" lon="3.40728">
        <ele>37</ele>
        <time>2023-05-12T09:31:54.882Z</time>
      </trkpt>
      <trkpt lat="50.55926" lon="3.40716">
        <ele>40.04</ele>
        <time>2023-05-12T09:31:55.993Z</time>
      </trkpt>
      <trkpt lat="50.55961" lon="3.40698">
        <ele>40.49</ele>
        <time>2023-05-12T09:31:57.109Z</time>
      </trkpt>
      <trkpt lat="50.55961" lon="3.40698">
        <ele>40.87</ele>
        <time>2023-05-12T09:31:58.225Z</time>
      </trkpt>
      <trkpt lat="50.56017" lon="3.40676">
        <ele>41.49</ele>
        <time>2023-05-12T09:31:59.351Z</time>
      </trkpt>
      <trkpt lat="50.56024" lon="3.40673">
        <ele>42.4</ele>
        <time>2023-05-12T09:32:00.478Z</time>
      </trkpt>
      <trkpt lat="50.56024" lon="3.40673">
        <ele>43.51</ele>
        <time>2023-05-12T09:32:01.605Z</time>
      </trkpt>
      <trkpt lat="50.56171" lon="3.40617">
        <ele>45.86</ele>
        <time>2023-05-12T09:32:02.756Z</time>
      </trkpt>
      <trkpt lat="50.5625" lon="3.4059">
        <ele>47.87</ele>
        <time>2023-05-12T09:32:03.920Z</time>
      </trkpt>
      <trkpt lat="50.56313" lon="3.40575">
        <ele>50.55</ele>
        <time>2023-05-12T09:32:05.094Z</time>
      </trkpt>
      <trkpt lat="50.56355" lon="3.40823">
        <ele>53.64</ele>
        <time>2023-05-12T09:32:06.294Z</time>
      </trkpt>
      <trkpt lat="50.56389" lon="3.41029">
        <ele>56.68</ele>
        <time>2023-05-12T09:32:07.516Z</time>
      </trkpt>
      <trkpt lat="50.56389" lon="3.41028">
        <ele>56.69</ele>
        <time>2023-05-12T09:32:08.738Z</time>
      </trkpt>
      <trkpt lat="50.56389" lon="3.41028">
        <ele>56.7</ele>
        <time>2023-05-12T09:32:09.960Z</time>
      </trkpt>
      <trkpt lat="50.56389" lon="3.41028">
        <ele>56.73</ele>
        <time>2023-05-12T09:32:11.182Z</time>
      </trkpt>
      <trkpt lat="50.56389" lon="3.41028">
        <ele>56.74</ele>
        <time>2023-05-12T09:32:12.404Z</time>
      </trkpt>
      <trkpt lat="50.56389" lon="3.41028">
        <ele>59.83</ele>
        <time>2023-05-12T09:32:13.626Z</time>
      </trkpt>
      <trkpt lat="50.56389" lon="3.41028">
        <ele>60.07</ele>
        <time>2023-05-12T09:32:14.848Z</time>
      </trkpt>
      <trkpt lat="50.56415" lon="3.41183">
        <ele>60.09</ele>
        <time>2023-05-12T09:32:16.087Z</time>
      </trkpt>
      <trkpt lat="50.56415" lon="3.41183">
        <ele>59.88</ele>
        <time>2023-05-12T09:32:17.326Z</time>
      </trkpt>
      <trkpt lat="50.56421" lon="3.41208">
        <ele>59.61</ele>
        <time>2023-05-12T09:32:18.567Z</time>
      </trkpt>
      <trkpt lat="50.56555" lon="3.41594">
        <ele>58.61</ele>
        <time>2023-05-12T09:32:19.853Z</time>
      </trkpt>
      <trkpt lat="50.56527" lon="3.41607">
        <ele>57.96</ele>
        <time>2023-05-12T09:32:21.144Z</time>
      </trkpt>
      <trkpt lat="50.565" lon="3.41605">
        <ele>57.16</ele>
        <time>2023-05-12T09:32:22.439Z</time>
      </trkpt>
      <trkpt lat="50.56433" lon="3.41585">
        <ele>55.86</ele>
        <time>2023-05-12T09:32:23.745Z</time>
      </trkpt>
      <trkpt lat="50.5641" lon="3.4158">
        <ele>54.75</ele>
        <time>2023-05-12T09:32:25.055Z</time>
      </trkpt>
      <trkpt lat="50.56326" lon="3.41588">
        <ele>53.27</ele>
        <time>2023-05-12T09:32:26.379Z</time>
      </trkpt>
      <trkpt lat="50.56297" lon="3.41595">
        <ele>51.97</ele>
        <time>2023-05-12T09:32:27.707Z</time>
      </trkpt>
      <trkpt lat="50.56279" lon="3.41605">
        <ele>50.72</ele>
        <time>2023-05-12T09:32:29.038Z</time>
      </trkpt>
      <trkpt lat="50.56257" lon="3.41621">
        <ele>49.2</ele>
        <time>2023-05-12T09:32:30.373Z</time>
      </trkpt>
      <trkpt lat="50.56233" lon="3.41642">
        <ele>47.64</ele>
        <time>2023-05-12T09:32:31.712Z</time>
      </trkpt>
      <trkpt lat="50.56212" lon="3.41651">
        <ele>46.3</ele>
        <time>2023-05-12T09:32:33.055Z</time>
      </trkpt>
      <trkpt lat="50.56199" lon="3.41655">
        <ele>44.95</ele>
        <time>2023-05-12T09:32:34.400Z</time>
      </trkpt>
      <trkpt lat="50.56175" lon="3.41659">
        <ele>43.66</ele>
        <time>2023-05-12T09:32:35.749Z</time>
      </trkpt>
      <trkpt lat="50.56158" lon="3.41666">
        <ele>42.28</ele>
        <time>2023-05-12T09:32:37.101Z</time>
      </trkpt>
      <trkpt lat="50.56051" lon="3.41747">
        <ele>40.22</ele>
        <time>2023-05-12T09:32:38.472Z</time>
      </trkpt>
      <trkpt lat="50.56039" lon="3.41758">
        <ele>38.75</ele>
        <time>2023-05-12T09:32:39.845Z</time>
      </trkpt>
      <trkpt lat="50.56029" lon="3.41772">
        <ele>37.33</ele>
        <time>2023-05-12T09:32:41.220Z</time>
      </trkpt>
      <trkpt lat="50.56023" lon="3.41783">
        <ele>35.86</ele>
        <time>2023-05-12T09:32:42.597Z</time>
      </trkpt>
      <trkpt lat="50.56015" lon="3.41814">
        <ele>34.27</ele>
        <time>2023-05-12T09:32:43.977Z</time>
      </trkpt>
      <trkpt lat="50.56013" lon="3.41871">
        <ele>32.67</ele>
        <time>2023-05-12T09:32:45.363Z</time>
      </trkpt>
      <trkpt lat="50.56013" lon="3.41871">
        <ele>32.67</ele>
        <time>2023-05-12T09:32:46.749Z</time>
      </trkpt>
      <trkpt lat="50.56013" lon="3.41871">
        <ele>32.67</ele>
        <time>2023-05-12T09:32:48.135Z</time>
      </trkpt>
      <trkpt lat="50.56012" lon="3.41872">
        <ele>32.62</ele>
        <time>2023-05-12T09:32:49.521Z</time>
      </trkpt>
      <trkpt lat="50.56012" lon="3.41872">
        <ele>32.62</ele>
        <time>2023-05-12T09:32:50.907Z</time>
      </trkpt>
      <trkpt lat="50.55999" lon="3.42122">
        <ele>29.47</ele>
        <time>2023-05-12T09:32:52.319Z</time>
      </trkpt>
      <trkpt lat="50.56" lon="3.42214">
        <ele>28.76</ele>
        <time>2023-05-12T09:32:53.740Z</time>
      </trkpt>
      <trkpt lat="50.55989" lon="3.42317">
        <ele>29.21</ele>
        <time>2023-05-12T09:32:55.172Z</time>
      </trkpt>
      <trkpt lat="50.55983" lon="3.42332">
        <ele>29.13</ele>
        <time>2023-05-12T09:32:56.606Z</time>
      </trkpt>
      <trkpt lat="50.55975" lon="3.42352">
        <ele>28.74</ele>
        <time>2023-05-12T09:32:58.042Z</time>
      </trkpt>
      <trkpt lat="50.55958" lon="3.42367">
        <ele>28.05</ele>
        <time>2023-05-12T09:32:59.481Z</time>
      </trkpt>
      <trkpt lat="50.55947" lon="3.42382">
        <ele>27.7</ele>
        <time>2023-05-12T09:33:00.922Z</time>
      </trkpt>
      <trkpt lat="50.55947" lon="3.42382">
        <ele>27.45</ele>
        <time>2023-05-12T09:33:02.363Z</time>
      </trkpt>
      <trkpt lat="50.55946" lon="3.42427">
        <ele>27.52</ele>
        <time>2023-05-12T09:33:03.809Z</time>
      </trkpt>
      <trkpt lat="50.55941" lon="3.42474">
        <ele>27.38</ele>
        <time>2023-05-12T09:33:05.260Z</time>
      </trkpt>
      <trkpt lat="50.55946" lon="3.42493">
        <ele>27.25</ele>
        <time>2023-05-12T09:33:06.713Z</time>
      </trkpt>
      <trkpt lat="50.5595" lon="3.42503">
        <ele>27.2</ele>
        <time>2023-05-12T09:33:08.167Z</time>
      </trkpt>
      <trkpt lat="50.55951" lon="3.42511">
        <ele>27.18</ele>
        <time>2023-05-12T09:33:09.622Z</time>
      </trkpt>
      <trkpt lat="50.55946" lon="3.42516">
        <ele>27.14</ele>
        <time>2023-05-12T09:33:11.078Z</time>
      </trkpt>
      <trkpt lat="50.5594" lon="3.42528">
        <ele>27.1</ele>
        <time>2023-05-12T09:33:12.535Z</time>
      </trkpt>
      <trkpt lat="50.55937" lon="3.42548">
        <ele>27.08</ele>
        <time>2023-05-12T09:33:13.995Z</time>
      </trkpt>
      <trkpt lat="50.55937" lon="3.4256">
        <ele>27.04</ele>
        <time>2023-05-12T09:33:15.456Z</time>
      </trkpt>
      <trkpt lat="50.55939" lon="3.42567">
        <ele>26.99</ele>
        <time>2023-05-12T09:33:16.918Z</time>
      </trkpt>
      <trkpt lat="50.55943" lon="3.42576">
        <ele>26.94</ele>
        <time>2023-05-12T09:33:18.381Z</time>
      </trkpt>
      <trkpt lat="50.55948" lon="3.42586">
        <ele>26.89</ele>
        <time>2023-05-12T09:33:19.845Z</time>
      </trkpt>
      <trkpt lat="50.55955" lon="3.42592">
        <ele>26.84</ele>
        <time>2023-05-12T09:33:21.310Z</time>
      </trkpt>
      <trkpt lat="50.55963" lon="3.42595">
        <ele>26.76</ele>
        <time>2023-05-12T09:33:22.777Z</time>
      </trkpt>
      <trkpt lat="50.55973" lon="3.42594">
        <ele>26.64</ele>
        <time>2023-05-12T09:33:24.245Z</time>
      </trkpt>
      <trkpt lat="50.55979" lon="3.42591">
        <ele>26.41</ele>
        <time>2023-05-12T09:33:25.714Z</time>
      </trkpt>
      <trkpt lat="50.55982" lon="3.42595">
        <ele>26.1</ele>
        <time>2023-05-12T09:33:27.184Z</time>
      </trkpt>
      <trkpt lat="50.5599" lon="3.4262">
        <ele>25.66</ele>
        <time>2023-05-12T09:33:28.657Z</time>
      </trkpt>
      <trkpt lat="50.5599" lon="3.4262">
        <ele>25.21</ele>
        <time>2023-05-12T09:33:30.130Z</time>
      </trkpt>
      <trkpt lat="50.55989" lon="3.42629">
        <ele>24.67</ele>
        <time>2023-05-12T09:33:31.604Z</time>
      </trkpt>
      <trkpt lat="50.55932" lon="3.42685">
        <ele>23.86</ele>
        <time>2023-05-12T09:33:33.088Z</time>
      </trkpt>
      <trkpt lat="50.55924" lon="3.42705">
        <ele>23.24</ele>
        <time>2023-05-12T09:33:34.575Z</time>
      </trkpt>
      <trkpt lat="50.55921" lon="3.42723">
        <ele>22.6</ele>
        <time>2023-05-12T09:33:36.064Z</time>
      </trkpt>
      <trkpt lat="50.55925" lon="3.42775">
        <ele>21.83</ele>
        <time>2023-05-12T09:33:37.558Z</time>
      </trkpt>
      <trkpt lat="50.55922" lon="3.42914">
        <ele>21.12</ele>
        <time>2023-05-12T09:33:39.066Z</time>
      </trkpt>
      <trkpt lat="50.55919" lon="3.42929">
        <ele>20.58</ele>
        <time>2023-05-12T09:33:40.576Z</time>
      </trkpt>
      <trkpt lat="50.55916" lon="3.4294">
        <ele>20.13</ele>
        <time>2023-05-12T09:33:42.087Z</time>
      </trkpt>
      <trkpt lat="50.55895" lon="3.42968">
        <ele>19.67</ele>
        <time>2023-05-12T09:33:43.602Z</time>
      </trkpt>
      <trkpt lat="50.55884" lon="3.42978">
        <ele>19.43</ele>
        <time>2023-05-12T09:33:45.120Z</time>
      </trkpt>
      <trkpt lat="50.55894" lon="3.43012">
        <ele>19.29</ele>
        <time>2023-05-12T09:33:46.641Z</time>
      </trkpt>
      <trkpt lat="50.55909" lon="3.43041">
        <ele>19.3</ele>
        <time>2023-05-12T09:33:48.166Z</time>
      </trkpt>
      <trkpt lat="50.55966" lon="3.43148">
        <ele>19.37</ele>
        <time>2023-05-12T09:33:49.705Z</time>
      </trkpt>
      <trkpt lat="50.55966" lon="3.43148">
        <ele>19.51</ele>
        <time>2023-05-12T09:33:51.244Z</time>
      </trkpt>
      <trkpt lat="50.56006" lon="3.43224">
        <ele>19.77</ele>
        <time>2023-05-12T09:33:52.793Z</time>
      </trkpt>
      <trkpt lat="50.56082" lon="3.43394">
        <ele>20.07</ele>
        <time>2023-05-12T09:33:54.364Z</time>
      </trkpt>
      <trkpt lat="50.56206" lon="3.43653">
        <ele>20.99</ele>
        <time>2023-05-12T09:33:55.968Z</time>
      </trkpt>
      <trkpt lat="50.56255" lon="3.43748">
        <ele>20.56</ele>
        <time>2023-05-12T09:33:57.584Z</time>
      </trkpt>
      <trkpt lat="50.56278" lon="3.43786">
        <ele>20.48</ele>
        <time>2023-05-12T09:33:59.206Z</time>
      </trkpt>
      <trkpt lat="50.56352" lon="3.43888">
        <ele>20.85</ele>
        <time>2023-05-12T09:34:00.843Z</time>
      </trkpt>
      <trkpt lat="50.56379" lon="3.43916">
        <ele>20.99</ele>
        <time>2023-05-12T09:34:02.485Z</time>
      </trkpt>
      <trkpt lat="50.56379" lon="3.43916">
        <ele>20.99</ele>
        <time>2023-05-12T09:34:04.127Z</time>
      </trkpt>
      <trkpt lat="50.56379" lon="3.43916">
        <ele>21</ele>
        <time>2023-05-12T09:34:05.769Z</time>
      </trkpt>
      <trkpt lat="50.5638" lon="3.43917">
        <ele>21.01</ele>
        <time>2023-05-12T09:34:07.412Z</time>
      </trkpt>
      <trkpt lat="50.5638" lon="3.43917">
        <ele>21.02</ele>
        <time>2023-05-12T09:34:09.055Z</time>
      </trkpt>
      <trkpt lat="50.5638" lon="3.43917">
        <ele>21.11</ele>
        <time>2023-05-12T09:34:10.698Z</time>
      </trkpt>
      <trkpt lat="50.56405" lon="3.43944">
        <ele>20.77</ele>
        <time>2023-05-12T09:34:12.345Z</time>
      </trkpt>
      <trkpt lat="50.56429" lon="3.43963">
        <ele>20.51</ele>
        <time>2023-05-12T09:34:13.997Z</time>
      </trkpt>
      <trkpt lat="50.56447" lon="3.43975">
        <ele>20.14</ele>
        <time>2023-05-12T09:34:15.652Z</time>
      </trkpt>
      <trkpt lat="50.56534" lon="3.44018">
        <ele>19.27</ele>
        <time>2023-05-12T09:34:17.322Z</time>
      </trkpt>
      <trkpt lat="50.56534" lon="3.44018">
        <ele>18.68</ele>
        <time>2023-05-12T09:34:18.992Z</time>
      </trkpt>
      <trkpt lat="50.56603" lon="3.44072">
        <ele>17.92</ele>
        <time>2023-05-12T09:34:20.674Z</time>
      </trkpt>
      <trkpt lat="50.56615" lon="3.44086">
        <ele>17.36</ele>
        <time>2023-05-12T09:34:22.358Z</time>
      </trkpt>
      <trkpt lat="50.5663" lon="3.44094">
        <ele>16.8</ele>
        <time>2023-05-12T09:34:24.045Z</time>
      </trkpt>
      <trkpt lat="50.56641" lon="3.44101">
        <ele>16.34</ele>
        <time>2023-05-12T09:34:25.734Z</time>
      </trkpt>
      <trkpt lat="50.56665" lon="3.44103">
        <ele>16.15</ele>
        <time>2023-05-12T09:34:27.427Z</time>
      </trkpt>
      <trkpt lat="50.56723" lon="3.44109">
        <ele>16.09</ele>
        <time>2023-05-12T09:34:29.129Z</time>
      </trkpt>
      <trkpt lat="50.5673" lon="3.44113">
        <ele>15.97</ele>
        <time>2023-05-12T09:34:30.832Z</time>
      </trkpt>
      <trkpt lat="50.56742" lon="3.44127">
        <ele>15.78</ele>
        <time>2023-05-12T09:34:32.537Z</time>
      </trkpt>
      <trkpt lat="50.56742" lon="3.44127">
        <ele>15.77</ele>
        <time>2023-05-12T09:34:34.242Z</time>
      </trkpt>
      <trkpt lat="50.56751" lon="3.4415">
        <ele>15.63</ele>
        <time>2023-05-12T09:34:35.950Z</time>
      </trkpt>
      <trkpt lat="50.56749" lon="3.44177">
        <ele>15.59</ele>
        <time>2023-05-12T09:34:37.661Z</time>
      </trkpt>
      <trkpt lat="50.56749" lon="3.44177">
        <ele>15.81</ele>
        <time>2023-05-12T09:34:39.372Z</time>
      </trkpt>
      <trkpt lat="50.56741" lon="3.44282">
        <ele>16.15</ele>
        <time>2023-05-12T09:34:41.094Z</time>
      </trkpt>
      <trkpt lat="50.56739" lon="3.44333">
        <ele>16.92</ele>
        <time>2023-05-12T09:34:42.821Z</time>
      </trkpt>
      <trkpt lat="50.56741" lon="3.44365">
        <ele>17.63</ele>
        <time>2023-05-12T09:34:44.551Z</time>
      </trkpt>
      <trkpt lat="50.56754" lon="3.44448">
        <ele>18.25</ele>
        <time>2023-05-12T09:34:46.290Z</time>
      </trkpt>
      <trkpt lat="50.56751" lon="3.44475">
        <ele>18.87</ele>
        <time>2023-05-12T09:34:48.032Z</time>
      </trkpt>
      <trkpt lat="50.56751" lon="3.44475">
        <ele>19.33</ele>
        <time>2023-05-12T09:34:49.774Z</time>
      </trkpt>
      <trkpt lat="50.5675" lon="3.44494">
        <ele>19.79</ele>
        <time>2023-05-12T09:34:51.518Z</time>
      </trkpt>
      <trkpt lat="50.56751" lon="3.44505">
        <ele>20.1</ele>
        <time>2023-05-12T09:34:53.263Z</time>
      </trkpt>
      <trkpt lat="50.56758" lon="3.44531">
        <ele>20.33</ele>
        <time>2023-05-12T09:34:55.011Z</time>
      </trkpt>
      <trkpt lat="50.56764" lon="3.44531">
        <ele>20.44</ele>
        <time>2023-05-12T09:34:56.760Z</time>
      </trkpt>
      <trkpt lat="50.56771" lon="3.44529">
        <ele>20.45</ele>
        <time>2023-05-12T09:34:58.510Z</time>
      </trkpt>
      <trkpt lat="50.56808" lon="3.44501">
        <ele>20.29</ele>
        <time>2023-05-12T09:35:00.266Z</time>
      </trkpt>
      <trkpt lat="50.56832" lon="3.44486">
        <ele>20.12</ele>
        <time>2023-05-12T09:35:02.027Z</time>
      </trkpt>
      <trkpt lat="50.56832" lon="3.44486">
        <ele>20.05</ele>
        <time>2023-05-12T09:35:03.788Z</time>
      </trkpt>
      <trkpt lat="50.56851" lon="3.44472">
        <ele>19.98</ele>
        <time>2023-05-12T09:35:05.552Z</time>
      </trkpt>
      <trkpt lat="50.56851" lon="3.44472">
        <ele>19.9</ele>
        <time>2023-05-12T09:35:07.316Z</time>
      </trkpt>
      <trkpt lat="50.56874" lon="3.4445">
        <ele>19.86</ele>
        <time>2023-05-12T09:35:09.084Z</time>
      </trkpt>
      <trkpt lat="50.56874" lon="3.4445">
        <ele>19.79</ele>
        <time>2023-05-12T09:35:10.852Z</time>
      </trkpt>
      <trkpt lat="50.56886" lon="3.44439">
        <ele>19.72</ele>
        <time>2023-05-12T09:35:12.622Z</time>
      </trkpt>
      <trkpt lat="50.56893" lon="3.44434">
        <ele>19.74</ele>
        <time>2023-05-12T09:35:14.394Z</time>
      </trkpt>
      <trkpt lat="50.56916" lon="3.44427">
        <ele>19.84</ele>
        <time>2023-05-12T09:35:16.169Z</time>
      </trkpt>
      <trkpt lat="50.56944" lon="3.44418">
        <ele>19.8</ele>
        <time>2023-05-12T09:35:17.949Z</time>
      </trkpt>
      <trkpt lat="50.56976" lon="3.4441">
        <ele>19.7</ele>
        <time>2023-05-12T09:35:19.734Z</time>
      </trkpt>
      <trkpt lat="50.56989" lon="3.44403">
        <ele>19.6</ele>
        <time>2023-05-12T09:35:21.521Z</time>
      </trkpt>
      <trkpt lat="50.56989" lon="3.44403">
        <ele>19.6</ele>
        <time>2023-05-12T09:35:23.308Z</time>
      </trkpt>
      <trkpt lat="50.5699" lon="3.44403">
        <ele>19.6</ele>
        <time>2023-05-12T09:35:25.096Z</time>
      </trkpt>
      <trkpt lat="50.5699" lon="3.44403">
        <ele>19.6</ele>
        <time>2023-05-12T09:35:26.884Z</time>
      </trkpt>
      <trkpt lat="50.57037" lon="3.44381">
        <ele>20.31</ele>
        <time>2023-05-12T09:35:28.679Z</time>
      </trkpt>
      <trkpt lat="50.57047" lon="3.44376">
        <ele>20.56</ele>
        <time>2023-05-12T09:35:30.476Z</time>
      </trkpt>
      <trkpt lat="50.5707" lon="3.44371">
        <ele>20.56</ele>
        <time>2023-05-12T09:35:32.277Z</time>
      </trkpt>
      <trkpt lat="50.57126" lon="3.44365">
        <ele>20.19</ele>
        <time>2023-05-12T09:35:34.087Z</time>
      </trkpt>
      <trkpt lat="50.57161" lon="3.44365">
        <ele>19.71</ele>
        <time>2023-05-12T09:35:35.902Z</time>
      </trkpt>
      <trkpt lat="50.57161" lon="3.44365">
        <ele>19.71</ele>
        <time>2023-05-12T09:35:37.717Z</time>
      </trkpt>
      <trkpt lat="50.57162" lon="3.44365">
        <ele>19.7</ele>
        <time>2023-05-12T09:35:39.533Z</time>
      </trkpt>
      <trkpt lat="50.57162" lon="3.44365">
        <ele>19.7</ele>
        <time>2023-05-12T09:35:41.349Z</time>
      </trkpt>
      <trkpt lat="50.57183" lon="3.44365">
        <ele>17.04</ele>
        <time>2023-05-12T09:35:43.168Z</time>
      </trkpt>
      <trkpt lat="50.57202" lon="3.44368">
        <ele>16.97</ele>
        <time>2023-05-12T09:35:44.990Z</time>
      </trkpt>
      <trkpt lat="50.57204" lon="3.44371">
        <ele>17.12</ele>
        <time>2023-05-12T09:35:46.812Z</time>
      </trkpt>
      <trkpt lat="50.57217" lon="3.44386">
        <ele>17.44</ele>
        <time>2023-05-12T09:35:48.637Z</time>
      </trkpt>
      <trkpt lat="50.57214" lon="3.44391">
        <ele>17.95</ele>
        <time>2023-05-12T09:35:50.463Z</time>
      </trkpt>
      <trkpt lat="50.57213" lon="3.44401">
        <ele>18.67</ele>
        <time>2023-05-12T09:35:52.290Z</time>
      </trkpt>
      <trkpt lat="50.57214" lon="3.44413">
        <ele>19.57</ele>
        <time>2023-05-12T09:35:54.118Z</time>
      </trkpt>
      <trkpt lat="50.57216" lon="3.44421">
        <ele>20.66</ele>
        <time>2023-05-12T09:35:55.947Z</time>
      </trkpt>
      <trkpt lat="50.57218" lon="3.44427">
        <ele>21.89</ele>
        <time>2023-05-12T09:35:57.777Z</time>
      </trkpt>
      <trkpt lat="50.57224" lon="3.44434">
        <ele>23.27</ele>
        <time>2023-05-12T09:35:59.608Z</time>
      </trkpt>
      <trkpt lat="50.57227" lon="3.44457">
        <ele>24.83</ele>
        <time>2023-05-12T09:36:01.441Z</time>
      </trkpt>
      <trkpt lat="50.57225" lon="3.4456">
        <ele>26.62</ele>
        <time>2023-05-12T09:36:03.285Z</time>
      </trkpt>
      <trkpt lat="50.57213" lon="3.44767">
        <ele>29.71</ele>
        <time>2023-05-12T09:36:05.150Z</time>
      </trkpt>
      <trkpt lat="50.57205" lon="3.4484">
        <ele>31.33</ele>
        <time>2023-05-12T09:36:07.022Z</time>
      </trkpt>
      <trkpt lat="50.57199" lon="3.44878">
        <ele>32.72</ele>
        <time>2023-05-12T09:36:08.898Z</time>
      </trkpt>
      <trkpt lat="50.57182" lon="3.44929">
        <ele>33.88</ele>
        <time>2023-05-12T09:36:10.780Z</time>
      </trkpt>
      <trkpt lat="50.57182" lon="3.44929">
        <ele>34.89</ele>
        <time>2023-05-12T09:36:12.662Z</time>
      </trkpt>
      <trkpt lat="50.57171" lon="3.44956">
        <ele>35.74</ele>
        <time>2023-05-12T09:36:14.547Z</time>
      </trkpt>
      <trkpt lat="50.57158" lon="3.44979">
        <ele>36.46</ele>
        <time>2023-05-12T09:36:16.436Z</time>
      </trkpt>
      <trkpt lat="50.57124" lon="3.45032">
        <ele>37.15</ele>
        <time>2023-05-12T09:36:18.332Z</time>
      </trkpt>
      <trkpt lat="50.57001" lon="3.4515">
        <ele>37.77</ele>
        <time>2023-05-12T09:36:20.251Z</time>
      </trkpt>
      <trkpt lat="50.56981" lon="3.45173">
        <ele>38.11</ele>
        <time>2023-05-12T09:36:22.174Z</time>
      </trkpt>
      <trkpt lat="50.56946" lon="3.45222">
        <ele>38.46</ele>
        <time>2023-05-12T09:36:24.105Z</time>
      </trkpt>
      <trkpt lat="50.56946" lon="3.45222">
        <ele>38.59</ele>
        <time>2023-05-12T09:36:26.036Z</time>
      </trkpt>
      <trkpt lat="50.56938" lon="3.4523">
        <ele>38.61</ele>
        <time>2023-05-12T09:36:27.968Z</time>
      </trkpt>
      <trkpt lat="50.56919" lon="3.45263">
        <ele>38.63</ele>
        <time>2023-05-12T09:36:29.905Z</time>
      </trkpt>
      <trkpt lat="50.56919" lon="3.45263">
        <ele>38.56</ele>
        <time>2023-05-12T09:36:31.842Z</time>
      </trkpt>
      <trkpt lat="50.56903" lon="3.45289">
        <ele>38.45</ele>
        <time>2023-05-12T09:36:33.783Z</time>
      </trkpt>
      <trkpt lat="50.56817" lon="3.45442">
        <ele>38.24</ele>
        <time>2023-05-12T09:36:35.744Z</time>
      </trkpt>
      <trkpt lat="50.56801" lon="3.45472">
        <ele>38.4</ele>
        <time>2023-05-12T09:36:37.709Z</time>
      </trkpt>
      <trkpt lat="50.5676" lon="3.4556">
        <ele>38.56</ele>
        <time>2023-05-12T09:36:39.686Z</time>
      </trkpt>
      <trkpt lat="50.56729" lon="3.45649">
        <ele>38.9</ele>
        <time>2023-05-12T09:36:41.673Z</time>
      </trkpt>
      <trkpt lat="50.56703" lon="3.45751">
        <ele>39.08</ele>
        <time>2023-05-12T09:36:43.671Z</time>
      </trkpt>
      <trkpt lat="50.56694" lon="3.45798">
        <ele>38.98</ele>
        <time>2023-05-12T09:36:45.674Z</time>
      </trkpt>
      <trkpt lat="50.56694" lon="3.45798">
        <ele>38.98</ele>
        <time>2023-05-12T09:36:47.677Z</time>
      </trkpt>
      <trkpt lat="50.56695" lon="3.45798">
        <ele>38.98</ele>
        <time>2023-05-12T09:36:49.680Z</time>
      </trkpt>
      <trkpt lat="50.56694" lon="3.458">
        <ele>38.98</ele>
        <time>2023-05-12T09:36:51.683Z</time>
      </trkpt>
      <trkpt lat="50.56694" lon="3.458">
        <ele>38.98</ele>
        <time>2023-05-12T09:36:53.686Z</time>
      </trkpt>
      <trkpt lat="50.5668" lon="3.45879">
        <ele>39.95</ele>
        <time>2023-05-12T09:36:55.698Z</time>
      </trkpt>
      <trkpt lat="50.56666" lon="3.46009">
        <ele>40.95</ele>
        <time>2023-05-12T09:36:57.723Z</time>
      </trkpt>
      <trkpt lat="50.5666" lon="3.46104">
        <ele>41.42</ele>
        <time>2023-05-12T09:36:59.758Z</time>
      </trkpt>
      <trkpt lat="50.56658" lon="3.46128">
        <ele>41.69</ele>
        <time>2023-05-12T09:37:01.795Z</time>
      </trkpt>
      <trkpt lat="50.56658" lon="3.46212">
        <ele>41.83</ele>
        <time>2023-05-12T09:37:03.841Z</time>
      </trkpt>
      <trkpt lat="50.56658" lon="3.46212">
        <ele>41.9</ele>
        <time>2023-05-12T09:37:05.887Z</time>
      </trkpt>
      <trkpt lat="50.56658" lon="3.46262">
        <ele>41.82</ele>
        <time>2023-05-12T09:37:07.938Z</time>
      </trkpt>
      <trkpt lat="50.56659" lon="3.46275">
        <ele>41.86</ele>
        <time>2023-05-12T09:37:09.990Z</time>
      </trkpt>
      <trkpt lat="50.5666" lon="3.46305">
        <ele>41.94</ele>
        <time>2023-05-12T09:37:12.046Z</time>
      </trkpt>
      <trkpt lat="50.56661" lon="3.46326">
        <ele>42.09</ele>
        <time>2023-05-12T09:37:14.104Z</time>
      </trkpt>
      <trkpt lat="50.56668" lon="3.464">
        <ele>42.27</ele>
        <time>2023-05-12T09:37:16.169Z</time>
      </trkpt>
      <trkpt lat="50.56668" lon="3.46401">
        <ele>42.36</ele>
        <time>2023-05-12T09:37:18.234Z</time>
      </trkpt>
      <trkpt lat="50.56675" lon="3.46474">
        <ele>42.18</ele>
        <time>2023-05-12T09:37:20.307Z</time>
      </trkpt>
      <trkpt lat="50.5668" lon="3.46522">
        <ele>42.1</ele>
        <time>2023-05-12T09:37:22.385Z</time>
      </trkpt>
      <trkpt lat="50.56686" lon="3.46567">
        <ele>42.19</ele>
        <time>2023-05-12T09:37:24.468Z</time>
      </trkpt>
      <trkpt lat="50.56694" lon="3.46624">
        <ele>42.45</ele>
        <time>2023-05-12T09:37:26.556Z</time>
      </trkpt>
      <trkpt lat="50.56717" lon="3.46782">
        <ele>42.87</ele>
        <time>2023-05-12T09:37:28.661Z</time>
      </trkpt>
      <trkpt lat="50.56742" lon="3.46947">
        <ele>43.04</ele>
        <time>2023-05-12T09:37:30.783Z</time>
      </trkpt>
      <trkpt lat="50.56742" lon="3.47048">
        <ele>43.57</ele>
        <time>2023-05-12T09:37:32.916Z</time>
      </trkpt>
      <trkpt lat="50.56732" lon="3.4716">
        <ele>43.72</ele>
        <time>2023-05-12T09:37:35.060Z</time>
      </trkpt>
      <trkpt lat="50.56732" lon="3.47192">
        <ele>43.96</ele>
        <time>2023-05-12T09:37:37.207Z</time>
      </trkpt>
      <trkpt lat="50.56733" lon="3.47209">
        <ele>44.23</ele>
        <time>2023-05-12T09:37:39.356Z</time>
      </trkpt>
      <trkpt lat="50.56742" lon="3.47241">
        <ele>44.51</ele>
        <time>2023-05-12T09:37:41.509Z</time>
      </trkpt>
      <trkpt lat="50.56774" lon="3.47365">
        <ele>44.8</ele>
        <time>2023-05-12T09:37:43.675Z</time>
      </trkpt>
      <trkpt lat="50.56812" lon="3.47507">
        <ele>45.23</ele>
        <time>2023-05-12T09:37:45.857Z</time>
      </trkpt>
      <trkpt lat="50.56815" lon="3.47518">
        <ele>45.56</ele>
        <time>2023-05-12T09:37:48.040Z</time>
      </trkpt>
      <trkpt lat="50.5682" lon="3.47528">
        <ele>45.91</ele>
        <time>2023-05-12T09:37:50.225Z</time>
      </trkpt>
      <trkpt lat="50.56828" lon="3.47537">
        <ele>46.27</ele>
        <time>2023-05-12T09:37:52.411Z</time>
      </trkpt>
      <trkpt lat="50.56897" lon="3.47572">
        <ele>46.83</ele>
        <time>2023-05-12T09:37:54.609Z</time>
      </trkpt>
      <trkpt lat="50.56944" lon="3.47599">
        <ele>47.15</ele>
        <time>2023-05-12T09:37:56.815Z</time>
      </trkpt>
      <trkpt lat="50.56963" lon="3.47614">
        <ele>47.5</ele>
        <time>2023-05-12T09:37:59.024Z</time>
      </trkpt>
      <trkpt lat="50.57079" lon="3.47757">
        <ele>47.73</ele>
        <time>2023-05-12T09:38:01.257Z</time>
      </trkpt>
      <trkpt lat="50.57091" lon="3.47773">
        <ele>47.99</ele>
        <time>2023-05-12T09:38:03.492Z</time>
      </trkpt>
      <trkpt lat="50.57107" lon="3.47799">
        <ele>48.22</ele>
        <time>2023-05-12T09:38:05.731Z</time>
      </trkpt>
      <trkpt lat="50.57122" lon="3.47834">
        <ele>48.46</ele>
        <time>2023-05-12T09:38:07.974Z</time>
      </trkpt>
      <trkpt lat="50.57133" lon="3.47873">
        <ele>48.74</ele>
        <time>2023-05-12T09:38:10.222Z</time>
      </trkpt>
      <trkpt lat="50.57171" lon="3.48065">
        <ele>48.9</ele>
        <time>2023-05-12T09:38:12.490Z</time>
      </trkpt>
      <trkpt lat="50.57174" lon="3.4809">
        <ele>49.14</ele>
        <time>2023-05-12T09:38:14.761Z</time>
      </trkpt>
      <trkpt lat="50.57174" lon="3.4809">
        <ele>49.36</ele>
        <time>2023-05-12T09:38:17.032Z</time>
      </trkpt>
      <trkpt lat="50.5718" lon="3.48099">
        <ele>49.61</ele>
        <time>2023-05-12T09:38:19.304Z</time>
      </trkpt>
      <trkpt lat="50.57234" lon="3.48362">
        <ele>50.05</ele>
        <time>2023-05-12T09:38:21.604Z</time>
      </trkpt>
      <trkpt lat="50.57246" lon="3.48417">
        <ele>50.43</ele>
        <time>2023-05-12T09:38:23.910Z</time>
      </trkpt>
      <trkpt lat="50.57246" lon="3.48417">
        <ele>50.63</ele>
        <time>2023-05-12T09:38:26.216Z</time>
      </trkpt>
      <trkpt lat="50.57253" lon="3.48448">
        <ele>50.92</ele>
        <time>2023-05-12T09:38:28.526Z</time>
      </trkpt>
      <trkpt lat="50.57263" lon="3.48502">
        <ele>51.06</ele>
        <time>2023-05-12T09:38:30.841Z</time>
      </trkpt>
      <trkpt lat="50.57263" lon="3.48502">
        <ele>51.23</ele>
        <time>2023-05-12T09:38:33.156Z</time>
      </trkpt>
      <trkpt lat="50.5728" lon="3.48588">
        <ele>51.29</ele>
        <time>2023-05-12T09:38:35.481Z</time>
      </trkpt>
      <trkpt lat="50.57297" lon="3.48643">
        <ele>51.49</ele>
        <time>2023-05-12T09:38:37.812Z</time>
      </trkpt>
      <trkpt lat="50.57343" lon="3.48768">
        <ele>51.8</ele>
        <time>2023-05-12T09:38:40.157Z</time>
      </trkpt>
      <trkpt lat="50.57349" lon="3.48789">
        <ele>52.25</ele>
        <time>2023-05-12T09:38:42.505Z</time>
      </trkpt>
      <trkpt lat="50.57354" lon="3.48814">
        <ele>52.8</ele>
        <time>2023-05-12T09:38:44.855Z</time>
      </trkpt>
      <trkpt lat="50.57353" lon="3.48768">
        <ele>54.24</ele>
        <time>2023-05-12T09:38:47.210Z</time>
      </trkpt>
      <trkpt lat="50.57338" lon="3.48512">
        <ele>55.42</ele>
        <time>2023-05-12T09:38:49.591Z</time>
      </trkpt>
      <trkpt lat="50.57343" lon="3.48485">
        <ele>56.48</ele>
        <time>2023-05-12T09:38:51.975Z</time>
      </trkpt>
      <trkpt lat="50.5735" lon="3.48478">
        <ele>57.63</ele>
        <time>2023-05-12T09:38:54.361Z</time>
      </trkpt>
      <trkpt lat="50.5735" lon="3.48478">
        <ele>58.81</ele>
        <time>2023-05-12T09:38:56.747Z</time>
      </trkpt>
      <trkpt lat="50.57368" lon="3.48467">
        <ele>60.11</ele>
        <time>2023-05-12T09:38:59.136Z</time>
      </trkpt>
      <trkpt lat="50.57483" lon="3.48417">
        <ele>61.6</ele>
        <time>2023-05-12T09:39:01.544Z</time>
      </trkpt>
      <trkpt lat="50.57614" lon="3.48355">
        <ele>63.05</ele>
        <time>2023-05-12T09:39:03.974Z</time>
      </trkpt>
      <trkpt lat="50.57732" lon="3.48307">
        <ele>64.49</ele>
        <time>2023-05-12T09:39:06.423Z</time>
      </trkpt>
      <trkpt lat="50.57751" lon="3.48305">
        <ele>65.46</ele>
        <time>2023-05-12T09:39:08.875Z</time>
      </trkpt>
      <trkpt lat="50.57835" lon="3.48271">
        <ele>66.17</ele>
        <time>2023-05-12T09:39:11.341Z</time>
      </trkpt>
      <trkpt lat="50.57835" lon="3.48271">
        <ele>66.63</ele>
        <time>2023-05-12T09:39:13.807Z</time>
      </trkpt>
      <trkpt lat="50.57853" lon="3.48264">
        <ele>66.91</ele>
        <time>2023-05-12T09:39:16.276Z</time>
      </trkpt>
      <trkpt lat="50.57867" lon="3.48263">
        <ele>66.86</ele>
        <time>2023-05-12T09:39:18.747Z</time>
      </trkpt>
      <trkpt lat="50.57903" lon="3.4827">
        <ele>66.38</ele>
        <time>2023-05-12T09:39:21.224Z</time>
      </trkpt>
      <trkpt lat="50.57923" lon="3.48264">
        <ele>65.75</ele>
        <time>2023-05-12T09:39:23.704Z</time>
      </trkpt>
      <trkpt lat="50.57945" lon="3.48263">
        <ele>64.88</ele>
        <time>2023-05-12T09:39:26.188Z</time>
      </trkpt>
      <trkpt lat="50.58048" lon="3.48287">
        <ele>63.5</ele>
        <time>2023-05-12T09:39:28.689Z</time>
      </trkpt>
      <trkpt lat="50.58072" lon="3.48298">
        <ele>62.28</ele>
        <time>2023-05-12T09:39:31.194Z</time>
      </trkpt>
      <trkpt lat="50.58217" lon="3.48385">
        <ele>60.79</ele>
        <time>2023-05-12T09:39:33.723Z</time>
      </trkpt>
      <trkpt lat="50.5826" lon="3.48401">
        <ele>59.28</ele>
        <time>2023-05-12T09:39:36.260Z</time>
      </trkpt>
      <trkpt lat="50.58286" lon="3.48404">
        <ele>57.74</ele>
        <time>2023-05-12T09:39:38.801Z</time>
      </trkpt>
      <trkpt lat="50.58311" lon="3.48405">
        <ele>56.24</ele>
        <time>2023-05-12T09:39:41.346Z</time>
      </trkpt>
      <trkpt lat="50.58516" lon="3.484">
        <ele>54.5</ele>
        <time>2023-05-12T09:39:43.924Z</time>
      </trkpt>
      <trkpt lat="50.58543" lon="3.4841">
        <ele>53.37</ele>
        <time>2023-05-12T09:39:46.506Z</time>
      </trkpt>
      <trkpt lat="50.58563" lon="3.48436">
        <ele>52.43</ele>
        <time>2023-05-12T09:39:49.092Z</time>
      </trkpt>
      <trkpt lat="50.5859" lon="3.48481">
        <ele>51.75</ele>
        <time>2023-05-12T09:39:51.685Z</time>
      </trkpt>
      <trkpt lat="50.58625" lon="3.48547">
        <ele>51.2</ele>
        <time>2023-05-12T09:39:54.286Z</time>
      </trkpt>
      <trkpt lat="50.58637" lon="3.48584">
        <ele>50.79</ele>
        <time>2023-05-12T09:39:56.891Z</time>
      </trkpt>
      <trkpt lat="50.58646" lon="3.48703">
        <ele>50.71</ele>
        <time>2023-05-12T09:39:59.509Z</time>
      </trkpt>
      <trkpt lat="50.58649" lon="3.48726">
        <ele>50.4</ele>
        <time>2023-05-12T09:40:02.129Z</time>
      </trkpt>
      <trkpt lat="50.58656" lon="3.48743">
        <ele>50.12</ele>
        <time>2023-05-12T09:40:04.751Z</time>
      </trkpt>
      <trkpt lat="50.58667" lon="3.48764">
        <ele>49.85</ele>
        <time>2023-05-12T09:40:07.376Z</time>
      </trkpt>
      <trkpt lat="50.58676" lon="3.48778">
        <ele>49.58</ele>
        <time>2023-05-12T09:40:10.003Z</time>
      </trkpt>
      <trkpt lat="50.58685" lon="3.48786">
        <ele>49.29</ele>
        <time>2023-05-12T09:40:12.632Z</time>
      </trkpt>
      <trkpt lat="50.58693" lon="3.4879">
        <ele>48.99</ele>
        <time>2023-05-12T09:40:15.262Z</time>
      </trkpt>
      <trkpt lat="50.58797" lon="3.48801">
        <ele>48.62</ele>
        <time>2023-05-12T09:40:17.909Z</time>
      </trkpt>
      <trkpt lat="50.58807" lon="3.48804">
        <ele>48.29</ele>
        <time>2023-05-12T09:40:20.557Z</time>
      </trkpt>
      <trkpt lat="50.58815" lon="3.48811">
        <ele>47.97</ele>
        <time>2023-05-12T09:40:23.207Z</time>
      </trkpt>
      <trkpt lat="50.58847" lon="3.48855">
        <ele>47.55</ele>
        <time>2023-05-12T09:40:25.863Z</time>
      </trkpt>
      <trkpt lat="50.58859" lon="3.48834">
        <ele>47.15</ele>
        <time>2023-05-12T09:40:28.522Z</time>
      </trkpt>
      <trkpt lat="50.58876" lon="3.488">
        <ele>46.91</ele>
        <time>2023-05-12T09:40:31.186Z</time>
      </trkpt>
      <trkpt lat="50.58898" lon="3.48765">
        <ele>46.64</ele>
        <time>2023-05-12T09:40:33.855Z</time>
      </trkpt>
      <trkpt lat="50.58929" lon="3.48711">
        <ele>46.35</ele>
        <time>2023-05-12T09:40:36.531Z</time>
      </trkpt>
      <trkpt lat="50.58944" lon="3.48719">
        <ele>46.12</ele>
        <time>2023-05-12T09:40:39.210Z</time>
      </trkpt>
      <trkpt lat="50.58963" lon="3.48726">
        <ele>45.89</ele>
        <time>2023-05-12T09:40:41.892Z</time>
      </trkpt>
      <trkpt lat="50.5898" lon="3.48729">
        <ele>45.63</ele>
        <time>2023-05-12T09:40:44.577Z</time>
      </trkpt>
      <trkpt lat="50.58996" lon="3.48724">
        <ele>45.33</ele>
        <time>2023-05-12T09:40:47.264Z</time>
      </trkpt>
      <trkpt lat="50.59015" lon="3.4871">
        <ele>45.09</ele>
        <time>2023-05-12T09:40:49.955Z</time>
      </trkpt>
      <trkpt lat="50.59026" lon="3.48699">
        <ele>44.87</ele>
        <time>2023-05-12T09:40:52.648Z</time>
      </trkpt>
      <trkpt lat="50.59039" lon="3.48676">
        <ele>44.63</ele>
        <time>2023-05-12T09:40:55.344Z</time>
      </trkpt>
      <trkpt lat="50.59042" lon="3.48656">
        <ele>44.32</ele>
        <time>2023-05-12T09:40:58.042Z</time>
      </trkpt>
      <trkpt lat="50.59041" lon="3.48578">
        <ele>44.05</ele>
        <time>2023-05-12T09:41:00.748Z</time>
      </trkpt>
      <trkpt lat="50.59039" lon="3.48508">
        <ele>43.63</ele>
        <time>2023-05-12T09:41:03.461Z</time>
      </trkpt>
      <trkpt lat="50.59042" lon="3.48498">
        <ele>43.47</ele>
        <time>2023-05-12T09:41:06.175Z</time>
      </trkpt>
      <trkpt lat="50.59071" lon="3.48457">
        <ele>43.54</ele>
        <time>2023-05-12T09:41:08.895Z</time>
      </trkpt>
      <trkpt lat="50.59081" lon="3.48437">
        <ele>43.56</ele>
        <time>2023-05-12T09:41:11.618Z</time>
      </trkpt>
      <trkpt lat="50.59081" lon="3.48437">
        <ele>43.56</ele>
        <time>2023-05-12T09:41:14.341Z</time>
      </trkpt>
      <trkpt lat="50.59081" lon="3.48437">
        <ele>43.57</ele>
        <time>2023-05-12T09:41:17.064Z</time>
      </trkpt>
      <trkpt lat="50.59081" lon="3.48437">
        <ele>44.54</ele>
        <time>2023-05-12T09:41:19.787Z</time>
      </trkpt>
      <trkpt lat="50.59089" lon="3.4842">
        <ele>44.83</ele>
        <time>2023-05-12T09:41:22.512Z</time>
      </trkpt>
      <trkpt lat="50.59099" lon="3.48388">
        <ele>45.25</ele>
        <time>2023-05-12T09:41:25.241Z</time>
      </trkpt>
      <trkpt lat="50.59102" lon="3.48367">
        <ele>45.29</ele>
        <time>2023-05-12T09:41:27.972Z</time>
      </trkpt>
      <trkpt lat="50.5911" lon="3.48351">
        <ele>45.14</ele>
        <time>2023-05-12T09:41:30.705Z</time>
      </trkpt>
      <trkpt lat="50.59123" lon="3.48336">
        <ele>44.73</ele>
        <time>2023-05-12T09:41:33.441Z</time>
      </trkpt>
      <trkpt lat="50.59198" lon="3.48302">
        <ele>43.74</ele>
        <time>2023-05-12T09:41:36.189Z</time>
      </trkpt>
      <trkpt lat="50.59243" lon="3.48273">
        <ele>42.51</ele>
        <time>2023-05-12T09:41:38.945Z</time>
      </trkpt>
      <trkpt lat="50.59263" lon="3.48243">
        <ele>41.79</ele>
        <time>2023-05-12T09:41:41.705Z</time>
      </trkpt>
      <trkpt lat="50.59263" lon="3.48243">
        <ele>41.79</ele>
        <time>2023-05-12T09:41:44.465Z</time>
      </trkpt>
      <trkpt lat="50.59263" lon="3.48243">
        <ele>41.79</ele>
        <time>2023-05-12T09:41:47.225Z</time>
      </trkpt>
      <trkpt lat="50.59332" lon="3.48142">
        <ele>38.71</ele>
        <time>2023-05-12T09:41:50.000Z</time>
      </trkpt>
      <trkpt lat="50.59369" lon="3.48082">
        <ele>38.25</ele>
        <time>2023-05-12T09:41:52.784Z</time>
      </trkpt>
      <trkpt lat="50.59315" lon="3.48023">
        <ele>39.46</ele>
        <time>2023-05-12T09:41:55.579Z</time>
      </trkpt>
      <trkpt lat="50.59304" lon="3.48014">
        <ele>39.99</ele>
        <time>2023-05-12T09:41:58.376Z</time>
      </trkpt>
      <trkpt lat="50.59227" lon="3.47948">
        <ele>40.28</ele>
        <time>2023-05-12T09:42:01.187Z</time>
      </trkpt>
      <trkpt lat="50.59219" lon="3.47937">
        <ele>40.71</ele>
        <time>2023-05-12T09:42:03.999Z</time>
      </trkpt>
      <trkpt lat="50.59216" lon="3.4792">
        <ele>41.18</ele>
        <time>2023-05-12T09:42:06.813Z</time>
      </trkpt>
      <trkpt lat="50.59222" lon="3.47887">
        <ele>41.65</ele>
        <time>2023-05-12T09:42:09.631Z</time>
      </trkpt>
      <trkpt lat="50.59245" lon="3.47798">
        <ele>41.9</ele>
        <time>2023-05-12T09:42:12.458Z</time>
      </trkpt>
      <trkpt lat="50.59267" lon="3.47728">
        <ele>41.68</ele>
        <time>2023-05-12T09:42:15.293Z</time>
      </trkpt>
      <trkpt lat="50.59281" lon="3.47696">
        <ele>41.39</ele>
        <time>2023-05-12T09:42:18.132Z</time>
      </trkpt>
      <trkpt lat="50.59281" lon="3.47696">
        <ele>41.06</ele>
        <time>2023-05-12T09:42:20.971Z</time>
      </trkpt>
      <trkpt lat="50.59311" lon="3.47627">
        <ele>40.25</ele>
        <time>2023-05-12T09:42:23.819Z</time>
      </trkpt>
      <trkpt lat="50.59311" lon="3.47627">
        <ele>40.25</ele>
        <time>2023-05-12T09:42:26.667Z</time>
      </trkpt>
      <trkpt lat="50.59311" lon="3.47627">
        <ele>40.25</ele>
        <time>2023-05-12T09:42:29.515Z</time>
      </trkpt>
      <trkpt lat="50.59311" lon="3.47627">
        <ele>39.85</ele>
        <time>2023-05-12T09:42:32.363Z</time>
      </trkpt>
      <trkpt lat="50.59312" lon="3.47625">
        <ele>39.83</ele>
        <time>2023-05-12T09:42:35.211Z</time>
      </trkpt>
      <trkpt lat="50.59312" lon="3.47625">
        <ele>39.83</ele>
        <time>2023-05-12T09:42:38.059Z</time>
      </trkpt>
      <trkpt lat="50.59312" lon="3.47625">
        <ele>40.21</ele>
        <time>2023-05-12T09:42:40.907Z</time>
      </trkpt>
      <trkpt lat="50.59314" lon="3.47621">
        <ele>40.28</ele>
        <time>2023-05-12T09:42:43.756Z</time>
      </trkpt>
      <trkpt lat="50.5933" lon="3.47563">
        <ele>40.89</ele>
        <time>2023-05-12T09:42:46.611Z</time>
      </trkpt>
      <trkpt lat="50.5933" lon="3.47563">
        <ele>41.23</ele>
        <time>2023-05-12T09:42:49.466Z</time>
      </trkpt>
      <trkpt lat="50.59349" lon="3.47484">
        <ele>41.77</ele>
        <time>2023-05-12T09:42:52.330Z</time>
      </trkpt>
      <trkpt lat="50.59356" lon="3.47475">
        <ele>42.07</ele>
        <time>2023-05-12T09:42:55.195Z</time>
      </trkpt>
      <trkpt lat="50.59381" lon="3.47432">
        <ele>42.11</ele>
        <time>2023-05-12T09:42:58.066Z</time>
      </trkpt>
      <trkpt lat="50.59432" lon="3.4738">
        <ele>41.93</ele>
        <time>2023-05-12T09:43:00.947Z</time>
      </trkpt>
      <trkpt lat="50.59515" lon="3.47315">
        <ele>41.54</ele>
        <time>2023-05-12T09:43:03.843Z</time>
      </trkpt>
      <trkpt lat="50.59575" lon="3.4728">
        <ele>41.15</ele>
        <time>2023-05-12T09:43:06.749Z</time>
      </trkpt>
      <trkpt lat="50.59581" lon="3.47228">
        <ele>40.5</ele>
        <time>2023-05-12T09:43:09.660Z</time>
      </trkpt>
      <trkpt lat="50.59602" lon="3.47085">
        <ele>40.21</ele>
        <time>2023-05-12T09:43:12.586Z</time>
      </trkpt>
      <trkpt lat="50.59602" lon="3.47085">
        <ele>39.83</ele>
        <time>2023-05-12T09:43:15.512Z</time>
      </trkpt>
      <trkpt lat="50.59616" lon="3.46988">
        <ele>39.32</ele>
        <time>2023-05-12T09:43:18.448Z</time>
      </trkpt>
      <trkpt lat="50.59628" lon="3.46912">
        <ele>38.9</ele>
        <time>2023-05-12T09:43:21.392Z</time>
      </trkpt>
      <trkpt lat="50.59628" lon="3.46912">
        <ele>38.6</ele>
        <time>2023-05-12T09:43:24.336Z</time>
      </trkpt>
      <trkpt lat="50.59633" lon="3.46885">
        <ele>38.26</ele>
        <time>2023-05-12T09:43:27.283Z</time>
      </trkpt>
      <trkpt lat="50.59641" lon="3.46846">
        <ele>37.96</ele>
        <time>2023-05-12T09:43:30.234Z</time>
      </trkpt>
      <trkpt lat="50.59643" lon="3.46847">
        <ele>37.67</ele>
        <time>2023-05-12T09:43:33.186Z</time>
      </trkpt>
      <trkpt lat="50.59668" lon="3.46864">
        <ele>37.22</ele>
        <time>2023-05-12T09:43:36.142Z</time>
      </trkpt>
      <trkpt lat="50.59668" lon="3.46864">
        <ele>37.22</ele>
        <time>2023-05-12T09:43:39.098Z</time>
      </trkpt>
      <trkpt lat="50.59668" lon="3.46864">
        <ele>37.22</ele>
        <time>2023-05-12T09:43:42.054Z</time>
      </trkpt>
      <trkpt lat="50.5967" lon="3.46865">
        <ele>37.2</ele>
        <time>2023-05-12T09:43:45.010Z</time>
      </trkpt>
      <trkpt lat="50.5967" lon="3.46865">
        <ele>37.2</ele>
        <time>2023-05-12T09:43:47.966Z</time>
      </trkpt>
      <trkpt lat="50.59748" lon="3.46916">
        <ele>36.33</ele>
        <time>2023-05-12T09:43:50.936Z</time>
      </trkpt>
      <trkpt lat="50.59802" lon="3.4695">
        <ele>35.4</ele>
        <time>2023-05-12T09:43:53.915Z</time>
      </trkpt>
      <trkpt lat="50.59859" lon="3.46987">
        <ele>34.18</ele>
        <time>2023-05-12T09:43:56.904Z</time>
      </trkpt>
      <trkpt lat="50.59863" lon="3.46989">
        <ele>33.17</ele>
        <time>2023-05-12T09:43:59.894Z</time>
      </trkpt>
      <trkpt lat="50.59938" lon="3.47033">
        <ele>31.52</ele>
        <time>2023-05-12T09:44:02.897Z</time>
      </trkpt>
      <trkpt lat="50.59958" lon="3.47034">
        <ele>30.28</ele>
        <time>2023-05-12T09:44:05.903Z</time>
      </trkpt>
      <trkpt lat="50.60084" lon="3.46996">
        <ele>29.16</ele>
        <time>2023-05-12T09:44:08.929Z</time>
      </trkpt>
      <trkpt lat="50.60096" lon="3.47001">
        <ele>28.21</ele>
        <time>2023-05-12T09:44:11.957Z</time>
      </trkpt>
      <trkpt lat="50.60106" lon="3.47009">
        <ele>27.4</ele>
        <time>2023-05-12T09:44:14.987Z</time>
      </trkpt>
      <trkpt lat="50.60118" lon="3.47021">
        <ele>26.78</ele>
        <time>2023-05-12T09:44:18.020Z</time>
      </trkpt>
      <trkpt lat="50.60172" lon="3.47099">
        <ele>26.46</ele>
        <time>2023-05-12T09:44:21.064Z</time>
      </trkpt>
      <trkpt lat="50.60206" lon="3.47138">
        <ele>26.77</ele>
        <time>2023-05-12T09:44:24.115Z</time>
      </trkpt>
      <trkpt lat="50.60253" lon="3.47183">
        <ele>27.34</ele>
        <time>2023-05-12T09:44:27.175Z</time>
      </trkpt>
      <trkpt lat="50.60253" lon="3.47183">
        <ele>27.35</ele>
        <time>2023-05-12T09:44:30.235Z</time>
      </trkpt>
      <trkpt lat="50.60253" lon="3.47183">
        <ele>27.36</ele>
        <time>2023-05-12T09:44:33.295Z</time>
      </trkpt>
      <trkpt lat="50.60255" lon="3.47184">
        <ele>27.38</ele>
        <time>2023-05-12T09:44:36.355Z</time>
      </trkpt>
      <trkpt lat="50.60255" lon="3.47184">
        <ele>27.39</ele>
        <time>2023-05-12T09:44:39.415Z</time>
      </trkpt>
      <trkpt lat="50.60256" lon="3.47185">
        <ele>27.63</ele>
        <time>2023-05-12T09:44:42.475Z</time>
      </trkpt>
      <trkpt lat="50.60258" lon="3.47187">
        <ele>26.99</ele>
        <time>2023-05-12T09:44:45.536Z</time>
      </trkpt>
      <trkpt lat="50.60258" lon="3.47187">
        <ele>26.98</ele>
        <time>2023-05-12T09:44:48.597Z</time>
      </trkpt>
      <trkpt lat="50.60305" lon="3.47216">
        <ele>26.28</ele>
        <time>2023-05-12T09:44:51.666Z</time>
      </trkpt>
      <trkpt lat="50.60305" lon="3.47216">
        <ele>25.66</ele>
        <time>2023-05-12T09:44:54.735Z</time>
      </trkpt>
      <trkpt lat="50.60311" lon="3.47219">
        <ele>25.05</ele>
        <time>2023-05-12T09:44:57.805Z</time>
      </trkpt>
      <trkpt lat="50.60354" lon="3.47232">
        <ele>24.29</ele>
        <time>2023-05-12T09:45:00.882Z</time>
      </trkpt>
      <trkpt lat="50.60385" lon="3.47232">
        <ele>23.44</ele>
        <time>2023-05-12T09:45:03.964Z</time>
      </trkpt>
      <trkpt lat="50.60404" lon="3.4723">
        <ele>22.53</ele>
        <time>2023-05-12T09:45:07.049Z</time>
      </trkpt>
      <trkpt lat="50.60465" lon="3.47211">
        <ele>21.74</ele>
        <time>2023-05-12T09:45:10.144Z</time>
      </trkpt>
      <trkpt lat="50.60516" lon="3.47202">
        <ele>21</ele>
        <time>2023-05-12T09:45:13.247Z</time>
      </trkpt>
      <trkpt lat="50.60555" lon="3.47209">
        <ele>20.77</ele>
        <time>2023-05-12T09:45:16.356Z</time>
      </trkpt>
      <trkpt lat="50.60613" lon="3.47237">
        <ele>20.33</ele>
        <time>2023-05-12T09:45:19.475Z</time>
      </trkpt>
      <trkpt lat="50.60759" lon="3.47354">
        <ele>20.75</ele>
        <time>2023-05-12T09:45:22.620Z</time>
      </trkpt>
      <trkpt lat="50.6085" lon="3.47419">
        <ele>21.71</ele>
        <time>2023-05-12T09:45:25.781Z</time>
      </trkpt>
      <trkpt lat="50.60975" lon="3.47513">
        <ele>22.94</ele>
        <time>2023-05-12T09:45:28.965Z</time>
      </trkpt>
      <trkpt lat="50.6098" lon="3.47517">
        <ele>23.98</ele>
        <time>2023-05-12T09:45:32.149Z</time>
      </trkpt>
      <trkpt lat="50.61076" lon="3.47589">
        <ele>25.35</ele>
        <time>2023-05-12T09:45:35.351Z</time>
      </trkpt>
      <trkpt lat="50.61099" lon="3.47599">
        <ele>26.8</ele>
        <time>2023-05-12T09:45:38.556Z</time>
      </trkpt>
      <trkpt lat="50.61139" lon="3.47606">
        <ele>28.38</ele>
        <time>2023-05-12T09:45:41.768Z</time>
      </trkpt>
      <trkpt lat="50.61163" lon="3.47607">
        <ele>29.52</ele>
        <time>2023-05-12T09:45:44.984Z</time>
      </trkpt>
      <trkpt lat="50.61211" lon="3.47601">
        <ele>30.32</ele>
        <time>2023-05-12T09:45:48.207Z</time>
      </trkpt>
      <trkpt lat="50.61226" lon="3.47744">
        <ele>31.23</ele>
        <time>2023-05-12T09:45:51.445Z</time>
      </trkpt>
      <trkpt lat="50.61229" lon="3.47778">
        <ele>31.64</ele>
        <time>2023-05-12T09:45:54.687Z</time>
      </trkpt>
      <trkpt lat="50.61226" lon="3.47806">
        <ele>31.97</ele>
        <time>2023-05-12T09:45:57.932Z</time>
      </trkpt>
      <trkpt lat="50.61222" lon="3.47834">
        <ele>32.33</ele>
        <time>2023-05-12T09:46:01.179Z</time>
      </trkpt>
      <trkpt lat="50.61214" lon="3.47861">
        <ele>32.61</ele>
        <time>2023-05-12T09:46:04.429Z</time>
      </trkpt>
      <trkpt lat="50.612" lon="3.4789">
        <ele>32.72</ele>
        <time>2023-05-12T09:46:07.683Z</time>
      </trkpt>
      <trkpt lat="50.61189" lon="3.47907">
        <ele>32.82</ele>
        <time>2023-05-12T09:46:10.940Z</time>
      </trkpt>
      <trkpt lat="50.61178" lon="3.47916">
        <ele>32.86</ele>
        <time>2023-05-12T09:46:14.199Z</time>
      </trkpt>
      <trkpt lat="50.61142" lon="3.47975">
        <ele>32.83</ele>
        <time>2023-05-12T09:46:17.466Z</time>
      </trkpt>
      <trkpt lat="50.61134" lon="3.47993">
        <ele>32.69</ele>
        <time>2023-05-12T09:46:20.735Z</time>
      </trkpt>
      <trkpt lat="50.61133" lon="3.48008">
        <ele>32.61</ele>
        <time>2023-05-12T09:46:24.006Z</time>
      </trkpt>
      <trkpt lat="50.61133" lon="3.48021">
        <ele>32.59</ele>
        <time>2023-05-12T09:46:27.278Z</time>
      </trkpt>
      <trkpt lat="50.61139" lon="3.48042">
        <ele>32.55</ele>
        <time>2023-05-12T09:46:30.552Z</time>
      </trkpt>
      <trkpt lat="50.61154" lon="3.48083">
        <ele>32.68</ele>
        <time>2023-05-12T09:46:33.831Z</time>
      </trkpt>
      <trkpt lat="50.61171" lon="3.48157">
        <ele>33.06</ele>
        <time>2023-05-12T09:46:37.118Z</time>
      </trkpt>
      <trkpt lat="50.61176" lon="3.48169">
        <ele>33.25</ele>
        <time>2023-05-12T09:46:40.407Z</time>
      </trkpt>
      <trkpt lat="50.61162" lon="3.48181">
        <ele>33.4</ele>
        <time>2023-05-12T09:46:43.698Z</time>
      </trkpt>
      <trkpt lat="50.61102" lon="3.48241">
        <ele>33.73</ele>
        <time>2023-05-12T09:46:47.001Z</time>
      </trkpt>
      <trkpt lat="50.61072" lon="3.48264">
        <ele>33.92</ele>
        <time>2023-05-12T09:46:50.309Z</time>
      </trkpt>
      <trkpt lat="50.61042" lon="3.48318">
        <ele>34.2</ele>
        <time>2023-05-12T09:46:53.624Z</time>
      </trkpt>
      <trkpt lat="50.61042" lon="3.48318">
        <ele>34.21</ele>
        <time>2023-05-12T09:46:56.939Z</time>
      </trkpt>
      <trkpt lat="50.61042" lon="3.48318">
        <ele>34.22</ele>
        <time>2023-05-12T09:47:00.254Z</time>
      </trkpt>
      <trkpt lat="50.61041" lon="3.4832">
        <ele>34.24</ele>
        <time>2023-05-12T09:47:03.570Z</time>
      </trkpt>
      <trkpt lat="50.61041" lon="3.4832">
        <ele>34.25</ele>
        <time>2023-05-12T09:47:06.886Z</time>
      </trkpt>
      <trkpt lat="50.61039" lon="3.48325">
        <ele>34.28</ele>
        <time>2023-05-12T09:47:10.202Z</time>
      </trkpt>
      <trkpt lat="50.61039" lon="3.48325">
        <ele>34.29</ele>
        <time>2023-05-12T09:47:13.518Z</time>
      </trkpt>
      <trkpt lat="50.61025" lon="3.4835">
        <ele>34.32</ele>
        <time>2023-05-12T09:47:16.838Z</time>
      </trkpt>
      <trkpt lat="50.60949" lon="3.4855">
        <ele>40.73</ele>
        <time>2023-05-12T09:47:20.181Z</time>
      </trkpt>
      <trkpt lat="50.61236" lon="3.48776">
        <ele>33.2</ele>
        <time>2023-05-12T09:47:23.576Z</time>
      </trkpt>
      <trkpt lat="50.61341" lon="3.4886">
        <ele>38.86</ele>
        <time>2023-05-12T09:47:26.990Z</time>
      </trkpt>
      <trkpt lat="50.61357" lon="3.48873">
        <ele>39.84</ele>
        <time>2023-05-12T09:47:30.407Z</time>
      </trkpt>
      <trkpt lat="50.61357" lon="3.48873">
        <ele>39.84</ele>
        <time>2023-05-12T09:47:33.824Z</time>
      </trkpt>
      <trkpt lat="50.61425" lon="3.48934">
        <ele>38.45</ele>
        <time>2023-05-12T09:47:37.253Z</time>
      </trkpt>
      <trkpt lat="50.61453" lon="3.48934">
        <ele>37.64</ele>
        <time>2023-05-12T09:47:40.687Z</time>
      </trkpt>
      <trkpt lat="50.61571" lon="3.48919">
        <ele>36.27</ele>
        <time>2023-05-12T09:47:44.139Z</time>
      </trkpt>
      <trkpt lat="50.61571" lon="3.48919">
        <ele>36.27</ele>
        <time>2023-05-12T09:47:47.591Z</time>
      </trkpt>
      <trkpt lat="50.61571" lon="3.48919">
        <ele>36.27</ele>
        <time>2023-05-12T09:47:51.043Z</time>
      </trkpt>
      <trkpt lat="50.61572" lon="3.48919">
        <ele>36.26</ele>
        <time>2023-05-12T09:47:54.496Z</time>
      </trkpt>
      <trkpt lat="50.61572" lon="3.48919">
        <ele>36.26</ele>
        <time>2023-05-12T09:47:57.949Z</time>
      </trkpt>
      <trkpt lat="50.61576" lon="3.48919">
        <ele>36.22</ele>
        <time>2023-05-12T09:48:01.402Z</time>
      </trkpt>
      <trkpt lat="50.61576" lon="3.48919">
        <ele>36.22</ele>
        <time>2023-05-12T09:48:04.855Z</time>
      </trkpt>
      <trkpt lat="50.61645" lon="3.4891">
        <ele>35.75</ele>
        <time>2023-05-12T09:48:08.319Z</time>
      </trkpt>
      <trkpt lat="50.61729" lon="3.489">
        <ele>34.57</ele>
        <time>2023-05-12T09:48:11.797Z</time>
      </trkpt>
      <trkpt lat="50.61733" lon="3.48915">
        <ele>33.91</ele>
        <time>2023-05-12T09:48:15.277Z</time>
      </trkpt>
      <trkpt lat="50.61775" lon="3.48891">
        <ele>33.04</ele>
        <time>2023-05-12T09:48:18.764Z</time>
      </trkpt>
      <trkpt lat="50.61804" lon="3.48857">
        <ele>32.35</ele>
        <time>2023-05-12T09:48:22.256Z</time>
      </trkpt>
      <trkpt lat="50.61875" lon="3.48784">
        <ele>31.66</ele>
        <time>2023-05-12T09:48:25.762Z</time>
      </trkpt>
      <trkpt lat="50.61896" lon="3.48773">
        <ele>31.66</ele>
        <time>2023-05-12T09:48:29.272Z</time>
      </trkpt>
      <trkpt lat="50.61903" lon="3.48769">
        <ele>32.26</ele>
        <time>2023-05-12T09:48:32.783Z</time>
      </trkpt>
      <trkpt lat="50.61981" lon="3.4873">
        <ele>34.02</ele>
        <time>2023-05-12T09:48:36.307Z</time>
      </trkpt>
      <trkpt lat="50.61998" lon="3.48689">
        <ele>35.62</ele>
        <time>2023-05-12T09:48:39.836Z</time>
      </trkpt>
      <trkpt lat="50.62008" lon="3.48611">
        <ele>37.41</ele>
        <time>2023-05-12T09:48:43.373Z</time>
      </trkpt>
      <trkpt lat="50.62032" lon="3.48566">
        <ele>38.97</ele>
        <time>2023-05-12T09:48:46.916Z</time>
      </trkpt>
      <trkpt lat="50.62043" lon="3.4856">
        <ele>39.84</ele>
        <time>2023-05-12T09:48:50.461Z</time>
      </trkpt>
      <trkpt lat="50.62043" lon="3.4856">
        <ele>39.85</ele>
        <time>2023-05-12T09:48:54.006Z</time>
      </trkpt>
      <trkpt lat="50.62043" lon="3.4856">
        <ele>39.86</ele>
        <time>2023-05-12T09:48:57.551Z</time>
      </trkpt>
      <trkpt lat="50.62044" lon="3.48559">
        <ele>39.98</ele>
        <time>2023-05-12T09:49:01.096Z</time>
      </trkpt>
      <trkpt lat="50.62044" lon="3.48559">
        <ele>39.99</ele>
        <time>2023-05-12T09:49:04.641Z</time>
      </trkpt>
      <trkpt lat="50.62047" lon="3.48557">
        <ele>40.23</ele>
        <time>2023-05-12T09:49:08.187Z</time>
      </trkpt>
      <trkpt lat="50.62048" lon="3.48557">
        <ele>40.98</ele>
        <time>2023-05-12T09:49:11.733Z</time>
      </trkpt>
      <trkpt lat="50.62048" lon="3.48557">
        <ele>41.08</ele>
        <time>2023-05-12T09:49:15.279Z</time>
      </trkpt>
      <trkpt lat="50.62048" lon="3.48557">
        <ele>42.27</ele>
        <time>2023-05-12T09:49:18.825Z</time>
      </trkpt>
      <trkpt lat="50.62079" lon="3.48549">
        <ele>43.16</ele>
        <time>2023-05-12T09:49:22.376Z</time>
      </trkpt>
      <trkpt lat="50.62096" lon="3.48549">
        <ele>44.03</ele>
        <time>2023-05-12T09:49:25.929Z</time>
      </trkpt>
      <trkpt lat="50.6212" lon="3.48549">
        <ele>45.1</ele>
        <time>2023-05-12T09:49:29.486Z</time>
      </trkpt>
      <trkpt lat="50.62152" lon="3.48552">
        <ele>46.39</ele>
        <time>2023-05-12T09:49:33.049Z</time>
      </trkpt>
      <trkpt lat="50.62197" lon="3.48553">
        <ele>48.34</ele>
        <time>2023-05-12T09:49:36.619Z</time>
      </trkpt>
      <trkpt lat="50.62245" lon="3.48542">
        <ele>50.56</ele>
        <time>2023-05-12T09:49:40.196Z</time>
      </trkpt>
      <trkpt lat="50.62347" lon="3.48537">
        <ele>52.86</ele>
        <time>2023-05-12T09:49:43.790Z</time>
      </trkpt>
      <trkpt lat="50.62368" lon="3.48534">
        <ele>55.18</ele>
        <time>2023-05-12T09:49:47.387Z</time>
      </trkpt>
      <trkpt lat="50.62368" lon="3.48534">
        <ele>55.19</ele>
        <time>2023-05-12T09:49:50.984Z</time>
      </trkpt>
      <trkpt lat="50.62368" lon="3.48534">
        <ele>55.2</ele>
        <time>2023-05-12T09:49:54.581Z</time>
      </trkpt>
      <trkpt lat="50.62369" lon="3.48534">
        <ele>55.37</ele>
        <time>2023-05-12T09:49:58.178Z</time>
      </trkpt>
      <trkpt lat="50.62369" lon="3.48534">
        <ele>55.39</ele>
        <time>2023-05-12T09:50:01.775Z</time>
      </trkpt>
      <trkpt lat="50.62373" lon="3.48534">
        <ele>55.8</ele>
        <time>2023-05-12T09:50:05.373Z</time>
      </trkpt>
      <trkpt lat="50.62373" lon="3.48534">
        <ele>55.81</ele>
        <time>2023-05-12T09:50:08.971Z</time>
      </trkpt>
      <trkpt lat="50.62382" lon="3.48533">
        <ele>55.88</ele>
        <time>2023-05-12T09:50:12.570Z</time>
      </trkpt>
      <trkpt lat="50.62407" lon="3.48523">
        <ele>55.86</ele>
        <time>2023-05-12T09:50:16.174Z</time>
      </trkpt>
      <trkpt lat="50.62406" lon="3.48553">
        <ele>56.1</ele>
        <time>2023-05-12T09:50:19.781Z</time>
      </trkpt>
      <trkpt lat="50.62408" lon="3.48582">
        <ele>56.09</ele>
        <time>2023-05-12T09:50:23.391Z</time>
      </trkpt>
      <trkpt lat="50.62411" lon="3.48601">
        <ele>55.93</ele>
        <time>2023-05-12T09:50:27.003Z</time>
      </trkpt>
      <trkpt lat="50.62428" lon="3.48625">
        <ele>55.52</ele>
        <time>2023-05-12T09:50:30.618Z</time>
      </trkpt>
      <trkpt lat="50.62437" lon="3.48656">
        <ele>54.93</ele>
        <time>2023-05-12T09:50:34.237Z</time>
      </trkpt>
      <trkpt lat="50.62442" lon="3.48683">
        <ele>54.15</ele>
        <time>2023-05-12T09:50:37.859Z</time>
      </trkpt>
      <trkpt lat="50.62442" lon="3.48697">
        <ele>53.21</ele>
        <time>2023-05-12T09:50:41.482Z</time>
      </trkpt>
      <trkpt lat="50.62417" lon="3.48748">
        <ele>51.86</ele>
        <time>2023-05-12T09:50:45.112Z</time>
      </trkpt>
      <trkpt lat="50.62348" lon="3.48871">
        <ele>50.22</ele>
        <time>2023-05-12T09:50:48.758Z</time>
      </trkpt>
      <trkpt lat="50.62363" lon="3.48888">
        <ele>49.38</ele>
        <time>2023-05-12T09:50:52.407Z</time>
      </trkpt>
      <trkpt lat="50.6243" lon="3.48985">
        <ele>48.18</ele>
        <time>2023-05-12T09:50:56.071Z</time>
      </trkpt>
      <trkpt lat="50.62444" lon="3.49001">
        <ele>47.1</ele>
        <time>2023-05-12T09:50:59.738Z</time>
      </trkpt>
      <trkpt lat="50.62444" lon="3.49001">
        <ele>47.1</ele>
        <time>2023-05-12T09:51:03.405Z</time>
      </trkpt>
      <trkpt lat="50.62444" lon="3.49001">
        <ele>47.1</ele>
        <time>2023-05-12T09:51:07.072Z</time>
      </trkpt>
      <trkpt lat="50.62445" lon="3.49003">
        <ele>47.01</ele>
        <time>2023-05-12T09:51:10.739Z</time>
      </trkpt>
      <trkpt lat="50.62445" lon="3.49003">
        <ele>47.01</ele>
        <time>2023-05-12T09:51:14.406Z</time>
      </trkpt>
      <trkpt lat="50.62448" lon="3.49006">
        <ele>46.78</ele>
        <time>2023-05-12T09:51:18.074Z</time>
      </trkpt>
      <trkpt lat="50.62448" lon="3.49006">
        <ele>46.78</ele>
        <time>2023-05-12T09:51:21.742Z</time>
      </trkpt>
      <trkpt lat="50.62492" lon="3.49057">
        <ele>46.25</ele>
        <time>2023-05-12T09:51:25.418Z</time>
      </trkpt>
      <trkpt lat="50.62528" lon="3.49094">
        <ele>45.96</ele>
        <time>2023-05-12T09:51:29.101Z</time>
      </trkpt>
      <trkpt lat="50.62545" lon="3.49114">
        <ele>45.88</ele>
        <time>2023-05-12T09:51:32.788Z</time>
      </trkpt>
      <trkpt lat="50.62582" lon="3.49172">
        <ele>45.79</ele>
        <time>2023-05-12T09:51:36.483Z</time>
      </trkpt>
      <trkpt lat="50.6259" lon="3.4919">
        <ele>45.51</ele>
        <time>2023-05-12T09:51:40.180Z</time>
      </trkpt>
      <trkpt lat="50.62617" lon="3.4929">
        <ele>44.86</ele>
        <time>2023-05-12T09:51:43.888Z</time>
      </trkpt>
      <trkpt lat="50.62637" lon="3.49349">
        <ele>44.42</ele>
        <time>2023-05-12T09:51:47.603Z</time>
      </trkpt>
      <trkpt lat="50.62653" lon="3.49382">
        <ele>44.12</ele>
        <time>2023-05-12T09:51:51.322Z</time>
      </trkpt>
      <trkpt lat="50.62763" lon="3.49533">
        <ele>43.88</ele>
        <time>2023-05-12T09:51:55.065Z</time>
      </trkpt>
      <trkpt lat="50.62817" lon="3.4962">
        <ele>43.74</ele>
        <time>2023-05-12T09:51:58.820Z</time>
      </trkpt>
      <trkpt lat="50.6284" lon="3.49648">
        <ele>43.89</ele>
        <time>2023-05-12T09:52:02.580Z</time>
      </trkpt>
      <trkpt lat="50.62907" lon="3.497">
        <ele>44.28</ele>
        <time>2023-05-12T09:52:06.352Z</time>
      </trkpt>
      <trkpt lat="50.62963" lon="3.4974">
        <ele>44.85</ele>
        <time>2023-05-12T09:52:10.134Z</time>
      </trkpt>
      <trkpt lat="50.62986" lon="3.49749">
        <ele>45.95</ele>
        <time>2023-05-12T09:52:13.919Z</time>
      </trkpt>
      <trkpt lat="50.62995" lon="3.49745">
        <ele>47.35</ele>
        <time>2023-05-12T09:52:17.706Z</time>
      </trkpt>
      <trkpt lat="50.63027" lon="3.49724">
        <ele>49.27</ele>
        <time>2023-05-12T09:52:21.498Z</time>
      </trkpt>
      <trkpt lat="50.63034" lon="3.49721">
        <ele>51.45</ele>
        <time>2023-05-12T09:52:25.292Z</time>
      </trkpt>
      <trkpt lat="50.63049" lon="3.49734">
        <ele>54.22</ele>
        <time>2023-05-12T09:52:29.088Z</time>
      </trkpt>
      <trkpt lat="50.63141" lon="3.49848">
        <ele>58.35</ele>
        <time>2023-05-12T09:52:32.903Z</time>
      </trkpt>
      <trkpt lat="50.63168" lon="3.49873">
        <ele>61.63</ele>
        <time>2023-05-12T09:52:36.723Z</time>
      </trkpt>
      <trkpt lat="50.63248" lon="3.49928">
        <ele>65.77</ele>
        <time>2023-05-12T09:52:40.557Z</time>
      </trkpt>
      <trkpt lat="50.6326" lon="3.49931">
        <ele>68.42</ele>
        <time>2023-05-12T09:52:44.393Z</time>
      </trkpt>
      <trkpt lat="50.63267" lon="3.49925">
        <ele>70.73</ele>
        <time>2023-05-12T09:52:48.230Z</time>
      </trkpt>
      <trkpt lat="50.63299" lon="3.49856">
        <ele>72.89</ele>
        <time>2023-05-12T09:52:52.076Z</time>
      </trkpt>
      <trkpt lat="50.63322" lon="3.4983">
        <ele>74.22</ele>
        <time>2023-05-12T09:52:55.927Z</time>
      </trkpt>
      <trkpt lat="50.63335" lon="3.4982">
        <ele>75.22</ele>
        <time>2023-05-12T09:52:59.780Z</time>
      </trkpt>
      <trkpt lat="50.63336" lon="3.4982">
        <ele>74.69</ele>
        <time>2023-05-12T09:53:03.633Z</time>
      </trkpt>
      <trkpt lat="50.63336" lon="3.4982">
        <ele>74.67</ele>
        <time>2023-05-12T09:53:07.486Z</time>
      </trkpt>
      <trkpt lat="50.63336" lon="3.4982">
        <ele>74.62</ele>
        <time>2023-05-12T09:53:11.339Z</time>
      </trkpt>
      <trkpt lat="50.63337" lon="3.49819">
        <ele>73.73</ele>
        <time>2023-05-12T09:53:15.192Z</time>
      </trkpt>
      <trkpt lat="50.63337" lon="3.49819">
        <ele>73.68</ele>
        <time>2023-05-12T09:53:19.045Z</time>
      </trkpt>
      <trkpt lat="50.63341" lon="3.49818">
        <ele>71.58</ele>
        <time>2023-05-12T09:53:22.899Z</time>
      </trkpt>
      <trkpt lat="50.63341" lon="3.49818">
        <ele>71.53</ele>
        <time>2023-05-12T09:53:26.753Z</time>
      </trkpt>
      <trkpt lat="50.63384" lon="3.49806">
        <ele>70.61</ele>
        <time>2023-05-12T09:53:30.614Z</time>
      </trkpt>
      <trkpt lat="50.63432" lon="3.49795">
        <ele>68.87</ele>
        <time>2023-05-12T09:53:34.483Z</time>
      </trkpt>
      <trkpt lat="50.6346" lon="3.49789">
        <ele>67.35</ele>
        <time>2023-05-12T09:53:38.356Z</time>
      </trkpt>
      <trkpt lat="50.63488" lon="3.49778">
        <ele>66</ele>
        <time>2023-05-12T09:53:42.234Z</time>
      </trkpt>
      <trkpt lat="50.63621" lon="3.49797">
        <ele>63.81</ele>
        <time>2023-05-12T09:53:46.133Z</time>
      </trkpt>
      <trkpt lat="50.63632" lon="3.49803">
        <ele>62.93</ele>
        <time>2023-05-12T09:53:50.034Z</time>
      </trkpt>
      <trkpt lat="50.63643" lon="3.49821">
        <ele>62.57</ele>
        <time>2023-05-12T09:53:53.938Z</time>
      </trkpt>
      <trkpt lat="50.63677" lon="3.49898">
        <ele>62.81</ele>
        <time>2023-05-12T09:53:57.851Z</time>
      </trkpt>
      <trkpt lat="50.63681" lon="3.49923">
        <ele>63.31</ele>
        <time>2023-05-12T09:54:01.767Z</time>
      </trkpt>
      <trkpt lat="50.63674" lon="3.49948">
        <ele>64.23</ele>
        <time>2023-05-12T09:54:05.686Z</time>
      </trkpt>
      <trkpt lat="50.63642" lon="3.50098">
        <ele>65.9</ele>
        <time>2023-05-12T09:54:09.621Z</time>
      </trkpt>
      <trkpt lat="50.63612" lon="3.50175">
        <ele>67.24</ele>
        <time>2023-05-12T09:54:13.565Z</time>
      </trkpt>
      <trkpt lat="50.6359" lon="3.50227">
        <ele>68.56</ele>
        <time>2023-05-12T09:54:17.515Z</time>
      </trkpt>
      <trkpt lat="50.63579" lon="3.50241">
        <ele>69.64</ele>
        <time>2023-05-12T09:54:21.467Z</time>
      </trkpt>
      <trkpt lat="50.63569" lon="3.5025">
        <ele>70.59</ele>
        <time>2023-05-12T09:54:25.421Z</time>
      </trkpt>
      <trkpt lat="50.63552" lon="3.50256">
        <ele>71.5</ele>
        <time>2023-05-12T09:54:29.378Z</time>
      </trkpt>
      <trkpt lat="50.63541" lon="3.50256">
        <ele>72.28</ele>
        <time>2023-05-12T09:54:33.337Z</time>
      </trkpt>
      <trkpt lat="50.63522" lon="3.50251">
        <ele>72.96</ele>
        <time>2023-05-12T09:54:37.299Z</time>
      </trkpt>
      <trkpt lat="50.63501" lon="3.50239">
        <ele>73.54</ele>
        <time>2023-05-12T09:54:41.265Z</time>
      </trkpt>
      <trkpt lat="50.63484" lon="3.50237">
        <ele>73.77</ele>
        <time>2023-05-12T09:54:45.233Z</time>
      </trkpt>
      <trkpt lat="50.63422" lon="3.50316">
        <ele>73.79</ele>
        <time>2023-05-12T09:54:49.214Z</time>
      </trkpt>
      <trkpt lat="50.63413" lon="3.50333">
        <ele>73.61</ele>
        <time>2023-05-12T09:54:53.197Z</time>
      </trkpt>
      <trkpt lat="50.63408" lon="3.50354">
        <ele>73.4</ele>
        <time>2023-05-12T09:54:57.183Z</time>
      </trkpt>
      <trkpt lat="50.63402" lon="3.50383">
        <ele>73.08</ele>
        <time>2023-05-12T09:55:01.172Z</time>
      </trkpt>
      <trkpt lat="50.63398" lon="3.50457">
        <ele>72.8</ele>
        <time>2023-05-12T09:55:05.168Z</time>
      </trkpt>
      <trkpt lat="50.63396" lon="3.50478">
        <ele>72.31</ele>
        <time>2023-05-12T09:55:09.166Z</time>
      </trkpt>
      <trkpt lat="50.63389" lon="3.50494">
        <ele>71.94</ele>
        <time>2023-05-12T09:55:13.166Z</time>
      </trkpt>
      <trkpt lat="50.63389" lon="3.50494">
        <ele>72.38</ele>
        <time>2023-05-12T09:55:17.166Z</time>
      </trkpt>
      <trkpt lat="50.63387" lon="3.50499">
        <ele>72.63</ele>
        <time>2023-05-12T09:55:21.167Z</time>
      </trkpt>
      <trkpt lat="50.63358" lon="3.5054">
        <ele>72.7</ele>
        <time>2023-05-12T09:55:25.174Z</time>
      </trkpt>
      <trkpt lat="50.63347" lon="3.50559">
        <ele>73.01</ele>
        <time>2023-05-12T09:55:29.184Z</time>
      </trkpt>
      <trkpt lat="50.63303" lon="3.50701">
        <ele>74.63</ele>
        <time>2023-05-12T09:55:33.210Z</time>
      </trkpt>
      <trkpt lat="50.63289" lon="3.50688">
        <ele>74.85</ele>
        <time>2023-05-12T09:55:37.239Z</time>
      </trkpt>
      <trkpt lat="50.63274" lon="3.50681">
        <ele>74.61</ele>
        <time>2023-05-12T09:55:41.270Z</time>
      </trkpt>
      <trkpt lat="50.63221" lon="3.50674">
        <ele>74</ele>
        <time>2023-05-12T09:55:45.310Z</time>
      </trkpt>
      <trkpt lat="50.63201" lon="3.50666">
        <ele>73.2</ele>
        <time>2023-05-12T09:55:49.353Z</time>
      </trkpt>
      <trkpt lat="50.63183" lon="3.50654">
        <ele>72.21</ele>
        <time>2023-05-12T09:55:53.399Z</time>
      </trkpt>
      <trkpt lat="50.63169" lon="3.50637">
        <ele>71.03</ele>
        <time>2023-05-12T09:55:57.448Z</time>
      </trkpt>
      <trkpt lat="50.6316" lon="3.50622">
        <ele>69.82</ele>
        <time>2023-05-12T09:56:01.499Z</time>
      </trkpt>
      <trkpt lat="50.63149" lon="3.50557">
        <ele>68.17</ele>
        <time>2023-05-12T09:56:05.557Z</time>
      </trkpt>
      <trkpt lat="50.63141" lon="3.50528">
        <ele>66.83</ele>
        <time>2023-05-12T09:56:09.618Z</time>
      </trkpt>
      <trkpt lat="50.63123" lon="3.50498">
        <ele>65.4</ele>
        <time>2023-05-12T09:56:13.683Z</time>
      </trkpt>
      <trkpt lat="50.63104" lon="3.50478">
        <ele>64.24</ele>
        <time>2023-05-12T09:56:17.752Z</time>
      </trkpt>
      <trkpt lat="50.63089" lon="3.50464">
        <ele>63.06</ele>
        <time>2023-05-12T09:56:21.824Z</time>
      </trkpt>
      <trkpt lat="50.6307" lon="3.50452">
        <ele>62</ele>
        <time>2023-05-12T09:56:25.899Z</time>
      </trkpt>
      <trkpt lat="50.63059" lon="3.50443">
        <ele>61.06</ele>
        <time>2023-05-12T09:56:29.976Z</time>
      </trkpt>
      <trkpt lat="50.63003" lon="3.50319">
        <ele>60.2</ele>
        <time>2023-05-12T09:56:34.068Z</time>
      </trkpt>
      <trkpt lat="50.62954" lon="3.50251">
        <ele>59.37</ele>
        <time>2023-05-12T09:56:38.171Z</time>
      </trkpt>
      <trkpt lat="50.62932" lon="3.50207">
        <ele>58.53</ele>
        <time>2023-05-12T09:56:42.279Z</time>
      </trkpt>
      <trkpt lat="50.62916" lon="3.50185">
        <ele>57.83</ele>
        <time>2023-05-12T09:56:46.391Z</time>
      </trkpt>
      <trkpt lat="50.62879" lon="3.50118">
        <ele>57.04</ele>
        <time>2023-05-12T09:56:50.512Z</time>
      </trkpt>
      <trkpt lat="50.62865" lon="3.50101">
        <ele>56.49</ele>
        <time>2023-05-12T09:56:54.636Z</time>
      </trkpt>
      <trkpt lat="50.62857" lon="3.50094">
        <ele>56.12</ele>
        <time>2023-05-12T09:56:58.761Z</time>
      </trkpt>
      <trkpt lat="50.62834" lon="3.50072">
        <ele>57.01</ele>
        <time>2023-05-12T09:57:02.891Z</time>
      </trkpt>
      <trkpt lat="50.62817" lon="3.50045">
        <ele>56.5</ele>
        <time>2023-05-12T09:57:07.025Z</time>
      </trkpt>
      <trkpt lat="50.62798" lon="3.5003">
        <ele>55.91</ele>
        <time>2023-05-12T09:57:11.162Z</time>
      </trkpt>
      <trkpt lat="50.62776" lon="3.5002">
        <ele>55.1</ele>
        <time>2023-05-12T09:57:15.303Z</time>
      </trkpt>
      <trkpt lat="50.62763" lon="3.50015">
        <ele>53.97</ele>
        <time>2023-05-12T09:57:19.446Z</time>
      </trkpt>
      <trkpt lat="50.62626" lon="3.49912">
        <ele>52.33</ele>
        <time>2023-05-12T09:57:23.613Z</time>
      </trkpt>
      <trkpt lat="50.62379" lon="3.49712">
        <ele>49.26</ele>
        <time>2023-05-12T09:57:27.825Z</time>
      </trkpt>
      <trkpt lat="50.62341" lon="3.49669">
        <ele>46.66</ele>
        <time>2023-05-12T09:57:32.044Z</time>
      </trkpt>
      <trkpt lat="50.62321" lon="3.49655">
        <ele>44.12</ele>
        <time>2023-05-12T09:57:36.267Z</time>
      </trkpt>
      <trkpt lat="50.62254" lon="3.49647">
        <ele>41.24</ele>
        <time>2023-05-12T09:57:40.500Z</time>
      </trkpt>
      <trkpt lat="50.62185" lon="3.49648">
        <ele>38.56</ele>
        <time>2023-05-12T09:57:44.744Z</time>
      </trkpt>
      <trkpt lat="50.62188" lon="3.49703">
        <ele>37.18</ele>
        <time>2023-05-12T09:57:48.994Z</time>
      </trkpt>
      <trkpt lat="50.62195" lon="3.4977">
        <ele>35.91</ele>
        <time>2023-05-12T09:57:53.251Z</time>
      </trkpt>
      <trkpt lat="50.62202" lon="3.49852">
        <ele>34.88</ele>
        <time>2023-05-12T09:57:57.516Z</time>
      </trkpt>
      <trkpt lat="50.62205" lon="3.49878">
        <ele>34.25</ele>
        <time>2023-05-12T09:58:01.784Z</time>
      </trkpt>
      <trkpt lat="50.62206" lon="3.49883">
        <ele>33.88</ele>
        <time>2023-05-12T09:58:06.053Z</time>
      </trkpt>
      <trkpt lat="50.62206" lon="3.49883">
        <ele>33.95</ele>
        <time>2023-05-12T09:58:10.322Z</time>
      </trkpt>
      <trkpt lat="50.62217" lon="3.49933">
        <ele>33.52</ele>
        <time>2023-05-12T09:58:14.596Z</time>
      </trkpt>
      <trkpt lat="50.62235" lon="3.49989">
        <ele>33.46</ele>
        <time>2023-05-12T09:58:18.876Z</time>
      </trkpt>
      <trkpt lat="50.62245" lon="3.50049">
        <ele>33.86</ele>
        <time>2023-05-12T09:58:23.163Z</time>
      </trkpt>
      <trkpt lat="50.62246" lon="3.50096">
        <ele>34.28</ele>
        <time>2023-05-12T09:58:27.454Z</time>
      </trkpt>
      <trkpt lat="50.62252" lon="3.50183">
        <ele>34.56</ele>
        <time>2023-05-12T09:58:31.754Z</time>
      </trkpt>
      <trkpt lat="50.62256" lon="3.50303">
        <ele>35.38</ele>
        <time>2023-05-12T09:58:36.067Z</time>
      </trkpt>
      <trkpt lat="50.62255" lon="3.50359">
        <ele>35.95</ele>
        <time>2023-05-12T09:58:40.385Z</time>
      </trkpt>
      <trkpt lat="50.62278" lon="3.50438">
        <ele>36.51</ele>
        <time>2023-05-12T09:58:44.712Z</time>
      </trkpt>
      <trkpt lat="50.62277" lon="3.50467">
        <ele>37.04</ele>
        <time>2023-05-12T09:58:49.042Z</time>
      </trkpt>
      <trkpt lat="50.62262" lon="3.50578">
        <ele>37.96</ele>
        <time>2023-05-12T09:58:53.384Z</time>
      </trkpt>
      <trkpt lat="50.62265" lon="3.50598">
        <ele>39.07</ele>
        <time>2023-05-12T09:58:57.728Z</time>
      </trkpt>
      <trkpt lat="50.62276" lon="3.50608">
        <ele>40.3</ele>
        <time>2023-05-12T09:59:02.074Z</time>
      </trkpt>
      <trkpt lat="50.62306" lon="3.50624">
        <ele>41.79</ele>
        <time>2023-05-12T09:59:06.425Z</time>
      </trkpt>
      <trkpt lat="50.62337" lon="3.50638">
        <ele>43.31</ele>
        <time>2023-05-12T09:59:10.781Z</time>
      </trkpt>
      <trkpt lat="50.62358" lon="3.50651">
        <ele>44.74</ele>
        <time>2023-05-12T09:59:15.141Z</time>
      </trkpt>
      <trkpt lat="50.62395" lon="3.50673">
        <ele>46.35</ele>
        <time>2023-05-12T09:59:19.507Z</time>
      </trkpt>
      <trkpt lat="50.62398" lon="3.50677">
        <ele>47.47</ele>
        <time>2023-05-12T09:59:23.874Z</time>
      </trkpt>
      <trkpt lat="50.62401" lon="3.50684">
        <ele>48.55</ele>
        <time>2023-05-12T09:59:28.242Z</time>
      </trkpt>
      <trkpt lat="50.62407" lon="3.50708">
        <ele>49.68</ele>
        <time>2023-05-12T09:59:32.612Z</time>
      </trkpt>
      <trkpt lat="50.62409" lon="3.50713">
        <ele>50.65</ele>
        <time>2023-05-12T09:59:36.983Z</time>
      </trkpt>
      <trkpt lat="50.62441" lon="3.50728">
        <ele>51.66</ele>
        <time>2023-05-12T09:59:41.359Z</time>
      </trkpt>
      <trkpt lat="50.62436" lon="3.50783">
        <ele>52.93</ele>
        <time>2023-05-12T09:59:45.741Z</time>
      </trkpt>
      <trkpt lat="50.62439" lon="3.5082">
        <ele>53.87</ele>
        <time>2023-05-12T09:59:50.127Z</time>
      </trkpt>
      <trkpt lat="50.6244" lon="3.50825">
        <ele>54.37</ele>
        <time>2023-05-12T09:59:54.513Z</time>
      </trkpt>
      <trkpt lat="50.6245" lon="3.50879">
        <ele>57.33</ele>
        <time>2023-05-12T09:59:58.905Z</time>
      </trkpt>
      <trkpt lat="50.62449" lon="3.50934">
        <ele>57.8</ele>
        <time>2023-05-12T10:00:03.302Z</time>
      </trkpt>
      <trkpt lat="50.62449" lon="3.51013">
        <ele>58.61</ele>
        <time>2023-05-12T10:00:07.708Z</time>
      </trkpt>
      <trkpt lat="50.62457" lon="3.51041">
        <ele>58.98</ele>
        <time>2023-05-12T10:00:12.117Z</time>
      </trkpt>
      <trkpt lat="50.62459" lon="3.51063">
        <ele>58.85</ele>
        <time>2023-05-12T10:00:16.528Z</time>
      </trkpt>
      <trkpt lat="50.62446" lon="3.51176">
        <ele>57.52</ele>
        <time>2023-05-12T10:00:20.951Z</time>
      </trkpt>
      <trkpt lat="50.62447" lon="3.51211">
        <ele>55.86</ele>
        <time>2023-05-12T10:00:25.377Z</time>
      </trkpt>
      <trkpt lat="50.62425" lon="3.51221">
        <ele>54.08</ele>
        <time>2023-05-12T10:00:29.807Z</time>
      </trkpt>
      <trkpt lat="50.62355" lon="3.51246">
        <ele>52.08</ele>
        <time>2023-05-12T10:00:34.248Z</time>
      </trkpt>
      <trkpt lat="50.62355" lon="3.51246">
        <ele>50.38</ele>
        <time>2023-05-12T10:00:38.689Z</time>
      </trkpt>
      <trkpt lat="50.62349" lon="3.51274">
        <ele>48.62</ele>
        <time>2023-05-12T10:00:43.133Z</time>
      </trkpt>
      <trkpt lat="50.6234" lon="3.51376">
        <ele>46.39</ele>
        <time>2023-05-12T10:00:47.588Z</time>
      </trkpt>
      <trkpt lat="50.62335" lon="3.514">
        <ele>44.77</ele>
        <time>2023-05-12T10:00:52.046Z</time>
      </trkpt>
      <trkpt lat="50.62313" lon="3.51422">
        <ele>43.32</ele>
        <time>2023-05-12T10:00:56.508Z</time>
      </trkpt>
      <trkpt lat="50.6226" lon="3.51449">
        <ele>41.85</ele>
        <time>2023-05-12T10:01:00.979Z</time>
      </trkpt>
      <trkpt lat="50.62159" lon="3.51468">
        <ele>41.27</ele>
        <time>2023-05-12T10:01:05.466Z</time>
      </trkpt>
      <trkpt lat="50.62059" lon="3.51483">
        <ele>41.69</ele>
        <time>2023-05-12T10:01:09.969Z</time>
      </trkpt>
      <trkpt lat="50.62059" lon="3.51483">
        <ele>41.66</ele>
        <time>2023-05-12T10:01:14.472Z</time>
      </trkpt>
      <trkpt lat="50.62067" lon="3.51546">
        <ele>41.72</ele>
        <time>2023-05-12T10:01:18.982Z</time>
      </trkpt>
      <trkpt lat="50.62146" lon="3.51861">
        <ele>41.49</ele>
        <time>2023-05-12T10:01:23.526Z</time>
      </trkpt>
      <trkpt lat="50.62159" lon="3.51883">
        <ele>42.17</ele>
        <time>2023-05-12T10:01:28.073Z</time>
      </trkpt>
      <trkpt lat="50.62159" lon="3.51883">
        <ele>43.42</ele>
        <time>2023-05-12T10:01:32.620Z</time>
      </trkpt>
      <trkpt lat="50.62248" lon="3.51959">
        <ele>45.61</ele>
        <time>2023-05-12T10:01:37.183Z</time>
      </trkpt>
      <trkpt lat="50.62248" lon="3.51959">
        <ele>47.55</ele>
        <time>2023-05-12T10:01:41.746Z</time>
      </trkpt>
      <trkpt lat="50.62564" lon="3.52138">
        <ele>51.27</ele>
        <time>2023-05-12T10:01:46.363Z</time>
      </trkpt>
      <trkpt lat="50.62586" lon="3.52161">
        <ele>53.41</ele>
        <time>2023-05-12T10:01:50.984Z</time>
      </trkpt>
      <trkpt lat="50.62603" lon="3.5219">
        <ele>55.29</ele>
        <time>2023-05-12T10:01:55.609Z</time>
      </trkpt>
      <trkpt lat="50.62645" lon="3.52268">
        <ele>57.12</ele>
        <time>2023-05-12T10:02:00.245Z</time>
      </trkpt>
      <trkpt lat="50.62664" lon="3.52291">
        <ele>58.5</ele>
        <time>2023-05-12T10:02:04.885Z</time>
      </trkpt>
      <trkpt lat="50.6272" lon="3.52327">
        <ele>59.71</ele>
        <time>2023-05-12T10:02:09.534Z</time>
      </trkpt>
      <trkpt lat="50.6272" lon="3.52327">
        <ele>60.4</ele>
        <time>2023-05-12T10:02:14.183Z</time>
      </trkpt>
      <trkpt lat="50.62766" lon="3.52359">
        <ele>60.81</ele>
        <time>2023-05-12T10:02:18.840Z</time>
      </trkpt>
      <trkpt lat="50.628" lon="3.52382">
        <ele>60.85</ele>
        <time>2023-05-12T10:02:23.503Z</time>
      </trkpt>
      <trkpt lat="50.62956" lon="3.52488">
        <ele>60.17</ele>
        <time>2023-05-12T10:02:28.194Z</time>
      </trkpt>
      <trkpt lat="50.6304" lon="3.5256">
        <ele>59.63</ele>
        <time>2023-05-12T10:02:32.900Z</time>
      </trkpt>
      <trkpt lat="50.63044" lon="3.52566">
        <ele>58.97</ele>
        <time>2023-05-12T10:02:37.607Z</time>
      </trkpt>
      <trkpt lat="50.63114" lon="3.52631">
        <ele>58.33</ele>
        <time>2023-05-12T10:02:42.327Z</time>
      </trkpt>
      <trkpt lat="50.63295" lon="3.52795">
        <ele>56.5</ele>
        <time>2023-05-12T10:02:47.080Z</time>
      </trkpt>
      <trkpt lat="50.6331" lon="3.52817">
        <ele>55.41</ele>
        <time>2023-05-12T10:02:51.837Z</time>
      </trkpt>
      <trkpt lat="50.63322" lon="3.52846">
        <ele>54.46</ele>
        <time>2023-05-12T10:02:56.597Z</time>
      </trkpt>
      <trkpt lat="50.63322" lon="3.52846">
        <ele>53.63</ele>
        <time>2023-05-12T10:03:01.357Z</time>
      </trkpt>
      <trkpt lat="50.63339" lon="3.52954">
        <ele>52.71</ele>
        <time>2023-05-12T10:03:06.128Z</time>
      </trkpt>
      <trkpt lat="50.63349" lon="3.52988">
        <ele>52.18</ele>
        <time>2023-05-12T10:03:10.903Z</time>
      </trkpt>
      <trkpt lat="50.63396" lon="3.53114">
        <ele>51.77</ele>
        <time>2023-05-12T10:03:15.693Z</time>
      </trkpt>
      <trkpt lat="50.63421" lon="3.53176">
        <ele>51.11</ele>
        <time>2023-05-12T10:03:20.491Z</time>
      </trkpt>
      <trkpt lat="50.63432" lon="3.53192">
        <ele>50.39</ele>
        <time>2023-05-12T10:03:25.291Z</time>
      </trkpt>
      <trkpt lat="50.63501" lon="3.53252">
        <ele>49.05</ele>
        <time>2023-05-12T10:03:30.104Z</time>
      </trkpt>
      <trkpt lat="50.63673" lon="3.53429">
        <ele>45.6</ele>
        <time>2023-05-12T10:03:34.950Z</time>
      </trkpt>
      <trkpt lat="50.63705" lon="3.53462">
        <ele>49.04</ele>
        <time>2023-05-12T10:03:39.802Z</time>
      </trkpt>
      <trkpt lat="50.63703" lon="3.53497">
        <ele>50.4</ele>
        <time>2023-05-12T10:03:44.657Z</time>
      </trkpt>
      <trkpt lat="50.63698" lon="3.53768">
        <ele>53.83</ele>
        <time>2023-05-12T10:03:49.540Z</time>
      </trkpt>
      <trkpt lat="50.63693" lon="3.53781">
        <ele>55.57</ele>
        <time>2023-05-12T10:03:54.424Z</time>
      </trkpt>
      <trkpt lat="50.63679" lon="3.53799">
        <ele>56.76</ele>
        <time>2023-05-12T10:03:59.311Z</time>
      </trkpt>
      <trkpt lat="50.63679" lon="3.53799">
        <ele>57.4</ele>
        <time>2023-05-12T10:04:04.198Z</time>
      </trkpt>
      <trkpt lat="50.63671" lon="3.53811">
        <ele>57.71</ele>
        <time>2023-05-12T10:04:09.087Z</time>
      </trkpt>
      <trkpt lat="50.63642" lon="3.53862">
        <ele>58.03</ele>
        <time>2023-05-12T10:04:13.983Z</time>
      </trkpt>
      <trkpt lat="50.63617" lon="3.53914">
        <ele>57.87</ele>
        <time>2023-05-12T10:04:18.886Z</time>
      </trkpt>
      <trkpt lat="50.636" lon="3.53954">
        <ele>57.44</ele>
        <time>2023-05-12T10:04:23.794Z</time>
      </trkpt>
      <trkpt lat="50.63593" lon="3.53978">
        <ele>57.17</ele>
        <time>2023-05-12T10:04:28.704Z</time>
      </trkpt>
      <trkpt lat="50.63574" lon="3.54023">
        <ele>56.9</ele>
        <time>2023-05-12T10:04:33.620Z</time>
      </trkpt>
      <trkpt lat="50.63492" lon="3.54128">
        <ele>56.88</ele>
        <time>2023-05-12T10:04:38.553Z</time>
      </trkpt>
      <trkpt lat="50.63471" lon="3.5415">
        <ele>56.79</ele>
        <time>2023-05-12T10:04:43.490Z</time>
      </trkpt>
      <trkpt lat="50.63458" lon="3.54169">
        <ele>56.86</ele>
        <time>2023-05-12T10:04:48.430Z</time>
      </trkpt>
      <trkpt lat="50.63454" lon="3.54191">
        <ele>57.11</ele>
        <time>2023-05-12T10:04:53.372Z</time>
      </trkpt>
      <trkpt lat="50.63463" lon="3.54228">
        <ele>57.48</ele>
        <time>2023-05-12T10:04:58.318Z</time>
      </trkpt>
      <trkpt lat="50.63466" lon="3.5425">
        <ele>58</ele>
        <time>2023-05-12T10:05:03.266Z</time>
      </trkpt>
      <trkpt lat="50.63455" lon="3.54306">
        <ele>58.63</ele>
        <time>2023-05-12T10:05:08.220Z</time>
      </trkpt>
      <trkpt lat="50.63403" lon="3.54377">
        <ele>59.45</ele>
        <time>2023-05-12T10:05:13.185Z</time>
      </trkpt>
      <trkpt lat="50.63363" lon="3.5444">
        <ele>60.62</ele>
        <time>2023-05-12T10:05:18.159Z</time>
      </trkpt>
      <trkpt lat="50.63253" lon="3.5456">
        <ele>62.13</ele>
        <time>2023-05-12T10:05:23.155Z</time>
      </trkpt>
      <trkpt lat="50.63195" lon="3.54609">
        <ele>63.81</ele>
        <time>2023-05-12T10:05:28.161Z</time>
      </trkpt>
      <trkpt lat="50.6313" lon="3.54656">
        <ele>65.46</ele>
        <time>2023-05-12T10:05:33.179Z</time>
      </trkpt>
      <trkpt lat="50.63011" lon="3.54705">
        <ele>68.3</ele>
        <time>2023-05-12T10:05:38.217Z</time>
      </trkpt>
      <trkpt lat="50.62989" lon="3.54722">
        <ele>70.51</ele>
        <time>2023-05-12T10:05:43.258Z</time>
      </trkpt>
      <trkpt lat="50.62972" lon="3.54741">
        <ele>72.56</ele>
        <time>2023-05-12T10:05:48.303Z</time>
      </trkpt>
      <trkpt lat="50.62929" lon="3.54796">
        <ele>74.68</ele>
        <time>2023-05-12T10:05:53.357Z</time>
      </trkpt>
      <trkpt lat="50.62997" lon="3.54962">
        <ele>76.54</ele>
        <time>2023-05-12T10:05:58.431Z</time>
      </trkpt>
      <trkpt lat="50.63005" lon="3.54989">
        <ele>78.14</ele>
        <time>2023-05-12T10:06:03.508Z</time>
      </trkpt>
      <trkpt lat="50.63011" lon="3.55016">
        <ele>79.46</ele>
        <time>2023-05-12T10:06:08.588Z</time>
      </trkpt>
      <trkpt lat="50.63019" lon="3.55094">
        <ele>80.64</ele>
        <time>2023-05-12T10:06:13.676Z</time>
      </trkpt>
      <trkpt lat="50.63027" lon="3.55129">
        <ele>81.66</ele>
        <time>2023-05-12T10:06:18.768Z</time>
      </trkpt>
      <trkpt lat="50.63038" lon="3.55163">
        <ele>82.5</ele>
        <time>2023-05-12T10:06:23.863Z</time>
      </trkpt>
      <trkpt lat="50.63055" lon="3.55197">
        <ele>83.16</ele>
        <time>2023-05-12T10:06:28.963Z</time>
      </trkpt>
      <trkpt lat="50.63082" lon="3.55233">
        <ele>83.82</ele>
        <time>2023-05-12T10:06:34.068Z</time>
      </trkpt>
      <trkpt lat="50.63094" lon="3.55252">
        <ele>84.67</ele>
        <time>2023-05-12T10:06:39.176Z</time>
      </trkpt>
      <trkpt lat="50.63121" lon="3.55306">
        <ele>85.77</ele>
        <time>2023-05-12T10:06:44.291Z</time>
      </trkpt>
      <trkpt lat="50.63133" lon="3.55348">
        <ele>86.88</ele>
        <time>2023-05-12T10:06:49.411Z</time>
      </trkpt>
      <trkpt lat="50.63151" lon="3.55428">
        <ele>88</ele>
        <time>2023-05-12T10:06:54.540Z</time>
      </trkpt>
      <trkpt lat="50.63164" lon="3.55477">
        <ele>89.25</ele>
        <time>2023-05-12T10:06:59.674Z</time>
      </trkpt>
      <trkpt lat="50.63172" lon="3.555">
        <ele>90.84</ele>
        <time>2023-05-12T10:07:04.811Z</time>
      </trkpt>
      <trkpt lat="50.63203" lon="3.55575">
        <ele>92.79</ele>
        <time>2023-05-12T10:07:09.957Z</time>
      </trkpt>
      <trkpt lat="50.63244" lon="3.55711">
        <ele>95.29</ele>
        <time>2023-05-12T10:07:15.118Z</time>
      </trkpt>
      <trkpt lat="50.63261" lon="3.5576">
        <ele>97.51</ele>
        <time>2023-05-12T10:07:20.285Z</time>
      </trkpt>
      <trkpt lat="50.6328" lon="3.55799">
        <ele>99.37</ele>
        <time>2023-05-12T10:07:25.457Z</time>
      </trkpt>
      <trkpt lat="50.63304" lon="3.55838">
        <ele>100.37</ele>
        <time>2023-05-12T10:07:30.634Z</time>
      </trkpt>
      <trkpt lat="50.63321" lon="3.55874">
        <ele>100.79</ele>
        <time>2023-05-12T10:07:35.816Z</time>
      </trkpt>
      <trkpt lat="50.63336" lon="3.55916">
        <ele>100.83</ele>
        <time>2023-05-12T10:07:41.003Z</time>
      </trkpt>
      <trkpt lat="50.63355" lon="3.55994">
        <ele>100.7</ele>
        <time>2023-05-12T10:07:46.198Z</time>
      </trkpt>
      <trkpt lat="50.63409" lon="3.56247">
        <ele>100.47</ele>
        <time>2023-05-12T10:07:51.420Z</time>
      </trkpt>
      <trkpt lat="50.63451" lon="3.56413">
        <ele>99.81</ele>
        <time>2023-05-12T10:07:56.661Z</time>
      </trkpt>
      <trkpt lat="50.63534" lon="3.56644">
        <ele>99.82</ele>
        <time>2023-05-12T10:08:01.929Z</time>
      </trkpt>
      <trkpt lat="50.63535" lon="3.56645">
        <ele>99.63</ele>
        <time>2023-05-12T10:08:07.197Z</time>
      </trkpt>
      <trkpt lat="50.63535" lon="3.56645">
        <ele>99.63</ele>
        <time>2023-05-12T10:08:12.465Z</time>
      </trkpt>
      <trkpt lat="50.63535" lon="3.56645">
        <ele>99.64</ele>
        <time>2023-05-12T10:08:17.733Z</time>
      </trkpt>
      <trkpt lat="50.63535" lon="3.56645">
        <ele>99.64</ele>
        <time>2023-05-12T10:08:23.001Z</time>
      </trkpt>
      <trkpt lat="50.63535" lon="3.56647">
        <ele>99.54</ele>
        <time>2023-05-12T10:08:28.269Z</time>
      </trkpt>
      <trkpt lat="50.63535" lon="3.56648">
        <ele>99.54</ele>
        <time>2023-05-12T10:08:33.537Z</time>
      </trkpt>
      <trkpt lat="50.63536" lon="3.56653">
        <ele>99.32</ele>
        <time>2023-05-12T10:08:38.806Z</time>
      </trkpt>
      <trkpt lat="50.63536" lon="3.56653">
        <ele>99.32</ele>
        <time>2023-05-12T10:08:44.075Z</time>
      </trkpt>
      <trkpt lat="50.63536" lon="3.56653">
        <ele>96.57</ele>
        <time>2023-05-12T10:08:49.344Z</time>
      </trkpt>
      <trkpt lat="50.63558" lon="3.56748">
        <ele>95.85</ele>
        <time>2023-05-12T10:08:54.623Z</time>
      </trkpt>
      <trkpt lat="50.63564" lon="3.56781">
        <ele>95.41</ele>
        <time>2023-05-12T10:08:59.906Z</time>
      </trkpt>
      <trkpt lat="50.63599" lon="3.5699">
        <ele>94.45</ele>
        <time>2023-05-12T10:09:05.211Z</time>
      </trkpt>
      <trkpt lat="50.63608" lon="3.5703">
        <ele>94.25</ele>
        <time>2023-05-12T10:09:10.520Z</time>
      </trkpt>
      <trkpt lat="50.63622" lon="3.57069">
        <ele>94.22</ele>
        <time>2023-05-12T10:09:15.833Z</time>
      </trkpt>
      <trkpt lat="50.63635" lon="3.57096">
        <ele>94.22</ele>
        <time>2023-05-12T10:09:21.150Z</time>
      </trkpt>
      <trkpt lat="50.63695" lon="3.57257">
        <ele>93.94</ele>
        <time>2023-05-12T10:09:26.486Z</time>
      </trkpt>
      <trkpt lat="50.63771" lon="3.5746">
        <ele>94.3</ele>
        <time>2023-05-12T10:09:31.846Z</time>
      </trkpt>
      <trkpt lat="50.6378" lon="3.5749">
        <ele>93.8</ele>
        <time>2023-05-12T10:09:37.209Z</time>
      </trkpt>
      <trkpt lat="50.63795" lon="3.57553">
        <ele>92.31</ele>
        <time>2023-05-12T10:09:42.579Z</time>
      </trkpt>
      <trkpt lat="50.6381" lon="3.57636">
        <ele>90.55</ele>
        <time>2023-05-12T10:09:47.958Z</time>
      </trkpt>
      <trkpt lat="50.63823" lon="3.57753">
        <ele>88.7</ele>
        <time>2023-05-12T10:09:53.349Z</time>
      </trkpt>
      <trkpt lat="50.63826" lon="3.57769">
        <ele>87.57</ele>
        <time>2023-05-12T10:09:58.742Z</time>
      </trkpt>
      <trkpt lat="50.63829" lon="3.57816">
        <ele>86.64</ele>
        <time>2023-05-12T10:10:04.140Z</time>
      </trkpt>
      <trkpt lat="50.63835" lon="3.57974">
        <ele>86.06</ele>
        <time>2023-05-12T10:10:09.554Z</time>
      </trkpt>
      <trkpt lat="50.6384" lon="3.58043">
        <ele>85.53</ele>
        <time>2023-05-12T10:10:14.975Z</time>
      </trkpt>
      <trkpt lat="50.63853" lon="3.58029">
        <ele>86.08</ele>
        <time>2023-05-12T10:10:20.398Z</time>
      </trkpt>
      <trkpt lat="50.63883" lon="3.57975">
        <ele>87.13</ele>
        <time>2023-05-12T10:10:25.829Z</time>
      </trkpt>
      <trkpt lat="50.63939" lon="3.57894">
        <ele>88.48</ele>
        <time>2023-05-12T10:10:31.272Z</time>
      </trkpt>
      <trkpt lat="50.63954" lon="3.57872">
        <ele>89.72</ele>
        <time>2023-05-12T10:10:36.718Z</time>
      </trkpt>
      <trkpt lat="50.63987" lon="3.57834">
        <ele>91.35</ele>
        <time>2023-05-12T10:10:42.171Z</time>
      </trkpt>
      <trkpt lat="50.64043" lon="3.57784">
        <ele>92.39</ele>
        <time>2023-05-12T10:10:47.634Z</time>
      </trkpt>
      <trkpt lat="50.64076" lon="3.57743">
        <ele>92.15</ele>
        <time>2023-05-12T10:10:53.104Z</time>
      </trkpt>
      <trkpt lat="50.64076" lon="3.57743">
        <ele>90.57</ele>
        <time>2023-05-12T10:10:58.574Z</time>
      </trkpt>
      <trkpt lat="50.64202" lon="3.57557">
        <ele>86.01</ele>
        <time>2023-05-12T10:11:04.071Z</time>
      </trkpt>
      <trkpt lat="50.64211" lon="3.57545">
        <ele>84.13</ele>
        <time>2023-05-12T10:11:09.570Z</time>
      </trkpt>
      <trkpt lat="50.64234" lon="3.57525">
        <ele>72.22</ele>
        <time>2023-05-12T10:11:15.073Z</time>
      </trkpt>
      <trkpt lat="50.64234" lon="3.57525">
        <ele>72.19</ele>
        <time>2023-05-12T10:11:20.576Z</time>
      </trkpt>
      <trkpt lat="50.64235" lon="3.57525">
        <ele>72.15</ele>
        <time>2023-05-12T10:11:26.079Z</time>
      </trkpt>
      <trkpt lat="50.64236" lon="3.57524">
        <ele>71.45</ele>
        <time>2023-05-12T10:11:31.583Z</time>
      </trkpt>
      <trkpt lat="50.64236" lon="3.57524">
        <ele>71.41</ele>
        <time>2023-05-12T10:11:37.087Z</time>
      </trkpt>
      <trkpt lat="50.64239" lon="3.57521">
        <ele>69.76</ele>
        <time>2023-05-12T10:11:42.591Z</time>
      </trkpt>
      <trkpt lat="50.64239" lon="3.57521">
        <ele>69.72</ele>
        <time>2023-05-12T10:11:48.095Z</time>
      </trkpt>
      <trkpt lat="50.6434" lon="3.57437">
        <ele>65.82</ele>
        <time>2023-05-12T10:11:53.618Z</time>
      </trkpt>
      <trkpt lat="50.64381" lon="3.57411">
        <ele>62.22</ele>
        <time>2023-05-12T10:11:59.148Z</time>
      </trkpt>
      <trkpt lat="50.64448" lon="3.57393">
        <ele>58.68</ele>
        <time>2023-05-12T10:12:04.689Z</time>
      </trkpt>
      <trkpt lat="50.6449" lon="3.57367">
        <ele>55.75</ele>
        <time>2023-05-12T10:12:10.237Z</time>
      </trkpt>
      <trkpt lat="50.64503" lon="3.57356">
        <ele>53.9</ele>
        <time>2023-05-12T10:12:15.787Z</time>
      </trkpt>
      <trkpt lat="50.64516" lon="3.5735">
        <ele>52.63</ele>
        <time>2023-05-12T10:12:21.339Z</time>
      </trkpt>
      <trkpt lat="50.64567" lon="3.5732">
        <ele>51.79</ele>
        <time>2023-05-12T10:12:26.900Z</time>
      </trkpt>
      <trkpt lat="50.64691" lon="3.5724">
        <ele>51</ele>
        <time>2023-05-12T10:12:32.482Z</time>
      </trkpt>
      <trkpt lat="50.64763" lon="3.57209">
        <ele>50.75</ele>
        <time>2023-05-12T10:12:38.076Z</time>
      </trkpt>
      <trkpt lat="50.64767" lon="3.57201">
        <ele>50.56</ele>
        <time>2023-05-12T10:12:43.672Z</time>
      </trkpt>
      <trkpt lat="50.6477" lon="3.57191">
        <ele>50.44</ele>
        <time>2023-05-12T10:12:49.269Z</time>
      </trkpt>
      <trkpt lat="50.6477" lon="3.57184">
        <ele>50.33</ele>
        <time>2023-05-12T10:12:54.866Z</time>
      </trkpt>
      <trkpt lat="50.64755" lon="3.5706">
        <ele>49.83</ele>
        <time>2023-05-12T10:13:00.476Z</time>
      </trkpt>
      <trkpt lat="50.64755" lon="3.57031">
        <ele>49.84</ele>
        <time>2023-05-12T10:13:06.089Z</time>
      </trkpt>
      <trkpt lat="50.64758" lon="3.57015">
        <ele>49.97</ele>
        <time>2023-05-12T10:13:11.704Z</time>
      </trkpt>
      <trkpt lat="50.64765" lon="3.57007">
        <ele>50.21</ele>
        <time>2023-05-12T10:13:17.320Z</time>
      </trkpt>
      <trkpt lat="50.64776" lon="3.57002">
        <ele>50.54</ele>
        <time>2023-05-12T10:13:22.938Z</time>
      </trkpt>
      <trkpt lat="50.64912" lon="3.56977">
        <ele>51.22</ele>
        <time>2023-05-12T10:13:28.578Z</time>
      </trkpt>
      <trkpt lat="50.64994" lon="3.56949">
        <ele>51.45</ele>
        <time>2023-05-12T10:13:34.231Z</time>
      </trkpt>
      <trkpt lat="50.65009" lon="3.56936">
        <ele>51.66</ele>
        <time>2023-05-12T10:13:39.887Z</time>
      </trkpt>
      <trkpt lat="50.65024" lon="3.56917">
        <ele>51.89</ele>
        <time>2023-05-12T10:13:45.546Z</time>
      </trkpt>
      <trkpt lat="50.65032" lon="3.56902">
        <ele>52.12</ele>
        <time>2023-05-12T10:13:51.207Z</time>
      </trkpt>
      <trkpt lat="50.65052" lon="3.56871">
        <ele>52.21</ele>
        <time>2023-05-12T10:13:56.873Z</time>
      </trkpt>
      <trkpt lat="50.65074" lon="3.56852">
        <ele>52.14</ele>
        <time>2023-05-12T10:14:02.543Z</time>
      </trkpt>
      <trkpt lat="50.65102" lon="3.56831">
        <ele>51.82</ele>
        <time>2023-05-12T10:14:08.218Z</time>
      </trkpt>
      <trkpt lat="50.65154" lon="3.56792">
        <ele>51.5</ele>
        <time>2023-05-12T10:14:13.902Z</time>
      </trkpt>
      <trkpt lat="50.65183" lon="3.56767">
        <ele>51.26</ele>
        <time>2023-05-12T10:14:19.591Z</time>
      </trkpt>
      <trkpt lat="50.65204" lon="3.56741">
        <ele>51.04</ele>
        <time>2023-05-12T10:14:25.285Z</time>
      </trkpt>
      <trkpt lat="50.6522" lon="3.56719">
        <ele>50.65</ele>
        <time>2023-05-12T10:14:30.982Z</time>
      </trkpt>
      <trkpt lat="50.6523" lon="3.56701">
        <ele>50.46</ele>
        <time>2023-05-12T10:14:36.681Z</time>
      </trkpt>
      <trkpt lat="50.6523" lon="3.56701">
        <ele>50.46</ele>
        <time>2023-05-12T10:14:42.380Z</time>
      </trkpt>
      <trkpt lat="50.6523" lon="3.56701">
        <ele>50.46</ele>
        <time>2023-05-12T10:14:48.079Z</time>
      </trkpt>
      <trkpt lat="50.65231" lon="3.56699">
        <ele>50.45</ele>
        <time>2023-05-12T10:14:53.779Z</time>
      </trkpt>
      <trkpt lat="50.65231" lon="3.56699">
        <ele>50.45</ele>
        <time>2023-05-12T10:14:59.479Z</time>
      </trkpt>
      <trkpt lat="50.65233" lon="3.56695">
        <ele>50.41</ele>
        <time>2023-05-12T10:15:05.179Z</time>
      </trkpt>
      <trkpt lat="50.65233" lon="3.56695">
        <ele>50.41</ele>
        <time>2023-05-12T10:15:10.879Z</time>
      </trkpt>
      <trkpt lat="50.65233" lon="3.56695">
        <ele>48.64</ele>
        <time>2023-05-12T10:15:16.579Z</time>
      </trkpt>
      <trkpt lat="50.65295" lon="3.56584">
        <ele>47.05</ele>
        <time>2023-05-12T10:15:22.294Z</time>
      </trkpt>
      <trkpt lat="50.65306" lon="3.56578">
        <ele>46.97</ele>
        <time>2023-05-12T10:15:28.011Z</time>
      </trkpt>
      <trkpt lat="50.65354" lon="3.56529">
        <ele>47.25</ele>
        <time>2023-05-12T10:15:33.737Z</time>
      </trkpt>
      <trkpt lat="50.65354" lon="3.56529">
        <ele>47.43</ele>
        <time>2023-05-12T10:15:39.463Z</time>
      </trkpt>
      <trkpt lat="50.65381" lon="3.56501">
        <ele>47.82</ele>
        <time>2023-05-12T10:15:45.194Z</time>
      </trkpt>
      <trkpt lat="50.65385" lon="3.56485">
        <ele>47.8</ele>
        <time>2023-05-12T10:15:50.927Z</time>
      </trkpt>
      <trkpt lat="50.6541" lon="3.56446">
        <ele>47.52</ele>
        <time>2023-05-12T10:15:56.666Z</time>
      </trkpt>
      <trkpt lat="50.65446" lon="3.56395">
        <ele>46.87</ele>
        <time>2023-05-12T10:16:02.413Z</time>
      </trkpt>
      <trkpt lat="50.656" lon="3.56228">
        <ele>46.6</ele>
        <time>2023-05-12T10:16:08.189Z</time>
      </trkpt>
      <trkpt lat="50.6561" lon="3.56217">
        <ele>46.15</ele>
        <time>2023-05-12T10:16:13.968Z</time>
      </trkpt>
      <trkpt lat="50.657" lon="3.56136">
        <ele>45.89</ele>
        <time>2023-05-12T10:16:19.763Z</time>
      </trkpt>
      <trkpt lat="50.65872" lon="3.5595">
        <ele>44.48</ele>
        <time>2023-05-12T10:16:25.592Z</time>
      </trkpt>
      <trkpt lat="50.65922" lon="3.56043">
        <ele>44.05</ele>
        <time>2023-05-12T10:16:31.433Z</time>
      </trkpt>
      <trkpt lat="50.6597" lon="3.56089">
        <ele>44.03</ele>
        <time>2023-05-12T10:16:37.283Z</time>
      </trkpt>
      <trkpt lat="50.6599" lon="3.56122">
        <ele>44.03</ele>
        <time>2023-05-12T10:16:43.138Z</time>
      </trkpt>
      <trkpt lat="50.66155" lon="3.56219">
        <ele>44</ele>
        <time>2023-05-12T10:16:49.021Z</time>
      </trkpt>
      <trkpt lat="50.66155" lon="3.56219">
        <ele>44.4</ele>
        <time>2023-05-12T10:16:54.904Z</time>
      </trkpt>
      <trkpt lat="50.66242" lon="3.56287">
        <ele>45.74</ele>
        <time>2023-05-12T10:17:00.802Z</time>
      </trkpt>
      <trkpt lat="50.66274" lon="3.56318">
        <ele>50.42</ele>
        <time>2023-05-12T10:17:06.706Z</time>
      </trkpt>
      <trkpt lat="50.66274" lon="3.56318">
        <ele>50.43</ele>
        <time>2023-05-12T10:17:12.610Z</time>
      </trkpt>
      <trkpt lat="50.66274" lon="3.56318">
        <ele>50.45</ele>
        <time>2023-05-12T10:17:18.514Z</time>
      </trkpt>
      <trkpt lat="50.66275" lon="3.56319">
        <ele>50.65</ele>
        <time>2023-05-12T10:17:24.419Z</time>
      </trkpt>
      <trkpt lat="50.66275" lon="3.56319">
        <ele>50.67</ele>
        <time>2023-05-12T10:17:30.324Z</time>
      </trkpt>
      <trkpt lat="50.66279" lon="3.56322">
        <ele>51.14</ele>
        <time>2023-05-12T10:17:36.229Z</time>
      </trkpt>
      <trkpt lat="50.66279" lon="3.56322">
        <ele>51.16</ele>
        <time>2023-05-12T10:17:42.134Z</time>
      </trkpt>
      <trkpt lat="50.6629" lon="3.56334">
        <ele>52.7</ele>
        <time>2023-05-12T10:17:48.042Z</time>
      </trkpt>
      <trkpt lat="50.66328" lon="3.56378">
        <ele>54.85</ele>
        <time>2023-05-12T10:17:53.957Z</time>
      </trkpt>
      <trkpt lat="50.66389" lon="3.56447">
        <ele>57.66</ele>
        <time>2023-05-12T10:17:59.884Z</time>
      </trkpt>
      <trkpt lat="50.66421" lon="3.56485">
        <ele>60.35</ele>
        <time>2023-05-12T10:18:05.818Z</time>
      </trkpt>
      <trkpt lat="50.66494" lon="3.56541">
        <ele>62.67</ele>
        <time>2023-05-12T10:18:11.765Z</time>
      </trkpt>
      <trkpt lat="50.6658" lon="3.56599">
        <ele>64.66</ele>
        <time>2023-05-12T10:18:17.727Z</time>
      </trkpt>
      <trkpt lat="50.6659" lon="3.56601">
        <ele>65.86</ele>
        <time>2023-05-12T10:18:23.690Z</time>
      </trkpt>
      <trkpt lat="50.66591" lon="3.56609">
        <ele>66.56</ele>
        <time>2023-05-12T10:18:29.654Z</time>
      </trkpt>
      <trkpt lat="50.66592" lon="3.56627">
        <ele>66.83</ele>
        <time>2023-05-12T10:18:35.620Z</time>
      </trkpt>
      <trkpt lat="50.66589" lon="3.5665">
        <ele>66.71</ele>
        <time>2023-05-12T10:18:41.588Z</time>
      </trkpt>
      <trkpt lat="50.66574" lon="3.56716">
        <ele>66.39</ele>
        <time>2023-05-12T10:18:47.563Z</time>
      </trkpt>
      <trkpt lat="50.66572" lon="3.56734">
        <ele>65.97</ele>
        <time>2023-05-12T10:18:53.540Z</time>
      </trkpt>
      <trkpt lat="50.66568" lon="3.56811">
        <ele>65.25</ele>
        <time>2023-05-12T10:18:59.525Z</time>
      </trkpt>
      <trkpt lat="50.66566" lon="3.56827">
        <ele>64.46</ele>
        <time>2023-05-12T10:19:05.512Z</time>
      </trkpt>
      <trkpt lat="50.66557" lon="3.56854">
        <ele>63.57</ele>
        <time>2023-05-12T10:19:11.502Z</time>
      </trkpt>
      <trkpt lat="50.66547" lon="3.56872">
        <ele>62.55</ele>
        <time>2023-05-12T10:19:17.494Z</time>
      </trkpt>
      <trkpt lat="50.66532" lon="3.56893">
        <ele>61.53</ele>
        <time>2023-05-12T10:19:23.489Z</time>
      </trkpt>
      <trkpt lat="50.66505" lon="3.5692">
        <ele>60.35</ele>
        <time>2023-05-12T10:19:29.490Z</time>
      </trkpt>
      <trkpt lat="50.66501" lon="3.56931">
        <ele>59.36</ele>
        <time>2023-05-12T10:19:35.492Z</time>
      </trkpt>
      <trkpt lat="50.665" lon="3.56943">
        <ele>58.38</ele>
        <time>2023-05-12T10:19:41.495Z</time>
      </trkpt>
      <trkpt lat="50.66514" lon="3.5702">
        <ele>57.37</ele>
        <time>2023-05-12T10:19:47.506Z</time>
      </trkpt>
      <trkpt lat="50.66518" lon="3.5706">
        <ele>56.38</ele>
        <time>2023-05-12T10:19:53.521Z</time>
      </trkpt>
      <trkpt lat="50.6652" lon="3.57101">
        <ele>55.46</ele>
        <time>2023-05-12T10:19:59.541Z</time>
      </trkpt>
      <trkpt lat="50.66522" lon="3.57117">
        <ele>54.62</ele>
        <time>2023-05-12T10:20:05.562Z</time>
      </trkpt>
      <trkpt lat="50.66549" lon="3.57226">
        <ele>53.66</ele>
        <time>2023-05-12T10:20:11.595Z</time>
      </trkpt>
      <trkpt lat="50.66557" lon="3.57249">
        <ele>53.02</ele>
        <time>2023-05-12T10:20:17.631Z</time>
      </trkpt>
      <trkpt lat="50.66565" lon="3.57272">
        <ele>52.25</ele>
        <time>2023-05-12T10:20:23.669Z</time>
      </trkpt>
      <trkpt lat="50.66613" lon="3.57363">
        <ele>51.49</ele>
        <time>2023-05-12T10:20:29.720Z</time>
      </trkpt>
      <trkpt lat="50.66613" lon="3.57375">
        <ele>50.65</ele>
        <time>2023-05-12T10:20:35.772Z</time>
      </trkpt>
      <trkpt lat="50.66617" lon="3.57383">
        <ele>49.61</ele>
        <time>2023-05-12T10:20:41.825Z</time>
      </trkpt>
      <trkpt lat="50.66712" lon="3.57535">
        <ele>47.89</ele>
        <time>2023-05-12T10:20:47.900Z</time>
      </trkpt>
      <trkpt lat="50.66723" lon="3.57559">
        <ele>47.28</ele>
        <time>2023-05-12T10:20:53.977Z</time>
      </trkpt>
      <trkpt lat="50.66723" lon="3.57561">
        <ele>47.19</ele>
        <time>2023-05-12T10:21:00.055Z</time>
      </trkpt>
      <trkpt lat="50.66723" lon="3.57561">
        <ele>47.19</ele>
        <time>2023-05-12T10:21:06.133Z</time>
      </trkpt>
      <trkpt lat="50.66723" lon="3.57561">
        <ele>47.19</ele>
        <time>2023-05-12T10:21:12.211Z</time>
      </trkpt>
      <trkpt lat="50.66724" lon="3.57563">
        <ele>47.09</ele>
        <time>2023-05-12T10:21:18.289Z</time>
      </trkpt>
      <trkpt lat="50.66724" lon="3.57563">
        <ele>47.09</ele>
        <time>2023-05-12T10:21:24.367Z</time>
      </trkpt>
      <trkpt lat="50.66725" lon="3.57569">
        <ele>46.87</ele>
        <time>2023-05-12T10:21:30.446Z</time>
      </trkpt>
      <trkpt lat="50.66726" lon="3.57569">
        <ele>46.87</ele>
        <time>2023-05-12T10:21:36.525Z</time>
      </trkpt>
      <trkpt lat="50.66726" lon="3.57569">
        <ele>46.25</ele>
        <time>2023-05-12T10:21:42.604Z</time>
      </trkpt>
      <trkpt lat="50.66738" lon="3.57615">
        <ele>45.46</ele>
        <time>2023-05-12T10:21:48.688Z</time>
      </trkpt>
      <trkpt lat="50.66746" lon="3.57635">
        <ele>44.66</ele>
        <time>2023-05-12T10:21:54.774Z</time>
      </trkpt>
      <trkpt lat="50.66795" lon="3.57741">
        <ele>43.62</ele>
        <time>2023-05-12T10:22:00.873Z</time>
      </trkpt>
      <trkpt lat="50.6684" lon="3.57823">
        <ele>42.21</ele>
        <time>2023-05-12T10:22:06.983Z</time>
      </trkpt>
      <trkpt lat="50.66886" lon="3.57926">
        <ele>40.43</ele>
        <time>2023-05-12T10:22:13.106Z</time>
      </trkpt>
      <trkpt lat="50.66906" lon="3.57964">
        <ele>39.27</ele>
        <time>2023-05-12T10:22:19.234Z</time>
      </trkpt>
      <trkpt lat="50.66962" lon="3.58061">
        <ele>37.93</ele>
        <time>2023-05-12T10:22:25.376Z</time>
      </trkpt>
      <trkpt lat="50.66966" lon="3.58074">
        <ele>37.16</ele>
        <time>2023-05-12T10:22:31.519Z</time>
      </trkpt>
      <trkpt lat="50.66974" lon="3.58082">
        <ele>36.44</ele>
        <time>2023-05-12T10:22:37.664Z</time>
      </trkpt>
      <trkpt lat="50.67094" lon="3.58207">
        <ele>35.4</ele>
        <time>2023-05-12T10:22:43.832Z</time>
      </trkpt>
      <trkpt lat="50.67163" lon="3.58285">
        <ele>34.33</ele>
        <time>2023-05-12T10:22:50.013Z</time>
      </trkpt>
      <trkpt lat="50.67163" lon="3.58285">
        <ele>34.33</ele>
        <time>2023-05-12T10:22:56.194Z</time>
      </trkpt>
      <trkpt lat="50.67163" lon="3.58285">
        <ele>34.33</ele>
        <time>2023-05-12T10:23:02.375Z</time>
      </trkpt>
      <trkpt lat="50.67164" lon="3.58286">
        <ele>34.31</ele>
        <time>2023-05-12T10:23:08.556Z</time>
      </trkpt>
      <trkpt lat="50.67164" lon="3.58286">
        <ele>34.31</ele>
        <time>2023-05-12T10:23:14.737Z</time>
      </trkpt>
      <trkpt lat="50.67167" lon="3.5829">
        <ele>34.27</ele>
        <time>2023-05-12T10:23:20.919Z</time>
      </trkpt>
      <trkpt lat="50.67167" lon="3.5829">
        <ele>34.27</ele>
        <time>2023-05-12T10:23:27.101Z</time>
      </trkpt>
      <trkpt lat="50.67167" lon="3.5829">
        <ele>33.85</ele>
        <time>2023-05-12T10:23:33.283Z</time>
      </trkpt>
      <trkpt lat="50.67251" lon="3.58385">
        <ele>38.06</ele>
        <time>2023-05-12T10:23:39.482Z</time>
      </trkpt>
      <trkpt lat="50.67255" lon="3.58389">
        <ele>38.8</ele>
        <time>2023-05-12T10:23:45.681Z</time>
      </trkpt>
      <trkpt lat="50.67596" lon="3.57626">
        <ele>35.27</ele>
        <time>2023-05-12T10:23:51.975Z</time>
      </trkpt>
      <trkpt lat="50.67596" lon="3.57626">
        <ele>35.21</ele>
        <time>2023-05-12T10:23:58.269Z</time>
      </trkpt>
      <trkpt lat="50.67652" lon="3.57502">
        <ele>33.39</ele>
        <time>2023-05-12T10:24:04.579Z</time>
      </trkpt>
      <trkpt lat="50.6779" lon="3.57662">
        <ele>30.97</ele>
        <time>2023-05-12T10:24:10.916Z</time>
      </trkpt>
      <trkpt lat="50.67808" lon="3.57681">
        <ele>31.14</ele>
        <time>2023-05-12T10:24:17.257Z</time>
      </trkpt>
      <trkpt lat="50.6785" lon="3.57732">
        <ele>35.34</ele>
        <time>2023-05-12T10:24:23.606Z</time>
      </trkpt>
      <trkpt lat="50.67852" lon="3.57733">
        <ele>35.56</ele>
        <time>2023-05-12T10:24:29.956Z</time>
      </trkpt>
      <trkpt lat="50.6786" lon="3.57742">
        <ele>36.84</ele>
        <time>2023-05-12T10:24:36.307Z</time>
      </trkpt>
      <trkpt lat="50.6786" lon="3.57742">
        <ele>36.94</ele>
        <time>2023-05-12T10:24:42.658Z</time>
      </trkpt>
      <trkpt lat="50.67889" lon="3.57772">
        <ele>43.61</ele>
        <time>2023-05-12T10:24:49.015Z</time>
      </trkpt>
      <trkpt lat="50.67987" lon="3.57882">
        <ele>51.57</ele>
        <time>2023-05-12T10:24:55.391Z</time>
      </trkpt>
      <trkpt lat="50.67987" lon="3.57882">
        <ele>51.58</ele>
        <time>2023-05-12T10:25:01.767Z</time>
      </trkpt>
      <trkpt lat="50.67987" lon="3.57882">
        <ele>51.59</ele>
        <time>2023-05-12T10:25:08.143Z</time>
      </trkpt>
      <trkpt lat="50.67988" lon="3.57884">
        <ele>51.71</ele>
        <time>2023-05-12T10:25:14.519Z</time>
      </trkpt>
      <trkpt lat="50.67988" lon="3.57884">
        <ele>51.72</ele>
        <time>2023-05-12T10:25:20.895Z</time>
      </trkpt>
      <trkpt lat="50.67991" lon="3.57887">
        <ele>51.98</ele>
        <time>2023-05-12T10:25:27.272Z</time>
      </trkpt>
      <trkpt lat="50.67991" lon="3.57887">
        <ele>51.99</ele>
        <time>2023-05-12T10:25:33.649Z</time>
      </trkpt>
      <trkpt lat="50.6803" lon="3.5793">
        <ele>51.03</ele>
        <time>2023-05-12T10:25:40.033Z</time>
      </trkpt>
      <trkpt lat="50.6803" lon="3.5793">
        <ele>49.67</ele>
        <time>2023-05-12T10:25:46.417Z</time>
      </trkpt>
      <trkpt lat="50.68132" lon="3.58046">
        <ele>47.64</ele>
        <time>2023-05-12T10:25:52.822Z</time>
      </trkpt>
      <trkpt lat="50.68191" lon="3.57939">
        <ele>44.77</ele>
        <time>2023-05-12T10:25:59.241Z</time>
      </trkpt>
      <trkpt lat="50.68238" lon="3.57862">
        <ele>41.09</ele>
        <time>2023-05-12T10:26:05.671Z</time>
      </trkpt>
      <trkpt lat="50.68339" lon="3.57724">
        <ele>36.57</ele>
        <time>2023-05-12T10:26:12.122Z</time>
      </trkpt>
      <trkpt lat="50.68395" lon="3.57667">
        <ele>33.86</ele>
        <time>2023-05-12T10:26:18.584Z</time>
      </trkpt>
      <trkpt lat="50.68405" lon="3.5765">
        <ele>31.66</ele>
        <time>2023-05-12T10:26:25.048Z</time>
      </trkpt>
      <trkpt lat="50.68413" lon="3.57626">
        <ele>29.97</ele>
        <time>2023-05-12T10:26:31.515Z</time>
      </trkpt>
      <trkpt lat="50.68424" lon="3.57557">
        <ele>28.43</ele>
        <time>2023-05-12T10:26:37.989Z</time>
      </trkpt>
      <trkpt lat="50.68431" lon="3.57541">
        <ele>27.78</ele>
        <time>2023-05-12T10:26:44.465Z</time>
      </trkpt>
      <trkpt lat="50.68477" lon="3.57481">
        <ele>27.5</ele>
        <time>2023-05-12T10:26:50.951Z</time>
      </trkpt>
      <trkpt lat="50.68484" lon="3.57474">
        <ele>29.83</ele>
        <time>2023-05-12T10:26:57.438Z</time>
      </trkpt>
      <trkpt lat="50.68484" lon="3.57474">
        <ele>29.86</ele>
        <time>2023-05-12T10:27:03.925Z</time>
      </trkpt>
      <trkpt lat="50.68484" lon="3.57474">
        <ele>29.89</ele>
        <time>2023-05-12T10:27:10.412Z</time>
      </trkpt>
      <trkpt lat="50.68486" lon="3.57472">
        <ele>30.34</ele>
        <time>2023-05-12T10:27:16.900Z</time>
      </trkpt>
      <trkpt lat="50.68486" lon="3.57472">
        <ele>30.38</ele>
        <time>2023-05-12T10:27:23.388Z</time>
      </trkpt>
      <trkpt lat="50.68489" lon="3.57469">
        <ele>31.44</ele>
        <time>2023-05-12T10:27:29.876Z</time>
      </trkpt>
      <trkpt lat="50.68489" lon="3.57469">
        <ele>31.47</ele>
        <time>2023-05-12T10:27:36.364Z</time>
      </trkpt>
      <trkpt lat="50.68547" lon="3.57415">
        <ele>32.57</ele>
        <time>2023-05-12T10:27:42.863Z</time>
      </trkpt>
      <trkpt lat="50.68629" lon="3.57402">
        <ele>34.45</ele>
        <time>2023-05-12T10:27:49.375Z</time>
      </trkpt>
      <trkpt lat="50.68678" lon="3.57374">
        <ele>36.37</ele>
        <time>2023-05-12T10:27:55.896Z</time>
      </trkpt>
      <trkpt lat="50.68682" lon="3.57405">
        <ele>36.67</ele>
        <time>2023-05-12T10:28:02.420Z</time>
      </trkpt>
      <trkpt lat="50.68692" lon="3.57459">
        <ele>36.42</ele>
        <time>2023-05-12T10:28:08.949Z</time>
      </trkpt>
      <trkpt lat="50.68693" lon="3.57553">
        <ele>35.82</ele>
        <time>2023-05-12T10:28:15.488Z</time>
      </trkpt>
      <trkpt lat="50.68699" lon="3.57635">
        <ele>35.13</ele>
        <time>2023-05-12T10:28:22.035Z</time>
      </trkpt>
      <trkpt lat="50.68698" lon="3.57658">
        <ele>34.56</ele>
        <time>2023-05-12T10:28:28.585Z</time>
      </trkpt>
      <trkpt lat="50.68695" lon="3.5768">
        <ele>34</ele>
        <time>2023-05-12T10:28:35.137Z</time>
      </trkpt>
      <trkpt lat="50.68686" lon="3.57719">
        <ele>33.46</ele>
        <time>2023-05-12T10:28:41.693Z</time>
      </trkpt>
      <trkpt lat="50.6868" lon="3.5774">
        <ele>33.06</ele>
        <time>2023-05-12T10:28:48.252Z</time>
      </trkpt>
      <trkpt lat="50.68658" lon="3.57782">
        <ele>32.88</ele>
        <time>2023-05-12T10:28:54.816Z</time>
      </trkpt>
      <trkpt lat="50.68655" lon="3.57796">
        <ele>32.87</ele>
        <time>2023-05-12T10:29:01.382Z</time>
      </trkpt>
      <trkpt lat="50.68655" lon="3.57823">
        <ele>33.05</ele>
        <time>2023-05-12T10:29:07.950Z</time>
      </trkpt>
      <trkpt lat="50.68666" lon="3.57906">
        <ele>33.88</ele>
        <time>2023-05-12T10:29:14.527Z</time>
      </trkpt>
      <trkpt lat="50.68669" lon="3.57938">
        <ele>34.47</ele>
        <time>2023-05-12T10:29:21.107Z</time>
      </trkpt>
      <trkpt lat="50.68667" lon="3.57944">
        <ele>35.87</ele>
        <time>2023-05-12T10:29:27.688Z</time>
      </trkpt>
      <trkpt lat="50.68667" lon="3.57944">
        <ele>35.9</ele>
        <time>2023-05-12T10:29:34.269Z</time>
      </trkpt>
      <trkpt lat="50.68667" lon="3.57944">
        <ele>35.94</ele>
        <time>2023-05-12T10:29:40.850Z</time>
      </trkpt>
      <trkpt lat="50.68667" lon="3.57947">
        <ele>36.45</ele>
        <time>2023-05-12T10:29:47.431Z</time>
      </trkpt>
      <trkpt lat="50.68667" lon="3.57947">
        <ele>36.49</ele>
        <time>2023-05-12T10:29:54.012Z</time>
      </trkpt>
      <trkpt lat="50.68665" lon="3.57952">
        <ele>37.7</ele>
        <time>2023-05-12T10:30:00.594Z</time>
      </trkpt>
      <trkpt lat="50.68665" lon="3.57952">
        <ele>37.74</ele>
        <time>2023-05-12T10:30:07.176Z</time>
      </trkpt>
      <trkpt lat="50.68662" lon="3.57964">
        <ele>39.04</ele>
        <time>2023-05-12T10:30:13.759Z</time>
      </trkpt>
      <trkpt lat="50.6862" lon="3.58095">
        <ele>42.95</ele>
        <time>2023-05-12T10:30:20.357Z</time>
      </trkpt>
      <trkpt lat="50.68592" lon="3.58161">
        <ele>44.55</ele>
        <time>2023-05-12T10:30:26.963Z</time>
      </trkpt>
      <trkpt lat="50.6882" lon="3.58134">
        <ele>42.77</ele>
        <time>2023-05-12T10:30:33.606Z</time>
      </trkpt>
      <trkpt lat="50.68822" lon="3.58159">
        <ele>43.04</ele>
        <time>2023-05-12T10:30:40.251Z</time>
      </trkpt>
      <trkpt lat="50.68822" lon="3.58159">
        <ele>43.05</ele>
        <time>2023-05-12T10:30:46.896Z</time>
      </trkpt>
      <trkpt lat="50.68822" lon="3.58159">
        <ele>43.06</ele>
        <time>2023-05-12T10:30:53.541Z</time>
      </trkpt>
      <trkpt lat="50.68822" lon="3.58162">
        <ele>43.1</ele>
        <time>2023-05-12T10:31:00.187Z</time>
      </trkpt>
      <trkpt lat="50.68822" lon="3.58162">
        <ele>43.11</ele>
        <time>2023-05-12T10:31:06.833Z</time>
      </trkpt>
      <trkpt lat="50.68823" lon="3.58168">
        <ele>43.19</ele>
        <time>2023-05-12T10:31:13.479Z</time>
      </trkpt>
      <trkpt lat="50.68823" lon="3.58168">
        <ele>43.2</ele>
        <time>2023-05-12T10:31:20.125Z</time>
      </trkpt>
      <trkpt lat="50.68828" lon="3.58245">
        <ele>44.2</ele>
        <time>2023-05-12T10:31:26.779Z</time>
      </trkpt>
      <trkpt lat="50.68827" lon="3.58259">
        <ele>44.92</ele>
        <time>2023-05-12T10:31:33.435Z</time>
      </trkpt>
      <trkpt lat="50.68823" lon="3.58272">
        <ele>45.73</ele>
        <time>2023-05-12T10:31:40.092Z</time>
      </trkpt>
      <trkpt lat="50.68817" lon="3.58283">
        <ele>46.69</ele>
        <time>2023-05-12T10:31:46.751Z</time>
      </trkpt>
      <trkpt lat="50.688" lon="3.58299">
        <ele>47.58</ele>
        <time>2023-05-12T10:31:53.413Z</time>
      </trkpt>
      <trkpt lat="50.68799" lon="3.58321">
        <ele>48.86</ele>
        <time>2023-05-12T10:32:00.077Z</time>
      </trkpt>
      <trkpt lat="50.68653" lon="3.58407">
        <ele>51.77</ele>
        <time>2023-05-12T10:32:06.766Z</time>
      </trkpt>
      <trkpt lat="50.68653" lon="3.58407">
        <ele>53.41</ele>
        <time>2023-05-12T10:32:13.455Z</time>
      </trkpt>
      <trkpt lat="50.68618" lon="3.58438">
        <ele>55.44</ele>
        <time>2023-05-12T10:32:20.150Z</time>
      </trkpt>
      <trkpt lat="50.68611" lon="3.58441">
        <ele>56.89</ele>
        <time>2023-05-12T10:32:26.847Z</time>
      </trkpt>
      <trkpt lat="50.68568" lon="3.58444">
        <ele>58.34</ele>
        <time>2023-05-12T10:32:33.550Z</time>
      </trkpt>
      <trkpt lat="50.68554" lon="3.58453">
        <ele>59.48</ele>
        <time>2023-05-12T10:32:40.256Z</time>
      </trkpt>
      <trkpt lat="50.68622" lon="3.5856">
        <ele>60.27</ele>
        <time>2023-05-12T10:32:46.977Z</time>
      </trkpt>
      <trkpt lat="50.68664" lon="3.58623">
        <ele>61.57</ele>
        <time>2023-05-12T10:32:53.707Z</time>
      </trkpt>
      <trkpt lat="50.68681" lon="3.58655">
        <ele>63.04</ele>
        <time>2023-05-12T10:33:00.442Z</time>
      </trkpt>
      <trkpt lat="50.68689" lon="3.58672">
        <ele>66.19</ele>
        <time>2023-05-12T10:33:07.179Z</time>
      </trkpt>
      <trkpt lat="50.68689" lon="3.58672">
        <ele>66.22</ele>
        <time>2023-05-12T10:33:13.916Z</time>
      </trkpt>
      <trkpt lat="50.68689" lon="3.58673">
        <ele>66.25</ele>
        <time>2023-05-12T10:33:20.653Z</time>
      </trkpt>
      <trkpt lat="50.6869" lon="3.58675">
        <ele>66.64</ele>
        <time>2023-05-12T10:33:27.390Z</time>
      </trkpt>
      <trkpt lat="50.6869" lon="3.58675">
        <ele>66.67</ele>
        <time>2023-05-12T10:33:34.127Z</time>
      </trkpt>
      <trkpt lat="50.68692" lon="3.58679">
        <ele>67.57</ele>
        <time>2023-05-12T10:33:40.865Z</time>
      </trkpt>
      <trkpt lat="50.68692" lon="3.5868">
        <ele>67.6</ele>
        <time>2023-05-12T10:33:47.603Z</time>
      </trkpt>
      <trkpt lat="50.68728" lon="3.58758">
        <ele>70.74</ele>
        <time>2023-05-12T10:33:54.351Z</time>
      </trkpt>
      <trkpt lat="50.68758" lon="3.58793">
        <ele>73.83</ele>
        <time>2023-05-12T10:34:01.105Z</time>
      </trkpt>
      <trkpt lat="50.68759" lon="3.58802">
        <ele>76.29</ele>
        <time>2023-05-12T10:34:07.860Z</time>
      </trkpt>
      <trkpt lat="50.68759" lon="3.58802">
        <ele>78.48</ele>
        <time>2023-05-12T10:34:14.615Z</time>
      </trkpt>
      <trkpt lat="50.68763" lon="3.58855">
        <ele>81.42</ele>
        <time>2023-05-12T10:34:21.375Z</time>
      </trkpt>
      <trkpt lat="50.68755" lon="3.58907">
        <ele>84</ele>
        <time>2023-05-12T10:34:28.141Z</time>
      </trkpt>
      <trkpt lat="50.68754" lon="3.58949">
        <ele>86.69</ele>
        <time>2023-05-12T10:34:34.911Z</time>
      </trkpt>
      <trkpt lat="50.68761" lon="3.59003">
        <ele>89.53</ele>
        <time>2023-05-12T10:34:41.686Z</time>
      </trkpt>
      <trkpt lat="50.68779" lon="3.59061">
        <ele>92.42</ele>
        <time>2023-05-12T10:34:48.468Z</time>
      </trkpt>
      <trkpt lat="50.68781" lon="3.59081">
        <ele>94.12</ele>
        <time>2023-05-12T10:34:55.252Z</time>
      </trkpt>
      <trkpt lat="50.6878" lon="3.59117">
        <ele>95.53</ele>
        <time>2023-05-12T10:35:02.040Z</time>
      </trkpt>
      <trkpt lat="50.6877" lon="3.59198">
        <ele>96.65</ele>
        <time>2023-05-12T10:35:08.836Z</time>
      </trkpt>
      <trkpt lat="50.68771" lon="3.5929">
        <ele>98.79</ele>
        <time>2023-05-12T10:35:15.641Z</time>
      </trkpt>
      <trkpt lat="50.68774" lon="3.5937">
        <ele>100.75</ele>
        <time>2023-05-12T10:35:22.455Z</time>
      </trkpt>
      <trkpt lat="50.68782" lon="3.59442">
        <ele>103.15</ele>
        <time>2023-05-12T10:35:29.276Z</time>
      </trkpt>
      <trkpt lat="50.68787" lon="3.5946">
        <ele>104.83</ele>
        <time>2023-05-12T10:35:36.099Z</time>
      </trkpt>
      <trkpt lat="50.68827" lon="3.59542">
        <ele>106.67</ele>
        <time>2023-05-12T10:35:42.933Z</time>
      </trkpt>
      <trkpt lat="50.68827" lon="3.59542">
        <ele>106.68</ele>
        <time>2023-05-12T10:35:49.767Z</time>
      </trkpt>
      <trkpt lat="50.68828" lon="3.59544">
        <ele>106.74</ele>
        <time>2023-05-12T10:35:56.601Z</time>
      </trkpt>
      <trkpt lat="50.68828" lon="3.59544">
        <ele>106.75</ele>
        <time>2023-05-12T10:36:03.435Z</time>
      </trkpt>
      <trkpt lat="50.6883" lon="3.59549">
        <ele>106.86</ele>
        <time>2023-05-12T10:36:10.269Z</time>
      </trkpt>
      <trkpt lat="50.6883" lon="3.59549">
        <ele>108.89</ele>
        <time>2023-05-12T10:36:17.103Z</time>
      </trkpt>
      <trkpt lat="50.68836" lon="3.59562">
        <ele>109.48</ele>
        <time>2023-05-12T10:36:23.939Z</time>
      </trkpt>
      <trkpt lat="50.68869" lon="3.59657">
        <ele>110.71</ele>
        <time>2023-05-12T10:36:30.786Z</time>
      </trkpt>
      <trkpt lat="50.68869" lon="3.59657">
        <ele>111.65</ele>
        <time>2023-05-12T10:36:37.633Z</time>
      </trkpt>
      <trkpt lat="50.6889" lon="3.59704">
        <ele>113.21</ele>
        <time>2023-05-12T10:36:44.486Z</time>
      </trkpt>
      <trkpt lat="50.68893" lon="3.59724">
        <ele>114.35</ele>
        <time>2023-05-12T10:36:51.341Z</time>
      </trkpt>
      <trkpt lat="50.68893" lon="3.59724">
        <ele>115.36</ele>
        <time>2023-05-12T10:36:58.196Z</time>
      </trkpt>
      <trkpt lat="50.689" lon="3.5976">
        <ele>116.43</ele>
        <time>2023-05-12T10:37:05.055Z</time>
      </trkpt>
      <trkpt lat="50.68902" lon="3.59792">
        <ele>117.54</ele>
        <time>2023-05-12T10:37:11.917Z</time>
      </trkpt>
      <trkpt lat="50.68902" lon="3.59801">
        <ele>118.59</ele>
        <time>2023-05-12T10:37:18.780Z</time>
      </trkpt>
      <trkpt lat="50.68898" lon="3.59834">
        <ele>119.74</ele>
        <time>2023-05-12T10:37:25.646Z</time>
      </trkpt>
      <trkpt lat="50.68898" lon="3.59853">
        <ele>120.92</ele>
        <time>2023-05-12T10:37:32.514Z</time>
      </trkpt>
      <trkpt lat="50.68909" lon="3.59914">
        <ele>122.41</ele>
        <time>2023-05-12T10:37:39.389Z</time>
      </trkpt>
      <trkpt lat="50.68912" lon="3.59933">
        <ele>123.49</ele>
        <time>2023-05-12T10:37:46.266Z</time>
      </trkpt>
      <trkpt lat="50.6891" lon="3.59954">
        <ele>124.48</ele>
        <time>2023-05-12T10:37:53.145Z</time>
      </trkpt>
      <trkpt lat="50.68903" lon="3.59977">
        <ele>125.27</ele>
        <time>2023-05-12T10:38:00.027Z</time>
      </trkpt>
      <trkpt lat="50.68903" lon="3.59977">
        <ele>125.84</ele>
        <time>2023-05-12T10:38:06.909Z</time>
      </trkpt>
      <trkpt lat="50.68874" lon="3.60007">
        <ele>126.18</ele>
        <time>2023-05-12T10:38:13.796Z</time>
      </trkpt>
      <trkpt lat="50.68851" lon="3.60021">
        <ele>126.34</ele>
        <time>2023-05-12T10:38:20.687Z</time>
      </trkpt>
      <trkpt lat="50.68747" lon="3.60101">
        <ele>127.28</ele>
        <time>2023-05-12T10:38:27.597Z</time>
      </trkpt>
      <trkpt lat="50.68703" lon="3.60137">
        <ele>127.1</ele>
        <time>2023-05-12T10:38:34.515Z</time>
      </trkpt>
      <trkpt lat="50.68658" lon="3.60171">
        <ele>126.31</ele>
        <time>2023-05-12T10:38:41.441Z</time>
      </trkpt>
      <trkpt lat="50.68532" lon="3.60279">
        <ele>124.74</ele>
        <time>2023-05-12T10:38:48.390Z</time>
      </trkpt>
      <trkpt lat="50.68508" lon="3.60302">
        <ele>124.26</ele>
        <time>2023-05-12T10:38:55.343Z</time>
      </trkpt>
      <trkpt lat="50.68522" lon="3.60301">
        <ele>124.07</ele>
        <time>2023-05-12T10:39:02.298Z</time>
      </trkpt>
      <trkpt lat="50.68538" lon="3.60312">
        <ele>124.08</ele>
        <time>2023-05-12T10:39:09.256Z</time>
      </trkpt>
      <trkpt lat="50.68665" lon="3.60424">
        <ele>125.72</ele>
        <time>2023-05-12T10:39:16.237Z</time>
      </trkpt>
      <trkpt lat="50.68665" lon="3.60424">
        <ele>125.73</ele>
        <time>2023-05-12T10:39:23.218Z</time>
      </trkpt>
      <trkpt lat="50.68665" lon="3.60424">
        <ele>125.74</ele>
        <time>2023-05-12T10:39:30.199Z</time>
      </trkpt>
      <trkpt lat="50.68667" lon="3.60426">
        <ele>125.76</ele>
        <time>2023-05-12T10:39:37.181Z</time>
      </trkpt>
      <trkpt lat="50.68667" lon="3.60426">
        <ele>125.77</ele>
        <time>2023-05-12T10:39:44.163Z</time>
      </trkpt>
      <trkpt lat="50.6867" lon="3.60429">
        <ele>125.82</ele>
        <time>2023-05-12T10:39:51.145Z</time>
      </trkpt>
      <trkpt lat="50.6867" lon="3.60429">
        <ele>125.83</ele>
        <time>2023-05-12T10:39:58.127Z</time>
      </trkpt>
      <trkpt lat="50.68733" lon="3.60485">
        <ele>126.75</ele>
        <time>2023-05-12T10:40:05.121Z</time>
      </trkpt>
      <trkpt lat="50.68733" lon="3.60485">
        <ele>127.67</ele>
        <time>2023-05-12T10:40:12.115Z</time>
      </trkpt>
      <trkpt lat="50.68839" lon="3.60583">
        <ele>130.11</ele>
        <time>2023-05-12T10:40:19.129Z</time>
      </trkpt>
      <trkpt lat="50.689" lon="3.60634">
        <ele>131.28</ele>
        <time>2023-05-12T10:40:26.154Z</time>
      </trkpt>
      <trkpt lat="50.68943" lon="3.60666">
        <ele>131.78</ele>
        <time>2023-05-12T10:40:33.186Z</time>
      </trkpt>
      <trkpt lat="50.69026" lon="3.60722">
        <ele>131.99</ele>
        <time>2023-05-12T10:40:40.233Z</time>
      </trkpt>
      <trkpt lat="50.69067" lon="3.60741">
        <ele>132.17</ele>
        <time>2023-05-12T10:40:47.287Z</time>
      </trkpt>
      <trkpt lat="50.6911" lon="3.60806">
        <ele>131.71</ele>
        <time>2023-05-12T10:40:54.350Z</time>
      </trkpt>
      <trkpt lat="50.69133" lon="3.60847">
        <ele>131.7</ele>
        <time>2023-05-12T10:41:01.419Z</time>
      </trkpt>
      <trkpt lat="50.69133" lon="3.60847">
        <ele>131.58</ele>
        <time>2023-05-12T10:41:08.488Z</time>
      </trkpt>
      <trkpt lat="50.69164" lon="3.60899">
        <ele>131.46</ele>
        <time>2023-05-12T10:41:15.564Z</time>
      </trkpt>
      <trkpt lat="50.69164" lon="3.60899">
        <ele>131.51</ele>
        <time>2023-05-12T10:41:22.640Z</time>
      </trkpt>
      <trkpt lat="50.69163" lon="3.60899">
        <ele>131.55</ele>
        <time>2023-05-12T10:41:29.716Z</time>
      </trkpt>
      <trkpt lat="50.69163" lon="3.60899">
        <ele>131.61</ele>
        <time>2023-05-12T10:41:36.792Z</time>
      </trkpt>
      <trkpt lat="50.69162" lon="3.60901">
        <ele>132.33</ele>
        <time>2023-05-12T10:41:43.868Z</time>
      </trkpt>
      <trkpt lat="50.69162" lon="3.60901">
        <ele>132.4</ele>
        <time>2023-05-12T10:41:50.944Z</time>
      </trkpt>
      <trkpt lat="50.69159" lon="3.60905">
        <ele>134.09</ele>
        <time>2023-05-12T10:41:58.021Z</time>
      </trkpt>
      <trkpt lat="50.69159" lon="3.60905">
        <ele>134.16</ele>
        <time>2023-05-12T10:42:05.098Z</time>
      </trkpt>
      <trkpt lat="50.69164" lon="3.60899">
        <ele>133.13</ele>
        <time>2023-05-12T10:42:12.176Z</time>
      </trkpt>
      <trkpt lat="50.69188" lon="3.60941">
        <ele>131.64</ele>
        <time>2023-05-12T10:42:19.260Z</time>
      </trkpt>
      <trkpt lat="50.69198" lon="3.60959">
        <ele>129.83</ele>
        <time>2023-05-12T10:42:26.346Z</time>
      </trkpt>
      <trkpt lat="50.69204" lon="3.60978">
        <ele>127.69</ele>
        <time>2023-05-12T10:42:33.434Z</time>
      </trkpt>
      <trkpt lat="50.69214" lon="3.60986">
        <ele>125.12</ele>
        <time>2023-05-12T10:42:40.524Z</time>
      </trkpt>
      <trkpt lat="50.6924" lon="3.60957">
        <ele>121.85</ele>
        <time>2023-05-12T10:42:47.619Z</time>
      </trkpt>
      <trkpt lat="50.69349" lon="3.60861">
        <ele>117.13</ele>
        <time>2023-05-12T10:42:54.734Z</time>
      </trkpt>
      <trkpt lat="50.69385" lon="3.60827">
        <ele>112.71</ele>
        <time>2023-05-12T10:43:01.856Z</time>
      </trkpt>
      <trkpt lat="50.69442" lon="3.60764">
        <ele>108.02</ele>
        <time>2023-05-12T10:43:08.989Z</time>
      </trkpt>
      <trkpt lat="50.69473" lon="3.60718">
        <ele>103.43</ele>
        <time>2023-05-12T10:43:16.129Z</time>
      </trkpt>
      <trkpt lat="50.69587" lon="3.60554">
        <ele>97.85</ele>
        <time>2023-05-12T10:43:23.294Z</time>
      </trkpt>
      <trkpt lat="50.69604" lon="3.60514">
        <ele>92.96</ele>
        <time>2023-05-12T10:43:30.463Z</time>
      </trkpt>
      <trkpt lat="50.69604" lon="3.60514">
        <ele>88.82</ele>
        <time>2023-05-12T10:43:37.632Z</time>
      </trkpt>
      <trkpt lat="50.69635" lon="3.6042">
        <ele>83.46</ele>
        <time>2023-05-12T10:43:44.812Z</time>
      </trkpt>
      <trkpt lat="50.6964" lon="3.60399">
        <ele>79.74</ele>
        <time>2023-05-12T10:43:51.995Z</time>
      </trkpt>
      <trkpt lat="50.69643" lon="3.60372">
        <ele>76.35</ele>
        <time>2023-05-12T10:43:59.180Z</time>
      </trkpt>
      <trkpt lat="50.69648" lon="3.60269">
        <ele>72.8</ele>
        <time>2023-05-12T10:44:06.376Z</time>
      </trkpt>
      <trkpt lat="50.69654" lon="3.60239">
        <ele>70.08</ele>
        <time>2023-05-12T10:44:13.575Z</time>
      </trkpt>
      <trkpt lat="50.69664" lon="3.60216">
        <ele>67.71</ele>
        <time>2023-05-12T10:44:20.777Z</time>
      </trkpt>
      <trkpt lat="50.69677" lon="3.602">
        <ele>65.7</ele>
        <time>2023-05-12T10:44:27.981Z</time>
      </trkpt>
      <trkpt lat="50.6969" lon="3.6019">
        <ele>63.85</ele>
        <time>2023-05-12T10:44:35.188Z</time>
      </trkpt>
      <trkpt lat="50.69739" lon="3.6017">
        <ele>61.99</ele>
        <time>2023-05-12T10:44:42.403Z</time>
      </trkpt>
      <trkpt lat="50.69797" lon="3.60152">
        <ele>60.36</ele>
        <time>2023-05-12T10:44:49.627Z</time>
      </trkpt>
      <trkpt lat="50.69816" lon="3.60147">
        <ele>59.17</ele>
        <time>2023-05-12T10:44:56.855Z</time>
      </trkpt>
      <trkpt lat="50.69839" lon="3.60146">
        <ele>57.91</ele>
        <time>2023-05-12T10:45:04.086Z</time>
      </trkpt>
      <trkpt lat="50.69909" lon="3.6016">
        <ele>56.85</ele>
        <time>2023-05-12T10:45:11.328Z</time>
      </trkpt>
      <trkpt lat="50.69909" lon="3.6016">
        <ele>56.85</ele>
        <time>2023-05-12T10:45:18.570Z</time>
      </trkpt>
      <trkpt lat="50.69909" lon="3.6016">
        <ele>56.85</ele>
        <time>2023-05-12T10:45:25.812Z</time>
      </trkpt>
      <trkpt lat="50.6991" lon="3.6016">
        <ele>56.83</ele>
        <time>2023-05-12T10:45:33.055Z</time>
      </trkpt>
      <trkpt lat="50.6991" lon="3.6016">
        <ele>56.83</ele>
        <time>2023-05-12T10:45:40.298Z</time>
      </trkpt>
      <trkpt lat="50.69911" lon="3.60161">
        <ele>56.82</ele>
        <time>2023-05-12T10:45:47.541Z</time>
      </trkpt>
      <trkpt lat="50.69914" lon="3.60161">
        <ele>56.23</ele>
        <time>2023-05-12T10:45:54.784Z</time>
      </trkpt>
      <trkpt lat="50.69914" lon="3.60161">
        <ele>56.2</ele>
        <time>2023-05-12T10:46:02.027Z</time>
      </trkpt>
      <trkpt lat="50.69945" lon="3.60161">
        <ele>54.9</ele>
        <time>2023-05-12T10:46:09.275Z</time>
      </trkpt>
      <trkpt lat="50.7001" lon="3.60137">
        <ele>53.16</ele>
        <time>2023-05-12T10:46:16.534Z</time>
      </trkpt>
      <trkpt lat="50.70053" lon="3.60131">
        <ele>51.48</ele>
        <time>2023-05-12T10:46:23.800Z</time>
      </trkpt>
      <trkpt lat="50.70179" lon="3.60076">
        <ele>49.27</ele>
        <time>2023-05-12T10:46:31.087Z</time>
      </trkpt>
      <trkpt lat="50.7022" lon="3.60057">
        <ele>48.09</ele>
        <time>2023-05-12T10:46:38.381Z</time>
      </trkpt>
      <trkpt lat="50.70287" lon="3.60011">
        <ele>46.53</ele>
        <time>2023-05-12T10:46:45.686Z</time>
      </trkpt>
      <trkpt lat="50.70287" lon="3.60011">
        <ele>45.63</ele>
        <time>2023-05-12T10:46:52.991Z</time>
      </trkpt>
      <trkpt lat="50.70331" lon="3.59984">
        <ele>44.87</ele>
        <time>2023-05-12T10:47:00.304Z</time>
      </trkpt>
      <trkpt lat="50.70424" lon="3.59922">
        <ele>44.26</ele>
        <time>2023-05-12T10:47:07.633Z</time>
      </trkpt>
      <trkpt lat="50.70448" lon="3.5991">
        <ele>43.81</ele>
        <time>2023-05-12T10:47:14.966Z</time>
      </trkpt>
      <trkpt lat="50.70575" lon="3.59826">
        <ele>43.27</ele>
        <time>2023-05-12T10:47:22.321Z</time>
      </trkpt>
      <trkpt lat="50.70579" lon="3.59817">
        <ele>43.1</ele>
        <time>2023-05-12T10:47:29.677Z</time>
      </trkpt>
      <trkpt lat="50.70588" lon="3.59802">
        <ele>43.04</ele>
        <time>2023-05-12T10:47:37.035Z</time>
      </trkpt>
      <trkpt lat="50.70601" lon="3.59774">
        <ele>43.25</ele>
        <time>2023-05-12T10:47:44.397Z</time>
      </trkpt>
      <trkpt lat="50.70609" lon="3.59749">
        <ele>43.27</ele>
        <time>2023-05-12T10:47:51.762Z</time>
      </trkpt>
      <trkpt lat="50.70624" lon="3.59693">
        <ele>43.19</ele>
        <time>2023-05-12T10:47:59.133Z</time>
      </trkpt>
      <trkpt lat="50.70649" lon="3.59716">
        <ele>42.78</ele>
        <time>2023-05-12T10:48:06.509Z</time>
      </trkpt>
      <trkpt lat="50.70649" lon="3.59716">
        <ele>42.09</ele>
        <time>2023-05-12T10:48:13.885Z</time>
      </trkpt>
      <trkpt lat="50.7074" lon="3.59804">
        <ele>40.41</ele>
        <time>2023-05-12T10:48:21.278Z</time>
      </trkpt>
      <trkpt lat="50.70763" lon="3.5983">
        <ele>40.01</ele>
        <time>2023-05-12T10:48:28.675Z</time>
      </trkpt>
      <trkpt lat="50.70775" lon="3.59849">
        <ele>40.07</ele>
        <time>2023-05-12T10:48:36.075Z</time>
      </trkpt>
      <trkpt lat="50.70835" lon="3.59978">
        <ele>40.03</ele>
        <time>2023-05-12T10:48:43.491Z</time>
      </trkpt>
      <trkpt lat="50.70835" lon="3.59978">
        <ele>40.03</ele>
        <time>2023-05-12T10:48:50.907Z</time>
      </trkpt>
      <trkpt lat="50.70835" lon="3.59978">
        <ele>40.03</ele>
        <time>2023-05-12T10:48:58.323Z</time>
      </trkpt>
      <trkpt lat="50.70836" lon="3.5998">
        <ele>40.03</ele>
        <time>2023-05-12T10:49:05.740Z</time>
      </trkpt>
      <trkpt lat="50.70836" lon="3.5998">
        <ele>40.03</ele>
        <time>2023-05-12T10:49:13.157Z</time>
      </trkpt>
      <trkpt lat="50.70838" lon="3.59985">
        <ele>40.03</ele>
        <time>2023-05-12T10:49:20.574Z</time>
      </trkpt>
      <trkpt lat="50.70838" lon="3.59985">
        <ele>40.03</ele>
        <time>2023-05-12T10:49:27.991Z</time>
      </trkpt>
      <trkpt lat="50.70844" lon="3.59998">
        <ele>40.01</ele>
        <time>2023-05-12T10:49:35.410Z</time>
      </trkpt>
      <trkpt lat="50.70862" lon="3.60036">
        <ele>40.28</ele>
        <time>2023-05-12T10:49:42.834Z</time>
      </trkpt>
      <trkpt lat="50.70902" lon="3.60123">
        <ele>40.86</ele>
        <time>2023-05-12T10:49:50.269Z</time>
      </trkpt>
      <trkpt lat="50.70916" lon="3.60154">
        <ele>41.6</ele>
        <time>2023-05-12T10:49:57.707Z</time>
      </trkpt>
      <trkpt lat="50.70931" lon="3.60197">
        <ele>42.56</ele>
        <time>2023-05-12T10:50:05.150Z</time>
      </trkpt>
      <trkpt lat="50.70901" lon="3.6025">
        <ele>44.01</ele>
        <time>2023-05-12T10:50:12.601Z</time>
      </trkpt>
      <trkpt lat="50.70814" lon="3.6039">
        <ele>46.33</ele>
        <time>2023-05-12T10:50:20.072Z</time>
      </trkpt>
      <trkpt lat="50.70814" lon="3.6039">
        <ele>48.74</ele>
        <time>2023-05-12T10:50:27.543Z</time>
      </trkpt>
      <trkpt lat="50.70728" lon="3.60524">
        <ele>52.68</ele>
        <time>2023-05-12T10:50:35.033Z</time>
      </trkpt>
      <trkpt lat="50.70594" lon="3.60744">
        <ele>58.35</ele>
        <time>2023-05-12T10:50:42.554Z</time>
      </trkpt>
      <trkpt lat="50.70585" lon="3.60772">
        <ele>62.45</ele>
        <time>2023-05-12T10:50:50.078Z</time>
      </trkpt>
      <trkpt lat="50.7057" lon="3.60846">
        <ele>66.34</ele>
        <time>2023-05-12T10:50:57.610Z</time>
      </trkpt>
      <trkpt lat="50.7057" lon="3.60846">
        <ele>66.35</ele>
        <time>2023-05-12T10:51:05.142Z</time>
      </trkpt>
      <trkpt lat="50.7057" lon="3.60846">
        <ele>66.37</ele>
        <time>2023-05-12T10:51:12.674Z</time>
      </trkpt>
      <trkpt lat="50.7057" lon="3.60848">
        <ele>66.52</ele>
        <time>2023-05-12T10:51:20.206Z</time>
      </trkpt>
      <trkpt lat="50.7057" lon="3.60848">
        <ele>66.54</ele>
        <time>2023-05-12T10:51:27.738Z</time>
      </trkpt>
      <trkpt lat="50.70569" lon="3.60854">
        <ele>66.87</ele>
        <time>2023-05-12T10:51:35.271Z</time>
      </trkpt>
      <trkpt lat="50.70569" lon="3.60854">
        <ele>66.89</ele>
        <time>2023-05-12T10:51:42.804Z</time>
      </trkpt>
      <trkpt lat="50.70569" lon="3.60854">
        <ele>70.84</ele>
        <time>2023-05-12T10:51:50.337Z</time>
      </trkpt>
      <trkpt lat="50.70542" lon="3.60987">
        <ele>71.91</ele>
        <time>2023-05-12T10:51:57.884Z</time>
      </trkpt>
      <trkpt lat="50.70536" lon="3.61004">
        <ele>72.97</ele>
        <time>2023-05-12T10:52:05.433Z</time>
      </trkpt>
      <trkpt lat="50.70526" lon="3.61021">
        <ele>74.27</ele>
        <time>2023-05-12T10:52:12.984Z</time>
      </trkpt>
      <trkpt lat="50.70517" lon="3.61034">
        <ele>75.62</ele>
        <time>2023-05-12T10:52:20.537Z</time>
      </trkpt>
      <trkpt lat="50.70504" lon="3.61044">
        <ele>77.13</ele>
        <time>2023-05-12T10:52:28.093Z</time>
      </trkpt>
      <trkpt lat="50.70494" lon="3.61047">
        <ele>78.69</ele>
        <time>2023-05-12T10:52:35.650Z</time>
      </trkpt>
      <trkpt lat="50.70482" lon="3.61046">
        <ele>80.48</ele>
        <time>2023-05-12T10:52:43.209Z</time>
      </trkpt>
      <trkpt lat="50.70472" lon="3.61039">
        <ele>82.41</ele>
        <time>2023-05-12T10:52:50.770Z</time>
      </trkpt>
      <trkpt lat="50.70458" lon="3.61025">
        <ele>84.51</ele>
        <time>2023-05-12T10:52:58.334Z</time>
      </trkpt>
      <trkpt lat="50.7043" lon="3.60981">
        <ele>86.83</ele>
        <time>2023-05-12T10:53:05.904Z</time>
      </trkpt>
      <trkpt lat="50.70424" lon="3.60975">
        <ele>89.03</ele>
        <time>2023-05-12T10:53:13.475Z</time>
      </trkpt>
      <trkpt lat="50.70348" lon="3.60862">
        <ele>92.07</ele>
        <time>2023-05-12T10:53:21.063Z</time>
      </trkpt>
      <trkpt lat="50.70331" lon="3.60853">
        <ele>94.71</ele>
        <time>2023-05-12T10:53:28.654Z</time>
      </trkpt>
      <trkpt lat="50.70312" lon="3.60856">
        <ele>97.22</ele>
        <time>2023-05-12T10:53:36.248Z</time>
      </trkpt>
      <trkpt lat="50.70269" lon="3.60913">
        <ele>99.7</ele>
        <time>2023-05-12T10:53:43.851Z</time>
      </trkpt>
      <trkpt lat="50.70269" lon="3.60913">
        <ele>101.8</ele>
        <time>2023-05-12T10:53:51.454Z</time>
      </trkpt>
      <trkpt lat="50.70233" lon="3.60964">
        <ele>104.4</ele>
        <time>2023-05-12T10:53:59.065Z</time>
      </trkpt>
      <trkpt lat="50.70216" lon="3.60986">
        <ele>106.46</ele>
        <time>2023-05-12T10:54:06.679Z</time>
      </trkpt>
      <trkpt lat="50.70183" lon="3.61024">
        <ele>108.38</ele>
        <time>2023-05-12T10:54:14.300Z</time>
      </trkpt>
      <trkpt lat="50.70135" lon="3.61076">
        <ele>109.84</ele>
        <time>2023-05-12T10:54:21.930Z</time>
      </trkpt>
      <trkpt lat="50.70098" lon="3.61109">
        <ele>111.49</ele>
        <time>2023-05-12T10:54:29.567Z</time>
      </trkpt>
      <trkpt lat="50.70098" lon="3.61109">
        <ele>112.75</ele>
        <time>2023-05-12T10:54:37.204Z</time>
      </trkpt>
      <trkpt lat="50.7006" lon="3.61163">
        <ele>114.37</ele>
        <time>2023-05-12T10:54:44.849Z</time>
      </trkpt>
      <trkpt lat="50.70021" lon="3.61231">
        <ele>114.85</ele>
        <time>2023-05-12T10:54:52.503Z</time>
      </trkpt>
      <trkpt lat="50.69998" lon="3.61297">
        <ele>114.09</ele>
        <time>2023-05-12T10:55:00.165Z</time>
      </trkpt>
      <trkpt lat="50.69955" lon="3.6152">
        <ele>113.39</ele>
        <time>2023-05-12T10:55:07.851Z</time>
      </trkpt>
      <trkpt lat="50.69955" lon="3.61519">
        <ele>113.39</ele>
        <time>2023-05-12T10:55:15.537Z</time>
      </trkpt>
      <trkpt lat="50.69955" lon="3.61519">
        <ele>113.39</ele>
        <time>2023-05-12T10:55:23.223Z</time>
      </trkpt>
      <trkpt lat="50.69955" lon="3.61522">
        <ele>113.39</ele>
        <time>2023-05-12T10:55:30.909Z</time>
      </trkpt>
      <trkpt lat="50.69955" lon="3.61521">
        <ele>113.39</ele>
        <time>2023-05-12T10:55:38.595Z</time>
      </trkpt>
      <trkpt lat="50.69954" lon="3.61527">
        <ele>113.38</ele>
        <time>2023-05-12T10:55:46.282Z</time>
      </trkpt>
      <trkpt lat="50.69954" lon="3.61527">
        <ele>113.38</ele>
        <time>2023-05-12T10:55:53.969Z</time>
      </trkpt>
      <trkpt lat="50.69937" lon="3.61613">
        <ele>114.73</ele>
        <time>2023-05-12T10:56:01.665Z</time>
      </trkpt>
      <trkpt lat="50.69915" lon="3.61672">
        <ele>116.27</ele>
        <time>2023-05-12T10:56:09.368Z</time>
      </trkpt>
      <trkpt lat="50.69862" lon="3.61751">
        <ele>118.42</ele>
        <time>2023-05-12T10:56:17.082Z</time>
      </trkpt>
      <trkpt lat="50.69734" lon="3.61907">
        <ele>121.33</ele>
        <time>2023-05-12T10:56:24.822Z</time>
      </trkpt>
      <trkpt lat="50.69703" lon="3.61954">
        <ele>122.03</ele>
        <time>2023-05-12T10:56:32.569Z</time>
      </trkpt>
      <trkpt lat="50.69682" lon="3.61993">
        <ele>122.02</ele>
        <time>2023-05-12T10:56:40.322Z</time>
      </trkpt>
      <trkpt lat="50.69579" lon="3.62236">
        <ele>119.44</ele>
        <time>2023-05-12T10:56:48.104Z</time>
      </trkpt>
      <trkpt lat="50.69576" lon="3.62238">
        <ele>118.28</ele>
        <time>2023-05-12T10:56:55.887Z</time>
      </trkpt>
      <trkpt lat="50.69567" lon="3.6226">
        <ele>117.2</ele>
        <time>2023-05-12T10:57:03.672Z</time>
      </trkpt>
      <trkpt lat="50.69535" lon="3.62326">
        <ele>116.06</ele>
        <time>2023-05-12T10:57:11.466Z</time>
      </trkpt>
      <trkpt lat="50.69525" lon="3.62339">
        <ele>114.91</ele>
        <time>2023-05-12T10:57:19.262Z</time>
      </trkpt>
      <trkpt lat="50.69507" lon="3.62355">
        <ele>113.67</ele>
        <time>2023-05-12T10:57:27.061Z</time>
      </trkpt>
      <trkpt lat="50.6948" lon="3.62376">
        <ele>112.46</ele>
        <time>2023-05-12T10:57:34.865Z</time>
      </trkpt>
      <trkpt lat="50.69466" lon="3.62391">
        <ele>110.96</ele>
        <time>2023-05-12T10:57:42.672Z</time>
      </trkpt>
      <trkpt lat="50.69408" lon="3.62435">
        <ele>108.69</ele>
        <time>2023-05-12T10:57:50.489Z</time>
      </trkpt>
      <trkpt lat="50.6938" lon="3.6246">
        <ele>104.93</ele>
        <time>2023-05-12T10:57:58.311Z</time>
      </trkpt>
      <trkpt lat="50.6938" lon="3.6246">
        <ele>104.92</ele>
        <time>2023-05-12T10:58:06.133Z</time>
      </trkpt>
      <trkpt lat="50.6938" lon="3.62461">
        <ele>104.91</ele>
        <time>2023-05-12T10:58:13.955Z</time>
      </trkpt>
      <trkpt lat="50.69378" lon="3.62462">
        <ele>104.66</ele>
        <time>2023-05-12T10:58:21.778Z</time>
      </trkpt>
      <trkpt lat="50.69378" lon="3.62462">
        <ele>104.64</ele>
        <time>2023-05-12T10:58:29.601Z</time>
      </trkpt>
      <trkpt lat="50.69374" lon="3.62466">
        <ele>104.13</ele>
        <time>2023-05-12T10:58:37.424Z</time>
      </trkpt>
      <trkpt lat="50.69374" lon="3.62466">
        <ele>104.12</ele>
        <time>2023-05-12T10:58:45.247Z</time>
      </trkpt>
      <trkpt lat="50.69361" lon="3.62478">
        <ele>102.23</ele>
        <time>2023-05-12T10:58:53.073Z</time>
      </trkpt>
      <trkpt lat="50.69317" lon="3.62516">
        <ele>98.62</ele>
        <time>2023-05-12T10:59:00.907Z</time>
      </trkpt>
      <trkpt lat="50.693" lon="3.62525">
        <ele>95.73</ele>
        <time>2023-05-12T10:59:08.744Z</time>
      </trkpt>
      <trkpt lat="50.6928" lon="3.62547">
        <ele>92.84</ele>
        <time>2023-05-12T10:59:16.585Z</time>
      </trkpt>
      <trkpt lat="50.69272" lon="3.6256">
        <ele>90.45</ele>
        <time>2023-05-12T10:59:24.427Z</time>
      </trkpt>
      <trkpt lat="50.69244" lon="3.62616">
        <ele>87.78</ele>
        <time>2023-05-12T10:59:32.277Z</time>
      </trkpt>
      <trkpt lat="50.69216" lon="3.62667">
        <ele>84.8</ele>
        <time>2023-05-12T10:59:40.134Z</time>
      </trkpt>
      <trkpt lat="50.69202" lon="3.62688">
        <ele>82.19</ele>
        <time>2023-05-12T10:59:47.994Z</time>
      </trkpt>
      <trkpt lat="50.69186" lon="3.6271">
        <ele>79.58</ele>
        <time>2023-05-12T10:59:55.857Z</time>
      </trkpt>
      <trkpt lat="50.69124" lon="3.62784">
        <ele>76.69</ele>
        <time>2023-05-12T11:00:03.733Z</time>
      </trkpt>
      <trkpt lat="50.69095" lon="3.62823">
        <ele>75</ele>
        <time>2023-05-12T11:00:11.615Z</time>
      </trkpt>
      <trkpt lat="50.69095" lon="3.62823">
        <ele>73.26</ele>
        <time>2023-05-12T11:00:19.497Z</time>
      </trkpt>
      <trkpt lat="50.69088" lon="3.62848">
        <ele>71.34</ele>
        <time>2023-05-12T11:00:27.382Z</time>
      </trkpt>
      <trkpt lat="50.69083" lon="3.62874">
        <ele>69.19</ele>
        <time>2023-05-12T11:00:35.269Z</time>
      </trkpt>
      <trkpt lat="50.69065" lon="3.63063">
        <ele>66.05</ele>
        <time>2023-05-12T11:00:43.176Z</time>
      </trkpt>
      <trkpt lat="50.69059" lon="3.63164">
        <ele>60.37</ele>
        <time>2023-05-12T11:00:51.093Z</time>
      </trkpt>
      <trkpt lat="50.69059" lon="3.63164">
        <ele>60.37</ele>
        <time>2023-05-12T11:00:59.010Z</time>
      </trkpt>
      <trkpt lat="50.69059" lon="3.63164">
        <ele>60.36</ele>
        <time>2023-05-12T11:01:06.927Z</time>
      </trkpt>
      <trkpt lat="50.69059" lon="3.63167">
        <ele>60.16</ele>
        <time>2023-05-12T11:01:14.844Z</time>
      </trkpt>
      <trkpt lat="50.69059" lon="3.63167">
        <ele>60.15</ele>
        <time>2023-05-12T11:01:22.761Z</time>
      </trkpt>
      <trkpt lat="50.69059" lon="3.63174">
        <ele>59.75</ele>
        <time>2023-05-12T11:01:30.679Z</time>
      </trkpt>
      <trkpt lat="50.69059" lon="3.63174">
        <ele>59.74</ele>
        <time>2023-05-12T11:01:38.597Z</time>
      </trkpt>
      <trkpt lat="50.69048" lon="3.6338">
        <ele>56.76</ele>
        <time>2023-05-12T11:01:46.536Z</time>
      </trkpt>
      <trkpt lat="50.69044" lon="3.6343">
        <ele>55.23</ele>
        <time>2023-05-12T11:01:54.480Z</time>
      </trkpt>
      <trkpt lat="50.69041" lon="3.63446">
        <ele>54.04</ele>
        <time>2023-05-12T11:02:02.426Z</time>
      </trkpt>
      <trkpt lat="50.69098" lon="3.63534">
        <ele>52.67</ele>
        <time>2023-05-12T11:02:10.385Z</time>
      </trkpt>
      <trkpt lat="50.69136" lon="3.63569">
        <ele>51.99</ele>
        <time>2023-05-12T11:02:18.351Z</time>
      </trkpt>
      <trkpt lat="50.69154" lon="3.63586">
        <ele>51.55</ele>
        <time>2023-05-12T11:02:26.320Z</time>
      </trkpt>
      <trkpt lat="50.69185" lon="3.63622">
        <ele>51.36</ele>
        <time>2023-05-12T11:02:34.295Z</time>
      </trkpt>
      <trkpt lat="50.69213" lon="3.6364">
        <ele>51.05</ele>
        <time>2023-05-12T11:02:42.275Z</time>
      </trkpt>
      <trkpt lat="50.69237" lon="3.63649">
        <ele>50.79</ele>
        <time>2023-05-12T11:02:50.259Z</time>
      </trkpt>
      <trkpt lat="50.69288" lon="3.63649">
        <ele>50.97</ele>
        <time>2023-05-12T11:02:58.251Z</time>
      </trkpt>
      <trkpt lat="50.69315" lon="3.6365">
        <ele>51.43</ele>
        <time>2023-05-12T11:03:06.247Z</time>
      </trkpt>
      <trkpt lat="50.69341" lon="3.63658">
        <ele>51.93</ele>
        <time>2023-05-12T11:03:14.248Z</time>
      </trkpt>
      <trkpt lat="50.69466" lon="3.6373">
        <ele>53.02</ele>
        <time>2023-05-12T11:03:22.270Z</time>
      </trkpt>
      <trkpt lat="50.69466" lon="3.6373">
        <ele>53.7</ele>
        <time>2023-05-12T11:03:30.292Z</time>
      </trkpt>
      <trkpt lat="50.69508" lon="3.63753">
        <ele>54.59</ele>
        <time>2023-05-12T11:03:38.321Z</time>
      </trkpt>
      <trkpt lat="50.6955" lon="3.63778">
        <ele>55.63</ele>
        <time>2023-05-12T11:03:46.357Z</time>
      </trkpt>
      <trkpt lat="50.69598" lon="3.63815">
        <ele>55.9</ele>
        <time>2023-05-12T11:03:54.402Z</time>
      </trkpt>
      <trkpt lat="50.69598" lon="3.63815">
        <ele>55.91</ele>
        <time>2023-05-12T11:04:02.447Z</time>
      </trkpt>
      <trkpt lat="50.69599" lon="3.63815">
        <ele>55.92</ele>
        <time>2023-05-12T11:04:10.492Z</time>
      </trkpt>
      <trkpt lat="50.696" lon="3.63816">
        <ele>55.94</ele>
        <time>2023-05-12T11:04:18.537Z</time>
      </trkpt>
      <trkpt lat="50.69601" lon="3.63817">
        <ele>55.95</ele>
        <time>2023-05-12T11:04:26.582Z</time>
      </trkpt>
      <trkpt lat="50.69605" lon="3.6382">
        <ele>55.98</ele>
        <time>2023-05-12T11:04:34.628Z</time>
      </trkpt>
      <trkpt lat="50.69605" lon="3.6382">
        <ele>55.99</ele>
        <time>2023-05-12T11:04:42.674Z</time>
      </trkpt>
      <trkpt lat="50.69611" lon="3.63824">
        <ele>56.51</ele>
        <time>2023-05-12T11:04:50.721Z</time>
      </trkpt>
      <trkpt lat="50.69671" lon="3.6385">
        <ele>57.5</ele>
        <time>2023-05-12T11:04:58.778Z</time>
      </trkpt>
      <trkpt lat="50.69682" lon="3.63851">
        <ele>58.5</ele>
        <time>2023-05-12T11:05:06.837Z</time>
      </trkpt>
      <trkpt lat="50.697" lon="3.63846">
        <ele>59.74</ele>
        <time>2023-05-12T11:05:14.899Z</time>
      </trkpt>
      <trkpt lat="50.69756" lon="3.63808">
        <ele>61.44</ele>
        <time>2023-05-12T11:05:22.971Z</time>
      </trkpt>
      <trkpt lat="50.69804" lon="3.63774">
        <ele>63.39</ele>
        <time>2023-05-12T11:05:31.051Z</time>
      </trkpt>
      <trkpt lat="50.69839" lon="3.63753">
        <ele>65.4</ele>
        <time>2023-05-12T11:05:39.137Z</time>
      </trkpt>
      <trkpt lat="50.69851" lon="3.63754">
        <ele>67.61</ele>
        <time>2023-05-12T11:05:47.225Z</time>
      </trkpt>
      <trkpt lat="50.69896" lon="3.63784">
        <ele>70.25</ele>
        <time>2023-05-12T11:05:55.321Z</time>
      </trkpt>
      <trkpt lat="50.69919" lon="3.63799">
        <ele>73.09</ele>
        <time>2023-05-12T11:06:03.421Z</time>
      </trkpt>
      <trkpt lat="50.6995" lon="3.63832">
        <ele>76.13</ele>
        <time>2023-05-12T11:06:11.527Z</time>
      </trkpt>
      <trkpt lat="50.70097" lon="3.64063">
        <ele>81.93</ele>
        <time>2023-05-12T11:06:19.666Z</time>
      </trkpt>
      <trkpt lat="50.70145" lon="3.64148">
        <ele>86.44</ele>
        <time>2023-05-12T11:06:27.817Z</time>
      </trkpt>
      <trkpt lat="50.70153" lon="3.64162">
        <ele>90.32</ele>
        <time>2023-05-12T11:06:35.970Z</time>
      </trkpt>
      <trkpt lat="50.7017" lon="3.64194">
        <ele>94.29</ele>
        <time>2023-05-12T11:06:44.127Z</time>
      </trkpt>
      <trkpt lat="50.7017" lon="3.64194">
        <ele>98.25</ele>
        <time>2023-05-12T11:06:52.284Z</time>
      </trkpt>
      <trkpt lat="50.70262" lon="3.64362">
        <ele>103.05</ele>
        <time>2023-05-12T11:07:00.463Z</time>
      </trkpt>
      <trkpt lat="50.70348" lon="3.64438">
        <ele>108.43</ele>
        <time>2023-05-12T11:07:08.658Z</time>
      </trkpt>
      <trkpt lat="50.70348" lon="3.64438">
        <ele>111.86</ele>
        <time>2023-05-12T11:07:16.853Z</time>
      </trkpt>
      <trkpt lat="50.7035" lon="3.64442">
        <ele>115.21</ele>
        <time>2023-05-12T11:07:25.049Z</time>
      </trkpt>
      <trkpt lat="50.70373" lon="3.64483">
        <ele>118.83</ele>
        <time>2023-05-12T11:07:33.250Z</time>
      </trkpt>
      <trkpt lat="50.70385" lon="3.64495">
        <ele>121.64</ele>
        <time>2023-05-12T11:07:41.454Z</time>
      </trkpt>
      <trkpt lat="50.70406" lon="3.64508">
        <ele>124.11</ele>
        <time>2023-05-12T11:07:49.661Z</time>
      </trkpt>
      <trkpt lat="50.70451" lon="3.6452">
        <ele>126.33</ele>
        <time>2023-05-12T11:07:57.876Z</time>
      </trkpt>
      <trkpt lat="50.70458" lon="3.64523">
        <ele>127.2</ele>
        <time>2023-05-12T11:08:06.092Z</time>
      </trkpt>
      <trkpt lat="50.70458" lon="3.64523">
        <ele>127.22</ele>
        <time>2023-05-12T11:08:14.308Z</time>
      </trkpt>
      <trkpt lat="50.70458" lon="3.64523">
        <ele>127.25</ele>
        <time>2023-05-12T11:08:22.524Z</time>
      </trkpt>
      <trkpt lat="50.7046" lon="3.64524">
        <ele>127.54</ele>
        <time>2023-05-12T11:08:30.740Z</time>
      </trkpt>
      <trkpt lat="50.7046" lon="3.64525">
        <ele>127.57</ele>
        <time>2023-05-12T11:08:38.956Z</time>
      </trkpt>
      <trkpt lat="50.70463" lon="3.64526">
        <ele>127.98</ele>
        <time>2023-05-12T11:08:47.173Z</time>
      </trkpt>
      <trkpt lat="50.70464" lon="3.64527">
        <ele>128.94</ele>
        <time>2023-05-12T11:08:55.390Z</time>
      </trkpt>
      <trkpt lat="50.70464" lon="3.64527">
        <ele>129.07</ele>
        <time>2023-05-12T11:09:03.607Z</time>
      </trkpt>
      <trkpt lat="50.70464" lon="3.64527">
        <ele>132.58</ele>
        <time>2023-05-12T11:09:11.824Z</time>
      </trkpt>
      <trkpt lat="50.7048" lon="3.64544">
        <ele>134.07</ele>
        <time>2023-05-12T11:09:20.044Z</time>
      </trkpt>
      <trkpt lat="50.70491" lon="3.64563">
        <ele>135.57</ele>
        <time>2023-05-12T11:09:28.266Z</time>
      </trkpt>
      <trkpt lat="50.70517" lon="3.64619">
        <ele>136.95</ele>
        <time>2023-05-12T11:09:36.495Z</time>
      </trkpt>
      <trkpt lat="50.7058" lon="3.64751">
        <ele>139.04</ele>
        <time>2023-05-12T11:09:44.741Z</time>
      </trkpt>
      <trkpt lat="50.70608" lon="3.64807">
        <ele>140.47</ele>
        <time>2023-05-12T11:09:52.995Z</time>
      </trkpt>
      <trkpt lat="50.70623" lon="3.64833">
        <ele>141.21</ele>
        <time>2023-05-12T11:10:01.252Z</time>
      </trkpt>
      <trkpt lat="50.7063" lon="3.64838">
        <ele>141.47</ele>
        <time>2023-05-12T11:10:09.510Z</time>
      </trkpt>
      <trkpt lat="50.70646" lon="3.64846">
        <ele>141.24</ele>
        <time>2023-05-12T11:10:17.771Z</time>
      </trkpt>
      <trkpt lat="50.70661" lon="3.64846">
        <ele>140.43</ele>
        <time>2023-05-12T11:10:26.035Z</time>
      </trkpt>
      <trkpt lat="50.7068" lon="3.64842">
        <ele>139.15</ele>
        <time>2023-05-12T11:10:34.301Z</time>
      </trkpt>
      <trkpt lat="50.70743" lon="3.64799">
        <ele>137.14</ele>
        <time>2023-05-12T11:10:42.579Z</time>
      </trkpt>
      <trkpt lat="50.70756" lon="3.64797">
        <ele>135.02</ele>
        <time>2023-05-12T11:10:50.859Z</time>
      </trkpt>
      <trkpt lat="50.70769" lon="3.64799">
        <ele>132.63</ele>
        <time>2023-05-12T11:10:59.141Z</time>
      </trkpt>
      <trkpt lat="50.70782" lon="3.64814">
        <ele>129.99</ele>
        <time>2023-05-12T11:11:07.425Z</time>
      </trkpt>
      <trkpt lat="50.70821" lon="3.64904">
        <ele>126.91</ele>
        <time>2023-05-12T11:11:15.720Z</time>
      </trkpt>
      <trkpt lat="50.70831" lon="3.64919">
        <ele>124.19</ele>
        <time>2023-05-12T11:11:24.018Z</time>
      </trkpt>
      <trkpt lat="50.70843" lon="3.6493">
        <ele>121.35</ele>
        <time>2023-05-12T11:11:32.318Z</time>
      </trkpt>
      <trkpt lat="50.70917" lon="3.64986">
        <ele>117.42</ele>
        <time>2023-05-12T11:11:40.631Z</time>
      </trkpt>
      <trkpt lat="50.70939" lon="3.64996">
        <ele>114.49</ele>
        <time>2023-05-12T11:11:48.948Z</time>
      </trkpt>
      <trkpt lat="50.70966" lon="3.65004">
        <ele>111.8</ele>
        <time>2023-05-12T11:11:57.269Z</time>
      </trkpt>
      <trkpt lat="50.7098" lon="3.65011">
        <ele>109.42</ele>
        <time>2023-05-12T11:12:05.592Z</time>
      </trkpt>
      <trkpt lat="50.70993" lon="3.65022">
        <ele>107.16</ele>
        <time>2023-05-12T11:12:13.918Z</time>
      </trkpt>
      <trkpt lat="50.71012" lon="3.65053">
        <ele>104.74</ele>
        <time>2023-05-12T11:12:22.248Z</time>
      </trkpt>
      <trkpt lat="50.71027" lon="3.65075">
        <ele>101.98</ele>
        <time>2023-05-12T11:12:30.581Z</time>
      </trkpt>
      <trkpt lat="50.71027" lon="3.65075">
        <ele>99.5</ele>
        <time>2023-05-12T11:12:38.914Z</time>
      </trkpt>
      <trkpt lat="50.71048" lon="3.65093">
        <ele>96.35</ele>
        <time>2023-05-12T11:12:47.251Z</time>
      </trkpt>
      <trkpt lat="50.71139" lon="3.65148">
        <ele>93.21</ele>
        <time>2023-05-12T11:12:55.604Z</time>
      </trkpt>
      <trkpt lat="50.71152" lon="3.65161">
        <ele>91.38</ele>
        <time>2023-05-12T11:13:03.959Z</time>
      </trkpt>
      <trkpt lat="50.71157" lon="3.6517">
        <ele>89.71</ele>
        <time>2023-05-12T11:13:12.316Z</time>
      </trkpt>
      <trkpt lat="50.7117" lon="3.65196">
        <ele>88.17</ele>
        <time>2023-05-12T11:13:20.676Z</time>
      </trkpt>
      <trkpt lat="50.71208" lon="3.65292">
        <ele>86.11</ele>
        <time>2023-05-12T11:13:29.047Z</time>
      </trkpt>
      <trkpt lat="50.71208" lon="3.65292">
        <ele>86.11</ele>
        <time>2023-05-12T11:13:37.418Z</time>
      </trkpt>
      <trkpt lat="50.71208" lon="3.65292">
        <ele>86.11</ele>
        <time>2023-05-12T11:13:45.789Z</time>
      </trkpt>
      <trkpt lat="50.71209" lon="3.65295">
        <ele>86.05</ele>
        <time>2023-05-12T11:13:54.161Z</time>
      </trkpt>
      <trkpt lat="50.71209" lon="3.65295">
        <ele>86.05</ele>
        <time>2023-05-12T11:14:02.533Z</time>
      </trkpt>
      <trkpt lat="50.71212" lon="3.65301">
        <ele>85.93</ele>
        <time>2023-05-12T11:14:10.905Z</time>
      </trkpt>
      <trkpt lat="50.71212" lon="3.65301">
        <ele>85.93</ele>
        <time>2023-05-12T11:14:19.277Z</time>
      </trkpt>
      <trkpt lat="50.71242" lon="3.65377">
        <ele>85.36</ele>
        <time>2023-05-12T11:14:27.659Z</time>
      </trkpt>
      <trkpt lat="50.71242" lon="3.65377">
        <ele>84.86</ele>
        <time>2023-05-12T11:14:36.041Z</time>
      </trkpt>
      <trkpt lat="50.71273" lon="3.65458">
        <ele>83.74</ele>
        <time>2023-05-12T11:14:44.432Z</time>
      </trkpt>
      <trkpt lat="50.71292" lon="3.65513">
        <ele>83.13</ele>
        <time>2023-05-12T11:14:52.830Z</time>
      </trkpt>
      <trkpt lat="50.71333" lon="3.65659">
        <ele>81.94</ele>
        <time>2023-05-12T11:15:01.244Z</time>
      </trkpt>
      <trkpt lat="50.71341" lon="3.6568">
        <ele>81.38</ele>
        <time>2023-05-12T11:15:09.660Z</time>
      </trkpt>
      <trkpt lat="50.71341" lon="3.6568">
        <ele>80.96</ele>
        <time>2023-05-12T11:15:18.076Z</time>
      </trkpt>
      <trkpt lat="50.71351" lon="3.65695">
        <ele>80.62</ele>
        <time>2023-05-12T11:15:26.495Z</time>
      </trkpt>
      <trkpt lat="50.71358" lon="3.657">
        <ele>80.31</ele>
        <time>2023-05-12T11:15:34.915Z</time>
      </trkpt>
      <trkpt lat="50.71394" lon="3.65723">
        <ele>79.96</ele>
        <time>2023-05-12T11:15:43.341Z</time>
      </trkpt>
      <trkpt lat="50.71416" lon="3.65744">
        <ele>79.54</ele>
        <time>2023-05-12T11:15:51.771Z</time>
      </trkpt>
      <trkpt lat="50.71429" lon="3.65762">
        <ele>79.03</ele>
        <time>2023-05-12T11:16:00.204Z</time>
      </trkpt>
      <trkpt lat="50.71439" lon="3.65781">
        <ele>78.36</ele>
        <time>2023-05-12T11:16:08.639Z</time>
      </trkpt>
      <trkpt lat="50.71514" lon="3.65933">
        <ele>77.47</ele>
        <time>2023-05-12T11:16:17.094Z</time>
      </trkpt>
      <trkpt lat="50.71591" lon="3.66087">
        <ele>75.75</ele>
        <time>2023-05-12T11:16:25.569Z</time>
      </trkpt>
      <trkpt lat="50.71614" lon="3.66139">
        <ele>74.58</ele>
        <time>2023-05-12T11:16:34.050Z</time>
      </trkpt>
      <trkpt lat="50.7163" lon="3.66184">
        <ele>73.41</ele>
        <time>2023-05-12T11:16:42.537Z</time>
      </trkpt>
      <trkpt lat="50.71645" lon="3.66237">
        <ele>72.21</ele>
        <time>2023-05-12T11:16:51.030Z</time>
      </trkpt>
      <trkpt lat="50.71662" lon="3.66319">
        <ele>70.92</ele>
        <time>2023-05-12T11:16:59.531Z</time>
      </trkpt>
      <trkpt lat="50.71677" lon="3.66372">
        <ele>69.53</ele>
        <time>2023-05-12T11:17:08.038Z</time>
      </trkpt>
      <trkpt lat="50.71704" lon="3.66443">
        <ele>68.14</ele>
        <time>2023-05-12T11:17:16.554Z</time>
      </trkpt>
      <trkpt lat="50.71755" lon="3.66568">
        <ele>66.94</ele>
        <time>2023-05-12T11:17:25.085Z</time>
      </trkpt>
      <trkpt lat="50.71763" lon="3.66597">
        <ele>65.77</ele>
        <time>2023-05-12T11:17:33.619Z</time>
      </trkpt>
      <trkpt lat="50.71771" lon="3.66629">
        <ele>64.76</ele>
        <time>2023-05-12T11:17:42.156Z</time>
      </trkpt>
      <trkpt lat="50.71777" lon="3.66671">
        <ele>63.94</ele>
        <time>2023-05-12T11:17:50.698Z</time>
      </trkpt>
      <trkpt lat="50.71786" lon="3.66757">
        <ele>63.42</ele>
        <time>2023-05-12T11:17:59.249Z</time>
      </trkpt>
      <trkpt lat="50.7179" lon="3.66816">
        <ele>63.34</ele>
        <time>2023-05-12T11:18:07.806Z</time>
      </trkpt>
      <trkpt lat="50.71793" lon="3.66883">
        <ele>63.48</ele>
        <time>2023-05-12T11:18:16.369Z</time>
      </trkpt>
      <trkpt lat="50.71793" lon="3.66883">
        <ele>63.5</ele>
        <time>2023-05-12T11:18:24.932Z</time>
      </trkpt>
      <trkpt lat="50.71793" lon="3.66886">
        <ele>63.51</ele>
        <time>2023-05-12T11:18:33.496Z</time>
      </trkpt>
      <trkpt lat="50.71793" lon="3.66886">
        <ele>63.52</ele>
        <time>2023-05-12T11:18:42.060Z</time>
      </trkpt>
      <trkpt lat="50.71793" lon="3.66893">
        <ele>63.54</ele>
        <time>2023-05-12T11:18:50.625Z</time>
      </trkpt>
      <trkpt lat="50.71793" lon="3.66893">
        <ele>63.55</ele>
        <time>2023-05-12T11:18:59.190Z</time>
      </trkpt>
      <trkpt lat="50.71794" lon="3.66925">
        <ele>63.6</ele>
        <time>2023-05-12T11:19:07.758Z</time>
      </trkpt>
      <trkpt lat="50.71809" lon="3.6703">
        <ele>62.72</ele>
        <time>2023-05-12T11:19:16.337Z</time>
      </trkpt>
      <trkpt lat="50.71814" lon="3.67065">
        <ele>62.33</ele>
        <time>2023-05-12T11:19:24.919Z</time>
      </trkpt>
      <trkpt lat="50.71819" lon="3.67127">
        <ele>62.21</ele>
        <time>2023-05-12T11:19:33.508Z</time>
      </trkpt>
      <trkpt lat="50.71819" lon="3.6715">
        <ele>62.29</ele>
        <time>2023-05-12T11:19:42.099Z</time>
      </trkpt>
      <trkpt lat="50.71816" lon="3.67186">
        <ele>62.29</ele>
        <time>2023-05-12T11:19:50.694Z</time>
      </trkpt>
      <trkpt lat="50.71807" lon="3.67228">
        <ele>62.14</ele>
        <time>2023-05-12T11:19:59.293Z</time>
      </trkpt>
      <trkpt lat="50.71768" lon="3.67353">
        <ele>62.88</ele>
        <time>2023-05-12T11:20:07.906Z</time>
      </trkpt>
      <trkpt lat="50.71754" lon="3.67412">
        <ele>62.87</ele>
        <time>2023-05-12T11:20:16.526Z</time>
      </trkpt>
      <trkpt lat="50.71749" lon="3.67457">
        <ele>62.55</ele>
        <time>2023-05-12T11:20:25.151Z</time>
      </trkpt>
      <trkpt lat="50.71749" lon="3.67488">
        <ele>62.26</ele>
        <time>2023-05-12T11:20:33.779Z</time>
      </trkpt>
      <trkpt lat="50.71751" lon="3.67521">
        <ele>61.94</ele>
        <time>2023-05-12T11:20:42.410Z</time>
      </trkpt>
      <trkpt lat="50.71761" lon="3.6755">
        <ele>61.49</ele>
        <time>2023-05-12T11:20:51.044Z</time>
      </trkpt>
      <trkpt lat="50.71824" lon="3.67697">
        <ele>60.98</ele>
        <time>2023-05-12T11:20:59.696Z</time>
      </trkpt>
      <trkpt lat="50.71843" lon="3.67724">
        <ele>60.3</ele>
        <time>2023-05-12T11:21:08.352Z</time>
      </trkpt>
      <trkpt lat="50.71864" lon="3.67752">
        <ele>59.35</ele>
        <time>2023-05-12T11:21:17.013Z</time>
      </trkpt>
      <trkpt lat="50.71883" lon="3.67786">
        <ele>58.54</ele>
        <time>2023-05-12T11:21:25.678Z</time>
      </trkpt>
      <trkpt lat="50.7194" lon="3.67892">
        <ele>57.65</ele>
        <time>2023-05-12T11:21:34.358Z</time>
      </trkpt>
      <trkpt lat="50.71944" lon="3.679">
        <ele>56.95</ele>
        <time>2023-05-12T11:21:43.039Z</time>
      </trkpt>
      <trkpt lat="50.71946" lon="3.67919">
        <ele>56.25</ele>
        <time>2023-05-12T11:21:51.721Z</time>
      </trkpt>
      <trkpt lat="50.71961" lon="3.67889">
        <ele>55.53</ele>
        <time>2023-05-12T11:22:00.407Z</time>
      </trkpt>
      <trkpt lat="50.7198" lon="3.67833">
        <ele>54.8</ele>
        <time>2023-05-12T11:22:09.100Z</time>
      </trkpt>
      <trkpt lat="50.72045" lon="3.67613">
        <ele>54</ele>
        <time>2023-05-12T11:22:17.818Z</time>
      </trkpt>
      <trkpt lat="50.72075" lon="3.67519">
        <ele>53.1</ele>
        <time>2023-05-12T11:22:26.546Z</time>
      </trkpt>
      <trkpt lat="50.72107" lon="3.67444">
        <ele>51.97</ele>
        <time>2023-05-12T11:22:35.283Z</time>
      </trkpt>
      <trkpt lat="50.72131" lon="3.67397">
        <ele>50.79</ele>
        <time>2023-05-12T11:22:44.027Z</time>
      </trkpt>
      <trkpt lat="50.72148" lon="3.67368">
        <ele>49.57</ele>
        <time>2023-05-12T11:22:52.775Z</time>
      </trkpt>
      <trkpt lat="50.72173" lon="3.67336">
        <ele>48.22</ele>
        <time>2023-05-12T11:23:01.528Z</time>
      </trkpt>
      <trkpt lat="50.7221" lon="3.67301">
        <ele>47.24</ele>
        <time>2023-05-12T11:23:10.288Z</time>
      </trkpt>
      <trkpt lat="50.72232" lon="3.67288">
        <ele>46.59</ele>
        <time>2023-05-12T11:23:19.051Z</time>
      </trkpt>
      <trkpt lat="50.72284" lon="3.67276">
        <ele>46.31</ele>
        <time>2023-05-12T11:23:27.823Z</time>
      </trkpt>
      <trkpt lat="50.72309" lon="3.6726">
        <ele>46.69</ele>
        <time>2023-05-12T11:23:36.599Z</time>
      </trkpt>
      <trkpt lat="50.72354" lon="3.67223">
        <ele>48.13</ele>
        <time>2023-05-12T11:23:45.383Z</time>
      </trkpt>
      <trkpt lat="50.72439" lon="3.67152">
        <ele>52.95</ele>
        <time>2023-05-12T11:23:54.183Z</time>
      </trkpt>
      <trkpt lat="50.7244" lon="3.67152">
        <ele>52.96</ele>
        <time>2023-05-12T11:24:02.983Z</time>
      </trkpt>
      <trkpt lat="50.7244" lon="3.67152">
        <ele>52.97</ele>
        <time>2023-05-12T11:24:11.783Z</time>
      </trkpt>
      <trkpt lat="50.72442" lon="3.67151">
        <ele>53.09</ele>
        <time>2023-05-12T11:24:20.583Z</time>
      </trkpt>
      <trkpt lat="50.72442" lon="3.6715">
        <ele>53.1</ele>
        <time>2023-05-12T11:24:29.383Z</time>
      </trkpt>
      <trkpt lat="50.72446" lon="3.67147">
        <ele>53.33</ele>
        <time>2023-05-12T11:24:38.184Z</time>
      </trkpt>
      <trkpt lat="50.72446" lon="3.67147">
        <ele>53.34</ele>
        <time>2023-05-12T11:24:46.985Z</time>
      </trkpt>
      <trkpt lat="50.72498" lon="3.67103">
        <ele>54.41</ele>
        <time>2023-05-12T11:24:55.795Z</time>
      </trkpt>
      <trkpt lat="50.72521" lon="3.67076">
        <ele>55.19</ele>
        <time>2023-05-12T11:25:04.610Z</time>
      </trkpt>
      <trkpt lat="50.72562" lon="3.67021">
        <ele>56.08</ele>
        <time>2023-05-12T11:25:13.434Z</time>
      </trkpt>
      <trkpt lat="50.72578" lon="3.66999">
        <ele>56.85</ele>
        <time>2023-05-12T11:25:22.261Z</time>
      </trkpt>
      <trkpt lat="50.72586" lon="3.66982">
        <ele>57.51</ele>
        <time>2023-05-12T11:25:31.090Z</time>
      </trkpt>
      <trkpt lat="50.72572" lon="3.66967">
        <ele>58.22</ele>
        <time>2023-05-12T11:25:39.922Z</time>
      </trkpt>
      <trkpt lat="50.72524" lon="3.66927">
        <ele>59.15</ele>
        <time>2023-05-12T11:25:48.763Z</time>
      </trkpt>
      <trkpt lat="50.72509" lon="3.66911">
        <ele>60.28</ele>
        <time>2023-05-12T11:25:57.606Z</time>
      </trkpt>
      <trkpt lat="50.72501" lon="3.66902">
        <ele>61.52</ele>
        <time>2023-05-12T11:26:06.451Z</time>
      </trkpt>
      <trkpt lat="50.72498" lon="3.66893">
        <ele>62.96</ele>
        <time>2023-05-12T11:26:15.297Z</time>
      </trkpt>
      <trkpt lat="50.72494" lon="3.66865">
        <ele>64.59</ele>
        <time>2023-05-12T11:26:24.146Z</time>
      </trkpt>
      <trkpt lat="50.72483" lon="3.66738">
        <ele>66.68</ele>
        <time>2023-05-12T11:26:33.008Z</time>
      </trkpt>
      <trkpt lat="50.72437" lon="3.66516">
        <ele>69.75</ele>
        <time>2023-05-12T11:26:41.894Z</time>
      </trkpt>
      <trkpt lat="50.72406" lon="3.66353">
        <ele>72.4</ele>
        <time>2023-05-12T11:26:50.797Z</time>
      </trkpt>
      <trkpt lat="50.72406" lon="3.66353">
        <ele>74.74</ele>
        <time>2023-05-12T11:26:59.700Z</time>
      </trkpt>
      <trkpt lat="50.72391" lon="3.66299">
        <ele>77.2</ele>
        <time>2023-05-12T11:27:08.609Z</time>
      </trkpt>
      <trkpt lat="50.72324" lon="3.66089">
        <ele>80.3</ele>
        <time>2023-05-12T11:27:17.542Z</time>
      </trkpt>
      <trkpt lat="50.72319" lon="3.66052">
        <ele>82.39</ele>
        <time>2023-05-12T11:27:26.479Z</time>
      </trkpt>
      <trkpt lat="50.72303" lon="3.65903">
        <ele>84.76</ele>
        <time>2023-05-12T11:27:35.431Z</time>
      </trkpt>
      <trkpt lat="50.7229" lon="3.65791">
        <ele>87.3</ele>
        <time>2023-05-12T11:27:44.395Z</time>
      </trkpt>
      <trkpt lat="50.72278" lon="3.65779">
        <ele>89.16</ele>
        <time>2023-05-12T11:27:53.361Z</time>
      </trkpt>
      <trkpt lat="50.72262" lon="3.65755">
        <ele>90.92</ele>
        <time>2023-05-12T11:28:02.331Z</time>
      </trkpt>
      <trkpt lat="50.72231" lon="3.65683">
        <ele>92.66</ele>
        <time>2023-05-12T11:28:11.309Z</time>
      </trkpt>
      <trkpt lat="50.72205" lon="3.6563">
        <ele>93.54</ele>
        <time>2023-05-12T11:28:20.294Z</time>
      </trkpt>
      <trkpt lat="50.72163" lon="3.65514">
        <ele>94.26</ele>
        <time>2023-05-12T11:28:29.293Z</time>
      </trkpt>
      <trkpt lat="50.72151" lon="3.65482">
        <ele>95.12</ele>
        <time>2023-05-12T11:28:38.296Z</time>
      </trkpt>
      <trkpt lat="50.72134" lon="3.6545">
        <ele>95.8</ele>
        <time>2023-05-12T11:28:47.303Z</time>
      </trkpt>
      <trkpt lat="50.72121" lon="3.65427">
        <ele>96.24</ele>
        <time>2023-05-12T11:28:56.313Z</time>
      </trkpt>
      <trkpt lat="50.72083" lon="3.65379">
        <ele>96.59</ele>
        <time>2023-05-12T11:29:05.331Z</time>
      </trkpt>
      <trkpt lat="50.72067" lon="3.65354">
        <ele>96.53</ele>
        <time>2023-05-12T11:29:14.352Z</time>
      </trkpt>
      <trkpt lat="50.72037" lon="3.6529">
        <ele>95.9</ele>
        <time>2023-05-12T11:29:23.381Z</time>
      </trkpt>
      <trkpt lat="50.72036" lon="3.65284">
        <ele>95.92</ele>
        <time>2023-05-12T11:29:32.411Z</time>
      </trkpt>
      <trkpt lat="50.72039" lon="3.65263">
        <ele>96.2</ele>
        <time>2023-05-12T11:29:41.443Z</time>
      </trkpt>
      <trkpt lat="50.72047" lon="3.65244">
        <ele>96.77</ele>
        <time>2023-05-12T11:29:50.478Z</time>
      </trkpt>
      <trkpt lat="50.72062" lon="3.65212">
        <ele>99.45</ele>
        <time>2023-05-12T11:29:59.517Z</time>
      </trkpt>
      <trkpt lat="50.72062" lon="3.65212">
        <ele>99.47</ele>
        <time>2023-05-12T11:30:08.556Z</time>
      </trkpt>
      <trkpt lat="50.72062" lon="3.65212">
        <ele>99.5</ele>
        <time>2023-05-12T11:30:17.595Z</time>
      </trkpt>
      <trkpt lat="50.72063" lon="3.65209">
        <ele>99.74</ele>
        <time>2023-05-12T11:30:26.634Z</time>
      </trkpt>
      <trkpt lat="50.72064" lon="3.65209">
        <ele>99.77</ele>
        <time>2023-05-12T11:30:35.673Z</time>
      </trkpt>
      <trkpt lat="50.72066" lon="3.65204">
        <ele>100.26</ele>
        <time>2023-05-12T11:30:44.713Z</time>
      </trkpt>
      <trkpt lat="50.72066" lon="3.65204">
        <ele>100.29</ele>
        <time>2023-05-12T11:30:53.753Z</time>
      </trkpt>
      <trkpt lat="50.72073" lon="3.65189">
        <ele>101.17</ele>
        <time>2023-05-12T11:31:02.795Z</time>
      </trkpt>
      <trkpt lat="50.72119" lon="3.65108">
        <ele>103.09</ele>
        <time>2023-05-12T11:31:11.848Z</time>
      </trkpt>
      <trkpt lat="50.72128" lon="3.65092">
        <ele>103.8</ele>
        <time>2023-05-12T11:31:20.903Z</time>
      </trkpt>
      <trkpt lat="50.72133" lon="3.65086">
        <ele>104.11</ele>
        <time>2023-05-12T11:31:29.959Z</time>
      </trkpt>
      <trkpt lat="50.72148" lon="3.65075">
        <ele>104.05</ele>
        <time>2023-05-12T11:31:39.017Z</time>
      </trkpt>
      <trkpt lat="50.72158" lon="3.65071">
        <ele>103.67</ele>
        <time>2023-05-12T11:31:48.077Z</time>
      </trkpt>
      <trkpt lat="50.72158" lon="3.65062">
        <ele>103.19</ele>
        <time>2023-05-12T11:31:57.138Z</time>
      </trkpt>
      <trkpt lat="50.72167" lon="3.65039">
        <ele>102.59</ele>
        <time>2023-05-12T11:32:06.202Z</time>
      </trkpt>
      <trkpt lat="50.72233" lon="3.64901">
        <ele>101.47</ele>
        <time>2023-05-12T11:32:15.283Z</time>
      </trkpt>
      <trkpt lat="50.72255" lon="3.64847">
        <ele>101.74</ele>
        <time>2023-05-12T11:32:24.371Z</time>
      </trkpt>
      <trkpt lat="50.72237" lon="3.64751">
        <ele>102.88</ele>
        <time>2023-05-12T11:32:33.469Z</time>
      </trkpt>
      <trkpt lat="50.72231" lon="3.64726">
        <ele>103.71</ele>
        <time>2023-05-12T11:32:42.570Z</time>
      </trkpt>
      <trkpt lat="50.72141" lon="3.64433">
        <ele>104.36</ele>
        <time>2023-05-12T11:32:51.704Z</time>
      </trkpt>
      <trkpt lat="50.72116" lon="3.64321">
        <ele>105.9</ele>
        <time>2023-05-12T11:33:00.850Z</time>
      </trkpt>
      <trkpt lat="50.72103" lon="3.64268">
        <ele>111.23</ele>
        <time>2023-05-12T11:33:10.002Z</time>
      </trkpt>
      <trkpt lat="50.72103" lon="3.64268">
        <ele>111.26</ele>
        <time>2023-05-12T11:33:19.154Z</time>
      </trkpt>
      <trkpt lat="50.72102" lon="3.64268">
        <ele>111.29</ele>
        <time>2023-05-12T11:33:28.306Z</time>
      </trkpt>
      <trkpt lat="50.72102" lon="3.64265">
        <ele>111.63</ele>
        <time>2023-05-12T11:33:37.458Z</time>
      </trkpt>
      <trkpt lat="50.72102" lon="3.64265">
        <ele>111.67</ele>
        <time>2023-05-12T11:33:46.610Z</time>
      </trkpt>
      <trkpt lat="50.721" lon="3.64258">
        <ele>112.35</ele>
        <time>2023-05-12T11:33:55.763Z</time>
      </trkpt>
      <trkpt lat="50.721" lon="3.64258">
        <ele>112.38</ele>
        <time>2023-05-12T11:34:04.916Z</time>
      </trkpt>
      <trkpt lat="50.72093" lon="3.6423">
        <ele>113.84</ele>
        <time>2023-05-12T11:34:14.072Z</time>
      </trkpt>
      <trkpt lat="50.72068" lon="3.64161">
        <ele>116.1</ele>
        <time>2023-05-12T11:34:23.236Z</time>
      </trkpt>
      <trkpt lat="50.72042" lon="3.64114">
        <ele>118.45</ele>
        <time>2023-05-12T11:34:32.406Z</time>
      </trkpt>
      <trkpt lat="50.72047" lon="3.64108">
        <ele>119.89</ele>
        <time>2023-05-12T11:34:41.577Z</time>
      </trkpt>
      <trkpt lat="50.72055" lon="3.64103">
        <ele>120.89</ele>
        <time>2023-05-12T11:34:50.750Z</time>
      </trkpt>
      <trkpt lat="50.72121" lon="3.64087">
        <ele>121.75</ele>
        <time>2023-05-12T11:34:59.933Z</time>
      </trkpt>
      <trkpt lat="50.7215" lon="3.64076">
        <ele>122.29</ele>
        <time>2023-05-12T11:35:09.121Z</time>
      </trkpt>
      <trkpt lat="50.72199" lon="3.64088">
        <ele>122.74</ele>
        <time>2023-05-12T11:35:18.317Z</time>
      </trkpt>
      <trkpt lat="50.72217" lon="3.64095">
        <ele>122.86</ele>
        <time>2023-05-12T11:35:27.516Z</time>
      </trkpt>
      <trkpt lat="50.72226" lon="3.64101">
        <ele>122.87</ele>
        <time>2023-05-12T11:35:36.717Z</time>
      </trkpt>
      <trkpt lat="50.72232" lon="3.64112">
        <ele>122.78</ele>
        <time>2023-05-12T11:35:45.919Z</time>
      </trkpt>
      <trkpt lat="50.72242" lon="3.64131">
        <ele>122.52</ele>
        <time>2023-05-12T11:35:55.124Z</time>
      </trkpt>
      <trkpt lat="50.72251" lon="3.64144">
        <ele>122.11</ele>
        <time>2023-05-12T11:36:04.331Z</time>
      </trkpt>
      <trkpt lat="50.7227" lon="3.64156">
        <ele>121.48</ele>
        <time>2023-05-12T11:36:13.541Z</time>
      </trkpt>
      <trkpt lat="50.72305" lon="3.64176">
        <ele>120.65</ele>
        <time>2023-05-12T11:36:22.757Z</time>
      </trkpt>
      <trkpt lat="50.72328" lon="3.64192">
        <ele>119.82</ele>
        <time>2023-05-12T11:36:31.977Z</time>
      </trkpt>
      <trkpt lat="50.72328" lon="3.64192">
        <ele>118.79</ele>
        <time>2023-05-12T11:36:41.197Z</time>
      </trkpt>
      <trkpt lat="50.72399" lon="3.6424">
        <ele>117.48</ele>
        <time>2023-05-12T11:36:50.429Z</time>
      </trkpt>
      <trkpt lat="50.72445" lon="3.64267">
        <ele>115.39</ele>
        <time>2023-05-12T11:36:59.669Z</time>
      </trkpt>
      <trkpt lat="50.72645" lon="3.64367">
        <ele>112.73</ele>
        <time>2023-05-12T11:37:08.943Z</time>
      </trkpt>
      <trkpt lat="50.72728" lon="3.64412">
        <ele>111.66</ele>
        <time>2023-05-12T11:37:18.231Z</time>
      </trkpt>
      <trkpt lat="50.72761" lon="3.64432">
        <ele>109.58</ele>
        <time>2023-05-12T11:37:27.524Z</time>
      </trkpt>
      <trkpt lat="50.72761" lon="3.64432">
        <ele>109.58</ele>
        <time>2023-05-12T11:37:36.817Z</time>
      </trkpt>
      <trkpt lat="50.72762" lon="3.64433">
        <ele>109.57</ele>
        <time>2023-05-12T11:37:46.110Z</time>
      </trkpt>
      <trkpt lat="50.72764" lon="3.64434">
        <ele>109.45</ele>
        <time>2023-05-12T11:37:55.404Z</time>
      </trkpt>
      <trkpt lat="50.72764" lon="3.64434">
        <ele>109.44</ele>
        <time>2023-05-12T11:38:04.698Z</time>
      </trkpt>
      <trkpt lat="50.72768" lon="3.64436">
        <ele>109.19</ele>
        <time>2023-05-12T11:38:13.993Z</time>
      </trkpt>
      <trkpt lat="50.72768" lon="3.64436">
        <ele>109.18</ele>
        <time>2023-05-12T11:38:23.288Z</time>
      </trkpt>
      <trkpt lat="50.7285" lon="3.64485">
        <ele>109.72</ele>
        <time>2023-05-12T11:38:32.597Z</time>
      </trkpt>
      <trkpt lat="50.72865" lon="3.645">
        <ele>109.99</ele>
        <time>2023-05-12T11:38:41.908Z</time>
      </trkpt>
      <trkpt lat="50.72883" lon="3.64504">
        <ele>110.38</ele>
        <time>2023-05-12T11:38:51.222Z</time>
      </trkpt>
      <trkpt lat="50.72924" lon="3.64526">
        <ele>110.69</ele>
        <time>2023-05-12T11:39:00.543Z</time>
      </trkpt>
      <trkpt lat="50.73014" lon="3.64562">
        <ele>110.86</ele>
        <time>2023-05-12T11:39:09.879Z</time>
      </trkpt>
      <trkpt lat="50.7308" lon="3.64598">
        <ele>111.18</ele>
        <time>2023-05-12T11:39:19.226Z</time>
      </trkpt>
      <trkpt lat="50.73188" lon="3.64658">
        <ele>112.26</ele>
        <time>2023-05-12T11:39:28.592Z</time>
      </trkpt>
      <trkpt lat="50.73288" lon="3.64696">
        <ele>113.3</ele>
        <time>2023-05-12T11:39:37.974Z</time>
      </trkpt>
      <trkpt lat="50.73316" lon="3.6471">
        <ele>113.47</ele>
        <time>2023-05-12T11:39:47.361Z</time>
      </trkpt>
      <trkpt lat="50.73366" lon="3.64736">
        <ele>113.21</ele>
        <time>2023-05-12T11:39:56.756Z</time>
      </trkpt>
      <trkpt lat="50.73471" lon="3.648">
        <ele>112.85</ele>
        <time>2023-05-12T11:40:06.169Z</time>
      </trkpt>
      <trkpt lat="50.7349" lon="3.64812">
        <ele>112.49</ele>
        <time>2023-05-12T11:40:15.586Z</time>
      </trkpt>
      <trkpt lat="50.73517" lon="3.64832">
        <ele>111.7</ele>
        <time>2023-05-12T11:40:25.007Z</time>
      </trkpt>
      <trkpt lat="50.7364" lon="3.64908">
        <ele>109.88</ele>
        <time>2023-05-12T11:40:34.450Z</time>
      </trkpt>
      <trkpt lat="50.73675" lon="3.64923">
        <ele>106.55</ele>
        <time>2023-05-12T11:40:43.898Z</time>
      </trkpt>
      <trkpt lat="50.73675" lon="3.64923">
        <ele>106.54</ele>
        <time>2023-05-12T11:40:53.346Z</time>
      </trkpt>
      <trkpt lat="50.73675" lon="3.64923">
        <ele>106.53</ele>
        <time>2023-05-12T11:41:02.794Z</time>
      </trkpt>
      <trkpt lat="50.73677" lon="3.64924">
        <ele>106.34</ele>
        <time>2023-05-12T11:41:12.243Z</time>
      </trkpt>
      <trkpt lat="50.73677" lon="3.64924">
        <ele>106.33</ele>
        <time>2023-05-12T11:41:21.692Z</time>
      </trkpt>
      <trkpt lat="50.73681" lon="3.64926">
        <ele>105.93</ele>
        <time>2023-05-12T11:41:31.141Z</time>
      </trkpt>
      <trkpt lat="50.73682" lon="3.64926">
        <ele>105.92</ele>
        <time>2023-05-12T11:41:40.590Z</time>
      </trkpt>
      <trkpt lat="50.73698" lon="3.64933">
        <ele>105.36</ele>
        <time>2023-05-12T11:41:50.042Z</time>
      </trkpt>
      <trkpt lat="50.73779" lon="3.64964">
        <ele>105.14</ele>
        <time>2023-05-12T11:41:59.508Z</time>
      </trkpt>
      <trkpt lat="50.73858" lon="3.65005">
        <ele>104.45</ele>
        <time>2023-05-12T11:42:08.987Z</time>
      </trkpt>
      <trkpt lat="50.73858" lon="3.65005">
        <ele>104.22</ele>
        <time>2023-05-12T11:42:18.466Z</time>
      </trkpt>
      <trkpt lat="50.73867" lon="3.6501">
        <ele>104.15</ele>
        <time>2023-05-12T11:42:27.946Z</time>
      </trkpt>
      <trkpt lat="50.73908" lon="3.65038">
        <ele>104.32</ele>
        <time>2023-05-12T11:42:37.434Z</time>
      </trkpt>
      <trkpt lat="50.73974" lon="3.65089">
        <ele>104.36</ele>
        <time>2023-05-12T11:42:46.933Z</time>
      </trkpt>
      <trkpt lat="50.74126" lon="3.6523">
        <ele>104.7</ele>
        <time>2023-05-12T11:42:56.461Z</time>
      </trkpt>
      <trkpt lat="50.74142" lon="3.65249">
        <ele>104.93</ele>
        <time>2023-05-12T11:43:05.992Z</time>
      </trkpt>
      <trkpt lat="50.74168" lon="3.65288">
        <ele>105.17</ele>
        <time>2023-05-12T11:43:15.529Z</time>
      </trkpt>
      <trkpt lat="50.74209" lon="3.65358">
        <ele>105.56</ele>
        <time>2023-05-12T11:43:25.075Z</time>
      </trkpt>
      <trkpt lat="50.74307" lon="3.65449">
        <ele>106.27</ele>
        <time>2023-05-12T11:43:34.639Z</time>
      </trkpt>
      <trkpt lat="50.74447" lon="3.65549">
        <ele>105.85</ele>
        <time>2023-05-12T11:43:44.228Z</time>
      </trkpt>
      <trkpt lat="50.74476" lon="3.65572">
        <ele>106.14</ele>
        <time>2023-05-12T11:43:53.822Z</time>
      </trkpt>
      <trkpt lat="50.74482" lon="3.65582">
        <ele>106.24</ele>
        <time>2023-05-12T11:44:03.418Z</time>
      </trkpt>
      <trkpt lat="50.74482" lon="3.65582">
        <ele>106.25</ele>
        <time>2023-05-12T11:44:13.014Z</time>
      </trkpt>
      <trkpt lat="50.74482" lon="3.65582">
        <ele>106.26</ele>
        <time>2023-05-12T11:44:22.610Z</time>
      </trkpt>
      <trkpt lat="50.74484" lon="3.65585">
        <ele>106.29</ele>
        <time>2023-05-12T11:44:32.206Z</time>
      </trkpt>
      <trkpt lat="50.74484" lon="3.65585">
        <ele>106.3</ele>
        <time>2023-05-12T11:44:41.802Z</time>
      </trkpt>
      <trkpt lat="50.74484" lon="3.65585">
        <ele>106.31</ele>
        <time>2023-05-12T11:44:51.398Z</time>
      </trkpt>
      <trkpt lat="50.74486" lon="3.65591">
        <ele>107.12</ele>
        <time>2023-05-12T11:45:00.995Z</time>
      </trkpt>
      <trkpt lat="50.74487" lon="3.65591">
        <ele>107.16</ele>
        <time>2023-05-12T11:45:10.592Z</time>
      </trkpt>
      <trkpt lat="50.74491" lon="3.656">
        <ele>107.42</ele>
        <time>2023-05-12T11:45:20.190Z</time>
      </trkpt>
      <trkpt lat="50.7452" lon="3.65674">
        <ele>107.87</ele>
        <time>2023-05-12T11:45:29.797Z</time>
      </trkpt>
      <trkpt lat="50.74535" lon="3.65708">
        <ele>108.17</ele>
        <time>2023-05-12T11:45:39.408Z</time>
      </trkpt>
      <trkpt lat="50.74579" lon="3.6578">
        <ele>108.3</ele>
        <time>2023-05-12T11:45:49.029Z</time>
      </trkpt>
      <trkpt lat="50.74592" lon="3.65796">
        <ele>108.32</ele>
        <time>2023-05-12T11:45:58.653Z</time>
      </trkpt>
      <trkpt lat="50.74602" lon="3.65802">
        <ele>108.23</ele>
        <time>2023-05-12T11:46:08.279Z</time>
      </trkpt>
      <trkpt lat="50.74613" lon="3.65802">
        <ele>108.01</ele>
        <time>2023-05-12T11:46:17.906Z</time>
      </trkpt>
      <trkpt lat="50.74629" lon="3.65802">
        <ele>107.54</ele>
        <time>2023-05-12T11:46:27.536Z</time>
      </trkpt>
      <trkpt lat="50.74641" lon="3.65804">
        <ele>106.94</ele>
        <time>2023-05-12T11:46:37.168Z</time>
      </trkpt>
      <trkpt lat="50.74646" lon="3.65807">
        <ele>106.28</ele>
        <time>2023-05-12T11:46:46.801Z</time>
      </trkpt>
      <trkpt lat="50.74651" lon="3.65817">
        <ele>105.41</ele>
        <time>2023-05-12T11:46:56.435Z</time>
      </trkpt>
      <trkpt lat="50.74656" lon="3.65861">
        <ele>104.34</ele>
        <time>2023-05-12T11:47:06.074Z</time>
      </trkpt>
      <trkpt lat="50.74656" lon="3.65861">
        <ele>103.25</ele>
        <time>2023-05-12T11:47:15.713Z</time>
      </trkpt>
      <trkpt lat="50.74686" lon="3.6589">
        <ele>101.48</ele>
        <time>2023-05-12T11:47:25.357Z</time>
      </trkpt>
      <trkpt lat="50.74743" lon="3.65738">
        <ele>95.43</ele>
        <time>2023-05-12T11:47:35.019Z</time>
      </trkpt>
      <trkpt lat="50.74743" lon="3.65738">
        <ele>95.43</ele>
        <time>2023-05-12T11:47:44.681Z</time>
      </trkpt>
      <trkpt lat="50.74743" lon="3.65738">
        <ele>95.42</ele>
        <time>2023-05-12T11:47:54.343Z</time>
      </trkpt>
      <trkpt lat="50.74744" lon="3.65735">
        <ele>95.3</ele>
        <time>2023-05-12T11:48:04.006Z</time>
      </trkpt>
      <trkpt lat="50.74744" lon="3.65735">
        <ele>95.29</ele>
        <time>2023-05-12T11:48:13.669Z</time>
      </trkpt>
      <trkpt lat="50.74747" lon="3.65729">
        <ele>95.04</ele>
        <time>2023-05-12T11:48:23.332Z</time>
      </trkpt>
      <trkpt lat="50.74747" lon="3.65729">
        <ele>95.03</ele>
        <time>2023-05-12T11:48:32.995Z</time>
      </trkpt>
      <trkpt lat="50.74778" lon="3.65646">
        <ele>92.71</ele>
        <time>2023-05-12T11:48:42.668Z</time>
      </trkpt>
      <trkpt lat="50.74892" lon="3.65708">
        <ele>89.01</ele>
        <time>2023-05-12T11:48:52.360Z</time>
      </trkpt>
      <trkpt lat="50.74926" lon="3.65719">
        <ele>85.98</ele>
        <time>2023-05-12T11:49:02.058Z</time>
      </trkpt>
      <trkpt lat="50.74948" lon="3.65739">
        <ele>83.38</ele>
        <time>2023-05-12T11:49:11.760Z</time>
      </trkpt>
      <trkpt lat="50.74968" lon="3.65751">
        <ele>80.9</ele>
        <time>2023-05-12T11:49:21.465Z</time>
      </trkpt>
      <trkpt lat="50.75004" lon="3.65762">
        <ele>78.45</ele>
        <time>2023-05-12T11:49:31.176Z</time>
      </trkpt>
      <trkpt lat="50.7503" lon="3.65761">
        <ele>76.67</ele>
        <time>2023-05-12T11:49:40.891Z</time>
      </trkpt>
      <trkpt lat="50.75044" lon="3.65762">
        <ele>75.15</ele>
        <time>2023-05-12T11:49:50.609Z</time>
      </trkpt>
      <trkpt lat="50.7519" lon="3.65809">
        <ele>73.09</ele>
        <time>2023-05-12T11:50:00.351Z</time>
      </trkpt>
      <trkpt lat="50.75216" lon="3.65813">
        <ele>71.75</ele>
        <time>2023-05-12T11:50:10.097Z</time>
      </trkpt>
      <trkpt lat="50.75233" lon="3.65811">
        <ele>70.94</ele>
        <time>2023-05-12T11:50:19.845Z</time>
      </trkpt>
      <trkpt lat="50.75243" lon="3.65809">
        <ele>70.29</ele>
        <time>2023-05-12T11:50:29.595Z</time>
      </trkpt>
      <trkpt lat="50.7526" lon="3.65802">
        <ele>69.65</ele>
        <time>2023-05-12T11:50:39.348Z</time>
      </trkpt>
      <trkpt lat="50.75375" lon="3.65714">
        <ele>67.59</ele>
        <time>2023-05-12T11:50:49.121Z</time>
      </trkpt>
      <trkpt lat="50.75375" lon="3.65714">
        <ele>67.59</ele>
        <time>2023-05-12T11:50:58.894Z</time>
      </trkpt>
      <trkpt lat="50.75375" lon="3.65714">
        <ele>67.59</ele>
        <time>2023-05-12T11:51:08.667Z</time>
      </trkpt>
      <trkpt lat="50.75377" lon="3.65712">
        <ele>67.56</ele>
        <time>2023-05-12T11:51:18.441Z</time>
      </trkpt>
      <trkpt lat="50.75377" lon="3.65712">
        <ele>67.56</ele>
        <time>2023-05-12T11:51:28.215Z</time>
      </trkpt>
      <trkpt lat="50.75381" lon="3.65709">
        <ele>67.49</ele>
        <time>2023-05-12T11:51:37.990Z</time>
      </trkpt>
      <trkpt lat="50.75381" lon="3.65709">
        <ele>67.49</ele>
        <time>2023-05-12T11:51:47.765Z</time>
      </trkpt>
      <trkpt lat="50.75425" lon="3.65675">
        <ele>65.86</ele>
        <time>2023-05-12T11:51:57.547Z</time>
      </trkpt>
      <trkpt lat="50.75435" lon="3.65668">
        <ele>64.7</ele>
        <time>2023-05-12T11:52:07.331Z</time>
      </trkpt>
      <trkpt lat="50.7545" lon="3.65661">
        <ele>63.61</ele>
        <time>2023-05-12T11:52:17.118Z</time>
      </trkpt>
      <trkpt lat="50.75455" lon="3.6566">
        <ele>62.57</ele>
        <time>2023-05-12T11:52:26.905Z</time>
      </trkpt>
      <trkpt lat="50.7547" lon="3.65654">
        <ele>61.6</ele>
        <time>2023-05-12T11:52:36.695Z</time>
      </trkpt>
      <trkpt lat="50.75474" lon="3.65653">
        <ele>60.49</ele>
        <time>2023-05-12T11:52:46.486Z</time>
      </trkpt>
      <trkpt lat="50.75474" lon="3.65653">
        <ele>59.21</ele>
        <time>2023-05-12T11:52:56.277Z</time>
      </trkpt>
      <trkpt lat="50.75558" lon="3.65619">
        <ele>57.53</ele>
        <time>2023-05-12T11:53:06.081Z</time>
      </trkpt>
      <trkpt lat="50.75648" lon="3.6556">
        <ele>54.95</ele>
        <time>2023-05-12T11:53:15.901Z</time>
      </trkpt>
      <trkpt lat="50.75656" lon="3.65552">
        <ele>53.39</ele>
        <time>2023-05-12T11:53:25.723Z</time>
      </trkpt>
      <trkpt lat="50.75665" lon="3.65533">
        <ele>52</ele>
        <time>2023-05-12T11:53:35.547Z</time>
      </trkpt>
      <trkpt lat="50.75683" lon="3.65496">
        <ele>50.83</ele>
        <time>2023-05-12T11:53:45.376Z</time>
      </trkpt>
      <trkpt lat="50.75689" lon="3.65489">
        <ele>50.05</ele>
        <time>2023-05-12T11:53:55.206Z</time>
      </trkpt>
      <trkpt lat="50.75721" lon="3.65472">
        <ele>49.46</ele>
        <time>2023-05-12T11:54:05.041Z</time>
      </trkpt>
      <trkpt lat="50.75743" lon="3.65458">
        <ele>49.65</ele>
        <time>2023-05-12T11:54:14.880Z</time>
      </trkpt>
      <trkpt lat="50.75754" lon="3.6545">
        <ele>50.41</ele>
        <time>2023-05-12T11:54:24.721Z</time>
      </trkpt>
      <trkpt lat="50.75797" lon="3.6541">
        <ele>51.8</ele>
        <time>2023-05-12T11:54:34.570Z</time>
      </trkpt>
      <trkpt lat="50.75838" lon="3.65383">
        <ele>53.97</ele>
        <time>2023-05-12T11:54:44.426Z</time>
      </trkpt>
      <trkpt lat="50.75841" lon="3.65382">
        <ele>56.39</ele>
        <time>2023-05-12T11:54:54.283Z</time>
      </trkpt>
      <trkpt lat="50.75967" lon="3.65318">
        <ele>70.38</ele>
        <time>2023-05-12T11:55:04.161Z</time>
      </trkpt>
      <trkpt lat="50.75968" lon="3.65318">
        <ele>70.4</ele>
        <time>2023-05-12T11:55:14.039Z</time>
      </trkpt>
      <trkpt lat="50.75968" lon="3.65318">
        <ele>70.43</ele>
        <time>2023-05-12T11:55:23.917Z</time>
      </trkpt>
      <trkpt lat="50.7597" lon="3.65317">
        <ele>70.67</ele>
        <time>2023-05-12T11:55:33.795Z</time>
      </trkpt>
      <trkpt lat="50.7597" lon="3.65317">
        <ele>70.7</ele>
        <time>2023-05-12T11:55:43.673Z</time>
      </trkpt>
      <trkpt lat="50.75974" lon="3.65315">
        <ele>71.19</ele>
        <time>2023-05-12T11:55:53.552Z</time>
      </trkpt>
      <trkpt lat="50.75974" lon="3.65314">
        <ele>71.22</ele>
        <time>2023-05-12T11:56:03.431Z</time>
      </trkpt>
      <trkpt lat="50.76008" lon="3.65298">
        <ele>74.27</ele>
        <time>2023-05-12T11:56:13.316Z</time>
      </trkpt>
      <trkpt lat="50.7603" lon="3.65289">
        <ele>77.65</ele>
        <time>2023-05-12T11:56:23.204Z</time>
      </trkpt>
      <trkpt lat="50.76064" lon="3.65281">
        <ele>81.23</ele>
        <time>2023-05-12T11:56:33.098Z</time>
      </trkpt>
      <trkpt lat="50.76074" lon="3.65276">
        <ele>84.25</ele>
        <time>2023-05-12T11:56:42.994Z</time>
      </trkpt>
      <trkpt lat="50.76147" lon="3.65228">
        <ele>87.79</ele>
        <time>2023-05-12T11:56:52.902Z</time>
      </trkpt>
      <trkpt lat="50.76147" lon="3.65228">
        <ele>90.76</ele>
        <time>2023-05-12T11:57:02.810Z</time>
      </trkpt>
      <trkpt lat="50.76186" lon="3.65199">
        <ele>94.15</ele>
        <time>2023-05-12T11:57:12.725Z</time>
      </trkpt>
      <trkpt lat="50.76249" lon="3.65133">
        <ele>98.26</ele>
        <time>2023-05-12T11:57:22.652Z</time>
      </trkpt>
      <trkpt lat="50.76267" lon="3.65116">
        <ele>101.46</ele>
        <time>2023-05-12T11:57:32.583Z</time>
      </trkpt>
      <trkpt lat="50.76335" lon="3.65072">
        <ele>105.74</ele>
        <time>2023-05-12T11:57:42.525Z</time>
      </trkpt>
      <trkpt lat="50.76335" lon="3.65072">
        <ele>108.87</ele>
        <time>2023-05-12T11:57:52.467Z</time>
      </trkpt>
      <trkpt lat="50.76361" lon="3.65063">
        <ele>112.39</ele>
        <time>2023-05-12T11:58:02.414Z</time>
      </trkpt>
      <trkpt lat="50.76373" lon="3.65055">
        <ele>115.6</ele>
        <time>2023-05-12T11:58:12.363Z</time>
      </trkpt>
      <trkpt lat="50.76412" lon="3.65024">
        <ele>119.17</ele>
        <time>2023-05-12T11:58:22.319Z</time>
      </trkpt>
      <trkpt lat="50.7643" lon="3.65006">
        <ele>122.1</ele>
        <time>2023-05-12T11:58:32.278Z</time>
      </trkpt>
      <trkpt lat="50.76446" lon="3.64986">
        <ele>124.74</ele>
        <time>2023-05-12T11:58:42.240Z</time>
      </trkpt>
      <trkpt lat="50.76466" lon="3.64962">
        <ele>127.48</ele>
        <time>2023-05-12T11:58:52.206Z</time>
      </trkpt>
      <trkpt lat="50.7649" lon="3.6494">
        <ele>130.48</ele>
        <time>2023-05-12T11:59:02.177Z</time>
      </trkpt>
      <trkpt lat="50.7649" lon="3.6494">
        <ele>133.08</ele>
        <time>2023-05-12T11:59:12.148Z</time>
      </trkpt>
      <trkpt lat="50.76511" lon="3.64925">
        <ele>136.19</ele>
        <time>2023-05-12T11:59:22.123Z</time>
      </trkpt>
      <trkpt lat="50.76555" lon="3.64887">
        <ele>139.75</ele>
        <time>2023-05-12T11:59:32.106Z</time>
      </trkpt>
      <trkpt lat="50.7659" lon="3.64848">
        <ele>142.13</ele>
        <time>2023-05-12T11:59:42.096Z</time>
      </trkpt>
      <trkpt lat="50.76597" lon="3.64837">
        <ele>143.93</ele>
        <time>2023-05-12T11:59:52.087Z</time>
      </trkpt>
      <trkpt lat="50.76596" lon="3.64834">
        <ele>145.65</ele>
        <time>2023-05-12T12:00:02.078Z</time>
      </trkpt>
      <trkpt lat="50.76596" lon="3.64834">
        <ele>147.32</ele>
        <time>2023-05-12T12:00:12.069Z</time>
      </trkpt>
      <trkpt lat="50.76567" lon="3.6464">
        <ele>149.34</ele>
        <time>2023-05-12T12:00:22.081Z</time>
      </trkpt>
      <trkpt lat="50.76567" lon="3.64641">
        <ele>149.35</ele>
        <time>2023-05-12T12:00:32.093Z</time>
      </trkpt>
      <trkpt lat="50.76567" lon="3.64641">
        <ele>149.36</ele>
        <time>2023-05-12T12:00:42.105Z</time>
      </trkpt>
      <trkpt lat="50.76567" lon="3.64637">
        <ele>149.41</ele>
        <time>2023-05-12T12:00:52.117Z</time>
      </trkpt>
      <trkpt lat="50.76567" lon="3.64637">
        <ele>149.42</ele>
        <time>2023-05-12T12:01:02.129Z</time>
      </trkpt>
      <trkpt lat="50.76567" lon="3.64636">
        <ele>149.45</ele>
        <time>2023-05-12T12:01:12.141Z</time>
      </trkpt>
      <trkpt lat="50.76566" lon="3.64631">
        <ele>150.32</ele>
        <time>2023-05-12T12:01:22.154Z</time>
      </trkpt>
      <trkpt lat="50.76566" lon="3.64631">
        <ele>150.39</ele>
        <time>2023-05-12T12:01:32.167Z</time>
      </trkpt>
      <trkpt lat="50.76566" lon="3.64631">
        <ele>150.62</ele>
        <time>2023-05-12T12:01:42.180Z</time>
      </trkpt>
      <trkpt lat="50.76561" lon="3.64611">
        <ele>149.93</ele>
        <time>2023-05-12T12:01:52.195Z</time>
      </trkpt>
      <trkpt lat="50.76553" lon="3.64579">
        <ele>148.8</ele>
        <time>2023-05-12T12:02:02.213Z</time>
      </trkpt>
      <trkpt lat="50.76538" lon="3.64533">
        <ele>147.47</ele>
        <time>2023-05-12T12:02:12.237Z</time>
      </trkpt>
      <trkpt lat="50.7654" lon="3.6452">
        <ele>146.01</ele>
        <time>2023-05-12T12:02:22.262Z</time>
      </trkpt>
      <trkpt lat="50.76552" lon="3.64494">
        <ele>144.08</ele>
        <time>2023-05-12T12:02:32.290Z</time>
      </trkpt>
      <trkpt lat="50.76568" lon="3.64471">
        <ele>141.27</ele>
        <time>2023-05-12T12:02:42.322Z</time>
      </trkpt>
      <trkpt lat="50.76568" lon="3.64471">
        <ele>139.12</ele>
        <time>2023-05-12T12:02:52.354Z</time>
      </trkpt>
      <trkpt lat="50.76572" lon="3.64467">
        <ele>136.73</ele>
        <time>2023-05-12T12:03:02.387Z</time>
      </trkpt>
      <trkpt lat="50.76585" lon="3.64461">
        <ele>134.05</ele>
        <time>2023-05-12T12:03:12.422Z</time>
      </trkpt>
      <trkpt lat="50.76666" lon="3.64431">
        <ele>130.77</ele>
        <time>2023-05-12T12:03:22.470Z</time>
      </trkpt>
      <trkpt lat="50.76678" lon="3.64426">
        <ele>128.87</ele>
        <time>2023-05-12T12:03:32.520Z</time>
      </trkpt>
      <trkpt lat="50.76706" lon="3.64424">
        <ele>127.33</ele>
        <time>2023-05-12T12:03:42.575Z</time>
      </trkpt>
      <trkpt lat="50.76735" lon="3.64421">
        <ele>126.2</ele>
        <time>2023-05-12T12:03:52.634Z</time>
      </trkpt>
      <trkpt lat="50.76745" lon="3.64415">
        <ele>125.36</ele>
        <time>2023-05-12T12:04:02.695Z</time>
      </trkpt>
      <trkpt lat="50.76761" lon="3.64397">
        <ele>124.74</ele>
        <time>2023-05-12T12:04:12.759Z</time>
      </trkpt>
      <trkpt lat="50.76826" lon="3.64316">
        <ele>124.1</ele>
        <time>2023-05-12T12:04:22.836Z</time>
      </trkpt>
      <trkpt lat="50.76826" lon="3.64316">
        <ele>123.68</ele>
        <time>2023-05-12T12:04:32.913Z</time>
      </trkpt>
      <trkpt lat="50.7685" lon="3.64287">
        <ele>121.56</ele>
        <time>2023-05-12T12:04:42.995Z</time>
      </trkpt>
      <trkpt lat="50.7685" lon="3.64287">
        <ele>121.55</ele>
        <time>2023-05-12T12:04:53.077Z</time>
      </trkpt>
      <trkpt lat="50.7685" lon="3.64287">
        <ele>121.54</ele>
        <time>2023-05-12T12:05:03.159Z</time>
      </trkpt>
      <trkpt lat="50.76852" lon="3.64284">
        <ele>121.37</ele>
        <time>2023-05-12T12:05:13.242Z</time>
      </trkpt>
      <trkpt lat="50.76852" lon="3.64284">
        <ele>121.36</ele>
        <time>2023-05-12T12:05:23.325Z</time>
      </trkpt>
      <trkpt lat="50.76856" lon="3.6428">
        <ele>121.05</ele>
        <time>2023-05-12T12:05:33.408Z</time>
      </trkpt>
      <trkpt lat="50.76856" lon="3.6428">
        <ele>121.04</ele>
        <time>2023-05-12T12:05:43.491Z</time>
      </trkpt>
      <trkpt lat="50.76896" lon="3.64231">
        <ele>112.03</ele>
        <time>2023-05-12T12:05:53.582Z</time>
      </trkpt>
      <trkpt lat="50.77042" lon="3.64051">
        <ele>99.62</ele>
        <time>2023-05-12T12:06:03.703Z</time>
      </trkpt>
      <trkpt lat="50.77098" lon="3.63981">
        <ele>92.68</ele>
        <time>2023-05-12T12:06:13.836Z</time>
      </trkpt>
      <trkpt lat="50.77098" lon="3.63981">
        <ele>92.67</ele>
        <time>2023-05-12T12:06:23.969Z</time>
      </trkpt>
      <trkpt lat="50.77098" lon="3.63981">
        <ele>92.65</ele>
        <time>2023-05-12T12:06:34.102Z</time>
      </trkpt>
      <trkpt lat="50.771" lon="3.63978">
        <ele>92.41</ele>
        <time>2023-05-12T12:06:44.235Z</time>
      </trkpt>
      <trkpt lat="50.771" lon="3.63978">
        <ele>92.39</ele>
        <time>2023-05-12T12:06:54.368Z</time>
      </trkpt>
      <trkpt lat="50.77104" lon="3.63974">
        <ele>91.95</ele>
        <time>2023-05-12T12:07:04.502Z</time>
      </trkpt>
      <trkpt lat="50.77104" lon="3.63974">
        <ele>91.93</ele>
        <time>2023-05-12T12:07:14.636Z</time>
      </trkpt>
      <trkpt lat="50.77127" lon="3.63946">
        <ele>92.76</ele>
        <time>2023-05-12T12:07:24.774Z</time>
      </trkpt>
      <trkpt lat="50.77137" lon="3.63931">
        <ele>93.74</ele>
        <time>2023-05-12T12:07:34.915Z</time>
      </trkpt>
      <trkpt lat="50.77135" lon="3.63953">
        <ele>94.73</ele>
        <time>2023-05-12T12:07:45.058Z</time>
      </trkpt>
      <trkpt lat="50.77132" lon="3.63976">
        <ele>95.85</ele>
        <time>2023-05-12T12:07:55.203Z</time>
      </trkpt>
      <trkpt lat="50.77113" lon="3.64055">
        <ele>97.33</ele>
        <time>2023-05-12T12:08:05.357Z</time>
      </trkpt>
      <trkpt lat="50.77107" lon="3.64097">
        <ele>98.85</ele>
        <time>2023-05-12T12:08:15.515Z</time>
      </trkpt>
      <trkpt lat="50.77107" lon="3.64114">
        <ele>100.31</ele>
        <time>2023-05-12T12:08:25.675Z</time>
      </trkpt>
      <trkpt lat="50.77113" lon="3.64161">
        <ele>101.87</ele>
        <time>2023-05-12T12:08:35.840Z</time>
      </trkpt>
      <trkpt lat="50.7712" lon="3.64199">
        <ele>103.43</ele>
        <time>2023-05-12T12:08:46.009Z</time>
      </trkpt>
      <trkpt lat="50.77129" lon="3.64229">
        <ele>104.86</ele>
        <time>2023-05-12T12:08:56.181Z</time>
      </trkpt>
      <trkpt lat="50.77164" lon="3.6437">
        <ele>107</ele>
        <time>2023-05-12T12:09:06.369Z</time>
      </trkpt>
      <trkpt lat="50.77171" lon="3.64393">
        <ele>108.17</ele>
        <time>2023-05-12T12:09:16.559Z</time>
      </trkpt>
      <trkpt lat="50.77177" lon="3.64419">
        <ele>108.98</ele>
        <time>2023-05-12T12:09:26.752Z</time>
      </trkpt>
      <trkpt lat="50.7718" lon="3.64439">
        <ele>109.43</ele>
        <time>2023-05-12T12:09:36.947Z</time>
      </trkpt>
      <trkpt lat="50.77183" lon="3.64461">
        <ele>109.57</ele>
        <time>2023-05-12T12:09:47.144Z</time>
      </trkpt>
      <trkpt lat="50.77182" lon="3.64474">
        <ele>109.29</ele>
        <time>2023-05-12T12:09:57.343Z</time>
      </trkpt>
      <trkpt lat="50.77176" lon="3.64512">
        <ele>108.47</ele>
        <time>2023-05-12T12:10:07.546Z</time>
      </trkpt>
      <trkpt lat="50.77157" lon="3.646">
        <ele>107.01</ele>
        <time>2023-05-12T12:10:17.758Z</time>
      </trkpt>
      <trkpt lat="50.77148" lon="3.64641">
        <ele>105.33</ele>
        <time>2023-05-12T12:10:27.975Z</time>
      </trkpt>
      <trkpt lat="50.7713" lon="3.64729">
        <ele>103.56</ele>
        <time>2023-05-12T12:10:38.201Z</time>
      </trkpt>
      <trkpt lat="50.77114" lon="3.64803">
        <ele>101.94</ele>
        <time>2023-05-12T12:10:48.435Z</time>
      </trkpt>
      <trkpt lat="50.77112" lon="3.64835">
        <ele>101.15</ele>
        <time>2023-05-12T12:10:58.672Z</time>
      </trkpt>
      <trkpt lat="50.77113" lon="3.64862">
        <ele>100.65</ele>
        <time>2023-05-12T12:11:08.912Z</time>
      </trkpt>
      <trkpt lat="50.77114" lon="3.64877">
        <ele>99.89</ele>
        <time>2023-05-12T12:11:19.154Z</time>
      </trkpt>
      <trkpt lat="50.77114" lon="3.64877">
        <ele>99.88</ele>
        <time>2023-05-12T12:11:29.396Z</time>
      </trkpt>
      <trkpt lat="50.77114" lon="3.64878">
        <ele>99.87</ele>
        <time>2023-05-12T12:11:39.638Z</time>
      </trkpt>
      <trkpt lat="50.77114" lon="3.64882">
        <ele>99.68</ele>
        <time>2023-05-12T12:11:49.880Z</time>
      </trkpt>
      <trkpt lat="50.77114" lon="3.64882">
        <ele>99.67</ele>
        <time>2023-05-12T12:12:00.122Z</time>
      </trkpt>
      <trkpt lat="50.77115" lon="3.64889">
        <ele>99.32</ele>
        <time>2023-05-12T12:12:10.365Z</time>
      </trkpt>
      <trkpt lat="50.77115" lon="3.64889">
        <ele>99.31</ele>
        <time>2023-05-12T12:12:20.608Z</time>
      </trkpt>
      <trkpt lat="50.77127" lon="3.65066">
        <ele>99.45</ele>
        <time>2023-05-12T12:12:30.869Z</time>
      </trkpt>
      <trkpt lat="50.77133" lon="3.65173">
        <ele>101.68</ele>
        <time>2023-05-12T12:12:41.141Z</time>
      </trkpt>
      <trkpt lat="50.7719" lon="3.66022">
        <ele>113.47</ele>
        <time>2023-05-12T12:12:51.500Z</time>
      </trkpt>
      <trkpt lat="50.77192" lon="3.6604">
        <ele>113.99</ele>
        <time>2023-05-12T12:13:01.860Z</time>
      </trkpt>
      <trkpt lat="50.77199" lon="3.66057">
        <ele>113.97</ele>
        <time>2023-05-12T12:13:12.222Z</time>
      </trkpt>
      <trkpt lat="50.7721" lon="3.66073">
        <ele>113.69</ele>
        <time>2023-05-12T12:13:22.587Z</time>
      </trkpt>
      <trkpt lat="50.77231" lon="3.66089">
        <ele>113.05</ele>
        <time>2023-05-12T12:13:32.956Z</time>
      </trkpt>
      <trkpt lat="50.77246" lon="3.661">
        <ele>113</ele>
        <time>2023-05-12T12:13:43.327Z</time>
      </trkpt>
      <trkpt lat="50.77246" lon="3.661">
        <ele>113.05</ele>
        <time>2023-05-12T12:13:53.698Z</time>
      </trkpt>
      <trkpt lat="50.77426" lon="3.66214">
        <ele>117.46</ele>
        <time>2023-05-12T12:14:04.100Z</time>
      </trkpt>
      <trkpt lat="50.77469" lon="3.6624">
        <ele>117.37</ele>
        <time>2023-05-12T12:14:14.510Z</time>
      </trkpt>
      <trkpt lat="50.77559" lon="3.66299">
        <ele>114.98</ele>
        <time>2023-05-12T12:14:24.935Z</time>
      </trkpt>
      <trkpt lat="50.77559" lon="3.66299">
        <ele>114.98</ele>
        <time>2023-05-12T12:14:35.360Z</time>
      </trkpt>
      <trkpt lat="50.77559" lon="3.66299">
        <ele>114.98</ele>
        <time>2023-05-12T12:14:45.785Z</time>
      </trkpt>
      <trkpt lat="50.77562" lon="3.66301">
        <ele>114.93</ele>
        <time>2023-05-12T12:14:56.211Z</time>
      </trkpt>
      <trkpt lat="50.77562" lon="3.66301">
        <ele>114.93</ele>
        <time>2023-05-12T12:15:06.637Z</time>
      </trkpt>
      <trkpt lat="50.77566" lon="3.66304">
        <ele>114.82</ele>
        <time>2023-05-12T12:15:17.064Z</time>
      </trkpt>
      <trkpt lat="50.77566" lon="3.66304">
        <ele>114.82</ele>
        <time>2023-05-12T12:15:27.491Z</time>
      </trkpt>
      <trkpt lat="50.77628" lon="3.66345">
        <ele>114.54</ele>
        <time>2023-05-12T12:15:37.928Z</time>
      </trkpt>
      <trkpt lat="50.77574" lon="3.66422">
        <ele>114.88</ele>
        <time>2023-05-12T12:15:48.377Z</time>
      </trkpt>
      <trkpt lat="50.7749" lon="3.66551">
        <ele>114.5</ele>
        <time>2023-05-12T12:15:58.845Z</time>
      </trkpt>
      <trkpt lat="50.77477" lon="3.66566">
        <ele>114.46</ele>
        <time>2023-05-12T12:16:09.315Z</time>
      </trkpt>
      <trkpt lat="50.77451" lon="3.6659">
        <ele>114.84</ele>
        <time>2023-05-12T12:16:19.790Z</time>
      </trkpt>
      <trkpt lat="50.77411" lon="3.66617">
        <ele>115.97</ele>
        <time>2023-05-12T12:16:30.272Z</time>
      </trkpt>
      <trkpt lat="50.77398" lon="3.66629">
        <ele>116.8</ele>
        <time>2023-05-12T12:16:40.756Z</time>
      </trkpt>
      <trkpt lat="50.77398" lon="3.66629">
        <ele>117.58</ele>
        <time>2023-05-12T12:16:51.240Z</time>
      </trkpt>
      <trkpt lat="50.77357" lon="3.66677">
        <ele>118.56</ele>
        <time>2023-05-12T12:17:01.733Z</time>
      </trkpt>
      <trkpt lat="50.77338" lon="3.66705">
        <ele>119.54</ele>
        <time>2023-05-12T12:17:12.230Z</time>
      </trkpt>
      <trkpt lat="50.77323" lon="3.66732">
        <ele>120.34</ele>
        <time>2023-05-12T12:17:22.730Z</time>
      </trkpt>
      <trkpt lat="50.77278" lon="3.66825">
        <ele>121</ele>
        <time>2023-05-12T12:17:33.242Z</time>
      </trkpt>
      <trkpt lat="50.77278" lon="3.66825">
        <ele>121.28</ele>
        <time>2023-05-12T12:17:43.754Z</time>
      </trkpt>
      <trkpt lat="50.7721" lon="3.66964">
        <ele>121.07</ele>
        <time>2023-05-12T12:17:54.284Z</time>
      </trkpt>
      <trkpt lat="50.7721" lon="3.66964">
        <ele>121.28</ele>
        <time>2023-05-12T12:18:04.814Z</time>
      </trkpt>
      <trkpt lat="50.77192" lon="3.66999">
        <ele>121.63</ele>
        <time>2023-05-12T12:18:15.349Z</time>
      </trkpt>
      <trkpt lat="50.77178" lon="3.67022">
        <ele>121.96</ele>
        <time>2023-05-12T12:18:25.887Z</time>
      </trkpt>
      <trkpt lat="50.77155" lon="3.67049">
        <ele>122.35</ele>
        <time>2023-05-12T12:18:36.430Z</time>
      </trkpt>
      <trkpt lat="50.77136" lon="3.67075">
        <ele>122.62</ele>
        <time>2023-05-12T12:18:46.977Z</time>
      </trkpt>
      <trkpt lat="50.77093" lon="3.67157">
        <ele>122.91</ele>
        <time>2023-05-12T12:18:57.534Z</time>
      </trkpt>
      <trkpt lat="50.77093" lon="3.67157">
        <ele>122.92</ele>
        <time>2023-05-12T12:19:08.091Z</time>
      </trkpt>
      <trkpt lat="50.77093" lon="3.67157">
        <ele>122.93</ele>
        <time>2023-05-12T12:19:18.648Z</time>
      </trkpt>
      <trkpt lat="50.77092" lon="3.6716">
        <ele>122.95</ele>
        <time>2023-05-12T12:19:29.206Z</time>
      </trkpt>
      <trkpt lat="50.77091" lon="3.6716">
        <ele>122.96</ele>
        <time>2023-05-12T12:19:39.764Z</time>
      </trkpt>
      <trkpt lat="50.77089" lon="3.67166">
        <ele>122.99</ele>
        <time>2023-05-12T12:19:50.323Z</time>
      </trkpt>
      <trkpt lat="50.77089" lon="3.67166">
        <ele>122.89</ele>
        <time>2023-05-12T12:20:00.882Z</time>
      </trkpt>
      <trkpt lat="50.77061" lon="3.67218">
        <ele>123.11</ele>
        <time>2023-05-12T12:20:11.447Z</time>
      </trkpt>
      <trkpt lat="50.77025" lon="3.67285">
        <ele>123.46</ele>
        <time>2023-05-12T12:20:22.021Z</time>
      </trkpt>
      <trkpt lat="50.77025" lon="3.67285">
        <ele>123.75</ele>
        <time>2023-05-12T12:20:32.595Z</time>
      </trkpt>
      <trkpt lat="50.76721" lon="3.6771">
        <ele>123.77</ele>
        <time>2023-05-12T12:20:43.234Z</time>
      </trkpt>
      <trkpt lat="50.76702" lon="3.67734">
        <ele>124.25</ele>
        <time>2023-05-12T12:20:53.877Z</time>
      </trkpt>
      <trkpt lat="50.7667" lon="3.67771">
        <ele>124.97</ele>
        <time>2023-05-12T12:21:04.527Z</time>
      </trkpt>
      <trkpt lat="50.76577" lon="3.67861">
        <ele>125.21</ele>
        <time>2023-05-12T12:21:15.194Z</time>
      </trkpt>
      <trkpt lat="50.76567" lon="3.67871">
        <ele>125.94</ele>
        <time>2023-05-12T12:21:25.863Z</time>
      </trkpt>
      <trkpt lat="50.76543" lon="3.67889">
        <ele>127.02</ele>
        <time>2023-05-12T12:21:36.536Z</time>
      </trkpt>
      <trkpt lat="50.76518" lon="3.67901">
        <ele>128.23</ele>
        <time>2023-05-12T12:21:47.213Z</time>
      </trkpt>
      <trkpt lat="50.76489" lon="3.67913">
        <ele>129.21</ele>
        <time>2023-05-12T12:21:57.895Z</time>
      </trkpt>
      <trkpt lat="50.76368" lon="3.67949">
        <ele>129.02</ele>
        <time>2023-05-12T12:22:08.597Z</time>
      </trkpt>
      <trkpt lat="50.76368" lon="3.67949">
        <ele>129.04</ele>
        <time>2023-05-12T12:22:19.299Z</time>
      </trkpt>
      <trkpt lat="50.76346" lon="3.67956">
        <ele>128.9</ele>
        <time>2023-05-12T12:22:30.005Z</time>
      </trkpt>
      <trkpt lat="50.76238" lon="3.67988">
        <ele>128.11</ele>
        <time>2023-05-12T12:22:40.728Z</time>
      </trkpt>
      <trkpt lat="50.76206" lon="3.6799">
        <ele>127.55</ele>
        <time>2023-05-12T12:22:51.456Z</time>
      </trkpt>
      <trkpt lat="50.76177" lon="3.67986">
        <ele>126.92</ele>
        <time>2023-05-12T12:23:02.189Z</time>
      </trkpt>
      <trkpt lat="50.76177" lon="3.67986">
        <ele>126.18</ele>
        <time>2023-05-12T12:23:12.922Z</time>
      </trkpt>
      <trkpt lat="50.7615" lon="3.67975">
        <ele>125.13</ele>
        <time>2023-05-12T12:23:23.659Z</time>
      </trkpt>
      <trkpt lat="50.76139" lon="3.67968">
        <ele>124.12</ele>
        <time>2023-05-12T12:23:34.399Z</time>
      </trkpt>
      <trkpt lat="50.76122" lon="3.67955">
        <ele>123.04</ele>
        <time>2023-05-12T12:23:45.141Z</time>
      </trkpt>
      <trkpt lat="50.76111" lon="3.67948">
        <ele>121.98</ele>
        <time>2023-05-12T12:23:55.885Z</time>
      </trkpt>
      <trkpt lat="50.76082" lon="3.67933">
        <ele>120.82</ele>
        <time>2023-05-12T12:24:06.634Z</time>
      </trkpt>
      <trkpt lat="50.76071" lon="3.67928">
        <ele>119.91</ele>
        <time>2023-05-12T12:24:17.385Z</time>
      </trkpt>
      <trkpt lat="50.76045" lon="3.67925">
        <ele>119</ele>
        <time>2023-05-12T12:24:28.140Z</time>
      </trkpt>
      <trkpt lat="50.76015" lon="3.67925">
        <ele>117.93</ele>
        <time>2023-05-12T12:24:38.900Z</time>
      </trkpt>
      <trkpt lat="50.75836" lon="3.67936">
        <ele>116.52</ele>
        <time>2023-05-12T12:24:49.689Z</time>
      </trkpt>
      <trkpt lat="50.75819" lon="3.67936">
        <ele>116.39</ele>
        <time>2023-05-12T12:25:00.481Z</time>
      </trkpt>
      <trkpt lat="50.75818" lon="3.67936">
        <ele>116.39</ele>
        <time>2023-05-12T12:25:11.273Z</time>
      </trkpt>
      <trkpt lat="50.75818" lon="3.67936">
        <ele>116.39</ele>
        <time>2023-05-12T12:25:22.065Z</time>
      </trkpt>
      <trkpt lat="50.75816" lon="3.67936">
        <ele>116.38</ele>
        <time>2023-05-12T12:25:32.857Z</time>
      </trkpt>
      <trkpt lat="50.75815" lon="3.67936">
        <ele>116.38</ele>
        <time>2023-05-12T12:25:43.649Z</time>
      </trkpt>
      <trkpt lat="50.75811" lon="3.67936">
        <ele>116.36</ele>
        <time>2023-05-12T12:25:54.442Z</time>
      </trkpt>
      <trkpt lat="50.75646" lon="3.67939">
        <ele>117.3</ele>
        <time>2023-05-12T12:26:05.261Z</time>
      </trkpt>
      <trkpt lat="50.75621" lon="3.67939">
        <ele>117.94</ele>
        <time>2023-05-12T12:26:16.084Z</time>
      </trkpt>
      <trkpt lat="50.756" lon="3.67929">
        <ele>118.7</ele>
        <time>2023-05-12T12:26:26.911Z</time>
      </trkpt>
      <trkpt lat="50.75588" lon="3.67919">
        <ele>119.53</ele>
        <time>2023-05-12T12:26:37.740Z</time>
      </trkpt>
      <trkpt lat="50.75459" lon="3.67754">
        <ele>120.76</ele>
        <time>2023-05-12T12:26:48.595Z</time>
      </trkpt>
      <trkpt lat="50.75442" lon="3.67744">
        <ele>121.68</ele>
        <time>2023-05-12T12:26:59.453Z</time>
      </trkpt>
      <trkpt lat="50.75305" lon="3.67686">
        <ele>123.25</ele>
        <time>2023-05-12T12:27:10.334Z</time>
      </trkpt>
      <trkpt lat="50.75261" lon="3.67664">
        <ele>124.11</ele>
        <time>2023-05-12T12:27:21.223Z</time>
      </trkpt>
      <trkpt lat="50.75081" lon="3.67552">
        <ele>124.44</ele>
        <time>2023-05-12T12:27:32.143Z</time>
      </trkpt>
      <trkpt lat="50.75081" lon="3.67552">
        <ele>124.68</ele>
        <time>2023-05-12T12:27:43.063Z</time>
      </trkpt>
      <trkpt lat="50.7507" lon="3.67548">
        <ele>124.72</ele>
        <time>2023-05-12T12:27:53.984Z</time>
      </trkpt>
      <trkpt lat="50.75027" lon="3.67542">
        <ele>124.6</ele>
        <time>2023-05-12T12:28:04.912Z</time>
      </trkpt>
      <trkpt lat="50.74964" lon="3.67508">
        <ele>123.79</ele>
        <time>2023-05-12T12:28:15.851Z</time>
      </trkpt>
      <trkpt lat="50.74949" lon="3.675">
        <ele>123.24</ele>
        <time>2023-05-12T12:28:26.793Z</time>
      </trkpt>
      <trkpt lat="50.74924" lon="3.67492">
        <ele>122.66</ele>
        <time>2023-05-12T12:28:37.739Z</time>
      </trkpt>
      <trkpt lat="50.74878" lon="3.67479">
        <ele>121.63</ele>
        <time>2023-05-12T12:28:48.692Z</time>
      </trkpt>
      <trkpt lat="50.7484" lon="3.67463">
        <ele>120.19</ele>
        <time>2023-05-12T12:28:59.651Z</time>
      </trkpt>
      <trkpt lat="50.74831" lon="3.67601">
        <ele>117.45</ele>
        <time>2023-05-12T12:29:10.624Z</time>
      </trkpt>
      <trkpt lat="50.74804" lon="3.67818">
        <ele>114.28</ele>
        <time>2023-05-12T12:29:21.620Z</time>
      </trkpt>
      <trkpt lat="50.74793" lon="3.67963">
        <ele>111.41</ele>
        <time>2023-05-12T12:29:32.631Z</time>
      </trkpt>
      <trkpt lat="50.7479" lon="3.67997">
        <ele>109.76</ele>
        <time>2023-05-12T12:29:43.645Z</time>
      </trkpt>
      <trkpt lat="50.74789" lon="3.68004">
        <ele>108.87</ele>
        <time>2023-05-12T12:29:54.660Z</time>
      </trkpt>
      <trkpt lat="50.74789" lon="3.68005">
        <ele>108.83</ele>
        <time>2023-05-12T12:30:05.675Z</time>
      </trkpt>
      <trkpt lat="50.74789" lon="3.68005">
        <ele>108.78</ele>
        <time>2023-05-12T12:30:16.690Z</time>
      </trkpt>
      <trkpt lat="50.74788" lon="3.68009">
        <ele>108.33</ele>
        <time>2023-05-12T12:30:27.705Z</time>
      </trkpt>
      <trkpt lat="50.74788" lon="3.68009">
        <ele>108.28</ele>
        <time>2023-05-12T12:30:38.721Z</time>
      </trkpt>
      <trkpt lat="50.74787" lon="3.68016">
        <ele>107.42</ele>
        <time>2023-05-12T12:30:49.737Z</time>
      </trkpt>
      <trkpt lat="50.74783" lon="3.68042">
        <ele>107.27</ele>
        <time>2023-05-12T12:31:00.756Z</time>
      </trkpt>
      <trkpt lat="50.74775" lon="3.68122">
        <ele>106.9</ele>
        <time>2023-05-12T12:31:11.783Z</time>
      </trkpt>
      <trkpt lat="50.74773" lon="3.68147">
        <ele>106.4</ele>
        <time>2023-05-12T12:31:22.813Z</time>
      </trkpt>
      <trkpt lat="50.74773" lon="3.68188">
        <ele>105.63</ele>
        <time>2023-05-12T12:31:33.847Z</time>
      </trkpt>
      <trkpt lat="50.74785" lon="3.68279">
        <ele>104.7</ele>
        <time>2023-05-12T12:31:44.890Z</time>
      </trkpt>
      <trkpt lat="50.74783" lon="3.68299">
        <ele>104</ele>
        <time>2023-05-12T12:31:55.935Z</time>
      </trkpt>
      <trkpt lat="50.74781" lon="3.68323">
        <ele>103.37</ele>
        <time>2023-05-12T12:32:06.983Z</time>
      </trkpt>
      <trkpt lat="50.74777" lon="3.68341">
        <ele>102.87</ele>
        <time>2023-05-12T12:32:18.033Z</time>
      </trkpt>
      <trkpt lat="50.74772" lon="3.68354">
        <ele>102.46</ele>
        <time>2023-05-12T12:32:29.084Z</time>
      </trkpt>
      <trkpt lat="50.74764" lon="3.68364">
        <ele>102.09</ele>
        <time>2023-05-12T12:32:40.137Z</time>
      </trkpt>
      <trkpt lat="50.74726" lon="3.68399">
        <ele>101.61</ele>
        <time>2023-05-12T12:32:51.197Z</time>
      </trkpt>
      <trkpt lat="50.74726" lon="3.68399">
        <ele>101.16</ele>
        <time>2023-05-12T12:33:02.257Z</time>
      </trkpt>
      <trkpt lat="50.74699" lon="3.68441">
        <ele>100.66</ele>
        <time>2023-05-12T12:33:13.323Z</time>
      </trkpt>
      <trkpt lat="50.74662" lon="3.68494">
        <ele>100</ele>
        <time>2023-05-12T12:33:24.397Z</time>
      </trkpt>
      <trkpt lat="50.74636" lon="3.68526">
        <ele>99.07</ele>
        <time>2023-05-12T12:33:35.476Z</time>
      </trkpt>
      <trkpt lat="50.7462" lon="3.68549">
        <ele>97.89</ele>
        <time>2023-05-12T12:33:46.559Z</time>
      </trkpt>
      <trkpt lat="50.7459" lon="3.68615">
        <ele>96.24</ele>
        <time>2023-05-12T12:33:57.650Z</time>
      </trkpt>
      <trkpt lat="50.74586" lon="3.68628">
        <ele>94.64</ele>
        <time>2023-05-12T12:34:08.743Z</time>
      </trkpt>
      <trkpt lat="50.74582" lon="3.68652">
        <ele>92.8</ele>
        <time>2023-05-12T12:34:19.838Z</time>
      </trkpt>
      <trkpt lat="50.7458" lon="3.68735">
        <ele>90.59</ele>
        <time>2023-05-12T12:34:30.942Z</time>
      </trkpt>
      <trkpt lat="50.74482" lon="3.68644">
        <ele>84.88</ele>
        <time>2023-05-12T12:34:42.064Z</time>
      </trkpt>
      <trkpt lat="50.74445" lon="3.68615">
        <ele>81.76</ele>
        <time>2023-05-12T12:34:53.192Z</time>
      </trkpt>
      <trkpt lat="50.74436" lon="3.6861">
        <ele>78.65</ele>
        <time>2023-05-12T12:35:04.322Z</time>
      </trkpt>
      <trkpt lat="50.74426" lon="3.68611">
        <ele>75.41</ele>
        <time>2023-05-12T12:35:15.453Z</time>
      </trkpt>
      <trkpt lat="50.74349" lon="3.68674">
        <ele>71.3</ele>
        <time>2023-05-12T12:35:26.598Z</time>
      </trkpt>
      <trkpt lat="50.74333" lon="3.68685">
        <ele>68.09</ele>
        <time>2023-05-12T12:35:37.746Z</time>
      </trkpt>
      <trkpt lat="50.74262" lon="3.68722">
        <ele>64.45</ele>
        <time>2023-05-12T12:35:48.906Z</time>
      </trkpt>
      <trkpt lat="50.74255" lon="3.68723">
        <ele>61.66</ele>
        <time>2023-05-12T12:36:00.067Z</time>
      </trkpt>
      <trkpt lat="50.74245" lon="3.68719">
        <ele>59.01</ele>
        <time>2023-05-12T12:36:11.230Z</time>
      </trkpt>
      <trkpt lat="50.74193" lon="3.6868">
        <ele>56.33</ele>
        <time>2023-05-12T12:36:22.402Z</time>
      </trkpt>
      <trkpt lat="50.74167" lon="3.68652">
        <ele>54.2</ele>
        <time>2023-05-12T12:36:33.579Z</time>
      </trkpt>
      <trkpt lat="50.74085" lon="3.68583">
        <ele>51.7</ele>
        <time>2023-05-12T12:36:44.771Z</time>
      </trkpt>
      <trkpt lat="50.74064" lon="3.6857">
        <ele>50.34</ele>
        <time>2023-05-12T12:36:55.967Z</time>
      </trkpt>
      <trkpt lat="50.74007" lon="3.68547">
        <ele>49.53</ele>
        <time>2023-05-12T12:37:07.172Z</time>
      </trkpt>
      <trkpt lat="50.73994" lon="3.68541">
        <ele>48.64</ele>
        <time>2023-05-12T12:37:18.379Z</time>
      </trkpt>
      <trkpt lat="50.7399" lon="3.68523">
        <ele>48.02</ele>
        <time>2023-05-12T12:37:29.588Z</time>
      </trkpt>
      <trkpt lat="50.73978" lon="3.685">
        <ele>47.49</ele>
        <time>2023-05-12T12:37:40.800Z</time>
      </trkpt>
      <trkpt lat="50.73961" lon="3.68477">
        <ele>47.01</ele>
        <time>2023-05-12T12:37:52.016Z</time>
      </trkpt>
      <trkpt lat="50.73937" lon="3.68449">
        <ele>46.46</ele>
        <time>2023-05-12T12:38:03.237Z</time>
      </trkpt>
      <trkpt lat="50.73877" lon="3.68377">
        <ele>46.26</ele>
        <time>2023-05-12T12:38:14.470Z</time>
      </trkpt>
      <trkpt lat="50.73834" lon="3.68317">
        <ele>45.89</ele>
        <time>2023-05-12T12:38:25.712Z</time>
      </trkpt>
      <trkpt lat="50.73797" lon="3.68262">
        <ele>45.71</ele>
        <time>2023-05-12T12:38:36.962Z</time>
      </trkpt>
      <trkpt lat="50.73791" lon="3.68254">
        <ele>45.71</ele>
        <time>2023-05-12T12:38:48.213Z</time>
      </trkpt>
      <trkpt lat="50.73791" lon="3.68253">
        <ele>45.71</ele>
        <time>2023-05-12T12:38:59.464Z</time>
      </trkpt>
      <trkpt lat="50.73791" lon="3.68253">
        <ele>45.72</ele>
        <time>2023-05-12T12:39:10.715Z</time>
      </trkpt>
      <trkpt lat="50.73789" lon="3.68251">
        <ele>45.73</ele>
        <time>2023-05-12T12:39:21.967Z</time>
      </trkpt>
      <trkpt lat="50.73789" lon="3.6825">
        <ele>45.74</ele>
        <time>2023-05-12T12:39:33.219Z</time>
      </trkpt>
      <trkpt lat="50.73786" lon="3.68246">
        <ele>45.76</ele>
        <time>2023-05-12T12:39:44.472Z</time>
      </trkpt>
      <trkpt lat="50.73786" lon="3.68246">
        <ele>48.23</ele>
        <time>2023-05-12T12:39:55.725Z</time>
      </trkpt>
      <trkpt lat="50.73743" lon="3.68187">
        <ele>48.42</ele>
        <time>2023-05-12T12:40:06.987Z</time>
      </trkpt>
      <trkpt lat="50.73737" lon="3.68169">
        <ele>48.88</ele>
        <time>2023-05-12T12:40:18.251Z</time>
      </trkpt>
      <trkpt lat="50.73727" lon="3.68104">
        <ele>49.57</ele>
        <time>2023-05-12T12:40:29.521Z</time>
      </trkpt>
      <trkpt lat="50.73712" lon="3.68112">
        <ele>50.17</ele>
        <time>2023-05-12T12:40:40.794Z</time>
      </trkpt>
      <trkpt lat="50.73653" lon="3.68147">
        <ele>50.69</ele>
        <time>2023-05-12T12:40:52.077Z</time>
      </trkpt>
      <trkpt lat="50.7363" lon="3.68161">
        <ele>51.45</ele>
        <time>2023-05-12T12:41:03.364Z</time>
      </trkpt>
      <trkpt lat="50.7363" lon="3.68161">
        <ele>52.06</ele>
        <time>2023-05-12T12:41:14.651Z</time>
      </trkpt>
      <trkpt lat="50.73579" lon="3.68194">
        <ele>52.97</ele>
        <time>2023-05-12T12:41:25.947Z</time>
      </trkpt>
      <trkpt lat="50.73558" lon="3.68204">
        <ele>53.66</ele>
        <time>2023-05-12T12:41:37.246Z</time>
      </trkpt>
      <trkpt lat="50.73539" lon="3.6821">
        <ele>54.21</ele>
        <time>2023-05-12T12:41:48.548Z</time>
      </trkpt>
      <trkpt lat="50.73527" lon="3.68209">
        <ele>54.54</ele>
        <time>2023-05-12T12:41:59.852Z</time>
      </trkpt>
      <trkpt lat="50.7344" lon="3.6813">
        <ele>54.94</ele>
        <time>2023-05-12T12:42:11.172Z</time>
      </trkpt>
      <trkpt lat="50.73434" lon="3.68116">
        <ele>54.98</ele>
        <time>2023-05-12T12:42:22.494Z</time>
      </trkpt>
      <trkpt lat="50.73412" lon="3.68065">
        <ele>54.86</ele>
        <time>2023-05-12T12:42:33.822Z</time>
      </trkpt>
      <trkpt lat="50.73404" lon="3.68045">
        <ele>54.62</ele>
        <time>2023-05-12T12:42:45.153Z</time>
      </trkpt>
      <trkpt lat="50.73398" lon="3.68031">
        <ele>54.19</ele>
        <time>2023-05-12T12:42:56.486Z</time>
      </trkpt>
      <trkpt lat="50.73391" lon="3.68011">
        <ele>53.47</ele>
        <time>2023-05-12T12:43:07.821Z</time>
      </trkpt>
      <trkpt lat="50.7338" lon="3.67982">
        <ele>52.62</ele>
        <time>2023-05-12T12:43:19.159Z</time>
      </trkpt>
      <trkpt lat="50.73357" lon="3.68012">
        <ele>51.56</ele>
        <time>2023-05-12T12:43:30.502Z</time>
      </trkpt>
      <trkpt lat="50.73349" lon="3.68023">
        <ele>50.52</ele>
        <time>2023-05-12T12:43:41.847Z</time>
      </trkpt>
      <trkpt lat="50.73325" lon="3.68056">
        <ele>49.33</ele>
        <time>2023-05-12T12:43:53.197Z</time>
      </trkpt>
      <trkpt lat="50.73277" lon="3.68136">
        <ele>47.95</ele>
        <time>2023-05-12T12:44:04.558Z</time>
      </trkpt>
      <trkpt lat="50.73254" lon="3.68175">
        <ele>46.7</ele>
        <time>2023-05-12T12:44:15.925Z</time>
      </trkpt>
      <trkpt lat="50.73243" lon="3.68198">
        <ele>46.01</ele>
        <time>2023-05-12T12:44:27.294Z</time>
      </trkpt>
      <trkpt lat="50.73228" lon="3.68245">
        <ele>45.7</ele>
        <time>2023-05-12T12:44:38.669Z</time>
      </trkpt>
      <trkpt lat="50.73228" lon="3.68245">
        <ele>45.73</ele>
        <time>2023-05-12T12:44:50.044Z</time>
      </trkpt>
      <trkpt lat="50.73213" lon="3.68301">
        <ele>46.21</ele>
        <time>2023-05-12T12:45:01.425Z</time>
      </trkpt>
      <trkpt lat="50.73207" lon="3.68321">
        <ele>47.06</ele>
        <time>2023-05-12T12:45:12.808Z</time>
      </trkpt>
      <trkpt lat="50.73034" lon="3.68457">
        <ele>48.97</ele>
        <time>2023-05-12T12:45:24.222Z</time>
      </trkpt>
      <trkpt lat="50.73012" lon="3.68468">
        <ele>49.64</ele>
        <time>2023-05-12T12:45:35.640Z</time>
      </trkpt>
      <trkpt lat="50.73004" lon="3.6847">
        <ele>50.44</ele>
        <time>2023-05-12T12:45:47.059Z</time>
      </trkpt>
      <trkpt lat="50.72972" lon="3.68472">
        <ele>51.45</ele>
        <time>2023-05-12T12:45:58.483Z</time>
      </trkpt>
      <trkpt lat="50.72876" lon="3.68473">
        <ele>52.79</ele>
        <time>2023-05-12T12:46:09.923Z</time>
      </trkpt>
      <trkpt lat="50.72875" lon="3.68473">
        <ele>52.8</ele>
        <time>2023-05-12T12:46:21.363Z</time>
      </trkpt>
      <trkpt lat="50.72875" lon="3.68473">
        <ele>52.81</ele>
        <time>2023-05-12T12:46:32.803Z</time>
      </trkpt>
      <trkpt lat="50.72873" lon="3.68473">
        <ele>52.85</ele>
        <time>2023-05-12T12:46:44.243Z</time>
      </trkpt>
      <trkpt lat="50.72872" lon="3.68473">
        <ele>52.86</ele>
        <time>2023-05-12T12:46:55.683Z</time>
      </trkpt>
      <trkpt lat="50.72868" lon="3.68473">
        <ele>52.93</ele>
        <time>2023-05-12T12:47:07.124Z</time>
      </trkpt>
      <trkpt lat="50.728" lon="3.68473">
        <ele>52.1</ele>
        <time>2023-05-12T12:47:18.576Z</time>
      </trkpt>
      <trkpt lat="50.72722" lon="3.68466">
        <ele>50.3</ele>
        <time>2023-05-12T12:47:30.040Z</time>
      </trkpt>
      <trkpt lat="50.72639" lon="3.68452">
        <ele>47.73</ele>
        <time>2023-05-12T12:47:41.518Z</time>
      </trkpt>
      <trkpt lat="50.72598" lon="3.68439">
        <ele>45.89</ele>
        <time>2023-05-12T12:47:53.003Z</time>
      </trkpt>
      <trkpt lat="50.72565" lon="3.68426">
        <ele>45.53</ele>
        <time>2023-05-12T12:48:04.493Z</time>
      </trkpt>
      <trkpt lat="50.72534" lon="3.6841">
        <ele>46.13</ele>
        <time>2023-05-12T12:48:15.988Z</time>
      </trkpt>
      <trkpt lat="50.72487" lon="3.68382">
        <ele>46.71</ele>
        <time>2023-05-12T12:48:27.491Z</time>
      </trkpt>
      <trkpt lat="50.7236" lon="3.68307">
        <ele>47.41</ele>
        <time>2023-05-12T12:48:39.016Z</time>
      </trkpt>
      <trkpt lat="50.72299" lon="3.68276">
        <ele>48.88</ele>
        <time>2023-05-12T12:48:50.551Z</time>
      </trkpt>
      <trkpt lat="50.72241" lon="3.68258">
        <ele>50.73</ele>
        <time>2023-05-12T12:49:02.096Z</time>
      </trkpt>
      <trkpt lat="50.7194" lon="3.68168">
        <ele>53.47</ele>
        <time>2023-05-12T12:49:13.690Z</time>
      </trkpt>
      <trkpt lat="50.71934" lon="3.68166">
        <ele>55.03</ele>
        <time>2023-05-12T12:49:25.285Z</time>
      </trkpt>
      <trkpt lat="50.71934" lon="3.68166">
        <ele>56.3</ele>
        <time>2023-05-12T12:49:36.880Z</time>
      </trkpt>
      <trkpt lat="50.71895" lon="3.68159">
        <ele>57.5</ele>
        <time>2023-05-12T12:49:48.481Z</time>
      </trkpt>
      <trkpt lat="50.71878" lon="3.68155">
        <ele>58.11</ele>
        <time>2023-05-12T12:50:00.085Z</time>
      </trkpt>
      <trkpt lat="50.71845" lon="3.68149">
        <ele>58.31</ele>
        <time>2023-05-12T12:50:11.694Z</time>
      </trkpt>
      <trkpt lat="50.71794" lon="3.68146">
        <ele>57.86</ele>
        <time>2023-05-12T12:50:23.311Z</time>
      </trkpt>
      <trkpt lat="50.71759" lon="3.68148">
        <ele>57.13</ele>
        <time>2023-05-12T12:50:34.934Z</time>
      </trkpt>
      <trkpt lat="50.7173" lon="3.68154">
        <ele>55.99</ele>
        <time>2023-05-12T12:50:46.562Z</time>
      </trkpt>
      <trkpt lat="50.71707" lon="3.6816">
        <ele>54.76</ele>
        <time>2023-05-12T12:50:58.193Z</time>
      </trkpt>
      <trkpt lat="50.71686" lon="3.68175">
        <ele>53.24</ele>
        <time>2023-05-12T12:51:09.828Z</time>
      </trkpt>
      <trkpt lat="50.71643" lon="3.68217">
        <ele>46.3</ele>
        <time>2023-05-12T12:51:21.471Z</time>
      </trkpt>
      <trkpt lat="50.71643" lon="3.68217">
        <ele>46.27</ele>
        <time>2023-05-12T12:51:33.114Z</time>
      </trkpt>
      <trkpt lat="50.71643" lon="3.68217">
        <ele>46.23</ele>
        <time>2023-05-12T12:51:44.757Z</time>
      </trkpt>
      <trkpt lat="50.71641" lon="3.68219">
        <ele>45.89</ele>
        <time>2023-05-12T12:51:56.401Z</time>
      </trkpt>
      <trkpt lat="50.71641" lon="3.6822">
        <ele>45.85</ele>
        <time>2023-05-12T12:52:08.045Z</time>
      </trkpt>
      <trkpt lat="50.71637" lon="3.68223">
        <ele>45.21</ele>
        <time>2023-05-12T12:52:19.689Z</time>
      </trkpt>
      <trkpt lat="50.71629" lon="3.68231">
        <ele>44.69</ele>
        <time>2023-05-12T12:52:31.335Z</time>
      </trkpt>
      <trkpt lat="50.7157" lon="3.68283">
        <ele>43.61</ele>
        <time>2023-05-12T12:52:42.992Z</time>
      </trkpt>
      <trkpt lat="50.71549" lon="3.68294">
        <ele>43.01</ele>
        <time>2023-05-12T12:52:54.652Z</time>
      </trkpt>
      <trkpt lat="50.71532" lon="3.68299">
        <ele>42.77</ele>
        <time>2023-05-12T12:53:06.315Z</time>
      </trkpt>
      <trkpt lat="50.71515" lon="3.68301">
        <ele>42.98</ele>
        <time>2023-05-12T12:53:17.981Z</time>
      </trkpt>
      <trkpt lat="50.71494" lon="3.68299">
        <ele>43.56</ele>
        <time>2023-05-12T12:53:29.650Z</time>
      </trkpt>
      <trkpt lat="50.71473" lon="3.68294">
        <ele>44.62</ele>
        <time>2023-05-12T12:53:41.323Z</time>
      </trkpt>
      <trkpt lat="50.71451" lon="3.68284">
        <ele>46.04</ele>
        <time>2023-05-12T12:53:52.999Z</time>
      </trkpt>
      <trkpt lat="50.71357" lon="3.68225">
        <ele>48.54</ele>
        <time>2023-05-12T12:54:04.691Z</time>
      </trkpt>
      <trkpt lat="50.71309" lon="3.68191">
        <ele>50.56</ele>
        <time>2023-05-12T12:54:16.392Z</time>
      </trkpt>
      <trkpt lat="50.71113" lon="3.68027">
        <ele>54.34</ele>
        <time>2023-05-12T12:54:28.128Z</time>
      </trkpt>
      <trkpt lat="50.71061" lon="3.67983">
        <ele>57.23</ele>
        <time>2023-05-12T12:54:39.874Z</time>
      </trkpt>
      <trkpt lat="50.71041" lon="3.67972">
        <ele>60.01</ele>
        <time>2023-05-12T12:54:51.623Z</time>
      </trkpt>
      <trkpt lat="50.71029" lon="3.67968">
        <ele>62.95</ele>
        <time>2023-05-12T12:55:03.374Z</time>
      </trkpt>
      <trkpt lat="50.70967" lon="3.67957">
        <ele>66.43</ele>
        <time>2023-05-12T12:55:15.135Z</time>
      </trkpt>
      <trkpt lat="50.70881" lon="3.67947">
        <ele>70.41</ele>
        <time>2023-05-12T12:55:26.910Z</time>
      </trkpt>
      <trkpt lat="50.70816" lon="3.67942">
        <ele>74.28</ele>
        <time>2023-05-12T12:55:38.695Z</time>
      </trkpt>
      <trkpt lat="50.70673" lon="3.67964">
        <ele>79.09</ele>
        <time>2023-05-12T12:55:50.503Z</time>
      </trkpt>
      <trkpt lat="50.70672" lon="3.67956">
        <ele>82.21</ele>
        <time>2023-05-12T12:56:02.312Z</time>
      </trkpt>
      <trkpt lat="50.70628" lon="3.67845">
        <ele>85.85</ele>
        <time>2023-05-12T12:56:14.135Z</time>
      </trkpt>
      <trkpt lat="50.70602" lon="3.67756">
        <ele>89.26</ele>
        <time>2023-05-12T12:56:25.967Z</time>
      </trkpt>
      <trkpt lat="50.70588" lon="3.67708">
        <ele>91.72</ele>
        <time>2023-05-12T12:56:37.805Z</time>
      </trkpt>
      <trkpt lat="50.70588" lon="3.67708">
        <ele>91.74</ele>
        <time>2023-05-12T12:56:49.643Z</time>
      </trkpt>
      <trkpt lat="50.70588" lon="3.67708">
        <ele>91.77</ele>
        <time>2023-05-12T12:57:01.481Z</time>
      </trkpt>
      <trkpt lat="50.70587" lon="3.67705">
        <ele>91.92</ele>
        <time>2023-05-12T12:57:13.319Z</time>
      </trkpt>
      <trkpt lat="50.70587" lon="3.67704">
        <ele>92.24</ele>
        <time>2023-05-12T12:57:25.157Z</time>
      </trkpt>
      <trkpt lat="50.70587" lon="3.67704">
        <ele>92.43</ele>
        <time>2023-05-12T12:57:36.995Z</time>
      </trkpt>
      <trkpt lat="50.70585" lon="3.67697">
        <ele>95.24</ele>
        <time>2023-05-12T12:57:48.834Z</time>
      </trkpt>
      <trkpt lat="50.70563" lon="3.67616">
        <ele>96.77</ele>
        <time>2023-05-12T12:58:00.682Z</time>
      </trkpt>
      <trkpt lat="50.70543" lon="3.67563">
        <ele>98.3</ele>
        <time>2023-05-12T12:58:12.536Z</time>
      </trkpt>
      <trkpt lat="50.70518" lon="3.67523">
        <ele>100.09</ele>
        <time>2023-05-12T12:58:24.396Z</time>
      </trkpt>
      <trkpt lat="50.70475" lon="3.67458">
        <ele>102.09</ele>
        <time>2023-05-12T12:58:36.266Z</time>
      </trkpt>
      <trkpt lat="50.70472" lon="3.67435">
        <ele>103.69</ele>
        <time>2023-05-12T12:58:48.138Z</time>
      </trkpt>
      <trkpt lat="50.70472" lon="3.67399">
        <ele>105.12</ele>
        <time>2023-05-12T12:59:00.014Z</time>
      </trkpt>
      <trkpt lat="50.70467" lon="3.67381">
        <ele>106.23</ele>
        <time>2023-05-12T12:59:11.892Z</time>
      </trkpt>
      <trkpt lat="50.70443" lon="3.67359">
        <ele>107.45</ele>
        <time>2023-05-12T12:59:23.774Z</time>
      </trkpt>
      <trkpt lat="50.70439" lon="3.67354">
        <ele>108.65</ele>
        <time>2023-05-12T12:59:35.657Z</time>
      </trkpt>
      <trkpt lat="50.70437" lon="3.67344">
        <ele>109.93</ele>
        <time>2023-05-12T12:59:47.541Z</time>
      </trkpt>
      <trkpt lat="50.7043" lon="3.67178">
        <ele>112.05</ele>
        <time>2023-05-12T12:59:59.442Z</time>
      </trkpt>
      <trkpt lat="50.70415" lon="3.67046">
        <ele>113.18</ele>
        <time>2023-05-12T13:00:11.356Z</time>
      </trkpt>
      <trkpt lat="50.70311" lon="3.66914">
        <ele>115.35</ele>
        <time>2023-05-12T13:00:23.292Z</time>
      </trkpt>
      <trkpt lat="50.70296" lon="3.66891">
        <ele>116.47</ele>
        <time>2023-05-12T13:00:35.231Z</time>
      </trkpt>
      <trkpt lat="50.70288" lon="3.66873">
        <ele>117.35</ele>
        <time>2023-05-12T13:00:47.172Z</time>
      </trkpt>
      <trkpt lat="50.70278" lon="3.66859">
        <ele>118.03</ele>
        <time>2023-05-12T13:00:59.116Z</time>
      </trkpt>
      <trkpt lat="50.70217" lon="3.66797">
        <ele>118.49</ele>
        <time>2023-05-12T13:01:11.071Z</time>
      </trkpt>
      <trkpt lat="50.7018" lon="3.66781">
        <ele>116.43</ele>
        <time>2023-05-12T13:01:23.032Z</time>
      </trkpt>
      <trkpt lat="50.7018" lon="3.66781">
        <ele>116.42</ele>
        <time>2023-05-12T13:01:34.993Z</time>
      </trkpt>
      <trkpt lat="50.70179" lon="3.6678">
        <ele>116.41</ele>
        <time>2023-05-12T13:01:46.954Z</time>
      </trkpt>
      <trkpt lat="50.70177" lon="3.66779">
        <ele>116.29</ele>
        <time>2023-05-12T13:01:58.916Z</time>
      </trkpt>
      <trkpt lat="50.70177" lon="3.66779">
        <ele>116.28</ele>
        <time>2023-05-12T13:02:10.878Z</time>
      </trkpt>
      <trkpt lat="50.70172" lon="3.66777">
        <ele>116.04</ele>
        <time>2023-05-12T13:02:22.841Z</time>
      </trkpt>
      <trkpt lat="50.70091" lon="3.66741">
        <ele>115.27</ele>
        <time>2023-05-12T13:02:34.817Z</time>
      </trkpt>
      <trkpt lat="50.70092" lon="3.66633">
        <ele>114.88</ele>
        <time>2023-05-12T13:02:46.804Z</time>
      </trkpt>
      <trkpt lat="50.7009" lon="3.66517">
        <ele>114.86</ele>
        <time>2023-05-12T13:02:58.803Z</time>
      </trkpt>
      <trkpt lat="50.70091" lon="3.66463">
        <ele>115.75</ele>
        <time>2023-05-12T13:03:10.808Z</time>
      </trkpt>
      <trkpt lat="50.70096" lon="3.66429">
        <ele>116.57</ele>
        <time>2023-05-12T13:03:22.816Z</time>
      </trkpt>
      <trkpt lat="50.70119" lon="3.66344">
        <ele>117.83</ele>
        <time>2023-05-12T13:03:34.833Z</time>
      </trkpt>
      <trkpt lat="50.70157" lon="3.66198">
        <ele>119.37</ele>
        <time>2023-05-12T13:03:46.867Z</time>
      </trkpt>
      <trkpt lat="50.70183" lon="3.66093">
        <ele>120.32</ele>
        <time>2023-05-12T13:03:58.912Z</time>
      </trkpt>
      <trkpt lat="50.70233" lon="3.65899">
        <ele>124.43</ele>
        <time>2023-05-12T13:04:10.978Z</time>
      </trkpt>
      <trkpt lat="50.70233" lon="3.65899">
        <ele>124.44</ele>
        <time>2023-05-12T13:04:23.044Z</time>
      </trkpt>
      <trkpt lat="50.70233" lon="3.65899">
        <ele>124.45</ele>
        <time>2023-05-12T13:04:35.110Z</time>
      </trkpt>
      <trkpt lat="50.70234" lon="3.65895">
        <ele>124.54</ele>
        <time>2023-05-12T13:04:47.177Z</time>
      </trkpt>
      <trkpt lat="50.70234" lon="3.65895">
        <ele>124.56</ele>
        <time>2023-05-12T13:04:59.244Z</time>
      </trkpt>
      <trkpt lat="50.70236" lon="3.65889">
        <ele>124.71</ele>
        <time>2023-05-12T13:05:11.311Z</time>
      </trkpt>
      <trkpt lat="50.70241" lon="3.65869">
        <ele>124.53</ele>
        <time>2023-05-12T13:05:23.381Z</time>
      </trkpt>
      <trkpt lat="50.7026" lon="3.65815">
        <ele>124.82</ele>
        <time>2023-05-12T13:05:35.457Z</time>
      </trkpt>
      <trkpt lat="50.69894" lon="3.65392">
        <ele>140.12</ele>
        <time>2023-05-12T13:05:47.606Z</time>
      </trkpt>
      <trkpt lat="50.6981" lon="3.65533">
        <ele>132.68</ele>
        <time>2023-05-12T13:05:59.774Z</time>
      </trkpt>
      <trkpt lat="50.6981" lon="3.65533">
        <ele>132.67</ele>
        <time>2023-05-12T13:06:11.942Z</time>
      </trkpt>
      <trkpt lat="50.6981" lon="3.65533">
        <ele>132.66</ele>
        <time>2023-05-12T13:06:24.110Z</time>
      </trkpt>
      <trkpt lat="50.69808" lon="3.65536">
        <ele>132.51</ele>
        <time>2023-05-12T13:06:36.279Z</time>
      </trkpt>
      <trkpt lat="50.69808" lon="3.65536">
        <ele>132.49</ele>
        <time>2023-05-12T13:06:48.448Z</time>
      </trkpt>
      <trkpt lat="50.69805" lon="3.65541">
        <ele>132.21</ele>
        <time>2023-05-12T13:07:00.618Z</time>
      </trkpt>
      <trkpt lat="50.69805" lon="3.65541">
        <ele>129.6</ele>
        <time>2023-05-12T13:07:12.788Z</time>
      </trkpt>
      <trkpt lat="50.69763" lon="3.6561">
        <ele>128.08</ele>
        <time>2023-05-12T13:07:24.967Z</time>
      </trkpt>
      <trkpt lat="50.6969" lon="3.65731">
        <ele>125.11</ele>
        <time>2023-05-12T13:07:37.163Z</time>
      </trkpt>
      <trkpt lat="50.69625" lon="3.65834">
        <ele>123.46</ele>
        <time>2023-05-12T13:07:49.374Z</time>
      </trkpt>
      <trkpt lat="50.69613" lon="3.65847">
        <ele>122.36</ele>
        <time>2023-05-12T13:08:01.587Z</time>
      </trkpt>
      <trkpt lat="50.69608" lon="3.65847">
        <ele>121.62</ele>
        <time>2023-05-12T13:08:13.801Z</time>
      </trkpt>
      <trkpt lat="50.69606" lon="3.65843">
        <ele>121.06</ele>
        <time>2023-05-12T13:08:26.016Z</time>
      </trkpt>
      <trkpt lat="50.69545" lon="3.65714">
        <ele>120.78</ele>
        <time>2023-05-12T13:08:38.247Z</time>
      </trkpt>
      <trkpt lat="50.69536" lon="3.65703">
        <ele>120.06</ele>
        <time>2023-05-12T13:08:50.480Z</time>
      </trkpt>
      <trkpt lat="50.6953" lon="3.657">
        <ele>118.96</ele>
        <time>2023-05-12T13:09:02.714Z</time>
      </trkpt>
      <trkpt lat="50.69522" lon="3.65703">
        <ele>117.33</ele>
        <time>2023-05-12T13:09:14.949Z</time>
      </trkpt>
      <trkpt lat="50.69448" lon="3.65767">
        <ele>114.34</ele>
        <time>2023-05-12T13:09:27.198Z</time>
      </trkpt>
      <trkpt lat="50.69417" lon="3.65799">
        <ele>110.84</ele>
        <time>2023-05-12T13:09:39.453Z</time>
      </trkpt>
      <trkpt lat="50.6941" lon="3.6581">
        <ele>107</ele>
        <time>2023-05-12T13:09:51.709Z</time>
      </trkpt>
      <trkpt lat="50.6939" lon="3.65858">
        <ele>101.77</ele>
        <time>2023-05-12T13:10:03.971Z</time>
      </trkpt>
      <trkpt lat="50.69368" lon="3.65933">
        <ele>95.43</ele>
        <time>2023-05-12T13:10:16.241Z</time>
      </trkpt>
      <trkpt lat="50.6935" lon="3.65955">
        <ele>90.49</ele>
        <time>2023-05-12T13:10:28.515Z</time>
      </trkpt>
      <trkpt lat="50.69343" lon="3.65962">
        <ele>86.01</ele>
        <time>2023-05-12T13:10:40.790Z</time>
      </trkpt>
      <trkpt lat="50.6925" lon="3.66002">
        <ele>71.93</ele>
        <time>2023-05-12T13:10:53.081Z</time>
      </trkpt>
      <trkpt lat="50.69249" lon="3.66003">
        <ele>71.9</ele>
        <time>2023-05-12T13:11:05.372Z</time>
      </trkpt>
      <trkpt lat="50.69249" lon="3.66003">
        <ele>71.86</ele>
        <time>2023-05-12T13:11:17.663Z</time>
      </trkpt>
      <trkpt lat="50.69247" lon="3.66004">
        <ele>71.5</ele>
        <time>2023-05-12T13:11:29.954Z</time>
      </trkpt>
      <trkpt lat="50.69246" lon="3.66004">
        <ele>71.45</ele>
        <time>2023-05-12T13:11:42.245Z</time>
      </trkpt>
      <trkpt lat="50.69242" lon="3.66006">
        <ele>70.77</ele>
        <time>2023-05-12T13:11:54.537Z</time>
      </trkpt>
      <trkpt lat="50.69232" lon="3.6601">
        <ele>69.54</ele>
        <time>2023-05-12T13:12:06.831Z</time>
      </trkpt>
      <trkpt lat="50.6921" lon="3.66022">
        <ele>67.75</ele>
        <time>2023-05-12T13:12:19.129Z</time>
      </trkpt>
      <trkpt lat="50.69167" lon="3.66057">
        <ele>65.51</ele>
        <time>2023-05-12T13:12:31.434Z</time>
      </trkpt>
      <trkpt lat="50.69165" lon="3.66059">
        <ele>63.93</ele>
        <time>2023-05-12T13:12:43.740Z</time>
      </trkpt>
      <trkpt lat="50.6914" lon="3.66078">
        <ele>62.21</ele>
        <time>2023-05-12T13:12:56.050Z</time>
      </trkpt>
      <trkpt lat="50.69124" lon="3.66087">
        <ele>60.75</ele>
        <time>2023-05-12T13:13:08.363Z</time>
      </trkpt>
      <trkpt lat="50.69101" lon="3.6609">
        <ele>59.38</ele>
        <time>2023-05-12T13:13:20.679Z</time>
      </trkpt>
      <trkpt lat="50.69068" lon="3.66086">
        <ele>57.9</ele>
        <time>2023-05-12T13:13:33.001Z</time>
      </trkpt>
      <trkpt lat="50.69053" lon="3.66081">
        <ele>56.71</ele>
        <time>2023-05-12T13:13:45.325Z</time>
      </trkpt>
      <trkpt lat="50.6906" lon="3.66053">
        <ele>56.03</ele>
        <time>2023-05-12T13:13:57.652Z</time>
      </trkpt>
      <trkpt lat="50.69061" lon="3.66025">
        <ele>55.37</ele>
        <time>2023-05-12T13:14:09.982Z</time>
      </trkpt>
      <trkpt lat="50.69059" lon="3.65994">
        <ele>54.82</ele>
        <time>2023-05-12T13:14:22.315Z</time>
      </trkpt>
      <trkpt lat="50.6905" lon="3.65968">
        <ele>54.14</ele>
        <time>2023-05-12T13:14:34.651Z</time>
      </trkpt>
      <trkpt lat="50.69041" lon="3.65955">
        <ele>53.46</ele>
        <time>2023-05-12T13:14:46.989Z</time>
      </trkpt>
      <trkpt lat="50.69018" lon="3.65932">
        <ele>52.65</ele>
        <time>2023-05-12T13:14:59.332Z</time>
      </trkpt>
      <trkpt lat="50.68936" lon="3.65865">
        <ele>51.55</ele>
        <time>2023-05-12T13:15:11.689Z</time>
      </trkpt>
      <trkpt lat="50.68909" lon="3.65847">
        <ele>51.16</ele>
        <time>2023-05-12T13:15:24.051Z</time>
      </trkpt>
      <trkpt lat="50.68909" lon="3.65847">
        <ele>50.75</ele>
        <time>2023-05-12T13:15:36.413Z</time>
      </trkpt>
      <trkpt lat="50.68872" lon="3.65834">
        <ele>50.33</ele>
        <time>2023-05-12T13:15:48.781Z</time>
      </trkpt>
      <trkpt lat="50.68861" lon="3.65826">
        <ele>50.13</ele>
        <time>2023-05-12T13:16:01.151Z</time>
      </trkpt>
      <trkpt lat="50.68848" lon="3.65804">
        <ele>50.13</ele>
        <time>2023-05-12T13:16:13.524Z</time>
      </trkpt>
      <trkpt lat="50.68821" lon="3.65705">
        <ele>50.75</ele>
        <time>2023-05-12T13:16:25.908Z</time>
      </trkpt>
      <trkpt lat="50.68813" lon="3.65676">
        <ele>51.1</ele>
        <time>2023-05-12T13:16:38.295Z</time>
      </trkpt>
      <trkpt lat="50.68803" lon="3.65638">
        <ele>51.64</ele>
        <time>2023-05-12T13:16:50.687Z</time>
      </trkpt>
      <trkpt lat="50.68776" lon="3.65573">
        <ele>52.2</ele>
        <time>2023-05-12T13:17:03.086Z</time>
      </trkpt>
      <trkpt lat="50.68773" lon="3.65565">
        <ele>53.03</ele>
        <time>2023-05-12T13:17:15.486Z</time>
      </trkpt>
      <trkpt lat="50.68725" lon="3.6546">
        <ele>54.37</ele>
        <time>2023-05-12T13:17:27.900Z</time>
      </trkpt>
      <trkpt lat="50.68713" lon="3.65426">
        <ele>55.39</ele>
        <time>2023-05-12T13:17:40.317Z</time>
      </trkpt>
      <trkpt lat="50.68702" lon="3.65384">
        <ele>56.76</ele>
        <time>2023-05-12T13:17:52.739Z</time>
      </trkpt>
      <trkpt lat="50.6867" lon="3.65245">
        <ele>58.43</ele>
        <time>2023-05-12T13:18:05.176Z</time>
      </trkpt>
      <trkpt lat="50.68688" lon="3.65227">
        <ele>60.47</ele>
        <time>2023-05-12T13:18:17.617Z</time>
      </trkpt>
      <trkpt lat="50.68817" lon="3.65044">
        <ele>63.08</ele>
        <time>2023-05-12T13:18:30.085Z</time>
      </trkpt>
      <trkpt lat="50.68829" lon="3.65015">
        <ele>64.56</ele>
        <time>2023-05-12T13:18:42.557Z</time>
      </trkpt>
      <trkpt lat="50.68838" lon="3.6498">
        <ele>65.95</ele>
        <time>2023-05-12T13:18:55.033Z</time>
      </trkpt>
      <trkpt lat="50.68838" lon="3.6498">
        <ele>65.97</ele>
        <time>2023-05-12T13:19:07.509Z</time>
      </trkpt>
      <trkpt lat="50.68838" lon="3.6498">
        <ele>65.99</ele>
        <time>2023-05-12T13:19:19.985Z</time>
      </trkpt>
      <trkpt lat="50.68839" lon="3.64979">
        <ele>66.03</ele>
        <time>2023-05-12T13:19:32.461Z</time>
      </trkpt>
      <trkpt lat="50.6884" lon="3.64976">
        <ele>66.74</ele>
        <time>2023-05-12T13:19:44.937Z</time>
      </trkpt>
      <trkpt lat="50.6884" lon="3.64976">
        <ele>66.88</ele>
        <time>2023-05-12T13:19:57.413Z</time>
      </trkpt>
      <trkpt lat="50.68842" lon="3.6497">
        <ele>68.72</ele>
        <time>2023-05-12T13:20:09.890Z</time>
      </trkpt>
      <trkpt lat="50.68847" lon="3.64955">
        <ele>68.86</ele>
        <time>2023-05-12T13:20:22.369Z</time>
      </trkpt>
      <trkpt lat="50.68891" lon="3.64865">
        <ele>69.04</ele>
        <time>2023-05-12T13:20:34.859Z</time>
      </trkpt>
      <trkpt lat="50.68898" lon="3.64856">
        <ele>69.31</ele>
        <time>2023-05-12T13:20:47.351Z</time>
      </trkpt>
      <trkpt lat="50.68929" lon="3.64832">
        <ele>69.99</ele>
        <time>2023-05-12T13:20:59.848Z</time>
      </trkpt>
      <trkpt lat="50.68939" lon="3.64829">
        <ele>70.5</ele>
        <time>2023-05-12T13:21:12.347Z</time>
      </trkpt>
      <trkpt lat="50.68945" lon="3.64832">
        <ele>70.94</ele>
        <time>2023-05-12T13:21:24.847Z</time>
      </trkpt>
      <trkpt lat="50.68952" lon="3.64842">
        <ele>71.36</ele>
        <time>2023-05-12T13:21:37.348Z</time>
      </trkpt>
      <trkpt lat="50.68975" lon="3.64916">
        <ele>71.64</ele>
        <time>2023-05-12T13:21:49.858Z</time>
      </trkpt>
      <trkpt lat="50.68979" lon="3.64928">
        <ele>72.09</ele>
        <time>2023-05-12T13:22:02.369Z</time>
      </trkpt>
      <trkpt lat="50.68989" lon="3.64925">
        <ele>72.78</ele>
        <time>2023-05-12T13:22:14.882Z</time>
      </trkpt>
      <trkpt lat="50.69001" lon="3.64915">
        <ele>73.63</ele>
        <time>2023-05-12T13:22:27.397Z</time>
      </trkpt>
      <trkpt lat="50.69023" lon="3.64874">
        <ele>74.65</ele>
        <time>2023-05-12T13:22:39.918Z</time>
      </trkpt>
      <trkpt lat="50.69028" lon="3.64867">
        <ele>75.46</ele>
        <time>2023-05-12T13:22:52.440Z</time>
      </trkpt>
      <trkpt lat="50.69042" lon="3.64857">
        <ele>76.36</ele>
        <time>2023-05-12T13:23:04.964Z</time>
      </trkpt>
      <trkpt lat="50.69059" lon="3.6485">
        <ele>77.3</ele>
        <time>2023-05-12T13:23:17.491Z</time>
      </trkpt>
      <trkpt lat="50.69069" lon="3.6485">
        <ele>78.23</ele>
        <time>2023-05-12T13:23:30.019Z</time>
      </trkpt>
      <trkpt lat="50.69086" lon="3.64859">
        <ele>79.25</ele>
        <time>2023-05-12T13:23:42.550Z</time>
      </trkpt>
      <trkpt lat="50.69091" lon="3.64861">
        <ele>80.24</ele>
        <time>2023-05-12T13:23:55.082Z</time>
      </trkpt>
      <trkpt lat="50.69103" lon="3.64868">
        <ele>81.43</ele>
        <time>2023-05-12T13:24:07.616Z</time>
      </trkpt>
      <trkpt lat="50.69126" lon="3.64862">
        <ele>82.81</ele>
        <time>2023-05-12T13:24:20.154Z</time>
      </trkpt>
      <trkpt lat="50.69126" lon="3.64862">
        <ele>84.28</ele>
        <time>2023-05-12T13:24:32.692Z</time>
      </trkpt>
      <trkpt lat="50.69179" lon="3.64847">
        <ele>86.31</ele>
        <time>2023-05-12T13:24:45.238Z</time>
      </trkpt>
      <trkpt lat="50.69195" lon="3.64838">
        <ele>88.58</ele>
        <time>2023-05-12T13:24:57.787Z</time>
      </trkpt>
      <trkpt lat="50.69208" lon="3.64825">
        <ele>91.19</ele>
        <time>2023-05-12T13:25:10.339Z</time>
      </trkpt>
      <trkpt lat="50.69277" lon="3.64745">
        <ele>105.13</ele>
        <time>2023-05-12T13:25:22.904Z</time>
      </trkpt>
      <trkpt lat="50.69277" lon="3.64745">
        <ele>105.18</ele>
        <time>2023-05-12T13:25:35.469Z</time>
      </trkpt>
      <trkpt lat="50.69277" lon="3.64744">
        <ele>105.24</ele>
        <time>2023-05-12T13:25:48.034Z</time>
      </trkpt>
      <trkpt lat="50.69279" lon="3.64742">
        <ele>105.66</ele>
        <time>2023-05-12T13:26:00.600Z</time>
      </trkpt>
      <trkpt lat="50.69279" lon="3.64742">
        <ele>105.72</ele>
        <time>2023-05-12T13:26:13.166Z</time>
      </trkpt>
      <trkpt lat="50.69283" lon="3.64738">
        <ele>106.49</ele>
        <time>2023-05-12T13:26:25.733Z</time>
      </trkpt>
      <trkpt lat="50.69283" lon="3.64738">
        <ele>105.69</ele>
        <time>2023-05-12T13:26:38.300Z</time>
      </trkpt>
      <trkpt lat="50.69283" lon="3.64738">
        <ele>106.49</ele>
        <time>2023-05-12T13:26:50.867Z</time>
      </trkpt>
      <trkpt lat="50.69287" lon="3.64732">
        <ele>107.46</ele>
        <time>2023-05-12T13:27:03.435Z</time>
      </trkpt>
      <trkpt lat="50.6932" lon="3.64714">
        <ele>109.15</ele>
        <time>2023-05-12T13:27:16.008Z</time>
      </trkpt>
      <trkpt lat="50.69322" lon="3.64711">
        <ele>110.3</ele>
        <time>2023-05-12T13:27:28.582Z</time>
      </trkpt>
      <trkpt lat="50.69359" lon="3.6469">
        <ele>111.75</ele>
        <time>2023-05-12T13:27:41.162Z</time>
      </trkpt>
      <trkpt lat="50.69341" lon="3.64673">
        <ele>112.55</ele>
        <time>2023-05-12T13:27:53.745Z</time>
      </trkpt>
      <trkpt lat="50.69287" lon="3.64642">
        <ele>113.09</ele>
        <time>2023-05-12T13:28:06.337Z</time>
      </trkpt>
      <trkpt lat="50.69259" lon="3.64623">
        <ele>112.92</ele>
        <time>2023-05-12T13:28:18.934Z</time>
      </trkpt>
      <trkpt lat="50.692" lon="3.64585">
        <ele>112.51</ele>
        <time>2023-05-12T13:28:31.541Z</time>
      </trkpt>
      <trkpt lat="50.69189" lon="3.64583">
        <ele>111.75</ele>
        <time>2023-05-12T13:28:44.150Z</time>
      </trkpt>
      <trkpt lat="50.69143" lon="3.64585">
        <ele>110.37</ele>
        <time>2023-05-12T13:28:56.767Z</time>
      </trkpt>
      <trkpt lat="50.69098" lon="3.64571">
        <ele>108.72</ele>
        <time>2023-05-12T13:29:09.391Z</time>
      </trkpt>
      <trkpt lat="50.69094" lon="3.64569">
        <ele>107.07</ele>
        <time>2023-05-12T13:29:22.016Z</time>
      </trkpt>
      <trkpt lat="50.69084" lon="3.64567">
        <ele>105.21</ele>
        <time>2023-05-12T13:29:34.642Z</time>
      </trkpt>
      <trkpt lat="50.69054" lon="3.64552">
        <ele>102.97</ele>
        <time>2023-05-12T13:29:47.273Z</time>
      </trkpt>
      <trkpt lat="50.69012" lon="3.64506">
        <ele>100.65</ele>
        <time>2023-05-12T13:29:59.912Z</time>
      </trkpt>
      <trkpt lat="50.68998" lon="3.64481">
        <ele>98.39</ele>
        <time>2023-05-12T13:30:12.555Z</time>
      </trkpt>
      <trkpt lat="50.6899" lon="3.64462">
        <ele>96.1</ele>
        <time>2023-05-12T13:30:25.200Z</time>
      </trkpt>
      <trkpt lat="50.68974" lon="3.6442">
        <ele>93.53</ele>
        <time>2023-05-12T13:30:37.850Z</time>
      </trkpt>
      <trkpt lat="50.68968" lon="3.64398">
        <ele>91.24</ele>
        <time>2023-05-12T13:30:50.503Z</time>
      </trkpt>
      <trkpt lat="50.68968" lon="3.64398">
        <ele>89.13</ele>
        <time>2023-05-12T13:31:03.156Z</time>
      </trkpt>
      <trkpt lat="50.68959" lon="3.64365">
        <ele>86.82</ele>
        <time>2023-05-12T13:31:15.812Z</time>
      </trkpt>
      <trkpt lat="50.68949" lon="3.64346">
        <ele>84.53</ele>
        <time>2023-05-12T13:31:28.471Z</time>
      </trkpt>
      <trkpt lat="50.68921" lon="3.64315">
        <ele>81.89</ele>
        <time>2023-05-12T13:31:41.135Z</time>
      </trkpt>
      <trkpt lat="50.6892" lon="3.64301">
        <ele>79.86</ele>
        <time>2023-05-12T13:31:53.801Z</time>
      </trkpt>
      <trkpt lat="50.68928" lon="3.64261">
        <ele>77.91</ele>
        <time>2023-05-12T13:32:06.471Z</time>
      </trkpt>
      <trkpt lat="50.6893" lon="3.64244">
        <ele>76.23</ele>
        <time>2023-05-12T13:32:19.143Z</time>
      </trkpt>
      <trkpt lat="50.68929" lon="3.64213">
        <ele>74.46</ele>
        <time>2023-05-12T13:32:31.818Z</time>
      </trkpt>
      <trkpt lat="50.68925" lon="3.64157">
        <ele>72.81</ele>
        <time>2023-05-12T13:32:44.499Z</time>
      </trkpt>
      <trkpt lat="50.68926" lon="3.64157">
        <ele>71.03</ele>
        <time>2023-05-12T13:32:57.180Z</time>
      </trkpt>
      <trkpt lat="50.68927" lon="3.64092">
        <ele>69.05</ele>
        <time>2023-05-12T13:33:09.867Z</time>
      </trkpt>
      <trkpt lat="50.68921" lon="3.64084">
        <ele>66.8</ele>
        <time>2023-05-12T13:33:22.555Z</time>
      </trkpt>
      <trkpt lat="50.68907" lon="3.64076">
        <ele>64.35</ele>
        <time>2023-05-12T13:33:35.246Z</time>
      </trkpt>
      <trkpt lat="50.68892" lon="3.6407">
        <ele>61.8</ele>
        <time>2023-05-12T13:33:47.939Z</time>
      </trkpt>
      <trkpt lat="50.68872" lon="3.64064">
        <ele>59.12</ele>
        <time>2023-05-12T13:34:00.636Z</time>
      </trkpt>
      <trkpt lat="50.68845" lon="3.64059">
        <ele>56.27</ele>
        <time>2023-05-12T13:34:13.337Z</time>
      </trkpt>
      <trkpt lat="50.68739" lon="3.64055">
        <ele>53.09</ele>
        <time>2023-05-12T13:34:26.055Z</time>
      </trkpt>
      <trkpt lat="50.68739" lon="3.64055">
        <ele>51.02</ele>
        <time>2023-05-12T13:34:38.773Z</time>
      </trkpt>
      <trkpt lat="50.68715" lon="3.6405">
        <ele>48.87</ele>
        <time>2023-05-12T13:34:51.495Z</time>
      </trkpt>
      <trkpt lat="50.6868" lon="3.64035">
        <ele>46.8</ele>
        <time>2023-05-12T13:35:04.223Z</time>
      </trkpt>
      <trkpt lat="50.6864" lon="3.64009">
        <ele>45.33</ele>
        <time>2023-05-12T13:35:16.957Z</time>
      </trkpt>
      <trkpt lat="50.68626" lon="3.63996">
        <ele>44.35</ele>
        <time>2023-05-12T13:35:29.694Z</time>
      </trkpt>
      <trkpt lat="50.68626" lon="3.63996">
        <ele>43.65</ele>
        <time>2023-05-12T13:35:42.431Z</time>
      </trkpt>
      <trkpt lat="50.68605" lon="3.63962">
        <ele>43.31</ele>
        <time>2023-05-12T13:35:55.173Z</time>
      </trkpt>
      <trkpt lat="50.68548" lon="3.6386">
        <ele>43.36</ele>
        <time>2023-05-12T13:36:07.929Z</time>
      </trkpt>
      <trkpt lat="50.68523" lon="3.63818">
        <ele>43.59</ele>
        <time>2023-05-12T13:36:20.691Z</time>
      </trkpt>
      <trkpt lat="50.68521" lon="3.63816">
        <ele>43.84</ele>
        <time>2023-05-12T13:36:33.453Z</time>
      </trkpt>
      <trkpt lat="50.68456" lon="3.63714">
        <ele>49.42</ele>
        <time>2023-05-12T13:36:46.230Z</time>
      </trkpt>
      <trkpt lat="50.68456" lon="3.63714">
        <ele>49.44</ele>
        <time>2023-05-12T13:36:59.007Z</time>
      </trkpt>
      <trkpt lat="50.68456" lon="3.63714">
        <ele>49.47</ele>
        <time>2023-05-12T13:37:11.784Z</time>
      </trkpt>
      <trkpt lat="50.68454" lon="3.63711">
        <ele>49.63</ele>
        <time>2023-05-12T13:37:24.561Z</time>
      </trkpt>
      <trkpt lat="50.68454" lon="3.63711">
        <ele>49.66</ele>
        <time>2023-05-12T13:37:37.338Z</time>
      </trkpt>
      <trkpt lat="50.68451" lon="3.63706">
        <ele>49.95</ele>
        <time>2023-05-12T13:37:50.116Z</time>
      </trkpt>
      <trkpt lat="50.68435" lon="3.63681">
        <ele>49.74</ele>
        <time>2023-05-12T13:38:02.897Z</time>
      </trkpt>
      <trkpt lat="50.68375" lon="3.63605">
        <ele>49.9</ele>
        <time>2023-05-12T13:38:15.691Z</time>
      </trkpt>
      <trkpt lat="50.68375" lon="3.63605">
        <ele>49.48</ele>
        <time>2023-05-12T13:38:28.485Z</time>
      </trkpt>
      <trkpt lat="50.68275" lon="3.63505">
        <ele>48.21</ele>
        <time>2023-05-12T13:38:41.298Z</time>
      </trkpt>
      <trkpt lat="50.6827" lon="3.63502">
        <ele>47.13</ele>
        <time>2023-05-12T13:38:54.112Z</time>
      </trkpt>
      <trkpt lat="50.68265" lon="3.63506">
        <ele>45.92</ele>
        <time>2023-05-12T13:39:06.927Z</time>
      </trkpt>
      <trkpt lat="50.68231" lon="3.63549">
        <ele>44.27</ele>
        <time>2023-05-12T13:39:19.749Z</time>
      </trkpt>
      <trkpt lat="50.68195" lon="3.63588">
        <ele>42.71</ele>
        <time>2023-05-12T13:39:32.578Z</time>
      </trkpt>
      <trkpt lat="50.68176" lon="3.63613">
        <ele>41.32</ele>
        <time>2023-05-12T13:39:45.411Z</time>
      </trkpt>
      <trkpt lat="50.68126" lon="3.63714">
        <ele>39.96</ele>
        <time>2023-05-12T13:39:58.257Z</time>
      </trkpt>
      <trkpt lat="50.68111" lon="3.63737">
        <ele>39.04</ele>
        <time>2023-05-12T13:40:11.106Z</time>
      </trkpt>
      <trkpt lat="50.68096" lon="3.63756">
        <ele>38.41</ele>
        <time>2023-05-12T13:40:23.958Z</time>
      </trkpt>
      <trkpt lat="50.68092" lon="3.63759">
        <ele>38.01</ele>
        <time>2023-05-12T13:40:36.811Z</time>
      </trkpt>
      <trkpt lat="50.68092" lon="3.63759">
        <ele>37.78</ele>
        <time>2023-05-12T13:40:49.664Z</time>
      </trkpt>
      <trkpt lat="50.67975" lon="3.63703">
        <ele>37.78</ele>
        <time>2023-05-12T13:41:02.536Z</time>
      </trkpt>
      <trkpt lat="50.6794" lon="3.63684">
        <ele>37.73</ele>
        <time>2023-05-12T13:41:15.414Z</time>
      </trkpt>
      <trkpt lat="50.67923" lon="3.63673">
        <ele>37.82</ele>
        <time>2023-05-12T13:41:28.295Z</time>
      </trkpt>
      <trkpt lat="50.67871" lon="3.63716">
        <ele>37.81</ele>
        <time>2023-05-12T13:41:41.186Z</time>
      </trkpt>
      <trkpt lat="50.6786" lon="3.63727">
        <ele>37.93</ele>
        <time>2023-05-12T13:41:54.079Z</time>
      </trkpt>
      <trkpt lat="50.67843" lon="3.6374">
        <ele>37.84</ele>
        <time>2023-05-12T13:42:06.975Z</time>
      </trkpt>
      <trkpt lat="50.67843" lon="3.6374">
        <ele>37.71</ele>
        <time>2023-05-12T13:42:19.871Z</time>
      </trkpt>
      <trkpt lat="50.67781" lon="3.63787">
        <ele>37.6</ele>
        <time>2023-05-12T13:42:32.778Z</time>
      </trkpt>
      <trkpt lat="50.67781" lon="3.63787">
        <ele>37.6</ele>
        <time>2023-05-12T13:42:45.685Z</time>
      </trkpt>
      <trkpt lat="50.6778" lon="3.63787">
        <ele>37.6</ele>
        <time>2023-05-12T13:42:58.592Z</time>
      </trkpt>
      <trkpt lat="50.67778" lon="3.63789">
        <ele>37.6</ele>
        <time>2023-05-12T13:43:11.499Z</time>
      </trkpt>
      <trkpt lat="50.67778" lon="3.63789">
        <ele>37.6</ele>
        <time>2023-05-12T13:43:24.406Z</time>
      </trkpt>
      <trkpt lat="50.67774" lon="3.63792">
        <ele>37.6</ele>
        <time>2023-05-12T13:43:37.314Z</time>
      </trkpt>
      <trkpt lat="50.67644" lon="3.63891">
        <ele>37.42</ele>
        <time>2023-05-12T13:43:50.245Z</time>
      </trkpt>
      <trkpt lat="50.67652" lon="3.6395">
        <ele>38.01</ele>
        <time>2023-05-12T13:44:03.182Z</time>
      </trkpt>
      <trkpt lat="50.67662" lon="3.63993">
        <ele>38.27</ele>
        <time>2023-05-12T13:44:16.124Z</time>
      </trkpt>
      <trkpt lat="50.67644" lon="3.64003">
        <ele>38.33</ele>
        <time>2023-05-12T13:44:29.069Z</time>
      </trkpt>
      <trkpt lat="50.67635" lon="3.64012">
        <ele>37.97</ele>
        <time>2023-05-12T13:44:42.016Z</time>
      </trkpt>
      <trkpt lat="50.67616" lon="3.64042">
        <ele>37.15</ele>
        <time>2023-05-12T13:44:54.967Z</time>
      </trkpt>
      <trkpt lat="50.67603" lon="3.64058">
        <ele>36.37</ele>
        <time>2023-05-12T13:45:07.921Z</time>
      </trkpt>
      <trkpt lat="50.67584" lon="3.64077">
        <ele>35.75</ele>
        <time>2023-05-12T13:45:20.878Z</time>
      </trkpt>
      <trkpt lat="50.67546" lon="3.64102">
        <ele>35.82</ele>
        <time>2023-05-12T13:45:33.842Z</time>
      </trkpt>
      <trkpt lat="50.67516" lon="3.64077">
        <ele>35.76</ele>
        <time>2023-05-12T13:45:46.811Z</time>
      </trkpt>
      <trkpt lat="50.675" lon="3.64068">
        <ele>35.68</ele>
        <time>2023-05-12T13:45:59.783Z</time>
      </trkpt>
      <trkpt lat="50.67488" lon="3.64066">
        <ele>35.65</ele>
        <time>2023-05-12T13:46:12.757Z</time>
      </trkpt>
      <trkpt lat="50.67478" lon="3.64067">
        <ele>35.65</ele>
        <time>2023-05-12T13:46:25.732Z</time>
      </trkpt>
      <trkpt lat="50.67466" lon="3.64074">
        <ele>35.94</ele>
        <time>2023-05-12T13:46:38.709Z</time>
      </trkpt>
      <trkpt lat="50.67466" lon="3.64074">
        <ele>35.95</ele>
        <time>2023-05-12T13:46:51.686Z</time>
      </trkpt>
      <trkpt lat="50.67466" lon="3.64074">
        <ele>35.96</ele>
        <time>2023-05-12T13:47:04.663Z</time>
      </trkpt>
      <trkpt lat="50.67464" lon="3.64076">
        <ele>36.02</ele>
        <time>2023-05-12T13:47:17.641Z</time>
      </trkpt>
      <trkpt lat="50.67463" lon="3.64076">
        <ele>36.03</ele>
        <time>2023-05-12T13:47:30.619Z</time>
      </trkpt>
      <trkpt lat="50.67459" lon="3.64079">
        <ele>36.15</ele>
        <time>2023-05-12T13:47:43.598Z</time>
      </trkpt>
      <trkpt lat="50.67459" lon="3.64079">
        <ele>35.79</ele>
        <time>2023-05-12T13:47:56.577Z</time>
      </trkpt>
      <trkpt lat="50.67459" lon="3.64079">
        <ele>36.15</ele>
        <time>2023-05-12T13:48:09.556Z</time>
      </trkpt>
      <trkpt lat="50.67456" lon="3.6408">
        <ele>36.67</ele>
        <time>2023-05-12T13:48:22.535Z</time>
      </trkpt>
      <trkpt lat="50.67445" lon="3.64084">
        <ele>37.44</ele>
        <time>2023-05-12T13:48:35.516Z</time>
      </trkpt>
      <trkpt lat="50.67422" lon="3.64087">
        <ele>38.57</ele>
        <time>2023-05-12T13:48:48.501Z</time>
      </trkpt>
      <trkpt lat="50.67332" lon="3.64199">
        <ele>40.51</ele>
        <time>2023-05-12T13:49:01.504Z</time>
      </trkpt>
      <trkpt lat="50.67309" lon="3.6424">
        <ele>42</ele>
        <time>2023-05-12T13:49:14.513Z</time>
      </trkpt>
      <trkpt lat="50.6728" lon="3.6428">
        <ele>42.61</ele>
        <time>2023-05-12T13:49:27.528Z</time>
      </trkpt>
      <trkpt lat="50.67237" lon="3.64328">
        <ele>43.2</ele>
        <time>2023-05-12T13:49:40.551Z</time>
      </trkpt>
      <trkpt lat="50.6722" lon="3.64343">
        <ele>44.59</ele>
        <time>2023-05-12T13:49:53.577Z</time>
      </trkpt>
      <trkpt lat="50.6722" lon="3.64344">
        <ele>44.62</ele>
        <time>2023-05-12T13:50:06.603Z</time>
      </trkpt>
      <trkpt lat="50.6722" lon="3.64344">
        <ele>44.65</ele>
        <time>2023-05-12T13:50:19.629Z</time>
      </trkpt>
      <trkpt lat="50.67218" lon="3.64346">
        <ele>44.84</ele>
        <time>2023-05-12T13:50:32.656Z</time>
      </trkpt>
      <trkpt lat="50.67218" lon="3.64346">
        <ele>44.87</ele>
        <time>2023-05-12T13:50:45.683Z</time>
      </trkpt>
      <trkpt lat="50.67214" lon="3.6435">
        <ele>45.23</ele>
        <time>2023-05-12T13:50:58.711Z</time>
      </trkpt>
      <trkpt lat="50.67172" lon="3.6439">
        <ele>47.22</ele>
        <time>2023-05-12T13:51:11.746Z</time>
      </trkpt>
      <trkpt lat="50.67151" lon="3.64416">
        <ele>48.19</ele>
        <time>2023-05-12T13:51:24.786Z</time>
      </trkpt>
      <trkpt lat="50.67145" lon="3.6443">
        <ele>48.66</ele>
        <time>2023-05-12T13:51:37.827Z</time>
      </trkpt>
      <trkpt lat="50.67141" lon="3.64459">
        <ele>48.87</ele>
        <time>2023-05-12T13:51:50.871Z</time>
      </trkpt>
      <trkpt lat="50.67138" lon="3.64479">
        <ele>49.11</ele>
        <time>2023-05-12T13:52:03.918Z</time>
      </trkpt>
      <trkpt lat="50.67126" lon="3.64495">
        <ele>49.42</ele>
        <time>2023-05-12T13:52:16.967Z</time>
      </trkpt>
      <trkpt lat="50.67061" lon="3.64544">
        <ele>50.39</ele>
        <time>2023-05-12T13:52:30.028Z</time>
      </trkpt>
      <trkpt lat="50.67008" lon="3.64584">
        <ele>50.62</ele>
        <time>2023-05-12T13:52:43.098Z</time>
      </trkpt>
      <trkpt lat="50.66958" lon="3.64628">
        <ele>51.02</ele>
        <time>2023-05-12T13:52:56.177Z</time>
      </trkpt>
      <trkpt lat="50.66933" lon="3.64643">
        <ele>51.68</ele>
        <time>2023-05-12T13:53:09.260Z</time>
      </trkpt>
      <trkpt lat="50.66916" lon="3.64656">
        <ele>52.22</ele>
        <time>2023-05-12T13:53:22.347Z</time>
      </trkpt>
      <trkpt lat="50.66887" lon="3.64695">
        <ele>52.75</ele>
        <time>2023-05-12T13:53:35.440Z</time>
      </trkpt>
      <trkpt lat="50.66884" lon="3.64699">
        <ele>53.12</ele>
        <time>2023-05-12T13:53:48.533Z</time>
      </trkpt>
      <trkpt lat="50.6686" lon="3.64725">
        <ele>53.47</ele>
        <time>2023-05-12T13:54:01.631Z</time>
      </trkpt>
      <trkpt lat="50.6686" lon="3.64725">
        <ele>53.77</ele>
        <time>2023-05-12T13:54:14.729Z</time>
      </trkpt>
      <trkpt lat="50.66845" lon="3.64734">
        <ele>54.18</ele>
        <time>2023-05-12T13:54:27.829Z</time>
      </trkpt>
      <trkpt lat="50.66802" lon="3.64753">
        <ele>54.37</ele>
        <time>2023-05-12T13:54:40.937Z</time>
      </trkpt>
      <trkpt lat="50.66762" lon="3.64773">
        <ele>54.75</ele>
        <time>2023-05-12T13:54:54.051Z</time>
      </trkpt>
      <trkpt lat="50.66755" lon="3.64778">
        <ele>55.25</ele>
        <time>2023-05-12T13:55:07.167Z</time>
      </trkpt>
      <trkpt lat="50.66711" lon="3.64838">
        <ele>55.96</ele>
        <time>2023-05-12T13:55:20.292Z</time>
      </trkpt>
      <trkpt lat="50.667" lon="3.64851">
        <ele>56.66</ele>
        <time>2023-05-12T13:55:33.419Z</time>
      </trkpt>
      <trkpt lat="50.66619" lon="3.64917">
        <ele>57.54</ele>
        <time>2023-05-12T13:55:46.561Z</time>
      </trkpt>
      <trkpt lat="50.66538" lon="3.64971">
        <ele>58.39</ele>
        <time>2023-05-12T13:55:59.717Z</time>
      </trkpt>
      <trkpt lat="50.66483" lon="3.65013">
        <ele>59.3</ele>
        <time>2023-05-12T13:56:12.883Z</time>
      </trkpt>
      <trkpt lat="50.6647" lon="3.65026">
        <ele>60.02</ele>
        <time>2023-05-12T13:56:26.051Z</time>
      </trkpt>
      <trkpt lat="50.66402" lon="3.65116">
        <ele>60.93</ele>
        <time>2023-05-12T13:56:39.233Z</time>
      </trkpt>
      <trkpt lat="50.66367" lon="3.65149">
        <ele>61.4</ele>
        <time>2023-05-12T13:56:52.422Z</time>
      </trkpt>
      <trkpt lat="50.66338" lon="3.65162">
        <ele>61.34</ele>
        <time>2023-05-12T13:57:05.616Z</time>
      </trkpt>
      <trkpt lat="50.66303" lon="3.65171">
        <ele>61.04</ele>
        <time>2023-05-12T13:57:18.815Z</time>
      </trkpt>
      <trkpt lat="50.66297" lon="3.65172">
        <ele>60.45</ele>
        <time>2023-05-12T13:57:32.015Z</time>
      </trkpt>
      <trkpt lat="50.66235" lon="3.65165">
        <ele>59.3</ele>
        <time>2023-05-12T13:57:45.225Z</time>
      </trkpt>
      <trkpt lat="50.66195" lon="3.65156">
        <ele>57.87</ele>
        <time>2023-05-12T13:57:58.442Z</time>
      </trkpt>
      <trkpt lat="50.66152" lon="3.65142">
        <ele>56.85</ele>
        <time>2023-05-12T13:58:11.666Z</time>
      </trkpt>
      <trkpt lat="50.66007" lon="3.65538">
        <ele>57.16</ele>
        <time>2023-05-12T13:58:24.936Z</time>
      </trkpt>
      <trkpt lat="50.66007" lon="3.65537">
        <ele>57.17</ele>
        <time>2023-05-12T13:58:38.206Z</time>
      </trkpt>
      <trkpt lat="50.66007" lon="3.65537">
        <ele>57.18</ele>
        <time>2023-05-12T13:58:51.476Z</time>
      </trkpt>
      <trkpt lat="50.66006" lon="3.6554">
        <ele>57.19</ele>
        <time>2023-05-12T13:59:04.747Z</time>
      </trkpt>
      <trkpt lat="50.66006" lon="3.6554">
        <ele>57.2</ele>
        <time>2023-05-12T13:59:18.018Z</time>
      </trkpt>
      <trkpt lat="50.66004" lon="3.65545">
        <ele>57.21</ele>
        <time>2023-05-12T13:59:31.290Z</time>
      </trkpt>
      <trkpt lat="50.66004" lon="3.65545">
        <ele>55.97</ele>
        <time>2023-05-12T13:59:44.562Z</time>
      </trkpt>
      <trkpt lat="50.65999" lon="3.65559">
        <ele>55.94</ele>
        <time>2023-05-12T13:59:57.835Z</time>
      </trkpt>
      <trkpt lat="50.6598" lon="3.65601">
        <ele>55.91</ele>
        <time>2023-05-12T14:00:11.113Z</time>
      </trkpt>
      <trkpt lat="50.65966" lon="3.65625">
        <ele>55.98</ele>
        <time>2023-05-12T14:00:24.395Z</time>
      </trkpt>
      <trkpt lat="50.65953" lon="3.65647">
        <ele>56.09</ele>
        <time>2023-05-12T14:00:37.680Z</time>
      </trkpt>
      <trkpt lat="50.65949" lon="3.65652">
        <ele>56.07</ele>
        <time>2023-05-12T14:00:50.966Z</time>
      </trkpt>
      <trkpt lat="50.65941" lon="3.65663">
        <ele>56</ele>
        <time>2023-05-12T14:01:04.253Z</time>
      </trkpt>
      <trkpt lat="50.65917" lon="3.65633">
        <ele>55.67</ele>
        <time>2023-05-12T14:01:17.545Z</time>
      </trkpt>
      <trkpt lat="50.65817" lon="3.65506">
        <ele>54.59</ele>
        <time>2023-05-12T14:01:30.858Z</time>
      </trkpt>
      <trkpt lat="50.65817" lon="3.65506">
        <ele>54</ele>
        <time>2023-05-12T14:01:44.171Z</time>
      </trkpt>
      <trkpt lat="50.65807" lon="3.65499">
        <ele>53.4</ele>
        <time>2023-05-12T14:01:57.486Z</time>
      </trkpt>
      <trkpt lat="50.65752" lon="3.6549">
        <ele>52.7</ele>
        <time>2023-05-12T14:02:10.809Z</time>
      </trkpt>
      <trkpt lat="50.65729" lon="3.65482">
        <ele>51.87</ele>
        <time>2023-05-12T14:02:24.136Z</time>
      </trkpt>
      <trkpt lat="50.65705" lon="3.6547">
        <ele>50.95</ele>
        <time>2023-05-12T14:02:37.467Z</time>
      </trkpt>
      <trkpt lat="50.65645" lon="3.65418">
        <ele>50.06</ele>
        <time>2023-05-12T14:02:50.809Z</time>
      </trkpt>
      <trkpt lat="50.65592" lon="3.65363">
        <ele>49.11</ele>
        <time>2023-05-12T14:03:04.161Z</time>
      </trkpt>
      <trkpt lat="50.65579" lon="3.65344">
        <ele>48.58</ele>
        <time>2023-05-12T14:03:17.516Z</time>
      </trkpt>
      <trkpt lat="50.65565" lon="3.65318">
        <ele>48.28</ele>
        <time>2023-05-12T14:03:30.875Z</time>
      </trkpt>
      <trkpt lat="50.65565" lon="3.65317">
        <ele>48.28</ele>
        <time>2023-05-12T14:03:44.234Z</time>
      </trkpt>
      <trkpt lat="50.65565" lon="3.65317">
        <ele>48.28</ele>
        <time>2023-05-12T14:03:57.593Z</time>
      </trkpt>
      <trkpt lat="50.65563" lon="3.65313">
        <ele>48.25</ele>
        <time>2023-05-12T14:04:10.952Z</time>
      </trkpt>
      <trkpt lat="50.65563" lon="3.65313">
        <ele>48.25</ele>
        <time>2023-05-12T14:04:24.311Z</time>
      </trkpt>
      <trkpt lat="50.6556" lon="3.65307">
        <ele>48.2</ele>
        <time>2023-05-12T14:04:37.671Z</time>
      </trkpt>
      <trkpt lat="50.65535" lon="3.65244">
        <ele>48.57</ele>
        <time>2023-05-12T14:04:51.039Z</time>
      </trkpt>
      <trkpt lat="50.6553" lon="3.65235">
        <ele>49.14</ele>
        <time>2023-05-12T14:05:04.408Z</time>
      </trkpt>
      <trkpt lat="50.65521" lon="3.65228">
        <ele>49.94</ele>
        <time>2023-05-12T14:05:17.778Z</time>
      </trkpt>
      <trkpt lat="50.65495" lon="3.65213">
        <ele>51.04</ele>
        <time>2023-05-12T14:05:31.153Z</time>
      </trkpt>
      <trkpt lat="50.65464" lon="3.65197">
        <ele>51.82</ele>
        <time>2023-05-12T14:05:44.533Z</time>
      </trkpt>
      <trkpt lat="50.65406" lon="3.65143">
        <ele>52.19</ele>
        <time>2023-05-12T14:05:57.924Z</time>
      </trkpt>
      <trkpt lat="50.65332" lon="3.65072">
        <ele>53.34</ele>
        <time>2023-05-12T14:06:11.329Z</time>
      </trkpt>
      <trkpt lat="50.65254" lon="3.64993">
        <ele>54.23</ele>
        <time>2023-05-12T14:06:24.749Z</time>
      </trkpt>
      <trkpt lat="50.65121" lon="3.64858">
        <ele>53.5</ele>
        <time>2023-05-12T14:06:38.194Z</time>
      </trkpt>
      <trkpt lat="50.65102" lon="3.64832">
        <ele>53.29</ele>
        <time>2023-05-12T14:06:51.643Z</time>
      </trkpt>
      <trkpt lat="50.65079" lon="3.64783">
        <ele>53.25</ele>
        <time>2023-05-12T14:07:05.098Z</time>
      </trkpt>
      <trkpt lat="50.65048" lon="3.64728">
        <ele>53.85</ele>
        <time>2023-05-12T14:07:18.561Z</time>
      </trkpt>
      <trkpt lat="50.65031" lon="3.64692">
        <ele>54.6</ele>
        <time>2023-05-12T14:07:32.028Z</time>
      </trkpt>
      <trkpt lat="50.65017" lon="3.64658">
        <ele>55.44</ele>
        <time>2023-05-12T14:07:45.499Z</time>
      </trkpt>
      <trkpt lat="50.65016" lon="3.64657">
        <ele>55.46</ele>
        <time>2023-05-12T14:07:58.971Z</time>
      </trkpt>
      <trkpt lat="50.65016" lon="3.64657">
        <ele>55.48</ele>
        <time>2023-05-12T14:08:12.443Z</time>
      </trkpt>
      <trkpt lat="50.65015" lon="3.64653">
        <ele>55.58</ele>
        <time>2023-05-12T14:08:25.915Z</time>
      </trkpt>
      <trkpt lat="50.65015" lon="3.64653">
        <ele>55.6</ele>
        <time>2023-05-12T14:08:39.387Z</time>
      </trkpt>
      <trkpt lat="50.65012" lon="3.64646">
        <ele>55.76</ele>
        <time>2023-05-12T14:08:52.860Z</time>
      </trkpt>
      <trkpt lat="50.64991" lon="3.64596">
        <ele>55.67</ele>
        <time>2023-05-12T14:09:06.339Z</time>
      </trkpt>
      <trkpt lat="50.64991" lon="3.64596">
        <ele>55.7</ele>
        <time>2023-05-12T14:09:19.818Z</time>
      </trkpt>
      <trkpt lat="50.64983" lon="3.64597">
        <ele>55.82</ele>
        <time>2023-05-12T14:09:33.298Z</time>
      </trkpt>
      <trkpt lat="50.64967" lon="3.64593">
        <ele>56.05</ele>
        <time>2023-05-12T14:09:46.781Z</time>
      </trkpt>
      <trkpt lat="50.64956" lon="3.64585">
        <ele>56.31</ele>
        <time>2023-05-12T14:10:00.266Z</time>
      </trkpt>
      <trkpt lat="50.64948" lon="3.64576">
        <ele>56.57</ele>
        <time>2023-05-12T14:10:13.752Z</time>
      </trkpt>
      <trkpt lat="50.6494" lon="3.64564">
        <ele>56.87</ele>
        <time>2023-05-12T14:10:27.240Z</time>
      </trkpt>
      <trkpt lat="50.6483" lon="3.64351">
        <ele>56.79</ele>
        <time>2023-05-12T14:10:40.756Z</time>
      </trkpt>
      <trkpt lat="50.64825" lon="3.64335">
        <ele>57.19</ele>
        <time>2023-05-12T14:10:54.274Z</time>
      </trkpt>
      <trkpt lat="50.64822" lon="3.6432">
        <ele>57.71</ele>
        <time>2023-05-12T14:11:07.794Z</time>
      </trkpt>
      <trkpt lat="50.64813" lon="3.64156">
        <ele>58.57</ele>
        <time>2023-05-12T14:11:21.330Z</time>
      </trkpt>
      <trkpt lat="50.64767" lon="3.64015">
        <ele>59.49</ele>
        <time>2023-05-12T14:11:34.882Z</time>
      </trkpt>
      <trkpt lat="50.64752" lon="3.63977">
        <ele>60.14</ele>
        <time>2023-05-12T14:11:48.439Z</time>
      </trkpt>
      <trkpt lat="50.64734" lon="3.63945">
        <ele>60.75</ele>
        <time>2023-05-12T14:12:02.000Z</time>
      </trkpt>
      <trkpt lat="50.64677" lon="3.63874">
        <ele>61.18</ele>
        <time>2023-05-12T14:12:15.573Z</time>
      </trkpt>
      <trkpt lat="50.64653" lon="3.63827">
        <ele>61.76</ele>
        <time>2023-05-12T14:12:29.152Z</time>
      </trkpt>
      <trkpt lat="50.64683" lon="3.63792">
        <ele>61.63</ele>
        <time>2023-05-12T14:12:42.737Z</time>
      </trkpt>
      <trkpt lat="50.64692" lon="3.63784">
        <ele>61.29</ele>
        <time>2023-05-12T14:12:56.324Z</time>
      </trkpt>
      <trkpt lat="50.64718" lon="3.6376">
        <ele>60.65</ele>
        <time>2023-05-12T14:13:09.916Z</time>
      </trkpt>
      <trkpt lat="50.64809" lon="3.63676">
        <ele>60</ele>
        <time>2023-05-12T14:13:23.524Z</time>
      </trkpt>
      <trkpt lat="50.64809" lon="3.63676">
        <ele>59</ele>
        <time>2023-05-12T14:13:37.132Z</time>
      </trkpt>
      <trkpt lat="50.64813" lon="3.63672">
        <ele>57.72</ele>
        <time>2023-05-12T14:13:50.741Z</time>
      </trkpt>
      <trkpt lat="50.64797" lon="3.63621">
        <ele>56.17</ele>
        <time>2023-05-12T14:14:04.356Z</time>
      </trkpt>
      <trkpt lat="50.64781" lon="3.63548">
        <ele>54.13</ele>
        <time>2023-05-12T14:14:17.979Z</time>
      </trkpt>
      <trkpt lat="50.6475" lon="3.63349">
        <ele>51.02</ele>
        <time>2023-05-12T14:14:31.623Z</time>
      </trkpt>
      <trkpt lat="50.64751" lon="3.63337">
        <ele>49.46</ele>
        <time>2023-05-12T14:14:45.268Z</time>
      </trkpt>
      <trkpt lat="50.64753" lon="3.63326">
        <ele>48.05</ele>
        <time>2023-05-12T14:14:58.914Z</time>
      </trkpt>
      <trkpt lat="50.64788" lon="3.63263">
        <ele>46.9</ele>
        <time>2023-05-12T14:15:12.569Z</time>
      </trkpt>
      <trkpt lat="50.64796" lon="3.63248">
        <ele>45.88</ele>
        <time>2023-05-12T14:15:26.226Z</time>
      </trkpt>
      <trkpt lat="50.64797" lon="3.63239">
        <ele>45.06</ele>
        <time>2023-05-12T14:15:39.884Z</time>
      </trkpt>
      <trkpt lat="50.64809" lon="3.63065">
        <ele>44.51</ele>
        <time>2023-05-12T14:15:53.560Z</time>
      </trkpt>
      <trkpt lat="50.64807" lon="3.63047">
        <ele>44.23</ele>
        <time>2023-05-12T14:16:07.237Z</time>
      </trkpt>
      <trkpt lat="50.64798" lon="3.6302">
        <ele>44.25</ele>
        <time>2023-05-12T14:16:20.917Z</time>
      </trkpt>
      <trkpt lat="50.64798" lon="3.6302">
        <ele>44.72</ele>
        <time>2023-05-12T14:16:34.597Z</time>
      </trkpt>
      <trkpt lat="50.64788" lon="3.62967">
        <ele>45.71</ele>
        <time>2023-05-12T14:16:48.283Z</time>
      </trkpt>
      <trkpt lat="50.64728" lon="3.62632">
        <ele>48.1</ele>
        <time>2023-05-12T14:17:02.005Z</time>
      </trkpt>
      <trkpt lat="50.64728" lon="3.62632">
        <ele>48.11</ele>
        <time>2023-05-12T14:17:15.727Z</time>
      </trkpt>
      <trkpt lat="50.64728" lon="3.62633">
        <ele>48.12</ele>
        <time>2023-05-12T14:17:29.449Z</time>
      </trkpt>
      <trkpt lat="50.64728" lon="3.62633">
        <ele>54.86</ele>
        <time>2023-05-12T14:17:43.171Z</time>
      </trkpt>
      <trkpt lat="50.64691" lon="3.62486">
        <ele>56.02</ele>
        <time>2023-05-12T14:17:56.909Z</time>
      </trkpt>
      <trkpt lat="50.64603" lon="3.62541">
        <ele>55.97</ele>
        <time>2023-05-12T14:18:10.662Z</time>
      </trkpt>
      <trkpt lat="50.64497" lon="3.62617">
        <ele>55.92</ele>
        <time>2023-05-12T14:18:24.434Z</time>
      </trkpt>
      <trkpt lat="50.64447" lon="3.62655">
        <ele>55.39</ele>
        <time>2023-05-12T14:18:38.214Z</time>
      </trkpt>
      <trkpt lat="50.64447" lon="3.62655">
        <ele>54.48</ele>
        <time>2023-05-12T14:18:51.994Z</time>
      </trkpt>
      <trkpt lat="50.64322" lon="3.62749">
        <ele>53.15</ele>
        <time>2023-05-12T14:19:05.797Z</time>
      </trkpt>
      <trkpt lat="50.64286" lon="3.62509">
        <ele>50.72</ele>
        <time>2023-05-12T14:19:19.625Z</time>
      </trkpt>
      <trkpt lat="50.64262" lon="3.62347">
        <ele>48.31</ele>
        <time>2023-05-12T14:19:33.470Z</time>
      </trkpt>
      <trkpt lat="50.64254" lon="3.62278">
        <ele>46.34</ele>
        <time>2023-05-12T14:19:47.322Z</time>
      </trkpt>
      <trkpt lat="50.6425" lon="3.62254">
        <ele>45.36</ele>
        <time>2023-05-12T14:20:01.176Z</time>
      </trkpt>
      <trkpt lat="50.64243" lon="3.6223">
        <ele>44.89</ele>
        <time>2023-05-12T14:20:15.033Z</time>
      </trkpt>
      <trkpt lat="50.64226" lon="3.62181">
        <ele>45.04</ele>
        <time>2023-05-12T14:20:28.896Z</time>
      </trkpt>
      <trkpt lat="50.6416" lon="3.62037">
        <ele>46.71</ele>
        <time>2023-05-12T14:20:42.777Z</time>
      </trkpt>
      <trkpt lat="50.64165" lon="3.62032">
        <ele>47.06</ele>
        <time>2023-05-12T14:20:56.659Z</time>
      </trkpt>
      <trkpt lat="50.64166" lon="3.62032">
        <ele>47.08</ele>
        <time>2023-05-12T14:21:10.541Z</time>
      </trkpt>
      <trkpt lat="50.64166" lon="3.62031">
        <ele>47.11</ele>
        <time>2023-05-12T14:21:24.423Z</time>
      </trkpt>
      <trkpt lat="50.6416" lon="3.62037">
        <ele>49.54</ele>
        <time>2023-05-12T14:21:38.306Z</time>
      </trkpt>
      <trkpt lat="50.64136" lon="3.61986">
        <ele>51.18</ele>
        <time>2023-05-12T14:21:52.196Z</time>
      </trkpt>
      <trkpt lat="50.64101" lon="3.61888">
        <ele>52.72</ele>
        <time>2023-05-12T14:22:06.097Z</time>
      </trkpt>
      <trkpt lat="50.6407" lon="3.61819">
        <ele>54.85</ele>
        <time>2023-05-12T14:22:20.007Z</time>
      </trkpt>
      <trkpt lat="50.63998" lon="3.61683">
        <ele>55.78</ele>
        <time>2023-05-12T14:22:33.935Z</time>
      </trkpt>
      <trkpt lat="50.64017" lon="3.61692">
        <ele>56.49</ele>
        <time>2023-05-12T14:22:47.866Z</time>
      </trkpt>
      <trkpt lat="50.64045" lon="3.61696">
        <ele>56.98</ele>
        <time>2023-05-12T14:23:01.802Z</time>
      </trkpt>
      <trkpt lat="50.64072" lon="3.61697">
        <ele>57.13</ele>
        <time>2023-05-12T14:23:15.742Z</time>
      </trkpt>
      <trkpt lat="50.64099" lon="3.61695">
        <ele>57.32</ele>
        <time>2023-05-12T14:23:29.686Z</time>
      </trkpt>
      <trkpt lat="50.64134" lon="3.61687">
        <ele>56.86</ele>
        <time>2023-05-12T14:23:43.636Z</time>
      </trkpt>
      <trkpt lat="50.64268" lon="3.61622">
        <ele>55</ele>
        <time>2023-05-12T14:23:57.608Z</time>
      </trkpt>
      <trkpt lat="50.64332" lon="3.61589">
        <ele>54.92</ele>
        <time>2023-05-12T14:24:11.591Z</time>
      </trkpt>
      <trkpt lat="50.64397" lon="3.6155">
        <ele>54.33</ele>
        <time>2023-05-12T14:24:25.585Z</time>
      </trkpt>
      <trkpt lat="50.64481" lon="3.61505">
        <ele>52.36</ele>
        <time>2023-05-12T14:24:39.593Z</time>
      </trkpt>
      <trkpt lat="50.64481" lon="3.61505">
        <ele>50.9</ele>
        <time>2023-05-12T14:24:53.601Z</time>
      </trkpt>
      <trkpt lat="50.6484" lon="3.61333">
        <ele>45.98</ele>
        <time>2023-05-12T14:25:07.670Z</time>
      </trkpt>
      <trkpt lat="50.64673" lon="3.61008">
        <ele>40.67</ele>
        <time>2023-05-12T14:25:21.781Z</time>
      </trkpt>
      <trkpt lat="50.64673" lon="3.61008">
        <ele>40.67</ele>
        <time>2023-05-12T14:25:35.892Z</time>
      </trkpt>
      <trkpt lat="50.64673" lon="3.61008">
        <ele>40.67</ele>
        <time>2023-05-12T14:25:50.003Z</time>
      </trkpt>
      <trkpt lat="50.64671" lon="3.61004">
        <ele>38.35</ele>
        <time>2023-05-12T14:26:04.115Z</time>
      </trkpt>
      <trkpt lat="50.64671" lon="3.61005">
        <ele>38.35</ele>
        <time>2023-05-12T14:26:18.227Z</time>
      </trkpt>
      <trkpt lat="50.64668" lon="3.60999">
        <ele>38.29</ele>
        <time>2023-05-12T14:26:32.339Z</time>
      </trkpt>
      <trkpt lat="50.64596" lon="3.60859">
        <ele>38.05</ele>
        <time>2023-05-12T14:26:46.470Z</time>
      </trkpt>
      <trkpt lat="50.64581" lon="3.60824">
        <ele>38.25</ele>
        <time>2023-05-12T14:27:00.605Z</time>
      </trkpt>
      <trkpt lat="50.64581" lon="3.60824">
        <ele>38.61</ele>
        <time>2023-05-12T14:27:14.740Z</time>
      </trkpt>
      <trkpt lat="50.64569" lon="3.60789">
        <ele>39.4</ele>
        <time>2023-05-12T14:27:28.879Z</time>
      </trkpt>
      <trkpt lat="50.64547" lon="3.60718">
        <ele>40.34</ele>
        <time>2023-05-12T14:27:43.026Z</time>
      </trkpt>
      <trkpt lat="50.64528" lon="3.60643">
        <ele>41.37</ele>
        <time>2023-05-12T14:27:57.181Z</time>
      </trkpt>
      <trkpt lat="50.64499" lon="3.60656">
        <ele>42.75</ele>
        <time>2023-05-12T14:28:11.341Z</time>
      </trkpt>
      <trkpt lat="50.64493" lon="3.60655">
        <ele>43.81</ele>
        <time>2023-05-12T14:28:25.502Z</time>
      </trkpt>
      <trkpt lat="50.64487" lon="3.60648">
        <ele>44.99</ele>
        <time>2023-05-12T14:28:39.664Z</time>
      </trkpt>
      <trkpt lat="50.64391" lon="3.60476">
        <ele>46.63</ele>
        <time>2023-05-12T14:28:53.850Z</time>
      </trkpt>
      <trkpt lat="50.64391" lon="3.60476">
        <ele>46.64</ele>
        <time>2023-05-12T14:29:08.036Z</time>
      </trkpt>
      <trkpt lat="50.64391" lon="3.60476">
        <ele>46.65</ele>
        <time>2023-05-12T14:29:22.222Z</time>
      </trkpt>
      <trkpt lat="50.64389" lon="3.60472">
        <ele>46.69</ele>
        <time>2023-05-12T14:29:36.408Z</time>
      </trkpt>
      <trkpt lat="50.64388" lon="3.60472">
        <ele>46.7</ele>
        <time>2023-05-12T14:29:50.594Z</time>
      </trkpt>
      <trkpt lat="50.64385" lon="3.60467">
        <ele>46.76</ele>
        <time>2023-05-12T14:30:04.781Z</time>
      </trkpt>
      <trkpt lat="50.64385" lon="3.60467">
        <ele>48.87</ele>
        <time>2023-05-12T14:30:18.968Z</time>
      </trkpt>
      <trkpt lat="50.64378" lon="3.60452">
        <ele>49.33</ele>
        <time>2023-05-12T14:30:33.157Z</time>
      </trkpt>
      <trkpt lat="50.64346" lon="3.60387">
        <ele>50.24</ele>
        <time>2023-05-12T14:30:47.354Z</time>
      </trkpt>
      <trkpt lat="50.64329" lon="3.60344">
        <ele>51.06</ele>
        <time>2023-05-12T14:31:01.556Z</time>
      </trkpt>
      <trkpt lat="50.64319" lon="3.60317">
        <ele>51.7</ele>
        <time>2023-05-12T14:31:15.762Z</time>
      </trkpt>
      <trkpt lat="50.6431" lon="3.60289">
        <ele>52.37</ele>
        <time>2023-05-12T14:31:29.971Z</time>
      </trkpt>
      <trkpt lat="50.64278" lon="3.60168">
        <ele>52.99</ele>
        <time>2023-05-12T14:31:44.193Z</time>
      </trkpt>
      <trkpt lat="50.64278" lon="3.60168">
        <ele>53.39</ele>
        <time>2023-05-12T14:31:58.415Z</time>
      </trkpt>
      <trkpt lat="50.64268" lon="3.6012">
        <ele>53.56</ele>
        <time>2023-05-12T14:32:12.642Z</time>
      </trkpt>
      <trkpt lat="50.64263" lon="3.6008">
        <ele>53.81</ele>
        <time>2023-05-12T14:32:26.873Z</time>
      </trkpt>
      <trkpt lat="50.64261" lon="3.60023">
        <ele>54.23</ele>
        <time>2023-05-12T14:32:41.110Z</time>
      </trkpt>
      <trkpt lat="50.64265" lon="3.59945">
        <ele>54.62</ele>
        <time>2023-05-12T14:32:55.355Z</time>
      </trkpt>
      <trkpt lat="50.64273" lon="3.59882">
        <ele>55.11</ele>
        <time>2023-05-12T14:33:09.607Z</time>
      </trkpt>
      <trkpt lat="50.64278" lon="3.5986">
        <ele>55.54</ele>
        <time>2023-05-12T14:33:23.861Z</time>
      </trkpt>
      <trkpt lat="50.64278" lon="3.5986">
        <ele>55.83</ele>
        <time>2023-05-12T14:33:38.115Z</time>
      </trkpt>
      <trkpt lat="50.64283" lon="3.59857">
        <ele>56.13</ele>
        <time>2023-05-12T14:33:52.370Z</time>
      </trkpt>
      <trkpt lat="50.64283" lon="3.59857">
        <ele>56.38</ele>
        <time>2023-05-12T14:34:06.625Z</time>
      </trkpt>
      <trkpt lat="50.643" lon="3.59849">
        <ele>56.79</ele>
        <time>2023-05-12T14:34:20.883Z</time>
      </trkpt>
      <trkpt lat="50.64299" lon="3.59829">
        <ele>57.04</ele>
        <time>2023-05-12T14:34:35.143Z</time>
      </trkpt>
      <trkpt lat="50.64297" lon="3.59808">
        <ele>57.38</ele>
        <time>2023-05-12T14:34:49.405Z</time>
      </trkpt>
      <trkpt lat="50.64293" lon="3.59639">
        <ele>57.84</ele>
        <time>2023-05-12T14:35:03.684Z</time>
      </trkpt>
      <trkpt lat="50.64291" lon="3.59618">
        <ele>58.69</ele>
        <time>2023-05-12T14:35:17.966Z</time>
      </trkpt>
      <trkpt lat="50.64285" lon="3.5959">
        <ele>59.83</ele>
        <time>2023-05-12T14:35:32.251Z</time>
      </trkpt>
      <trkpt lat="50.64285" lon="3.5959">
        <ele>61.2</ele>
        <time>2023-05-12T14:35:46.536Z</time>
      </trkpt>
      <trkpt lat="50.6416" lon="3.59142">
        <ele>63.73</ele>
        <time>2023-05-12T14:36:00.870Z</time>
      </trkpt>
      <trkpt lat="50.64149" lon="3.59109">
        <ele>65.09</ele>
        <time>2023-05-12T14:36:15.208Z</time>
      </trkpt>
      <trkpt lat="50.64134" lon="3.59072">
        <ele>66.47</ele>
        <time>2023-05-12T14:36:29.551Z</time>
      </trkpt>
      <trkpt lat="50.64107" lon="3.59017">
        <ele>67.65</ele>
        <time>2023-05-12T14:36:43.901Z</time>
      </trkpt>
      <trkpt lat="50.64077" lon="3.5893">
        <ele>68.17</ele>
        <time>2023-05-12T14:36:58.261Z</time>
      </trkpt>
      <trkpt lat="50.64034" lon="3.58861">
        <ele>69.98</ele>
        <time>2023-05-12T14:37:12.631Z</time>
      </trkpt>
      <trkpt lat="50.64034" lon="3.58861">
        <ele>70</ele>
        <time>2023-05-12T14:37:27.001Z</time>
      </trkpt>
      <trkpt lat="50.64034" lon="3.58861">
        <ele>70.02</ele>
        <time>2023-05-12T14:37:41.371Z</time>
      </trkpt>
      <trkpt lat="50.64032" lon="3.58857">
        <ele>70.12</ele>
        <time>2023-05-12T14:37:55.741Z</time>
      </trkpt>
      <trkpt lat="50.64031" lon="3.58857">
        <ele>70.14</ele>
        <time>2023-05-12T14:38:10.111Z</time>
      </trkpt>
      <trkpt lat="50.64028" lon="3.58852">
        <ele>70.29</ele>
        <time>2023-05-12T14:38:24.482Z</time>
      </trkpt>
      <trkpt lat="50.63998" lon="3.58803">
        <ele>70.96</ele>
        <time>2023-05-12T14:38:38.860Z</time>
      </trkpt>
      <trkpt lat="50.63898" lon="3.58659">
        <ele>71.89</ele>
        <time>2023-05-12T14:38:53.260Z</time>
      </trkpt>
      <trkpt lat="50.63885" lon="3.58625">
        <ele>72.67</ele>
        <time>2023-05-12T14:39:07.664Z</time>
      </trkpt>
      <trkpt lat="50.63829" lon="3.58411">
        <ele>74.92</ele>
        <time>2023-05-12T14:39:22.091Z</time>
      </trkpt>
      <trkpt lat="50.63732" lon="3.58179">
        <ele>75.52</ele>
        <time>2023-05-12T14:39:36.547Z</time>
      </trkpt>
      <trkpt lat="50.63742" lon="3.5817">
        <ele>75.95</ele>
        <time>2023-05-12T14:39:51.004Z</time>
      </trkpt>
      <trkpt lat="50.63733" lon="3.58151">
        <ele>76.12</ele>
        <time>2023-05-12T14:40:05.464Z</time>
      </trkpt>
      <trkpt lat="50.63716" lon="3.58125">
        <ele>76.12</ele>
        <time>2023-05-12T14:40:19.928Z</time>
      </trkpt>
      <trkpt lat="50.63622" lon="3.58026">
        <ele>75.63</ele>
        <time>2023-05-12T14:40:34.410Z</time>
      </trkpt>
      <trkpt lat="50.63595" lon="3.58008">
        <ele>75.43</ele>
        <time>2023-05-12T14:40:48.896Z</time>
      </trkpt>
      <trkpt lat="50.63546" lon="3.57989">
        <ele>75.26</ele>
        <time>2023-05-12T14:41:03.391Z</time>
      </trkpt>
      <trkpt lat="50.63534" lon="3.57983">
        <ele>75.3</ele>
        <time>2023-05-12T14:41:17.888Z</time>
      </trkpt>
      <trkpt lat="50.63527" lon="3.57975">
        <ele>75.45</ele>
        <time>2023-05-12T14:41:32.386Z</time>
      </trkpt>
      <trkpt lat="50.63519" lon="3.57965">
        <ele>75.7</ele>
        <time>2023-05-12T14:41:46.886Z</time>
      </trkpt>
      <trkpt lat="50.63502" lon="3.57933">
        <ele>76.11</ele>
        <time>2023-05-12T14:42:01.390Z</time>
      </trkpt>
      <trkpt lat="50.63484" lon="3.57879">
        <ele>76.78</ele>
        <time>2023-05-12T14:42:15.900Z</time>
      </trkpt>
      <trkpt lat="50.63469" lon="3.57803">
        <ele>77.44</ele>
        <time>2023-05-12T14:42:30.418Z</time>
      </trkpt>
      <trkpt lat="50.63419" lon="3.57822">
        <ele>77.45</ele>
        <time>2023-05-12T14:42:44.944Z</time>
      </trkpt>
      <trkpt lat="50.63401" lon="3.57821">
        <ele>77.42</ele>
        <time>2023-05-12T14:42:59.473Z</time>
      </trkpt>
      <trkpt lat="50.63392" lon="3.57816">
        <ele>77.29</ele>
        <time>2023-05-12T14:43:14.004Z</time>
      </trkpt>
      <trkpt lat="50.63333" lon="3.57781">
        <ele>76.74</ele>
        <time>2023-05-12T14:43:28.545Z</time>
      </trkpt>
      <trkpt lat="50.63315" lon="3.57756">
        <ele>76.31</ele>
        <time>2023-05-12T14:43:43.090Z</time>
      </trkpt>
      <trkpt lat="50.63301" lon="3.57718">
        <ele>75.94</ele>
        <time>2023-05-12T14:43:57.639Z</time>
      </trkpt>
      <trkpt lat="50.63292" lon="3.57665">
        <ele>75.06</ele>
        <time>2023-05-12T14:44:12.194Z</time>
      </trkpt>
      <trkpt lat="50.63246" lon="3.57528">
        <ele>73.34</ele>
        <time>2023-05-12T14:44:26.765Z</time>
      </trkpt>
      <trkpt lat="50.63232" lon="3.57504">
        <ele>72.33</ele>
        <time>2023-05-12T14:44:41.339Z</time>
      </trkpt>
      <trkpt lat="50.63166" lon="3.57437">
        <ele>71.51</ele>
        <time>2023-05-12T14:44:55.925Z</time>
      </trkpt>
      <trkpt lat="50.63152" lon="3.57417">
        <ele>70.85</ele>
        <time>2023-05-12T14:45:10.514Z</time>
      </trkpt>
      <trkpt lat="50.63152" lon="3.57417">
        <ele>70.84</ele>
        <time>2023-05-12T14:45:25.104Z</time>
      </trkpt>
      <trkpt lat="50.63151" lon="3.57416">
        <ele>70.83</ele>
        <time>2023-05-12T14:45:39.694Z</time>
      </trkpt>
      <trkpt lat="50.63149" lon="3.57413">
        <ele>70.73</ele>
        <time>2023-05-12T14:45:54.284Z</time>
      </trkpt>
      <trkpt lat="50.63149" lon="3.57413">
        <ele>70.73</ele>
        <time>2023-05-12T14:46:08.874Z</time>
      </trkpt>
      <trkpt lat="50.63149" lon="3.57412">
        <ele>70.6</ele>
        <time>2023-05-12T14:46:23.464Z</time>
      </trkpt>
      <trkpt lat="50.63146" lon="3.57406">
        <ele>69.05</ele>
        <time>2023-05-12T14:46:38.055Z</time>
      </trkpt>
      <trkpt lat="50.63101" lon="3.57293">
        <ele>69.1</ele>
        <time>2023-05-12T14:46:52.660Z</time>
      </trkpt>
      <trkpt lat="50.6309" lon="3.5728">
        <ele>68.85</ele>
        <time>2023-05-12T14:47:07.267Z</time>
      </trkpt>
      <trkpt lat="50.63077" lon="3.57277">
        <ele>68.33</ele>
        <time>2023-05-12T14:47:21.876Z</time>
      </trkpt>
      <trkpt lat="50.62967" lon="3.57366">
        <ele>67.08</ele>
        <time>2023-05-12T14:47:36.505Z</time>
      </trkpt>
      <trkpt lat="50.6295" lon="3.57368">
        <ele>66.21</ele>
        <time>2023-05-12T14:47:51.136Z</time>
      </trkpt>
      <trkpt lat="50.6294" lon="3.57352">
        <ele>65.37</ele>
        <time>2023-05-12T14:48:05.770Z</time>
      </trkpt>
      <trkpt lat="50.62932" lon="3.57322">
        <ele>64.56</ele>
        <time>2023-05-12T14:48:20.407Z</time>
      </trkpt>
      <trkpt lat="50.62925" lon="3.57084">
        <ele>63.86</ele>
        <time>2023-05-12T14:48:35.068Z</time>
      </trkpt>
      <trkpt lat="50.62909" lon="3.56992">
        <ele>63.14</ele>
        <time>2023-05-12T14:48:49.739Z</time>
      </trkpt>
      <trkpt lat="50.62883" lon="3.56904">
        <ele>62.55</ele>
        <time>2023-05-12T14:49:04.420Z</time>
      </trkpt>
      <trkpt lat="50.62872" lon="3.56882">
        <ele>62.53</ele>
        <time>2023-05-12T14:49:19.104Z</time>
      </trkpt>
      <trkpt lat="50.62865" lon="3.56846">
        <ele>62.97</ele>
        <time>2023-05-12T14:49:33.791Z</time>
      </trkpt>
      <trkpt lat="50.62859" lon="3.568">
        <ele>63.8</ele>
        <time>2023-05-12T14:49:48.483Z</time>
      </trkpt>
      <trkpt lat="50.62839" lon="3.56595">
        <ele>65.24</ele>
        <time>2023-05-12T14:50:03.196Z</time>
      </trkpt>
      <trkpt lat="50.62843" lon="3.56549">
        <ele>66.7</ele>
        <time>2023-05-12T14:50:17.914Z</time>
      </trkpt>
      <trkpt lat="50.62983" lon="3.5643">
        <ele>69.17</ele>
        <time>2023-05-12T14:50:32.658Z</time>
      </trkpt>
      <trkpt lat="50.62996" lon="3.56425">
        <ele>71</ele>
        <time>2023-05-12T14:50:47.404Z</time>
      </trkpt>
      <trkpt lat="50.63097" lon="3.56412">
        <ele>73.16</ele>
        <time>2023-05-12T14:51:02.166Z</time>
      </trkpt>
      <trkpt lat="50.63123" lon="3.56411">
        <ele>74.76</ele>
        <time>2023-05-12T14:51:16.932Z</time>
      </trkpt>
      <trkpt lat="50.63145" lon="3.56412">
        <ele>76.22</ele>
        <time>2023-05-12T14:51:31.702Z</time>
      </trkpt>
      <trkpt lat="50.63159" lon="3.56398">
        <ele>77.56</ele>
        <time>2023-05-12T14:51:46.474Z</time>
      </trkpt>
      <trkpt lat="50.63166" lon="3.56374">
        <ele>78.98</ele>
        <time>2023-05-12T14:52:01.249Z</time>
      </trkpt>
      <trkpt lat="50.63177" lon="3.56284">
        <ele>80.73</ele>
        <time>2023-05-12T14:52:16.033Z</time>
      </trkpt>
      <trkpt lat="50.63171" lon="3.56099">
        <ele>82.37</ele>
        <time>2023-05-12T14:52:30.836Z</time>
      </trkpt>
      <trkpt lat="50.63132" lon="3.55933">
        <ele>83.59</ele>
        <time>2023-05-12T14:52:45.657Z</time>
      </trkpt>
      <trkpt lat="50.63131" lon="3.55899">
        <ele>84.42</ele>
        <time>2023-05-12T14:53:00.482Z</time>
      </trkpt>
      <trkpt lat="50.63132" lon="3.55883">
        <ele>85.05</ele>
        <time>2023-05-12T14:53:15.308Z</time>
      </trkpt>
      <trkpt lat="50.63137" lon="3.55866">
        <ele>85.76</ele>
        <time>2023-05-12T14:53:30.136Z</time>
      </trkpt>
      <trkpt lat="50.63164" lon="3.55815">
        <ele>86.5</ele>
        <time>2023-05-12T14:53:44.971Z</time>
      </trkpt>
      <trkpt lat="50.63185" lon="3.55783">
        <ele>87.11</ele>
        <time>2023-05-12T14:53:59.811Z</time>
      </trkpt>
      <trkpt lat="50.63185" lon="3.55783">
        <ele>87.12</ele>
        <time>2023-05-12T14:54:14.651Z</time>
      </trkpt>
      <trkpt lat="50.63185" lon="3.55782">
        <ele>87.13</ele>
        <time>2023-05-12T14:54:29.491Z</time>
      </trkpt>
      <trkpt lat="50.63186" lon="3.55782">
        <ele>87.14</ele>
        <time>2023-05-12T14:54:44.331Z</time>
      </trkpt>
      <trkpt lat="50.63188" lon="3.55779">
        <ele>87.27</ele>
        <time>2023-05-12T14:54:59.171Z</time>
      </trkpt>
      <trkpt lat="50.63188" lon="3.55779">
        <ele>87.3</ele>
        <time>2023-05-12T14:55:14.011Z</time>
      </trkpt>
      <trkpt lat="50.63192" lon="3.55774">
        <ele>87.55</ele>
        <time>2023-05-12T14:55:28.852Z</time>
      </trkpt>
      <trkpt lat="50.63244" lon="3.55711">
        <ele>89.27</ele>
        <time>2023-05-12T14:55:43.704Z</time>
      </trkpt>
      <trkpt lat="50.63203" lon="3.55575">
        <ele>88.01</ele>
        <time>2023-05-12T14:55:58.571Z</time>
      </trkpt>
      <trkpt lat="50.63172" lon="3.555">
        <ele>86.96</ele>
        <time>2023-05-12T14:56:13.447Z</time>
      </trkpt>
      <trkpt lat="50.63164" lon="3.55477">
        <ele>86.13</ele>
        <time>2023-05-12T14:56:28.326Z</time>
      </trkpt>
      <trkpt lat="50.63151" lon="3.55428">
        <ele>85.54</ele>
        <time>2023-05-12T14:56:43.210Z</time>
      </trkpt>
      <trkpt lat="50.63133" lon="3.55348">
        <ele>84.92</ele>
        <time>2023-05-12T14:56:58.103Z</time>
      </trkpt>
      <trkpt lat="50.63121" lon="3.55306">
        <ele>84.14</ele>
        <time>2023-05-12T14:57:13.000Z</time>
      </trkpt>
      <trkpt lat="50.63094" lon="3.55252">
        <ele>83.27</ele>
        <time>2023-05-12T14:57:27.904Z</time>
      </trkpt>
      <trkpt lat="50.63082" lon="3.55233">
        <ele>82.69</ele>
        <time>2023-05-12T14:57:42.811Z</time>
      </trkpt>
      <trkpt lat="50.63055" lon="3.55197">
        <ele>82.4</ele>
        <time>2023-05-12T14:57:57.724Z</time>
      </trkpt>
      <trkpt lat="50.63038" lon="3.55163">
        <ele>82.21</ele>
        <time>2023-05-12T14:58:12.641Z</time>
      </trkpt>
      <trkpt lat="50.63027" lon="3.55129">
        <ele>81.94</ele>
        <time>2023-05-12T14:58:27.562Z</time>
      </trkpt>
      <trkpt lat="50.63019" lon="3.55094">
        <ele>81.61</ele>
        <time>2023-05-12T14:58:42.487Z</time>
      </trkpt>
      <trkpt lat="50.63011" lon="3.55016">
        <ele>81.31</ele>
        <time>2023-05-12T14:58:57.420Z</time>
      </trkpt>
      <trkpt lat="50.63005" lon="3.54989">
        <ele>81.09</ele>
        <time>2023-05-12T14:59:12.356Z</time>
      </trkpt>
      <trkpt lat="50.62997" lon="3.54962">
        <ele>80.83</ele>
        <time>2023-05-12T14:59:27.295Z</time>
      </trkpt>
      <trkpt lat="50.62929" lon="3.54796">
        <ele>80.59</ele>
        <time>2023-05-12T14:59:42.254Z</time>
      </trkpt>
      <trkpt lat="50.62925" lon="3.54802">
        <ele>80.82</ele>
        <time>2023-05-12T14:59:57.214Z</time>
      </trkpt>
      <trkpt lat="50.62923" lon="3.54804">
        <ele>78.61</ele>
        <time>2023-05-12T15:00:12.174Z</time>
      </trkpt>
      <trkpt lat="50.62857" lon="3.54899">
        <ele>81.27</ele>
        <time>2023-05-12T15:00:27.149Z</time>
      </trkpt>
      <trkpt lat="50.6282" lon="3.54988">
        <ele>81.54</ele>
        <time>2023-05-12T15:00:42.135Z</time>
      </trkpt>
      <trkpt lat="50.62784" lon="3.55049">
        <ele>82.07</ele>
        <time>2023-05-12T15:00:57.129Z</time>
      </trkpt>
      <trkpt lat="50.6273" lon="3.55099">
        <ele>82.41</ele>
        <time>2023-05-12T15:01:12.133Z</time>
      </trkpt>
      <trkpt lat="50.6272" lon="3.55093">
        <ele>82.08</ele>
        <time>2023-05-12T15:01:27.139Z</time>
      </trkpt>
      <trkpt lat="50.6269" lon="3.55076">
        <ele>81.13</ele>
        <time>2023-05-12T15:01:42.150Z</time>
      </trkpt>
      <trkpt lat="50.62675" lon="3.55074">
        <ele>79.81</ele>
        <time>2023-05-12T15:01:57.163Z</time>
      </trkpt>
      <trkpt lat="50.6266" lon="3.55079">
        <ele>78.02</ele>
        <time>2023-05-12T15:02:12.179Z</time>
      </trkpt>
      <trkpt lat="50.62558" lon="3.55132">
        <ele>75.19</ele>
        <time>2023-05-12T15:02:27.212Z</time>
      </trkpt>
      <trkpt lat="50.62437" lon="3.55142">
        <ele>71.59</ele>
        <time>2023-05-12T15:02:42.264Z</time>
      </trkpt>
      <trkpt lat="50.62308" lon="3.55107">
        <ele>60.86</ele>
        <time>2023-05-12T15:02:57.337Z</time>
      </trkpt>
      <trkpt lat="50.62308" lon="3.55107">
        <ele>60.83</ele>
        <time>2023-05-12T15:03:12.410Z</time>
      </trkpt>
      <trkpt lat="50.62307" lon="3.55107">
        <ele>60.8</ele>
        <time>2023-05-12T15:03:27.483Z</time>
      </trkpt>
      <trkpt lat="50.62304" lon="3.55106">
        <ele>60.55</ele>
        <time>2023-05-12T15:03:42.557Z</time>
      </trkpt>
      <trkpt lat="50.62304" lon="3.55106">
        <ele>60.52</ele>
        <time>2023-05-12T15:03:57.631Z</time>
      </trkpt>
      <trkpt lat="50.62299" lon="3.55105">
        <ele>60.13</ele>
        <time>2023-05-12T15:04:12.706Z</time>
      </trkpt>
      <trkpt lat="50.62212" lon="3.55082">
        <ele>58.64</ele>
        <time>2023-05-12T15:04:27.795Z</time>
      </trkpt>
      <trkpt lat="50.62168" lon="3.55073">
        <ele>57.93</ele>
        <time>2023-05-12T15:04:42.891Z</time>
      </trkpt>
      <trkpt lat="50.6215" lon="3.55067">
        <ele>57.39</ele>
        <time>2023-05-12T15:04:57.990Z</time>
      </trkpt>
      <trkpt lat="50.6215" lon="3.55067">
        <ele>57.19</ele>
        <time>2023-05-12T15:05:13.089Z</time>
      </trkpt>
      <trkpt lat="50.62132" lon="3.5505">
        <ele>56.94</ele>
        <time>2023-05-12T15:05:28.191Z</time>
      </trkpt>
      <trkpt lat="50.61988" lon="3.54886">
        <ele>57.49</ele>
        <time>2023-05-12T15:05:43.322Z</time>
      </trkpt>
      <trkpt lat="50.61971" lon="3.54877">
        <ele>57.88</ele>
        <time>2023-05-12T15:05:58.456Z</time>
      </trkpt>
      <trkpt lat="50.6196" lon="3.54878">
        <ele>58.26</ele>
        <time>2023-05-12T15:06:13.591Z</time>
      </trkpt>
      <trkpt lat="50.61868" lon="3.54967">
        <ele>58.74</ele>
        <time>2023-05-12T15:06:28.744Z</time>
      </trkpt>
      <trkpt lat="50.61749" lon="3.55046">
        <ele>58.9</ele>
        <time>2023-05-12T15:06:43.917Z</time>
      </trkpt>
      <trkpt lat="50.61737" lon="3.5505">
        <ele>59.49</ele>
        <time>2023-05-12T15:06:59.092Z</time>
      </trkpt>
      <trkpt lat="50.61732" lon="3.55048">
        <ele>60.22</ele>
        <time>2023-05-12T15:07:14.268Z</time>
      </trkpt>
      <trkpt lat="50.61723" lon="3.55028">
        <ele>61.1</ele>
        <time>2023-05-12T15:07:29.447Z</time>
      </trkpt>
      <trkpt lat="50.61664" lon="3.54837">
        <ele>62.94</ele>
        <time>2023-05-12T15:07:44.647Z</time>
      </trkpt>
      <trkpt lat="50.61659" lon="3.54823">
        <ele>64</ele>
        <time>2023-05-12T15:07:59.849Z</time>
      </trkpt>
      <trkpt lat="50.61655" lon="3.54815">
        <ele>64.96</ele>
        <time>2023-05-12T15:08:15.052Z</time>
      </trkpt>
      <trkpt lat="50.61643" lon="3.54803">
        <ele>65.82</ele>
        <time>2023-05-12T15:08:30.257Z</time>
      </trkpt>
      <trkpt lat="50.61635" lon="3.54797">
        <ele>66.49</ele>
        <time>2023-05-12T15:08:45.464Z</time>
      </trkpt>
      <trkpt lat="50.61619" lon="3.54796">
        <ele>67.02</ele>
        <time>2023-05-12T15:09:00.673Z</time>
      </trkpt>
      <trkpt lat="50.61615" lon="3.54793">
        <ele>67.46</ele>
        <time>2023-05-12T15:09:15.883Z</time>
      </trkpt>
      <trkpt lat="50.61615" lon="3.54793">
        <ele>67.81</ele>
        <time>2023-05-12T15:09:31.093Z</time>
      </trkpt>
      <trkpt lat="50.61606" lon="3.54799">
        <ele>68.05</ele>
        <time>2023-05-12T15:09:46.305Z</time>
      </trkpt>
      <trkpt lat="50.61599" lon="3.54798">
        <ele>68.36</ele>
        <time>2023-05-12T15:10:01.518Z</time>
      </trkpt>
      <trkpt lat="50.61579" lon="3.54794">
        <ele>68.71</ele>
        <time>2023-05-12T15:10:16.734Z</time>
      </trkpt>
      <trkpt lat="50.61558" lon="3.54784">
        <ele>69.1</ele>
        <time>2023-05-12T15:10:31.953Z</time>
      </trkpt>
      <trkpt lat="50.61434" lon="3.54691">
        <ele>69.63</ele>
        <time>2023-05-12T15:10:47.195Z</time>
      </trkpt>
      <trkpt lat="50.61446" lon="3.54392">
        <ele>69.75</ele>
        <time>2023-05-12T15:11:02.467Z</time>
      </trkpt>
      <trkpt lat="50.61448" lon="3.54377">
        <ele>69.7</ele>
        <time>2023-05-12T15:11:17.741Z</time>
      </trkpt>
      <trkpt lat="50.61319" lon="3.54267">
        <ele>69.42</ele>
        <time>2023-05-12T15:11:33.038Z</time>
      </trkpt>
      <trkpt lat="50.61305" lon="3.54248">
        <ele>69.23</ele>
        <time>2023-05-12T15:11:48.338Z</time>
      </trkpt>
      <trkpt lat="50.61193" lon="3.54064">
        <ele>67.4</ele>
        <time>2023-05-12T15:12:03.664Z</time>
      </trkpt>
      <trkpt lat="50.61193" lon="3.54064">
        <ele>67.4</ele>
        <time>2023-05-12T15:12:18.990Z</time>
      </trkpt>
      <trkpt lat="50.61193" lon="3.54064">
        <ele>67.4</ele>
        <time>2023-05-12T15:12:34.316Z</time>
      </trkpt>
      <trkpt lat="50.61191" lon="3.5406">
        <ele>67.37</ele>
        <time>2023-05-12T15:12:49.642Z</time>
      </trkpt>
      <trkpt lat="50.61191" lon="3.5406">
        <ele>67.37</ele>
        <time>2023-05-12T15:13:04.969Z</time>
      </trkpt>
      <trkpt lat="50.61188" lon="3.54055">
        <ele>67.32</ele>
        <time>2023-05-12T15:13:20.296Z</time>
      </trkpt>
      <trkpt lat="50.61093" lon="3.53899">
        <ele>67.16</ele>
        <time>2023-05-12T15:13:35.645Z</time>
      </trkpt>
      <trkpt lat="50.61093" lon="3.53899">
        <ele>67.19</ele>
        <time>2023-05-12T15:13:50.994Z</time>
      </trkpt>
      <trkpt lat="50.61063" lon="3.53851">
        <ele>67.35</ele>
        <time>2023-05-12T15:14:06.350Z</time>
      </trkpt>
      <trkpt lat="50.61055" lon="3.53843">
        <ele>67.64</ele>
        <time>2023-05-12T15:14:21.708Z</time>
      </trkpt>
      <trkpt lat="50.61046" lon="3.5384">
        <ele>68</ele>
        <time>2023-05-12T15:14:37.067Z</time>
      </trkpt>
      <trkpt lat="50.61039" lon="3.53841">
        <ele>68.39</ele>
        <time>2023-05-12T15:14:52.427Z</time>
      </trkpt>
      <trkpt lat="50.61025" lon="3.53846">
        <ele>68.79</ele>
        <time>2023-05-12T15:15:07.789Z</time>
      </trkpt>
      <trkpt lat="50.60945" lon="3.53893">
        <ele>69.23</ele>
        <time>2023-05-12T15:15:23.165Z</time>
      </trkpt>
      <trkpt lat="50.60913" lon="3.53922">
        <ele>69.57</ele>
        <time>2023-05-12T15:15:38.547Z</time>
      </trkpt>
      <trkpt lat="50.60865" lon="3.53972">
        <ele>70.11</ele>
        <time>2023-05-12T15:15:53.938Z</time>
      </trkpt>
      <trkpt lat="50.6082" lon="3.54027">
        <ele>71.02</ele>
        <time>2023-05-12T15:16:09.338Z</time>
      </trkpt>
      <trkpt lat="50.60798" lon="3.54051">
        <ele>71.73</ele>
        <time>2023-05-12T15:16:24.743Z</time>
      </trkpt>
      <trkpt lat="50.60725" lon="3.54089">
        <ele>72.29</ele>
        <time>2023-05-12T15:16:40.160Z</time>
      </trkpt>
      <trkpt lat="50.60681" lon="3.54107">
        <ele>72.96</ele>
        <time>2023-05-12T15:16:55.584Z</time>
      </trkpt>
      <trkpt lat="50.60665" lon="3.5411">
        <ele>73.47</ele>
        <time>2023-05-12T15:17:11.011Z</time>
      </trkpt>
      <trkpt lat="50.60654" lon="3.54108">
        <ele>73.9</ele>
        <time>2023-05-12T15:17:26.440Z</time>
      </trkpt>
      <trkpt lat="50.60636" lon="3.54106">
        <ele>74.28</ele>
        <time>2023-05-12T15:17:41.871Z</time>
      </trkpt>
      <trkpt lat="50.60601" lon="3.54097">
        <ele>74.58</ele>
        <time>2023-05-12T15:17:57.308Z</time>
      </trkpt>
      <trkpt lat="50.60586" lon="3.54097">
        <ele>74.98</ele>
        <time>2023-05-12T15:18:12.748Z</time>
      </trkpt>
      <trkpt lat="50.60561" lon="3.54108">
        <ele>75.5</ele>
        <time>2023-05-12T15:18:28.192Z</time>
      </trkpt>
      <trkpt lat="50.60548" lon="3.5412">
        <ele>76.04</ele>
        <time>2023-05-12T15:18:43.638Z</time>
      </trkpt>
      <trkpt lat="50.60536" lon="3.54138">
        <ele>76.59</ele>
        <time>2023-05-12T15:18:59.087Z</time>
      </trkpt>
      <trkpt lat="50.60497" lon="3.54219">
        <ele>77.23</ele>
        <time>2023-05-12T15:19:14.546Z</time>
      </trkpt>
      <trkpt lat="50.60456" lon="3.54297">
        <ele>78</ele>
        <time>2023-05-12T15:19:30.016Z</time>
      </trkpt>
      <trkpt lat="50.60441" lon="3.54303">
        <ele>78.79</ele>
        <time>2023-05-12T15:19:45.488Z</time>
      </trkpt>
      <trkpt lat="50.60435" lon="3.54303">
        <ele>79.52</ele>
        <time>2023-05-12T15:20:00.961Z</time>
      </trkpt>
      <trkpt lat="50.60411" lon="3.54293">
        <ele>80.27</ele>
        <time>2023-05-12T15:20:16.438Z</time>
      </trkpt>
      <trkpt lat="50.60399" lon="3.54294">
        <ele>81</ele>
        <time>2023-05-12T15:20:31.917Z</time>
      </trkpt>
      <trkpt lat="50.60384" lon="3.54299">
        <ele>81.72</ele>
        <time>2023-05-12T15:20:47.398Z</time>
      </trkpt>
      <trkpt lat="50.60368" lon="3.54313">
        <ele>82.29</ele>
        <time>2023-05-12T15:21:02.882Z</time>
      </trkpt>
      <trkpt lat="50.60357" lon="3.54328">
        <ele>82.69</ele>
        <time>2023-05-12T15:21:18.369Z</time>
      </trkpt>
      <trkpt lat="50.6035" lon="3.54348">
        <ele>82.87</ele>
        <time>2023-05-12T15:21:33.858Z</time>
      </trkpt>
      <trkpt lat="50.60346" lon="3.54363">
        <ele>82.87</ele>
        <time>2023-05-12T15:21:49.349Z</time>
      </trkpt>
      <trkpt lat="50.60336" lon="3.54429">
        <ele>82.64</ele>
        <time>2023-05-12T15:22:04.846Z</time>
      </trkpt>
      <trkpt lat="50.60332" lon="3.54447">
        <ele>82.28</ele>
        <time>2023-05-12T15:22:20.345Z</time>
      </trkpt>
      <trkpt lat="50.60325" lon="3.54456">
        <ele>81.7</ele>
        <time>2023-05-12T15:22:35.846Z</time>
      </trkpt>
      <trkpt lat="50.60317" lon="3.54461">
        <ele>80.95</ele>
        <time>2023-05-12T15:22:51.348Z</time>
      </trkpt>
      <trkpt lat="50.60249" lon="3.54486">
        <ele>79.98</ele>
        <time>2023-05-12T15:23:06.861Z</time>
      </trkpt>
      <trkpt lat="50.60231" lon="3.54485">
        <ele>78.89</ele>
        <time>2023-05-12T15:23:22.377Z</time>
      </trkpt>
      <trkpt lat="50.6015" lon="3.54429">
        <ele>77.24</ele>
        <time>2023-05-12T15:23:37.907Z</time>
      </trkpt>
      <trkpt lat="50.60058" lon="3.54363">
        <ele>75.86</ele>
        <time>2023-05-12T15:23:53.454Z</time>
      </trkpt>
      <trkpt lat="50.60041" lon="3.5436">
        <ele>74.53</ele>
        <time>2023-05-12T15:24:09.003Z</time>
      </trkpt>
      <trkpt lat="50.59959" lon="3.54388">
        <ele>73.18</ele>
        <time>2023-05-12T15:24:24.566Z</time>
      </trkpt>
      <trkpt lat="50.599" lon="3.5444">
        <ele>72.26</ele>
        <time>2023-05-12T15:24:40.140Z</time>
      </trkpt>
      <trkpt lat="50.59873" lon="3.5446">
        <ele>71.38</ele>
        <time>2023-05-12T15:24:55.719Z</time>
      </trkpt>
      <trkpt lat="50.59873" lon="3.5446">
        <ele>70.71</ele>
        <time>2023-05-12T15:25:11.298Z</time>
      </trkpt>
      <trkpt lat="50.59807" lon="3.54428">
        <ele>67.7</ele>
        <time>2023-05-12T15:25:26.888Z</time>
      </trkpt>
      <trkpt lat="50.59806" lon="3.54428">
        <ele>67.69</ele>
        <time>2023-05-12T15:25:42.478Z</time>
      </trkpt>
      <trkpt lat="50.59806" lon="3.54428">
        <ele>67.68</ele>
        <time>2023-05-12T15:25:58.068Z</time>
      </trkpt>
      <trkpt lat="50.59803" lon="3.54426">
        <ele>67.55</ele>
        <time>2023-05-12T15:26:13.658Z</time>
      </trkpt>
      <trkpt lat="50.59803" lon="3.54426">
        <ele>67.54</ele>
        <time>2023-05-12T15:26:29.248Z</time>
      </trkpt>
      <trkpt lat="50.59798" lon="3.54424">
        <ele>67.34</ele>
        <time>2023-05-12T15:26:44.839Z</time>
      </trkpt>
      <trkpt lat="50.59747" lon="3.54399">
        <ele>65.97</ele>
        <time>2023-05-12T15:27:00.439Z</time>
      </trkpt>
      <trkpt lat="50.59482" lon="3.5426">
        <ele>61.64</ele>
        <time>2023-05-12T15:27:16.083Z</time>
      </trkpt>
      <trkpt lat="50.59429" lon="3.54235">
        <ele>59.03</ele>
        <time>2023-05-12T15:27:31.736Z</time>
      </trkpt>
      <trkpt lat="50.59368" lon="3.54211">
        <ele>57.51</ele>
        <time>2023-05-12T15:27:47.399Z</time>
      </trkpt>
      <trkpt lat="50.59332" lon="3.54209">
        <ele>57.09</ele>
        <time>2023-05-12T15:28:03.068Z</time>
      </trkpt>
      <trkpt lat="50.59304" lon="3.5421">
        <ele>56.87</ele>
        <time>2023-05-12T15:28:18.742Z</time>
      </trkpt>
      <trkpt lat="50.59301" lon="3.5421">
        <ele>56.77</ele>
        <time>2023-05-12T15:28:34.416Z</time>
      </trkpt>
      <trkpt lat="50.59299" lon="3.54211">
        <ele>56.7</ele>
        <time>2023-05-12T15:28:50.090Z</time>
      </trkpt>
      <trkpt lat="50.59142" lon="3.5424">
        <ele>56.75</ele>
        <time>2023-05-12T15:29:05.790Z</time>
      </trkpt>
      <trkpt lat="50.5899" lon="3.54265">
        <ele>56.57</ele>
        <time>2023-05-12T15:29:21.514Z</time>
      </trkpt>
      <trkpt lat="50.58922" lon="3.54275">
        <ele>56</ele>
        <time>2023-05-12T15:29:37.249Z</time>
      </trkpt>
      <trkpt lat="50.58821" lon="3.54285">
        <ele>54.6</ele>
        <time>2023-05-12T15:29:53.000Z</time>
      </trkpt>
      <trkpt lat="50.58778" lon="3.54302">
        <ele>54.23</ele>
        <time>2023-05-12T15:30:08.758Z</time>
      </trkpt>
      <trkpt lat="50.58736" lon="3.54294">
        <ele>53.64</ele>
        <time>2023-05-12T15:30:24.523Z</time>
      </trkpt>
      <trkpt lat="50.58711" lon="3.54278">
        <ele>53.5</ele>
        <time>2023-05-12T15:30:40.293Z</time>
      </trkpt>
      <trkpt lat="50.5864" lon="3.54248">
        <ele>54.36</ele>
        <time>2023-05-12T15:30:56.074Z</time>
      </trkpt>
      <trkpt lat="50.58625" lon="3.54241">
        <ele>54.69</ele>
        <time>2023-05-12T15:31:11.858Z</time>
      </trkpt>
      <trkpt lat="50.58611" lon="3.54233">
        <ele>54.99</ele>
        <time>2023-05-12T15:31:27.644Z</time>
      </trkpt>
      <trkpt lat="50.5861" lon="3.54233">
        <ele>55</ele>
        <time>2023-05-12T15:31:43.430Z</time>
      </trkpt>
      <trkpt lat="50.5861" lon="3.54233">
        <ele>55.01</ele>
        <time>2023-05-12T15:31:59.216Z</time>
      </trkpt>
      <trkpt lat="50.58607" lon="3.54231">
        <ele>55.08</ele>
        <time>2023-05-12T15:32:15.003Z</time>
      </trkpt>
      <trkpt lat="50.58606" lon="3.54231">
        <ele>55.09</ele>
        <time>2023-05-12T15:32:30.790Z</time>
      </trkpt>
      <trkpt lat="50.58602" lon="3.54228">
        <ele>55.2</ele>
        <time>2023-05-12T15:32:46.578Z</time>
      </trkpt>
      <trkpt lat="50.58598" lon="3.54225">
        <ele>55.14</ele>
        <time>2023-05-12T15:33:02.366Z</time>
      </trkpt>
      <trkpt lat="50.58553" lon="3.54196">
        <ele>54.57</ele>
        <time>2023-05-12T15:33:18.162Z</time>
      </trkpt>
      <trkpt lat="50.58501" lon="3.54162">
        <ele>54.97</ele>
        <time>2023-05-12T15:33:33.967Z</time>
      </trkpt>
      <trkpt lat="50.58483" lon="3.54154">
        <ele>55.3</ele>
        <time>2023-05-12T15:33:49.775Z</time>
      </trkpt>
      <trkpt lat="50.58466" lon="3.54149">
        <ele>55.64</ele>
        <time>2023-05-12T15:34:05.586Z</time>
      </trkpt>
      <trkpt lat="50.58442" lon="3.54149">
        <ele>55.97</ele>
        <time>2023-05-12T15:34:21.401Z</time>
      </trkpt>
      <trkpt lat="50.58379" lon="3.5417">
        <ele>55.91</ele>
        <time>2023-05-12T15:34:37.226Z</time>
      </trkpt>
      <trkpt lat="50.58328" lon="3.54173">
        <ele>55.98</ele>
        <time>2023-05-12T15:34:53.059Z</time>
      </trkpt>
      <trkpt lat="50.58325" lon="3.54143">
        <ele>56.33</ele>
        <time>2023-05-12T15:35:08.896Z</time>
      </trkpt>
      <trkpt lat="50.58321" lon="3.54047">
        <ele>56.8</ele>
        <time>2023-05-12T15:35:24.742Z</time>
      </trkpt>
      <trkpt lat="50.58319" lon="3.54022">
        <ele>56.98</ele>
        <time>2023-05-12T15:35:40.591Z</time>
      </trkpt>
      <trkpt lat="50.58299" lon="3.53928">
        <ele>57.19</ele>
        <time>2023-05-12T15:35:56.450Z</time>
      </trkpt>
      <trkpt lat="50.58275" lon="3.53799">
        <ele>57.26</ele>
        <time>2023-05-12T15:36:12.323Z</time>
      </trkpt>
      <trkpt lat="50.58269" lon="3.53758">
        <ele>57.58</ele>
        <time>2023-05-12T15:36:28.200Z</time>
      </trkpt>
      <trkpt lat="50.58262" lon="3.53713">
        <ele>58.05</ele>
        <time>2023-05-12T15:36:44.082Z</time>
      </trkpt>
      <trkpt lat="50.58261" lon="3.53699">
        <ele>58.49</ele>
        <time>2023-05-12T15:36:59.965Z</time>
      </trkpt>
      <trkpt lat="50.58261" lon="3.53699">
        <ele>58.52</ele>
        <time>2023-05-12T15:37:15.848Z</time>
      </trkpt>
      <trkpt lat="50.5826" lon="3.53698">
        <ele>58.55</ele>
        <time>2023-05-12T15:37:31.731Z</time>
      </trkpt>
      <trkpt lat="50.5826" lon="3.53693">
        <ele>58.72</ele>
        <time>2023-05-12T15:37:47.615Z</time>
      </trkpt>
      <trkpt lat="50.5826" lon="3.53692">
        <ele>58.75</ele>
        <time>2023-05-12T15:38:03.499Z</time>
      </trkpt>
      <trkpt lat="50.58259" lon="3.53685">
        <ele>59.01</ele>
        <time>2023-05-12T15:38:19.384Z</time>
      </trkpt>
      <trkpt lat="50.58247" lon="3.53577">
        <ele>61.05</ele>
        <time>2023-05-12T15:38:35.280Z</time>
      </trkpt>
      <trkpt lat="50.58243" lon="3.53391">
        <ele>62.36</ele>
        <time>2023-05-12T15:38:51.195Z</time>
      </trkpt>
      <trkpt lat="50.58243" lon="3.53284">
        <ele>65.87</ele>
        <time>2023-05-12T15:39:07.121Z</time>
      </trkpt>
      <trkpt lat="50.58243" lon="3.53284">
        <ele>65.91</ele>
        <time>2023-05-12T15:39:23.047Z</time>
      </trkpt>
      <trkpt lat="50.5825" lon="3.53259">
        <ele>68.21</ele>
        <time>2023-05-12T15:39:38.976Z</time>
      </trkpt>
      <trkpt lat="50.58258" lon="3.53197">
        <ele>69.18</ele>
        <time>2023-05-12T15:39:54.911Z</time>
      </trkpt>
      <trkpt lat="50.58277" lon="3.53081">
        <ele>64.14</ele>
        <time>2023-05-12T15:40:10.858Z</time>
      </trkpt>
      <trkpt lat="50.58234" lon="3.5307">
        <ele>66.28</ele>
        <time>2023-05-12T15:40:26.812Z</time>
      </trkpt>
      <trkpt lat="50.58149" lon="3.53044">
        <ele>66.99</ele>
        <time>2023-05-12T15:40:42.780Z</time>
      </trkpt>
      <trkpt lat="50.58138" lon="3.53033">
        <ele>67.17</ele>
        <time>2023-05-12T15:40:58.750Z</time>
      </trkpt>
      <trkpt lat="50.5774" lon="3.52426">
        <ele>73.04</ele>
        <time>2023-05-12T15:41:14.809Z</time>
      </trkpt>
      <trkpt lat="50.5774" lon="3.52426">
        <ele>73.09</ele>
        <time>2023-05-12T15:41:30.868Z</time>
      </trkpt>
      <trkpt lat="50.57727" lon="3.52407">
        <ele>72.54</ele>
        <time>2023-05-12T15:41:46.930Z</time>
      </trkpt>
      <trkpt lat="50.577" lon="3.5236">
        <ele>71.22</ele>
        <time>2023-05-12T15:42:02.998Z</time>
      </trkpt>
      <trkpt lat="50.57637" lon="3.52289">
        <ele>67.86</ele>
        <time>2023-05-12T15:42:19.079Z</time>
      </trkpt>
      <trkpt lat="50.5745" lon="3.52068">
        <ele>66.43</ele>
        <time>2023-05-12T15:42:35.197Z</time>
      </trkpt>
      <trkpt lat="50.57449" lon="3.52068">
        <ele>66.43</ele>
        <time>2023-05-12T15:42:51.315Z</time>
      </trkpt>
      <trkpt lat="50.57449" lon="3.52068">
        <ele>66.43</ele>
        <time>2023-05-12T15:43:07.433Z</time>
      </trkpt>
      <trkpt lat="50.57447" lon="3.52065">
        <ele>66.41</ele>
        <time>2023-05-12T15:43:23.552Z</time>
      </trkpt>
      <trkpt lat="50.57447" lon="3.52064">
        <ele>66.41</ele>
        <time>2023-05-12T15:43:39.671Z</time>
      </trkpt>
      <trkpt lat="50.57443" lon="3.5206">
        <ele>66.39</ele>
        <time>2023-05-12T15:43:55.791Z</time>
      </trkpt>
      <trkpt lat="50.57293" lon="3.51883">
        <ele>65.23</ele>
        <time>2023-05-12T15:44:11.941Z</time>
      </trkpt>
      <trkpt lat="50.57207" lon="3.51782">
        <ele>64.38</ele>
        <time>2023-05-12T15:44:28.108Z</time>
      </trkpt>
      <trkpt lat="50.57196" lon="3.5176">
        <ele>63.73</ele>
        <time>2023-05-12T15:44:44.278Z</time>
      </trkpt>
      <trkpt lat="50.57205" lon="3.51729">
        <ele>62.93</ele>
        <time>2023-05-12T15:45:00.451Z</time>
      </trkpt>
      <trkpt lat="50.57281" lon="3.51579">
        <ele>62.54</ele>
        <time>2023-05-12T15:45:16.644Z</time>
      </trkpt>
      <trkpt lat="50.57284" lon="3.51566">
        <ele>61.91</ele>
        <time>2023-05-12T15:45:32.838Z</time>
      </trkpt>
      <trkpt lat="50.57279" lon="3.51556">
        <ele>61.09</ele>
        <time>2023-05-12T15:45:49.033Z</time>
      </trkpt>
      <trkpt lat="50.57213" lon="3.51454">
        <ele>59.73</ele>
        <time>2023-05-12T15:46:05.243Z</time>
      </trkpt>
      <trkpt lat="50.57175" lon="3.51391">
        <ele>58.12</ele>
        <time>2023-05-12T15:46:21.462Z</time>
      </trkpt>
      <trkpt lat="50.57136" lon="3.51318">
        <ele>56.51</ele>
        <time>2023-05-12T15:46:37.691Z</time>
      </trkpt>
      <trkpt lat="50.57082" lon="3.51198">
        <ele>55.45</ele>
        <time>2023-05-12T15:46:53.935Z</time>
      </trkpt>
      <trkpt lat="50.57069" lon="3.51156">
        <ele>54.77</ele>
        <time>2023-05-12T15:47:10.184Z</time>
      </trkpt>
      <trkpt lat="50.57069" lon="3.51156">
        <ele>54.28</ele>
        <time>2023-05-12T15:47:26.433Z</time>
      </trkpt>
      <trkpt lat="50.57059" lon="3.51115">
        <ele>53.95</ele>
        <time>2023-05-12T15:47:42.686Z</time>
      </trkpt>
      <trkpt lat="50.5705" lon="3.51075">
        <ele>53.93</ele>
        <time>2023-05-12T15:47:58.943Z</time>
      </trkpt>
      <trkpt lat="50.57044" lon="3.51047">
        <ele>53.8</ele>
        <time>2023-05-12T15:48:15.204Z</time>
      </trkpt>
      <trkpt lat="50.57044" lon="3.51046">
        <ele>53.8</ele>
        <time>2023-05-12T15:48:31.465Z</time>
      </trkpt>
      <trkpt lat="50.57044" lon="3.51045">
        <ele>53.8</ele>
        <time>2023-05-12T15:48:47.726Z</time>
      </trkpt>
      <trkpt lat="50.57043" lon="3.51041">
        <ele>53.78</ele>
        <time>2023-05-12T15:49:03.987Z</time>
      </trkpt>
      <trkpt lat="50.57043" lon="3.5104">
        <ele>53.78</ele>
        <time>2023-05-12T15:49:20.248Z</time>
      </trkpt>
      <trkpt lat="50.57041" lon="3.51033">
        <ele>53.75</ele>
        <time>2023-05-12T15:49:36.510Z</time>
      </trkpt>
      <trkpt lat="50.57041" lon="3.51033">
        <ele>55.35</ele>
        <time>2023-05-12T15:49:52.772Z</time>
      </trkpt>
      <trkpt lat="50.57039" lon="3.51022">
        <ele>55.54</ele>
        <time>2023-05-12T15:50:09.035Z</time>
      </trkpt>
      <trkpt lat="50.57033" lon="3.50972">
        <ele>55.64</ele>
        <time>2023-05-12T15:50:25.303Z</time>
      </trkpt>
      <trkpt lat="50.57028" lon="3.50919">
        <ele>56.06</ele>
        <time>2023-05-12T15:50:41.577Z</time>
      </trkpt>
      <trkpt lat="50.57018" lon="3.50895">
        <ele>56.28</ele>
        <time>2023-05-12T15:50:57.854Z</time>
      </trkpt>
      <trkpt lat="50.57006" lon="3.50892">
        <ele>56.4</ele>
        <time>2023-05-12T15:51:14.133Z</time>
      </trkpt>
      <trkpt lat="50.56989" lon="3.50887">
        <ele>56.47</ele>
        <time>2023-05-12T15:51:30.415Z</time>
      </trkpt>
      <trkpt lat="50.56955" lon="3.50881">
        <ele>56.45</ele>
        <time>2023-05-12T15:51:46.702Z</time>
      </trkpt>
      <trkpt lat="50.569" lon="3.5086">
        <ele>56.11</ele>
        <time>2023-05-12T15:52:02.998Z</time>
      </trkpt>
      <trkpt lat="50.5689" lon="3.50852">
        <ele>55.63</ele>
        <time>2023-05-12T15:52:19.296Z</time>
      </trkpt>
      <trkpt lat="50.56881" lon="3.50837">
        <ele>54.85</ele>
        <time>2023-05-12T15:52:35.596Z</time>
      </trkpt>
      <trkpt lat="50.56886" lon="3.50698">
        <ele>54.07</ele>
        <time>2023-05-12T15:52:51.910Z</time>
      </trkpt>
      <trkpt lat="50.56893" lon="3.50501">
        <ele>52.77</ele>
        <time>2023-05-12T15:53:08.244Z</time>
      </trkpt>
      <trkpt lat="50.56897" lon="3.50369">
        <ele>51.03</ele>
        <time>2023-05-12T15:53:24.592Z</time>
      </trkpt>
      <trkpt lat="50.56867" lon="3.50147">
        <ele>49.24</ele>
        <time>2023-05-12T15:53:40.963Z</time>
      </trkpt>
      <trkpt lat="50.56859" lon="3.50045">
        <ele>47.35</ele>
        <time>2023-05-12T15:53:57.344Z</time>
      </trkpt>
      <trkpt lat="50.5685" lon="3.49946">
        <ele>45.52</ele>
        <time>2023-05-12T15:54:13.736Z</time>
      </trkpt>
      <trkpt lat="50.56844" lon="3.49892">
        <ele>43.92</ele>
        <time>2023-05-12T15:54:30.133Z</time>
      </trkpt>
      <trkpt lat="50.56776" lon="3.49917">
        <ele>42.2</ele>
        <time>2023-05-12T15:54:46.541Z</time>
      </trkpt>
      <trkpt lat="50.56741" lon="3.49936">
        <ele>41.07</ele>
        <time>2023-05-12T15:55:02.955Z</time>
      </trkpt>
      <trkpt lat="50.56657" lon="3.49993">
        <ele>40.5</ele>
        <time>2023-05-12T15:55:19.384Z</time>
      </trkpt>
      <trkpt lat="50.56547" lon="3.50081">
        <ele>40.38</ele>
        <time>2023-05-12T15:55:35.833Z</time>
      </trkpt>
      <trkpt lat="50.5653" lon="3.50101">
        <ele>40.54</ele>
        <time>2023-05-12T15:55:52.285Z</time>
      </trkpt>
      <trkpt lat="50.56518" lon="3.50134">
        <ele>41.04</ele>
        <time>2023-05-12T15:56:08.741Z</time>
      </trkpt>
      <trkpt lat="50.56509" lon="3.50186">
        <ele>41.91</ele>
        <time>2023-05-12T15:56:25.202Z</time>
      </trkpt>
      <trkpt lat="50.56505" lon="3.50247">
        <ele>42.95</ele>
        <time>2023-05-12T15:56:41.670Z</time>
      </trkpt>
      <trkpt lat="50.56504" lon="3.50273">
        <ele>44.05</ele>
        <time>2023-05-12T15:56:58.140Z</time>
      </trkpt>
      <trkpt lat="50.56496" lon="3.50334">
        <ele>45.46</ele>
        <time>2023-05-12T15:57:14.617Z</time>
      </trkpt>
      <trkpt lat="50.5649" lon="3.50369">
        <ele>46.46</ele>
        <time>2023-05-12T15:57:31.097Z</time>
      </trkpt>
      <trkpt lat="50.56424" lon="3.50493">
        <ele>47.66</ele>
        <time>2023-05-12T15:57:47.594Z</time>
      </trkpt>
      <trkpt lat="50.5642" lon="3.505">
        <ele>47.79</ele>
        <time>2023-05-12T15:58:04.092Z</time>
      </trkpt>
      <trkpt lat="50.5642" lon="3.50501">
        <ele>47.81</ele>
        <time>2023-05-12T15:58:20.590Z</time>
      </trkpt>
      <trkpt lat="50.5642" lon="3.50501">
        <ele>47.83</ele>
        <time>2023-05-12T15:58:37.088Z</time>
      </trkpt>
      <trkpt lat="50.56418" lon="3.50505">
        <ele>47.92</ele>
        <time>2023-05-12T15:58:53.586Z</time>
      </trkpt>
      <trkpt lat="50.56418" lon="3.50506">
        <ele>47.94</ele>
        <time>2023-05-12T15:59:10.085Z</time>
      </trkpt>
      <trkpt lat="50.56415" lon="3.50512">
        <ele>48.08</ele>
        <time>2023-05-12T15:59:26.584Z</time>
      </trkpt>
      <trkpt lat="50.56321" lon="3.50696">
        <ele>47.52</ele>
        <time>2023-05-12T15:59:43.107Z</time>
      </trkpt>
      <trkpt lat="50.56301" lon="3.50747">
        <ele>47.56</ele>
        <time>2023-05-12T15:59:59.636Z</time>
      </trkpt>
      <trkpt lat="50.56272" lon="3.50886">
        <ele>48.03</ele>
        <time>2023-05-12T16:00:16.180Z</time>
      </trkpt>
      <trkpt lat="50.56238" lon="3.50964">
        <ele>47.06</ele>
        <time>2023-05-12T16:00:32.734Z</time>
      </trkpt>
      <trkpt lat="50.56214" lon="3.50999">
        <ele>46.32</ele>
        <time>2023-05-12T16:00:49.293Z</time>
      </trkpt>
      <trkpt lat="50.56152" lon="3.51083">
        <ele>45.3</ele>
        <time>2023-05-12T16:01:05.865Z</time>
      </trkpt>
      <trkpt lat="50.56116" lon="3.51113">
        <ele>44.87</ele>
        <time>2023-05-12T16:01:22.444Z</time>
      </trkpt>
      <trkpt lat="50.56116" lon="3.51113">
        <ele>44.9</ele>
        <time>2023-05-12T16:01:39.023Z</time>
      </trkpt>
      <trkpt lat="50.56112" lon="3.51114">
        <ele>45.29</ele>
        <time>2023-05-12T16:01:55.603Z</time>
      </trkpt>
      <trkpt lat="50.5601" lon="3.51144">
        <ele>45.89</ele>
        <time>2023-05-12T16:02:12.199Z</time>
      </trkpt>
      <trkpt lat="50.55985" lon="3.51149">
        <ele>46.94</ele>
        <time>2023-05-12T16:02:28.799Z</time>
      </trkpt>
      <trkpt lat="50.55931" lon="3.51162">
        <ele>48.45</ele>
        <time>2023-05-12T16:02:45.408Z</time>
      </trkpt>
      <trkpt lat="50.55745" lon="3.51206">
        <ele>50.96</ele>
        <time>2023-05-12T16:03:02.047Z</time>
      </trkpt>
      <trkpt lat="50.55669" lon="3.51223">
        <ele>52.64</ele>
        <time>2023-05-12T16:03:18.698Z</time>
      </trkpt>
      <trkpt lat="50.55611" lon="3.51238">
        <ele>54.67</ele>
        <time>2023-05-12T16:03:35.359Z</time>
      </trkpt>
      <trkpt lat="50.55588" lon="3.51248">
        <ele>56.26</ele>
        <time>2023-05-12T16:03:52.024Z</time>
      </trkpt>
      <trkpt lat="50.55541" lon="3.51279">
        <ele>57.4</ele>
        <time>2023-05-12T16:04:08.697Z</time>
      </trkpt>
      <trkpt lat="50.55537" lon="3.51271">
        <ele>58.32</ele>
        <time>2023-05-12T16:04:25.371Z</time>
      </trkpt>
      <trkpt lat="50.55531" lon="3.51267">
        <ele>59</ele>
        <time>2023-05-12T16:04:42.046Z</time>
      </trkpt>
      <trkpt lat="50.55525" lon="3.51271">
        <ele>59.48</ele>
        <time>2023-05-12T16:04:58.722Z</time>
      </trkpt>
      <trkpt lat="50.55521" lon="3.51278">
        <ele>59.82</ele>
        <time>2023-05-12T16:05:15.399Z</time>
      </trkpt>
      <trkpt lat="50.5552" lon="3.51285">
        <ele>60.03</ele>
        <time>2023-05-12T16:05:32.077Z</time>
      </trkpt>
      <trkpt lat="50.55518" lon="3.51293">
        <ele>60.12</ele>
        <time>2023-05-12T16:05:48.756Z</time>
      </trkpt>
      <trkpt lat="50.55508" lon="3.51313">
        <ele>60.18</ele>
        <time>2023-05-12T16:06:05.437Z</time>
      </trkpt>
      <trkpt lat="50.55464" lon="3.51357">
        <ele>60.02</ele>
        <time>2023-05-12T16:06:22.126Z</time>
      </trkpt>
      <trkpt lat="50.55448" lon="3.51368">
        <ele>59.99</ele>
        <time>2023-05-12T16:06:38.818Z</time>
      </trkpt>
      <trkpt lat="50.55416" lon="3.51399">
        <ele>59.88</ele>
        <time>2023-05-12T16:06:55.516Z</time>
      </trkpt>
      <trkpt lat="50.55404" lon="3.51408">
        <ele>59.77</ele>
        <time>2023-05-12T16:07:12.216Z</time>
      </trkpt>
      <trkpt lat="50.5539" lon="3.51416">
        <ele>59.65</ele>
        <time>2023-05-12T16:07:28.919Z</time>
      </trkpt>
      <trkpt lat="50.55361" lon="3.51418">
        <ele>59.51</ele>
        <time>2023-05-12T16:07:45.626Z</time>
      </trkpt>
      <trkpt lat="50.55333" lon="3.51409">
        <ele>59.33</ele>
        <time>2023-05-12T16:08:02.338Z</time>
      </trkpt>
      <trkpt lat="50.55325" lon="3.51404">
        <ele>59.09</ele>
        <time>2023-05-12T16:08:19.051Z</time>
      </trkpt>
      <trkpt lat="50.55318" lon="3.51398">
        <ele>58.75</ele>
        <time>2023-05-12T16:08:35.766Z</time>
      </trkpt>
      <trkpt lat="50.55301" lon="3.51387">
        <ele>58.29</ele>
        <time>2023-05-12T16:08:52.484Z</time>
      </trkpt>
      <trkpt lat="50.55222" lon="3.51315">
        <ele>57.7</ele>
        <time>2023-05-12T16:09:09.216Z</time>
      </trkpt>
      <trkpt lat="50.5519" lon="3.5129">
        <ele>56.31</ele>
        <time>2023-05-12T16:09:25.954Z</time>
      </trkpt>
      <trkpt lat="50.5517" lon="3.51271">
        <ele>54.96</ele>
        <time>2023-05-12T16:09:42.696Z</time>
      </trkpt>
      <trkpt lat="50.55057" lon="3.51176">
        <ele>53.11</ele>
        <time>2023-05-12T16:09:59.458Z</time>
      </trkpt>
      <trkpt lat="50.55018" lon="3.51152">
        <ele>51.79</ele>
        <time>2023-05-12T16:10:16.227Z</time>
      </trkpt>
      <trkpt lat="50.55032" lon="3.51069">
        <ele>51.63</ele>
        <time>2023-05-12T16:10:33.005Z</time>
      </trkpt>
      <trkpt lat="50.55047" lon="3.5099">
        <ele>49.34</ele>
        <time>2023-05-12T16:10:49.791Z</time>
      </trkpt>
      <trkpt lat="50.55047" lon="3.5099">
        <ele>49.32</ele>
        <time>2023-05-12T16:11:06.577Z</time>
      </trkpt>
      <trkpt lat="50.55048" lon="3.50989">
        <ele>49.3</ele>
        <time>2023-05-12T16:11:23.363Z</time>
      </trkpt>
      <trkpt lat="50.55049" lon="3.50985">
        <ele>49.16</ele>
        <time>2023-05-12T16:11:40.150Z</time>
      </trkpt>
      <trkpt lat="50.55049" lon="3.50984">
        <ele>49.14</ele>
        <time>2023-05-12T16:11:56.937Z</time>
      </trkpt>
      <trkpt lat="50.5505" lon="3.50977">
        <ele>48.93</ele>
        <time>2023-05-12T16:12:13.725Z</time>
      </trkpt>
      <trkpt lat="50.55053" lon="3.50962">
        <ele>48.23</ele>
        <time>2023-05-12T16:12:30.514Z</time>
      </trkpt>
      <trkpt lat="50.55079" lon="3.50878">
        <ele>47</ele>
        <time>2023-05-12T16:12:47.313Z</time>
      </trkpt>
      <trkpt lat="50.55095" lon="3.50843">
        <ele>45.72</ele>
        <time>2023-05-12T16:13:04.116Z</time>
      </trkpt>
      <trkpt lat="50.5509" lon="3.50811">
        <ele>44.67</ele>
        <time>2023-05-12T16:13:20.922Z</time>
      </trkpt>
      <trkpt lat="50.55089" lon="3.5079">
        <ele>43.67</ele>
        <time>2023-05-12T16:13:37.731Z</time>
      </trkpt>
      <trkpt lat="50.55102" lon="3.50717">
        <ele>42.51</ele>
        <time>2023-05-12T16:13:54.547Z</time>
      </trkpt>
      <trkpt lat="50.55104" lon="3.50688">
        <ele>41.57</ele>
        <time>2023-05-12T16:14:11.366Z</time>
      </trkpt>
      <trkpt lat="50.55101" lon="3.50663">
        <ele>40.77</ele>
        <time>2023-05-12T16:14:28.188Z</time>
      </trkpt>
      <trkpt lat="50.55086" lon="3.50621">
        <ele>40.13</ele>
        <time>2023-05-12T16:14:45.015Z</time>
      </trkpt>
      <trkpt lat="50.55085" lon="3.50597">
        <ele>39.61</ele>
        <time>2023-05-12T16:15:01.844Z</time>
      </trkpt>
      <trkpt lat="50.55086" lon="3.50579">
        <ele>39.22</ele>
        <time>2023-05-12T16:15:18.675Z</time>
      </trkpt>
      <trkpt lat="50.55087" lon="3.50569">
        <ele>38.98</ele>
        <time>2023-05-12T16:15:35.507Z</time>
      </trkpt>
      <trkpt lat="50.55091" lon="3.50556">
        <ele>38.8</ele>
        <time>2023-05-12T16:15:52.341Z</time>
      </trkpt>
      <trkpt lat="50.55104" lon="3.50527">
        <ele>38.53</ele>
        <time>2023-05-12T16:16:09.178Z</time>
      </trkpt>
      <trkpt lat="50.5514" lon="3.50454">
        <ele>38.37</ele>
        <time>2023-05-12T16:16:26.025Z</time>
      </trkpt>
      <trkpt lat="50.55149" lon="3.50426">
        <ele>37.98</ele>
        <time>2023-05-12T16:16:42.875Z</time>
      </trkpt>
      <trkpt lat="50.55158" lon="3.50395">
        <ele>37.46</ele>
        <time>2023-05-12T16:16:59.728Z</time>
      </trkpt>
      <trkpt lat="50.55203" lon="3.50222">
        <ele>34.64</ele>
        <time>2023-05-12T16:17:16.600Z</time>
      </trkpt>
      <trkpt lat="50.55203" lon="3.50221">
        <ele>34.63</ele>
        <time>2023-05-12T16:17:33.472Z</time>
      </trkpt>
      <trkpt lat="50.55203" lon="3.50221">
        <ele>34.62</ele>
        <time>2023-05-12T16:17:50.344Z</time>
      </trkpt>
      <trkpt lat="50.55204" lon="3.50216">
        <ele>34.54</ele>
        <time>2023-05-12T16:18:07.217Z</time>
      </trkpt>
      <trkpt lat="50.55204" lon="3.50216">
        <ele>34.53</ele>
        <time>2023-05-12T16:18:24.090Z</time>
      </trkpt>
      <trkpt lat="50.55206" lon="3.5021">
        <ele>34.42</ele>
        <time>2023-05-12T16:18:40.964Z</time>
      </trkpt>
      <trkpt lat="50.55223" lon="3.50144">
        <ele>33.89</ele>
        <time>2023-05-12T16:18:57.845Z</time>
      </trkpt>
      <trkpt lat="50.55238" lon="3.5008">
        <ele>33.55</ele>
        <time>2023-05-12T16:19:14.733Z</time>
      </trkpt>
      <trkpt lat="50.5524" lon="3.50064">
        <ele>33.31</ele>
        <time>2023-05-12T16:19:31.623Z</time>
      </trkpt>
      <trkpt lat="50.55243" lon="3.50063">
        <ele>33.14</ele>
        <time>2023-05-12T16:19:48.513Z</time>
      </trkpt>
      <trkpt lat="50.55246" lon="3.50057">
        <ele>33.03</ele>
        <time>2023-05-12T16:20:05.404Z</time>
      </trkpt>
      <trkpt lat="50.55247" lon="3.50048">
        <ele>32.92</ele>
        <time>2023-05-12T16:20:22.296Z</time>
      </trkpt>
      <trkpt lat="50.55246" lon="3.50043">
        <ele>32.91</ele>
        <time>2023-05-12T16:20:39.188Z</time>
      </trkpt>
      <trkpt lat="50.55245" lon="3.5004">
        <ele>32.98</ele>
        <time>2023-05-12T16:20:56.081Z</time>
      </trkpt>
      <trkpt lat="50.5524" lon="3.50037">
        <ele>33.16</ele>
        <time>2023-05-12T16:21:12.975Z</time>
      </trkpt>
      <trkpt lat="50.55232" lon="3.50041">
        <ele>33.52</ele>
        <time>2023-05-12T16:21:29.870Z</time>
      </trkpt>
      <trkpt lat="50.55231" lon="3.50045">
        <ele>34.03</ele>
        <time>2023-05-12T16:21:46.765Z</time>
      </trkpt>
      <trkpt lat="50.55208" lon="3.50036">
        <ele>34.71</ele>
        <time>2023-05-12T16:22:03.664Z</time>
      </trkpt>
      <trkpt lat="50.55185" lon="3.50035">
        <ele>35.61</ele>
        <time>2023-05-12T16:22:20.567Z</time>
      </trkpt>
      <trkpt lat="50.55166" lon="3.50026">
        <ele>36.71</ele>
        <time>2023-05-12T16:22:37.473Z</time>
      </trkpt>
      <trkpt lat="50.55119" lon="3.49992">
        <ele>38.23</ele>
        <time>2023-05-12T16:22:54.387Z</time>
      </trkpt>
      <trkpt lat="50.55092" lon="3.49976">
        <ele>39.4</ele>
        <time>2023-05-12T16:23:11.306Z</time>
      </trkpt>
      <trkpt lat="50.55057" lon="3.49946">
        <ele>40.57</ele>
        <time>2023-05-12T16:23:28.231Z</time>
      </trkpt>
      <trkpt lat="50.5501" lon="3.49909">
        <ele>41.38</ele>
        <time>2023-05-12T16:23:45.165Z</time>
      </trkpt>
      <trkpt lat="50.54991" lon="3.49891">
        <ele>41.54</ele>
        <time>2023-05-12T16:24:02.102Z</time>
      </trkpt>
      <trkpt lat="50.54952" lon="3.49835">
        <ele>41.14</ele>
        <time>2023-05-12T16:24:19.048Z</time>
      </trkpt>
      <trkpt lat="50.54888" lon="3.49749">
        <ele>40.37</ele>
        <time>2023-05-12T16:24:36.007Z</time>
      </trkpt>
      <trkpt lat="50.54875" lon="3.49735">
        <ele>38.43</ele>
        <time>2023-05-12T16:24:52.969Z</time>
      </trkpt>
      <trkpt lat="50.54875" lon="3.49735">
        <ele>38.38</ele>
        <time>2023-05-12T16:25:09.931Z</time>
      </trkpt>
      <trkpt lat="50.54874" lon="3.49734">
        <ele>38.32</ele>
        <time>2023-05-12T16:25:26.893Z</time>
      </trkpt>
      <trkpt lat="50.54872" lon="3.49731">
        <ele>37.94</ele>
        <time>2023-05-12T16:25:43.855Z</time>
      </trkpt>
      <trkpt lat="50.54871" lon="3.49731">
        <ele>37.88</ele>
        <time>2023-05-12T16:26:00.818Z</time>
      </trkpt>
      <trkpt lat="50.54867" lon="3.49727">
        <ele>37.29</ele>
        <time>2023-05-12T16:26:17.781Z</time>
      </trkpt>
      <trkpt lat="50.54806" lon="3.49659">
        <ele>36.34</ele>
        <time>2023-05-12T16:26:34.756Z</time>
      </trkpt>
      <trkpt lat="50.54806" lon="3.49659">
        <ele>35.96</ele>
        <time>2023-05-12T16:26:51.731Z</time>
      </trkpt>
      <trkpt lat="50.5478" lon="3.49632">
        <ele>35.95</ele>
        <time>2023-05-12T16:27:08.711Z</time>
      </trkpt>
      <trkpt lat="50.54746" lon="3.4961">
        <ele>36.09</ele>
        <time>2023-05-12T16:27:25.697Z</time>
      </trkpt>
      <trkpt lat="50.54724" lon="3.49595">
        <ele>36.02</ele>
        <time>2023-05-12T16:27:42.687Z</time>
      </trkpt>
      <trkpt lat="50.54711" lon="3.49587">
        <ele>35.95</ele>
        <time>2023-05-12T16:27:59.679Z</time>
      </trkpt>
      <trkpt lat="50.547" lon="3.49583">
        <ele>35.87</ele>
        <time>2023-05-12T16:28:16.673Z</time>
      </trkpt>
      <trkpt lat="50.54682" lon="3.49581">
        <ele>35.86</ele>
        <time>2023-05-12T16:28:33.670Z</time>
      </trkpt>
      <trkpt lat="50.54656" lon="3.49585">
        <ele>35.85</ele>
        <time>2023-05-12T16:28:50.671Z</time>
      </trkpt>
      <trkpt lat="50.54648" lon="3.49595">
        <ele>35.75</ele>
        <time>2023-05-12T16:29:07.674Z</time>
      </trkpt>
      <trkpt lat="50.54606" lon="3.49568">
        <ele>35.39</ele>
        <time>2023-05-12T16:29:24.684Z</time>
      </trkpt>
      <trkpt lat="50.54596" lon="3.49565">
        <ele>35.23</ele>
        <time>2023-05-12T16:29:41.696Z</time>
      </trkpt>
      <trkpt lat="50.54584" lon="3.49565">
        <ele>35.15</ele>
        <time>2023-05-12T16:29:58.710Z</time>
      </trkpt>
      <trkpt lat="50.54581" lon="3.49558">
        <ele>35.2</ele>
        <time>2023-05-12T16:30:15.724Z</time>
      </trkpt>
      <trkpt lat="50.54575" lon="3.4955">
        <ele>35.38</ele>
        <time>2023-05-12T16:30:32.740Z</time>
      </trkpt>
      <trkpt lat="50.54557" lon="3.49524">
        <ele>35.73</ele>
        <time>2023-05-12T16:30:49.760Z</time>
      </trkpt>
      <trkpt lat="50.5455" lon="3.49514">
        <ele>36.14</ele>
        <time>2023-05-12T16:31:06.781Z</time>
      </trkpt>
      <trkpt lat="50.54543" lon="3.49499">
        <ele>36.53</ele>
        <time>2023-05-12T16:31:23.804Z</time>
      </trkpt>
      <trkpt lat="50.5454" lon="3.49483">
        <ele>36.74</ele>
        <time>2023-05-12T16:31:40.829Z</time>
      </trkpt>
      <trkpt lat="50.54539" lon="3.49468">
        <ele>36.85</ele>
        <time>2023-05-12T16:31:57.855Z</time>
      </trkpt>
      <trkpt lat="50.54543" lon="3.49447">
        <ele>36.7</ele>
        <time>2023-05-12T16:32:14.884Z</time>
      </trkpt>
      <trkpt lat="50.54548" lon="3.49433">
        <ele>36.17</ele>
        <time>2023-05-12T16:32:31.914Z</time>
      </trkpt>
      <trkpt lat="50.54596" lon="3.49283">
        <ele>33.55</ele>
        <time>2023-05-12T16:32:48.961Z</time>
      </trkpt>
      <trkpt lat="50.54596" lon="3.49283">
        <ele>33.54</ele>
        <time>2023-05-12T16:33:06.008Z</time>
      </trkpt>
      <trkpt lat="50.54596" lon="3.49283">
        <ele>33.53</ele>
        <time>2023-05-12T16:33:23.055Z</time>
      </trkpt>
      <trkpt lat="50.54597" lon="3.49278">
        <ele>33.45</ele>
        <time>2023-05-12T16:33:40.103Z</time>
      </trkpt>
      <trkpt lat="50.54597" lon="3.49278">
        <ele>33.44</ele>
        <time>2023-05-12T16:33:57.151Z</time>
      </trkpt>
      <trkpt lat="50.54599" lon="3.49272">
        <ele>33.32</ele>
        <time>2023-05-12T16:34:14.200Z</time>
      </trkpt>
      <trkpt lat="50.54616" lon="3.49218">
        <ele>33.23</ele>
        <time>2023-05-12T16:34:31.255Z</time>
      </trkpt>
      <trkpt lat="50.54635" lon="3.49172">
        <ele>33.07</ele>
        <time>2023-05-12T16:34:48.315Z</time>
      </trkpt>
      <trkpt lat="50.54645" lon="3.49112">
        <ele>32.78</ele>
        <time>2023-05-12T16:35:05.382Z</time>
      </trkpt>
      <trkpt lat="50.54677" lon="3.48985">
        <ele>32.59</ele>
        <time>2023-05-12T16:35:22.462Z</time>
      </trkpt>
      <trkpt lat="50.5471" lon="3.4886">
        <ele>32</ele>
        <time>2023-05-12T16:35:39.556Z</time>
      </trkpt>
      <trkpt lat="50.54729" lon="3.48719">
        <ele>31.22</ele>
        <time>2023-05-12T16:35:56.665Z</time>
      </trkpt>
      <trkpt lat="50.54733" lon="3.48698">
        <ele>30.67</ele>
        <time>2023-05-12T16:36:13.776Z</time>
      </trkpt>
      <trkpt lat="50.54744" lon="3.48679">
        <ele>30.08</ele>
        <time>2023-05-12T16:36:30.890Z</time>
      </trkpt>
      <trkpt lat="50.54771" lon="3.48643">
        <ele>29.48</ele>
        <time>2023-05-12T16:36:48.009Z</time>
      </trkpt>
      <trkpt lat="50.54798" lon="3.48614">
        <ele>29.16</ele>
        <time>2023-05-12T16:37:05.134Z</time>
      </trkpt>
      <trkpt lat="50.54886" lon="3.48423">
        <ele>28.63</ele>
        <time>2023-05-12T16:37:22.283Z</time>
      </trkpt>
      <trkpt lat="50.54938" lon="3.48314">
        <ele>28.39</ele>
        <time>2023-05-12T16:37:39.446Z</time>
      </trkpt>
      <trkpt lat="50.54948" lon="3.48294">
        <ele>28.12</ele>
        <time>2023-05-12T16:37:56.611Z</time>
      </trkpt>
      <trkpt lat="50.5498" lon="3.48244">
        <ele>27.96</ele>
        <time>2023-05-12T16:38:13.783Z</time>
      </trkpt>
      <trkpt lat="50.55018" lon="3.48198">
        <ele>27.63</ele>
        <time>2023-05-12T16:38:30.963Z</time>
      </trkpt>
      <trkpt lat="50.55038" lon="3.48178">
        <ele>27.43</ele>
        <time>2023-05-12T16:38:48.147Z</time>
      </trkpt>
      <trkpt lat="50.5518" lon="3.48053">
        <ele>27.28</ele>
        <time>2023-05-12T16:39:05.357Z</time>
      </trkpt>
      <trkpt lat="50.55188" lon="3.48047">
        <ele>27.13</ele>
        <time>2023-05-12T16:39:22.569Z</time>
      </trkpt>
      <trkpt lat="50.55201" lon="3.48027">
        <ele>27.01</ele>
        <time>2023-05-12T16:39:39.783Z</time>
      </trkpt>
      <trkpt lat="50.5521" lon="3.48008">
        <ele>27.08</ele>
        <time>2023-05-12T16:39:57.000Z</time>
      </trkpt>
      <trkpt lat="50.55205" lon="3.47937">
        <ele>27.15</ele>
        <time>2023-05-12T16:40:14.224Z</time>
      </trkpt>
      <trkpt lat="50.55207" lon="3.47918">
        <ele>27.17</ele>
        <time>2023-05-12T16:40:31.450Z</time>
      </trkpt>
      <trkpt lat="50.55212" lon="3.47892">
        <ele>27.47</ele>
        <time>2023-05-12T16:40:48.679Z</time>
      </trkpt>
      <trkpt lat="50.55231" lon="3.4781">
        <ele>27.6</ele>
        <time>2023-05-12T16:41:05.917Z</time>
      </trkpt>
      <trkpt lat="50.55235" lon="3.47788">
        <ele>28.45</ele>
        <time>2023-05-12T16:41:23.157Z</time>
      </trkpt>
      <trkpt lat="50.55235" lon="3.47787">
        <ele>28.48</ele>
        <time>2023-05-12T16:41:40.397Z</time>
      </trkpt>
      <trkpt lat="50.55236" lon="3.47787">
        <ele>28.52</ele>
        <time>2023-05-12T16:41:57.637Z</time>
      </trkpt>
      <trkpt lat="50.55236" lon="3.47782">
        <ele>28.72</ele>
        <time>2023-05-12T16:42:14.878Z</time>
      </trkpt>
      <trkpt lat="50.55237" lon="3.47781">
        <ele>28.76</ele>
        <time>2023-05-12T16:42:32.119Z</time>
      </trkpt>
      <trkpt lat="50.55237" lon="3.47781">
        <ele>29.35</ele>
        <time>2023-05-12T16:42:49.360Z</time>
      </trkpt>
      <trkpt lat="50.55242" lon="3.47753">
        <ele>30.68</ele>
        <time>2023-05-12T16:43:06.604Z</time>
      </trkpt>
      <trkpt lat="50.55304" lon="3.47635">
        <ele>33.6</ele>
        <time>2023-05-12T16:43:23.863Z</time>
      </trkpt>
      <trkpt lat="50.55336" lon="3.47594">
        <ele>35.64</ele>
        <time>2023-05-12T16:43:41.129Z</time>
      </trkpt>
      <trkpt lat="50.55428" lon="3.47519">
        <ele>36.82</ele>
        <time>2023-05-12T16:43:58.412Z</time>
      </trkpt>
      <trkpt lat="50.55454" lon="3.47487">
        <ele>37.56</ele>
        <time>2023-05-12T16:44:15.700Z</time>
      </trkpt>
      <trkpt lat="50.55475" lon="3.47439">
        <ele>37.7</ele>
        <time>2023-05-12T16:44:32.994Z</time>
      </trkpt>
      <trkpt lat="50.55517" lon="3.4727">
        <ele>37.98</ele>
        <time>2023-05-12T16:44:50.306Z</time>
      </trkpt>
      <trkpt lat="50.55517" lon="3.4727">
        <ele>37.99</ele>
        <time>2023-05-12T16:45:07.618Z</time>
      </trkpt>
      <trkpt lat="50.55517" lon="3.47269">
        <ele>38</ele>
        <time>2023-05-12T16:45:24.930Z</time>
      </trkpt>
      <trkpt lat="50.55518" lon="3.47265">
        <ele>38.01</ele>
        <time>2023-05-12T16:45:42.243Z</time>
      </trkpt>
      <trkpt lat="50.55518" lon="3.47265">
        <ele>38.02</ele>
        <time>2023-05-12T16:45:59.556Z</time>
      </trkpt>
      <trkpt lat="50.55526" lon="3.47231">
        <ele>32.61</ele>
        <time>2023-05-12T16:46:16.873Z</time>
      </trkpt>
      <trkpt lat="50.55541" lon="3.47116">
        <ele>29.79</ele>
        <time>2023-05-12T16:46:34.202Z</time>
      </trkpt>
      <trkpt lat="50.55553" lon="3.46969">
        <ele>27.77</ele>
        <time>2023-05-12T16:46:51.546Z</time>
      </trkpt>
      <trkpt lat="50.55558" lon="3.46948">
        <ele>26.57</ele>
        <time>2023-05-12T16:47:08.892Z</time>
      </trkpt>
      <trkpt lat="50.55575" lon="3.46894">
        <ele>25.71</ele>
        <time>2023-05-12T16:47:26.244Z</time>
      </trkpt>
      <trkpt lat="50.55583" lon="3.46868">
        <ele>25.2</ele>
        <time>2023-05-12T16:47:43.599Z</time>
      </trkpt>
      <trkpt lat="50.55481" lon="3.46779">
        <ele>25.03</ele>
        <time>2023-05-12T16:48:00.973Z</time>
      </trkpt>
      <trkpt lat="50.55482" lon="3.4673">
        <ele>25.02</ele>
        <time>2023-05-12T16:48:18.352Z</time>
      </trkpt>
      <trkpt lat="50.5548" lon="3.46677">
        <ele>25.4</ele>
        <time>2023-05-12T16:48:35.736Z</time>
      </trkpt>
      <trkpt lat="50.55472" lon="3.46635">
        <ele>25.96</ele>
        <time>2023-05-12T16:48:53.125Z</time>
      </trkpt>
      <trkpt lat="50.55459" lon="3.46583">
        <ele>26.98</ele>
        <time>2023-05-12T16:49:10.519Z</time>
      </trkpt>
      <trkpt lat="50.55451" lon="3.46546">
        <ele>28.05</ele>
        <time>2023-05-12T16:49:27.917Z</time>
      </trkpt>
      <trkpt lat="50.55446" lon="3.46503">
        <ele>29.25</ele>
        <time>2023-05-12T16:49:45.320Z</time>
      </trkpt>
      <trkpt lat="50.55445" lon="3.46463">
        <ele>30.53</ele>
        <time>2023-05-12T16:50:02.727Z</time>
      </trkpt>
      <trkpt lat="50.55447" lon="3.46404">
        <ele>32.17</ele>
        <time>2023-05-12T16:50:20.140Z</time>
      </trkpt>
      <trkpt lat="50.55446" lon="3.46356">
        <ele>33.77</ele>
        <time>2023-05-12T16:50:37.558Z</time>
      </trkpt>
      <trkpt lat="50.55444" lon="3.46314">
        <ele>35.33</ele>
        <time>2023-05-12T16:50:54.980Z</time>
      </trkpt>
      <trkpt lat="50.55434" lon="3.46225">
        <ele>37.03</ele>
        <time>2023-05-12T16:51:12.411Z</time>
      </trkpt>
      <trkpt lat="50.55432" lon="3.46188">
        <ele>37.95</ele>
        <time>2023-05-12T16:51:29.846Z</time>
      </trkpt>
      <trkpt lat="50.55433" lon="3.46161">
        <ele>38.37</ele>
        <time>2023-05-12T16:51:47.284Z</time>
      </trkpt>
      <trkpt lat="50.55432" lon="3.46156">
        <ele>38.49</ele>
        <time>2023-05-12T16:52:04.722Z</time>
      </trkpt>
      <trkpt lat="50.55432" lon="3.46155">
        <ele>38.51</ele>
        <time>2023-05-12T16:52:22.161Z</time>
      </trkpt>
      <trkpt lat="50.55431" lon="3.46155">
        <ele>38.54</ele>
        <time>2023-05-12T16:52:39.600Z</time>
      </trkpt>
      <trkpt lat="50.5543" lon="3.4615">
        <ele>38.68</ele>
        <time>2023-05-12T16:52:57.039Z</time>
      </trkpt>
      <trkpt lat="50.5543" lon="3.46149">
        <ele>38.71</ele>
        <time>2023-05-12T16:53:14.478Z</time>
      </trkpt>
      <trkpt lat="50.5543" lon="3.46149">
        <ele>38.18</ele>
        <time>2023-05-12T16:53:31.917Z</time>
      </trkpt>
      <trkpt lat="50.5543" lon="3.46149">
        <ele>36.55</ele>
        <time>2023-05-12T16:53:49.356Z</time>
      </trkpt>
      <trkpt lat="50.5543" lon="3.46149">
        <ele>35.39</ele>
        <time>2023-05-12T16:54:06.795Z</time>
      </trkpt>
      <trkpt lat="50.55304" lon="3.45989">
        <ele>32.83</ele>
        <time>2023-05-12T16:54:24.260Z</time>
      </trkpt>
      <trkpt lat="50.55361" lon="3.45894">
        <ele>30.34</ele>
        <time>2023-05-12T16:54:41.738Z</time>
      </trkpt>
      <trkpt lat="50.55475" lon="3.4569">
        <ele>28.19</ele>
        <time>2023-05-12T16:54:59.244Z</time>
      </trkpt>
      <trkpt lat="50.55517" lon="3.45624">
        <ele>27.19</ele>
        <time>2023-05-12T16:55:16.760Z</time>
      </trkpt>
      <trkpt lat="50.55513" lon="3.45607">
        <ele>26.49</ele>
        <time>2023-05-12T16:55:34.277Z</time>
      </trkpt>
      <trkpt lat="50.55521" lon="3.45562">
        <ele>25.72</ele>
        <time>2023-05-12T16:55:51.799Z</time>
      </trkpt>
      <trkpt lat="50.55532" lon="3.45525">
        <ele>25.08</ele>
        <time>2023-05-12T16:56:09.325Z</time>
      </trkpt>
      <trkpt lat="50.5554" lon="3.45501">
        <ele>24.46</ele>
        <time>2023-05-12T16:56:26.854Z</time>
      </trkpt>
      <trkpt lat="50.55577" lon="3.45431">
        <ele>23.89</ele>
        <time>2023-05-12T16:56:44.392Z</time>
      </trkpt>
      <trkpt lat="50.55582" lon="3.45413">
        <ele>23.6</ele>
        <time>2023-05-12T16:57:01.932Z</time>
      </trkpt>
      <trkpt lat="50.55569" lon="3.45403">
        <ele>23.34</ele>
        <time>2023-05-12T16:57:19.475Z</time>
      </trkpt>
      <trkpt lat="50.55525" lon="3.45389">
        <ele>23.19</ele>
        <time>2023-05-12T16:57:37.025Z</time>
      </trkpt>
      <trkpt lat="50.55481" lon="3.45375">
        <ele>23.39</ele>
        <time>2023-05-12T16:57:54.582Z</time>
      </trkpt>
      <trkpt lat="50.55481" lon="3.45375">
        <ele>23.4</ele>
        <time>2023-05-12T16:58:12.139Z</time>
      </trkpt>
      <trkpt lat="50.5548" lon="3.45374">
        <ele>23.41</ele>
        <time>2023-05-12T16:58:29.696Z</time>
      </trkpt>
      <trkpt lat="50.55477" lon="3.45373">
        <ele>23.43</ele>
        <time>2023-05-12T16:58:47.254Z</time>
      </trkpt>
      <trkpt lat="50.55477" lon="3.45373">
        <ele>23.44</ele>
        <time>2023-05-12T16:59:04.812Z</time>
      </trkpt>
      <trkpt lat="50.55345" lon="3.4533">
        <ele>22.27</ele>
        <time>2023-05-12T16:59:22.391Z</time>
      </trkpt>
      <trkpt lat="50.55305" lon="3.45318">
        <ele>21.72</ele>
        <time>2023-05-12T16:59:39.977Z</time>
      </trkpt>
      <trkpt lat="50.55292" lon="3.4532">
        <ele>21.69</ele>
        <time>2023-05-12T16:59:57.565Z</time>
      </trkpt>
      <trkpt lat="50.55238" lon="3.45339">
        <ele>22.24</ele>
        <time>2023-05-12T17:00:15.162Z</time>
      </trkpt>
      <trkpt lat="50.5519" lon="3.45355">
        <ele>22.78</ele>
        <time>2023-05-12T17:00:32.767Z</time>
      </trkpt>
      <trkpt lat="50.55173" lon="3.45361">
        <ele>22.96</ele>
        <time>2023-05-12T17:00:50.374Z</time>
      </trkpt>
      <trkpt lat="50.55119" lon="3.45383">
        <ele>22.98</ele>
        <time>2023-05-12T17:01:07.990Z</time>
      </trkpt>
      <trkpt lat="50.55042" lon="3.4541">
        <ele>23.4</ele>
        <time>2023-05-12T17:01:25.619Z</time>
      </trkpt>
      <trkpt lat="50.55032" lon="3.45412">
        <ele>23.56</ele>
        <time>2023-05-12T17:01:43.250Z</time>
      </trkpt>
      <trkpt lat="50.55027" lon="3.45413">
        <ele>23.53</ele>
        <time>2023-05-12T17:02:00.881Z</time>
      </trkpt>
      <trkpt lat="50.55017" lon="3.45412">
        <ele>23.31</ele>
        <time>2023-05-12T17:02:18.514Z</time>
      </trkpt>
      <trkpt lat="50.54997" lon="3.454">
        <ele>22.92</ele>
        <time>2023-05-12T17:02:36.150Z</time>
      </trkpt>
      <trkpt lat="50.5495" lon="3.45346">
        <ele>22.44</ele>
        <time>2023-05-12T17:02:53.796Z</time>
      </trkpt>
      <trkpt lat="50.54927" lon="3.4531">
        <ele>21.98</ele>
        <time>2023-05-12T17:03:11.447Z</time>
      </trkpt>
      <trkpt lat="50.54917" lon="3.45294">
        <ele>21.76</ele>
        <time>2023-05-12T17:03:29.100Z</time>
      </trkpt>
      <trkpt lat="50.54917" lon="3.45293">
        <ele>21.76</ele>
        <time>2023-05-12T17:03:46.753Z</time>
      </trkpt>
      <trkpt lat="50.54917" lon="3.45292">
        <ele>21.76</ele>
        <time>2023-05-12T17:04:04.406Z</time>
      </trkpt>
      <trkpt lat="50.54915" lon="3.45289">
        <ele>21.72</ele>
        <time>2023-05-12T17:04:22.060Z</time>
      </trkpt>
      <trkpt lat="50.54914" lon="3.45288">
        <ele>21.72</ele>
        <time>2023-05-12T17:04:39.714Z</time>
      </trkpt>
      <trkpt lat="50.54821" lon="3.45121">
        <ele>20.01</ele>
        <time>2023-05-12T17:04:57.391Z</time>
      </trkpt>
      <trkpt lat="50.54753" lon="3.45003">
        <ele>19.51</ele>
        <time>2023-05-12T17:05:15.084Z</time>
      </trkpt>
      <trkpt lat="50.54753" lon="3.45003">
        <ele>19.3</ele>
        <time>2023-05-12T17:05:32.777Z</time>
      </trkpt>
      <trkpt lat="50.54728" lon="3.44965">
        <ele>19.17</ele>
        <time>2023-05-12T17:05:50.476Z</time>
      </trkpt>
      <trkpt lat="50.54728" lon="3.44965">
        <ele>18.73</ele>
        <time>2023-05-12T17:06:08.175Z</time>
      </trkpt>
      <trkpt lat="50.54624" lon="3.44808">
        <ele>17.03</ele>
        <time>2023-05-12T17:06:25.897Z</time>
      </trkpt>
      <trkpt lat="50.54624" lon="3.44808">
        <ele>17.03</ele>
        <time>2023-05-12T17:06:43.619Z</time>
      </trkpt>
      <trkpt lat="50.54624" lon="3.44807">
        <ele>17.03</ele>
        <time>2023-05-12T17:07:01.341Z</time>
      </trkpt>
      <trkpt lat="50.54621" lon="3.44804">
        <ele>17</ele>
        <time>2023-05-12T17:07:19.063Z</time>
      </trkpt>
      <trkpt lat="50.54621" lon="3.44804">
        <ele>17</ele>
        <time>2023-05-12T17:07:36.785Z</time>
      </trkpt>
      <trkpt lat="50.54592" lon="3.44759">
        <ele>17.53</ele>
        <time>2023-05-12T17:07:54.514Z</time>
      </trkpt>
      <trkpt lat="50.54535" lon="3.44672">
        <ele>17.76</ele>
        <time>2023-05-12T17:08:12.256Z</time>
      </trkpt>
      <trkpt lat="50.54513" lon="3.44649">
        <ele>18.34</ele>
        <time>2023-05-12T17:08:30.002Z</time>
      </trkpt>
      <trkpt lat="50.54467" lon="3.44602">
        <ele>19.33</ele>
        <time>2023-05-12T17:08:47.757Z</time>
      </trkpt>
      <trkpt lat="50.54445" lon="3.44587">
        <ele>19.9</ele>
        <time>2023-05-12T17:09:05.515Z</time>
      </trkpt>
      <trkpt lat="50.54422" lon="3.4458">
        <ele>19.99</ele>
        <time>2023-05-12T17:09:23.277Z</time>
      </trkpt>
      <trkpt lat="50.54403" lon="3.4458">
        <ele>19.92</ele>
        <time>2023-05-12T17:09:41.042Z</time>
      </trkpt>
      <trkpt lat="50.54389" lon="3.44586">
        <ele>19.77</ele>
        <time>2023-05-12T17:09:58.810Z</time>
      </trkpt>
      <trkpt lat="50.5438" lon="3.44595">
        <ele>19.63</ele>
        <time>2023-05-12T17:10:16.579Z</time>
      </trkpt>
      <trkpt lat="50.54332" lon="3.44657">
        <ele>19.41</ele>
        <time>2023-05-12T17:10:34.358Z</time>
      </trkpt>
      <trkpt lat="50.54288" lon="3.44721">
        <ele>19.03</ele>
        <time>2023-05-12T17:10:52.147Z</time>
      </trkpt>
      <trkpt lat="50.54262" lon="3.4474">
        <ele>18.53</ele>
        <time>2023-05-12T17:11:09.940Z</time>
      </trkpt>
      <trkpt lat="50.54248" lon="3.44741">
        <ele>18.01</ele>
        <time>2023-05-12T17:11:27.736Z</time>
      </trkpt>
      <trkpt lat="50.54222" lon="3.44731">
        <ele>17.44</ele>
        <time>2023-05-12T17:11:45.536Z</time>
      </trkpt>
      <trkpt lat="50.54222" lon="3.44731">
        <ele>17.09</ele>
        <time>2023-05-12T17:12:03.336Z</time>
      </trkpt>
      <trkpt lat="50.54138" lon="3.44698">
        <ele>16.74</ele>
        <time>2023-05-12T17:12:21.150Z</time>
      </trkpt>
      <trkpt lat="50.54138" lon="3.44698">
        <ele>16.47</ele>
        <time>2023-05-12T17:12:38.964Z</time>
      </trkpt>
      <trkpt lat="50.54123" lon="3.44692">
        <ele>16.37</ele>
        <time>2023-05-12T17:12:56.780Z</time>
      </trkpt>
      <trkpt lat="50.54132" lon="3.44645">
        <ele>15.95</ele>
        <time>2023-05-12T17:13:14.601Z</time>
      </trkpt>
      <trkpt lat="50.54166" lon="3.44422">
        <ele>15.33</ele>
        <time>2023-05-12T17:13:32.446Z</time>
      </trkpt>
      <trkpt lat="50.54178" lon="3.44365">
        <ele>14.93</ele>
        <time>2023-05-12T17:13:50.297Z</time>
      </trkpt>
      <trkpt lat="50.54193" lon="3.443">
        <ele>14.66</ele>
        <time>2023-05-12T17:14:08.155Z</time>
      </trkpt>
      <trkpt lat="50.54178" lon="3.44295">
        <ele>14.58</ele>
        <time>2023-05-12T17:14:26.015Z</time>
      </trkpt>
      <trkpt lat="50.54205" lon="3.4412">
        <ele>13.86</ele>
        <time>2023-05-12T17:14:43.894Z</time>
      </trkpt>
      <trkpt lat="50.54205" lon="3.4412">
        <ele>13.86</ele>
        <time>2023-05-12T17:15:01.773Z</time>
      </trkpt>
      <trkpt lat="50.54205" lon="3.44119">
        <ele>13.86</ele>
        <time>2023-05-12T17:15:19.652Z</time>
      </trkpt>
      <trkpt lat="50.54205" lon="3.44115">
        <ele>13.84</ele>
        <time>2023-05-12T17:15:37.531Z</time>
      </trkpt>
      <trkpt lat="50.54205" lon="3.44114">
        <ele>13.84</ele>
        <time>2023-05-12T17:15:55.410Z</time>
      </trkpt>
      <trkpt lat="50.54205" lon="3.44114">
        <ele>14.69</ele>
        <time>2023-05-12T17:16:13.289Z</time>
      </trkpt>
      <trkpt lat="50.54205" lon="3.44114">
        <ele>14.79</ele>
        <time>2023-05-12T17:16:31.168Z</time>
      </trkpt>
      <trkpt lat="50.54225" lon="3.43988">
        <ele>16.96</ele>
        <time>2023-05-12T17:16:49.061Z</time>
      </trkpt>
      <trkpt lat="50.54225" lon="3.43988">
        <ele>17.29</ele>
        <time>2023-05-12T17:17:06.954Z</time>
      </trkpt>
      <trkpt lat="50.54286" lon="3.43627">
        <ele>16.26</ele>
        <time>2023-05-12T17:17:24.885Z</time>
      </trkpt>
      <trkpt lat="50.54304" lon="3.43511">
        <ele>16.26</ele>
        <time>2023-05-12T17:17:42.828Z</time>
      </trkpt>
      <trkpt lat="50.54304" lon="3.43511">
        <ele>16.15</ele>
        <time>2023-05-12T17:18:00.771Z</time>
      </trkpt>
      <trkpt lat="50.54376" lon="3.43061">
        <ele>16.17</ele>
        <time>2023-05-12T17:18:18.761Z</time>
      </trkpt>
      <trkpt lat="50.54381" lon="3.43059">
        <ele>16.27</ele>
        <time>2023-05-12T17:18:36.752Z</time>
      </trkpt>
      <trkpt lat="50.54384" lon="3.43056">
        <ele>16.52</ele>
        <time>2023-05-12T17:18:54.744Z</time>
      </trkpt>
      <trkpt lat="50.54386" lon="3.4305">
        <ele>16.9</ele>
        <time>2023-05-12T17:19:12.736Z</time>
      </trkpt>
      <trkpt lat="50.54384" lon="3.43042">
        <ele>17.42</ele>
        <time>2023-05-12T17:19:30.729Z</time>
      </trkpt>
      <trkpt lat="50.54379" lon="3.43038">
        <ele>18.12</ele>
        <time>2023-05-12T17:19:48.723Z</time>
      </trkpt>
      <trkpt lat="50.54414" lon="3.42831">
        <ele>19.67</ele>
        <time>2023-05-12T17:20:06.739Z</time>
      </trkpt>
      <trkpt lat="50.5442" lon="3.42792">
        <ele>20.52</ele>
        <time>2023-05-12T17:20:24.759Z</time>
      </trkpt>
      <trkpt lat="50.54439" lon="3.42734">
        <ele>21.25</ele>
        <time>2023-05-12T17:20:42.786Z</time>
      </trkpt>
      <trkpt lat="50.54416" lon="3.42728">
        <ele>21.65</ele>
        <time>2023-05-12T17:21:00.816Z</time>
      </trkpt>
      <trkpt lat="50.54325" lon="3.427">
        <ele>21.94</ele>
        <time>2023-05-12T17:21:18.861Z</time>
      </trkpt>
      <trkpt lat="50.54325" lon="3.427">
        <ele>21.99</ele>
        <time>2023-05-12T17:21:36.906Z</time>
      </trkpt>
      <trkpt lat="50.54239" lon="3.42675">
        <ele>21.77</ele>
        <time>2023-05-12T17:21:54.965Z</time>
      </trkpt>
      <trkpt lat="50.54248" lon="3.42586">
        <ele>21.45</ele>
        <time>2023-05-12T17:22:13.034Z</time>
      </trkpt>
      <trkpt lat="50.54248" lon="3.42573">
        <ele>21.15</ele>
        <time>2023-05-12T17:22:31.104Z</time>
      </trkpt>
      <trkpt lat="50.54235" lon="3.42431">
        <ele>20.72</ele>
        <time>2023-05-12T17:22:49.189Z</time>
      </trkpt>
      <trkpt lat="50.54232" lon="3.42405">
        <ele>20.28</ele>
        <time>2023-05-12T17:23:07.276Z</time>
      </trkpt>
      <trkpt lat="50.54232" lon="3.42405">
        <ele>19.99</ele>
        <time>2023-05-12T17:23:25.363Z</time>
      </trkpt>
      <trkpt lat="50.54211" lon="3.42191">
        <ele>19.54</ele>
        <time>2023-05-12T17:23:43.472Z</time>
      </trkpt>
      <trkpt lat="50.5421" lon="3.42175">
        <ele>19.64</ele>
        <time>2023-05-12T17:24:01.583Z</time>
      </trkpt>
      <trkpt lat="50.54187" lon="3.41949">
        <ele>20.15</ele>
        <time>2023-05-12T17:24:19.717Z</time>
      </trkpt>
      <trkpt lat="50.5418" lon="3.41882">
        <ele>20.35</ele>
        <time>2023-05-12T17:24:37.858Z</time>
      </trkpt>
      <trkpt lat="50.54158" lon="3.4168">
        <ele>20.87</ele>
        <time>2023-05-12T17:24:56.020Z</time>
      </trkpt>
      <trkpt lat="50.54152" lon="3.41643">
        <ele>21.22</ele>
        <time>2023-05-12T17:25:14.186Z</time>
      </trkpt>
      <trkpt lat="50.54141" lon="3.41601">
        <ele>21.45</ele>
        <time>2023-05-12T17:25:32.357Z</time>
      </trkpt>
      <trkpt lat="50.54066" lon="3.41387">
        <ele>21.85</ele>
        <time>2023-05-12T17:25:50.553Z</time>
      </trkpt>
      <trkpt lat="50.54063" lon="3.41379">
        <ele>21.91</ele>
        <time>2023-05-12T17:26:08.750Z</time>
      </trkpt>
      <trkpt lat="50.54063" lon="3.41379">
        <ele>21.92</ele>
        <time>2023-05-12T17:26:26.947Z</time>
      </trkpt>
      <trkpt lat="50.54063" lon="3.41378">
        <ele>21.93</ele>
        <time>2023-05-12T17:26:45.144Z</time>
      </trkpt>
      <trkpt lat="50.54061" lon="3.41374">
        <ele>21.97</ele>
        <time>2023-05-12T17:27:03.341Z</time>
      </trkpt>
      <trkpt lat="50.54061" lon="3.41373">
        <ele>21.98</ele>
        <time>2023-05-12T17:27:21.538Z</time>
      </trkpt>
      <trkpt lat="50.54061" lon="3.41373">
        <ele>22.33</ele>
        <time>2023-05-12T17:27:39.735Z</time>
      </trkpt>
      <trkpt lat="50.54054" lon="3.41353">
        <ele>22.53</ele>
        <time>2023-05-12T17:27:57.935Z</time>
      </trkpt>
      <trkpt lat="50.54048" lon="3.41329">
        <ele>22.93</ele>
        <time>2023-05-12T17:28:16.137Z</time>
      </trkpt>
      <trkpt lat="50.54044" lon="3.41311">
        <ele>23.23</ele>
        <time>2023-05-12T17:28:34.341Z</time>
      </trkpt>
      <trkpt lat="50.5403" lon="3.41105">
        <ele>23.83</ele>
        <time>2023-05-12T17:28:52.566Z</time>
      </trkpt>
      <trkpt lat="50.54024" lon="3.41041">
        <ele>24.25</ele>
        <time>2023-05-12T17:29:10.798Z</time>
      </trkpt>
      <trkpt lat="50.54018" lon="3.40995">
        <ele>24.53</ele>
        <time>2023-05-12T17:29:29.035Z</time>
      </trkpt>
      <trkpt lat="50.5397" lon="3.40683">
        <ele>25.38</ele>
        <time>2023-05-12T17:29:47.305Z</time>
      </trkpt>
      <trkpt lat="50.53943" lon="3.40587">
        <ele>25.56</ele>
        <time>2023-05-12T17:30:05.585Z</time>
      </trkpt>
      <trkpt lat="50.53934" lon="3.40545">
        <ele>25.74</ele>
        <time>2023-05-12T17:30:23.870Z</time>
      </trkpt>
      <trkpt lat="50.53913" lon="3.40421">
        <ele>25.78</ele>
        <time>2023-05-12T17:30:42.168Z</time>
      </trkpt>
      <trkpt lat="50.53913" lon="3.40412">
        <ele>25.92</ele>
        <time>2023-05-12T17:31:00.467Z</time>
      </trkpt>
      <trkpt lat="50.53914" lon="3.40407">
        <ele>26.08</ele>
        <time>2023-05-12T17:31:18.766Z</time>
      </trkpt>
      <trkpt lat="50.53918" lon="3.40389">
        <ele>26.3</ele>
        <time>2023-05-12T17:31:37.067Z</time>
      </trkpt>
      <trkpt lat="50.53921" lon="3.40372">
        <ele>26.48</ele>
        <time>2023-05-12T17:31:55.370Z</time>
      </trkpt>
      <trkpt lat="50.53927" lon="3.40308">
        <ele>26.54</ele>
        <time>2023-05-12T17:32:13.680Z</time>
      </trkpt>
      <trkpt lat="50.53938" lon="3.40241">
        <ele>26.35</ele>
        <time>2023-05-12T17:32:31.997Z</time>
      </trkpt>
      <trkpt lat="50.53952" lon="3.40212">
        <ele>26.16</ele>
        <time>2023-05-12T17:32:50.317Z</time>
      </trkpt>
      <trkpt lat="50.53964" lon="3.40194">
        <ele>25.74</ele>
        <time>2023-05-12T17:33:08.640Z</time>
      </trkpt>
      <trkpt lat="50.54061" lon="3.40057">
        <ele>25.25</ele>
        <time>2023-05-12T17:33:26.984Z</time>
      </trkpt>
      <trkpt lat="50.54093" lon="3.40011">
        <ele>24.73</ele>
        <time>2023-05-12T17:33:45.335Z</time>
      </trkpt>
      <trkpt lat="50.54122" lon="3.39978">
        <ele>24.68</ele>
        <time>2023-05-12T17:34:03.692Z</time>
      </trkpt>
      <trkpt lat="50.54277" lon="3.39927">
        <ele>25.05</ele>
        <time>2023-05-12T17:34:22.074Z</time>
      </trkpt>
      <trkpt lat="50.54321" lon="3.39905">
        <ele>24.85</ele>
        <time>2023-05-12T17:34:40.464Z</time>
      </trkpt>
      <trkpt lat="50.54358" lon="3.39879">
        <ele>24.77</ele>
        <time>2023-05-12T17:34:58.860Z</time>
      </trkpt>
      <trkpt lat="50.54375" lon="3.39866">
        <ele>24.77</ele>
        <time>2023-05-12T17:35:17.259Z</time>
      </trkpt>
      <trkpt lat="50.54375" lon="3.39865">
        <ele>24.77</ele>
        <time>2023-05-12T17:35:35.658Z</time>
      </trkpt>
      <trkpt lat="50.54376" lon="3.39865">
        <ele>24.77</ele>
        <time>2023-05-12T17:35:54.057Z</time>
      </trkpt>
      <trkpt lat="50.54378" lon="3.39863">
        <ele>24.78</ele>
        <time>2023-05-12T17:36:12.457Z</time>
      </trkpt>
      <trkpt lat="50.54379" lon="3.39862">
        <ele>24.79</ele>
        <time>2023-05-12T17:36:30.857Z</time>
      </trkpt>
      <trkpt lat="50.54501" lon="3.39767">
        <ele>25.97</ele>
        <time>2023-05-12T17:36:49.279Z</time>
      </trkpt>
      <trkpt lat="50.54501" lon="3.39767">
        <ele>26.35</ele>
        <time>2023-05-12T17:37:07.701Z</time>
      </trkpt>
      <trkpt lat="50.54556" lon="3.39723">
        <ele>27.03</ele>
        <time>2023-05-12T17:37:26.133Z</time>
      </trkpt>
      <trkpt lat="50.54585" lon="3.39696">
        <ele>27.68</ele>
        <time>2023-05-12T17:37:44.570Z</time>
      </trkpt>
      <trkpt lat="50.54611" lon="3.39661">
        <ele>28.22</ele>
        <time>2023-05-12T17:38:03.012Z</time>
      </trkpt>
      <trkpt lat="50.54629" lon="3.3963">
        <ele>28.56</ele>
        <time>2023-05-12T17:38:21.459Z</time>
      </trkpt>
      <trkpt lat="50.54635" lon="3.39618">
        <ele>28.86</ele>
        <time>2023-05-12T17:38:39.907Z</time>
      </trkpt>
      <trkpt lat="50.54649" lon="3.39583">
        <ele>29.02</ele>
        <time>2023-05-12T17:38:58.359Z</time>
      </trkpt>
      <trkpt lat="50.54662" lon="3.39539">
        <ele>29.36</ele>
        <time>2023-05-12T17:39:16.816Z</time>
      </trkpt>
      <trkpt lat="50.54673" lon="3.3948">
        <ele>29.87</ele>
        <time>2023-05-12T17:39:35.280Z</time>
      </trkpt>
      <trkpt lat="50.54681" lon="3.39443">
        <ele>30.24</ele>
        <time>2023-05-12T17:39:53.748Z</time>
      </trkpt>
      <trkpt lat="50.54686" lon="3.39417">
        <ele>30.7</ele>
        <time>2023-05-12T17:40:12.218Z</time>
      </trkpt>
      <trkpt lat="50.54695" lon="3.39387">
        <ele>31.05</ele>
        <time>2023-05-12T17:40:30.692Z</time>
      </trkpt>
      <trkpt lat="50.54711" lon="3.3935">
        <ele>31.41</ele>
        <time>2023-05-12T17:40:49.170Z</time>
      </trkpt>
      <trkpt lat="50.54721" lon="3.39322">
        <ele>31.66</ele>
        <time>2023-05-12T17:41:07.652Z</time>
      </trkpt>
      <trkpt lat="50.54749" lon="3.3921">
        <ele>31.96</ele>
        <time>2023-05-12T17:41:26.146Z</time>
      </trkpt>
      <trkpt lat="50.54755" lon="3.39185">
        <ele>32.04</ele>
        <time>2023-05-12T17:41:44.643Z</time>
      </trkpt>
      <trkpt lat="50.54769" lon="3.39062">
        <ele>32.51</ele>
        <time>2023-05-12T17:42:03.152Z</time>
      </trkpt>
      <trkpt lat="50.54774" lon="3.38926">
        <ele>32.1</ele>
        <time>2023-05-12T17:42:21.675Z</time>
      </trkpt>
      <trkpt lat="50.54777" lon="3.38912">
        <ele>31.96</ele>
        <time>2023-05-12T17:42:40.200Z</time>
      </trkpt>
      <trkpt lat="50.5478" lon="3.38893">
        <ele>31.55</ele>
        <time>2023-05-12T17:42:58.727Z</time>
      </trkpt>
      <trkpt lat="50.54799" lon="3.38734">
        <ele>31</ele>
        <time>2023-05-12T17:43:17.270Z</time>
      </trkpt>
      <trkpt lat="50.54799" lon="3.38734">
        <ele>31</ele>
        <time>2023-05-12T17:43:35.813Z</time>
      </trkpt>
      <trkpt lat="50.54799" lon="3.38733">
        <ele>31</ele>
        <time>2023-05-12T17:43:54.356Z</time>
      </trkpt>
      <trkpt lat="50.54799" lon="3.38728">
        <ele>30.99</ele>
        <time>2023-05-12T17:44:12.900Z</time>
      </trkpt>
      <trkpt lat="50.54799" lon="3.38728">
        <ele>30.99</ele>
        <time>2023-05-12T17:44:31.444Z</time>
      </trkpt>
      <trkpt lat="50.54799" lon="3.38728">
        <ele>29.84</ele>
        <time>2023-05-12T17:44:49.988Z</time>
      </trkpt>
      <trkpt lat="50.54799" lon="3.38728">
        <ele>29.98</ele>
        <time>2023-05-12T17:45:08.532Z</time>
      </trkpt>
      <trkpt lat="50.54808" lon="3.38651">
        <ele>29.57</ele>
        <time>2023-05-12T17:45:27.084Z</time>
      </trkpt>
      <trkpt lat="50.54809" lon="3.38651">
        <ele>29.54</ele>
        <time>2023-05-12T17:45:45.636Z</time>
      </trkpt>
      <trkpt lat="50.5481" lon="3.38585">
        <ele>29.15</ele>
        <time>2023-05-12T17:46:04.195Z</time>
      </trkpt>
      <trkpt lat="50.54787" lon="3.38081">
        <ele>30.26</ele>
        <time>2023-05-12T17:46:22.805Z</time>
      </trkpt>
      <trkpt lat="50.54787" lon="3.38082">
        <ele>30.27</ele>
        <time>2023-05-12T17:46:41.415Z</time>
      </trkpt>
      <trkpt lat="50.54787" lon="3.38083">
        <ele>30.28</ele>
        <time>2023-05-12T17:47:00.025Z</time>
      </trkpt>
      <trkpt lat="50.54787" lon="3.38078">
        <ele>30.3</ele>
        <time>2023-05-12T17:47:18.636Z</time>
      </trkpt>
      <trkpt lat="50.54787" lon="3.38078">
        <ele>30.31</ele>
        <time>2023-05-12T17:47:37.247Z</time>
      </trkpt>
      <trkpt lat="50.54778" lon="3.37879">
        <ele>31.81</ele>
        <time>2023-05-12T17:47:55.878Z</time>
      </trkpt>
      <trkpt lat="50.54771" lon="3.37677">
        <ele>33.01</ele>
        <time>2023-05-12T17:48:14.530Z</time>
      </trkpt>
      <trkpt lat="50.5477" lon="3.37657">
        <ele>33.39</ele>
        <time>2023-05-12T17:48:33.184Z</time>
      </trkpt>
      <trkpt lat="50.54781" lon="3.37642">
        <ele>33.7</ele>
        <time>2023-05-12T17:48:51.840Z</time>
      </trkpt>
      <trkpt lat="50.54789" lon="3.37636">
        <ele>34</ele>
        <time>2023-05-12T17:49:10.498Z</time>
      </trkpt>
      <trkpt lat="50.54818" lon="3.37633">
        <ele>34.44</ele>
        <time>2023-05-12T17:49:29.160Z</time>
      </trkpt>
      <trkpt lat="50.54833" lon="3.37626">
        <ele>34.85</ele>
        <time>2023-05-12T17:49:47.825Z</time>
      </trkpt>
      <trkpt lat="50.54859" lon="3.37594">
        <ele>35.19</ele>
        <time>2023-05-12T17:50:06.495Z</time>
      </trkpt>
      <trkpt lat="50.54872" lon="3.37565">
        <ele>35.51</ele>
        <time>2023-05-12T17:50:25.169Z</time>
      </trkpt>
      <trkpt lat="50.54875" lon="3.37542">
        <ele>35.87</ele>
        <time>2023-05-12T17:50:43.845Z</time>
      </trkpt>
      <trkpt lat="50.54876" lon="3.37525">
        <ele>36.21</ele>
        <time>2023-05-12T17:51:02.523Z</time>
      </trkpt>
      <trkpt lat="50.54871" lon="3.37486">
        <ele>36.55</ele>
        <time>2023-05-12T17:51:21.205Z</time>
      </trkpt>
      <trkpt lat="50.54848" lon="3.37386">
        <ele>36.95</ele>
        <time>2023-05-12T17:51:39.898Z</time>
      </trkpt>
      <trkpt lat="50.54821" lon="3.37263">
        <ele>37.35</ele>
        <time>2023-05-12T17:51:58.604Z</time>
      </trkpt>
      <trkpt lat="50.54804" lon="3.37182">
        <ele>37.71</ele>
        <time>2023-05-12T17:52:17.319Z</time>
      </trkpt>
      <trkpt lat="50.54763" lon="3.37012">
        <ele>38.15</ele>
        <time>2023-05-12T17:52:36.052Z</time>
      </trkpt>
      <trkpt lat="50.54756" lon="3.36935">
        <ele>37.89</ele>
        <time>2023-05-12T17:52:54.793Z</time>
      </trkpt>
      <trkpt lat="50.54753" lon="3.36817">
        <ele>37.62</ele>
        <time>2023-05-12T17:53:13.546Z</time>
      </trkpt>
      <trkpt lat="50.54749" lon="3.36748">
        <ele>37.54</ele>
        <time>2023-05-12T17:53:32.306Z</time>
      </trkpt>
      <trkpt lat="50.54734" lon="3.36706">
        <ele>37.43</ele>
        <time>2023-05-12T17:53:51.071Z</time>
      </trkpt>
      <trkpt lat="50.54734" lon="3.36696">
        <ele>37.44</ele>
        <time>2023-05-12T17:54:09.837Z</time>
      </trkpt>
      <trkpt lat="50.54743" lon="3.36657">
        <ele>37.55</ele>
        <time>2023-05-12T17:54:28.608Z</time>
      </trkpt>
      <trkpt lat="50.54791" lon="3.365">
        <ele>37.78</ele>
        <time>2023-05-12T17:54:47.396Z</time>
      </trkpt>
      <trkpt lat="50.54791" lon="3.365">
        <ele>37.95</ele>
        <time>2023-05-12T17:55:06.184Z</time>
      </trkpt>
      <trkpt lat="50.54806" lon="3.36439">
        <ele>38.33</ele>
        <time>2023-05-12T17:55:24.979Z</time>
      </trkpt>
      <trkpt lat="50.54821" lon="3.36349">
        <ele>38.52</ele>
        <time>2023-05-12T17:55:43.783Z</time>
      </trkpt>
      <trkpt lat="50.54824" lon="3.36302">
        <ele>38.56</ele>
        <time>2023-05-12T17:56:02.592Z</time>
      </trkpt>
      <trkpt lat="50.5485" lon="3.36033">
        <ele>38.98</ele>
        <time>2023-05-12T17:56:21.429Z</time>
      </trkpt>
      <trkpt lat="50.54868" lon="3.35956">
        <ele>39.12</ele>
        <time>2023-05-12T17:56:40.274Z</time>
      </trkpt>
      <trkpt lat="50.54878" lon="3.35928">
        <ele>39.32</ele>
        <time>2023-05-12T17:56:59.123Z</time>
      </trkpt>
      <trkpt lat="50.54903" lon="3.35875">
        <ele>39.47</ele>
        <time>2023-05-12T17:57:17.978Z</time>
      </trkpt>
      <trkpt lat="50.54961" lon="3.35787">
        <ele>39.73</ele>
        <time>2023-05-12T17:57:36.846Z</time>
      </trkpt>
      <trkpt lat="50.54961" lon="3.35787">
        <ele>39.74</ele>
        <time>2023-05-12T17:57:55.714Z</time>
      </trkpt>
      <trkpt lat="50.54961" lon="3.35786">
        <ele>39.75</ele>
        <time>2023-05-12T17:58:14.582Z</time>
      </trkpt>
      <trkpt lat="50.54964" lon="3.35782">
        <ele>39.77</ele>
        <time>2023-05-12T17:58:33.451Z</time>
      </trkpt>
      <trkpt lat="50.54964" lon="3.35782">
        <ele>39.78</ele>
        <time>2023-05-12T17:58:52.320Z</time>
      </trkpt>
      <trkpt lat="50.54964" lon="3.35782">
        <ele>39.76</ele>
        <time>2023-05-12T17:59:11.189Z</time>
      </trkpt>
      <trkpt lat="50.54968" lon="3.35777">
        <ele>39.78</ele>
        <time>2023-05-12T17:59:30.059Z</time>
      </trkpt>
      <trkpt lat="50.54968" lon="3.35777">
        <ele>42.62</ele>
        <time>2023-05-12T17:59:48.929Z</time>
      </trkpt>
      <trkpt lat="50.55006" lon="3.35719">
        <ele>44.17</ele>
        <time>2023-05-12T18:00:07.807Z</time>
      </trkpt>
      <trkpt lat="50.55019" lon="3.35695">
        <ele>45.69</ele>
        <time>2023-05-12T18:00:26.689Z</time>
      </trkpt>
      <trkpt lat="50.55065" lon="3.35592">
        <ele>48.13</ele>
        <time>2023-05-12T18:00:45.583Z</time>
      </trkpt>
      <trkpt lat="50.55125" lon="3.35461">
        <ele>50.4</ele>
        <time>2023-05-12T18:01:04.494Z</time>
      </trkpt>
      <trkpt lat="50.55145" lon="3.3541">
        <ele>52.94</ele>
        <time>2023-05-12T18:01:23.411Z</time>
      </trkpt>
      <trkpt lat="50.55223" lon="3.35242">
        <ele>55.79</ele>
        <time>2023-05-12T18:01:42.349Z</time>
      </trkpt>
      <trkpt lat="50.55252" lon="3.35166">
        <ele>58.18</ele>
        <time>2023-05-12T18:02:01.296Z</time>
      </trkpt>
      <trkpt lat="50.55257" lon="3.35139">
        <ele>59.65</ele>
        <time>2023-05-12T18:02:20.246Z</time>
      </trkpt>
      <trkpt lat="50.55264" lon="3.3508">
        <ele>60.59</ele>
        <time>2023-05-12T18:02:39.202Z</time>
      </trkpt>
      <trkpt lat="50.55198" lon="3.35085">
        <ele>61.49</ele>
        <time>2023-05-12T18:02:58.169Z</time>
      </trkpt>
      <trkpt lat="50.55186" lon="3.35089">
        <ele>61.77</ele>
        <time>2023-05-12T18:03:17.138Z</time>
      </trkpt>
      <trkpt lat="50.55178" lon="3.35096">
        <ele>61.77</ele>
        <time>2023-05-12T18:03:36.108Z</time>
      </trkpt>
      <trkpt lat="50.55169" lon="3.35106">
        <ele>61.58</ele>
        <time>2023-05-12T18:03:55.080Z</time>
      </trkpt>
      <trkpt lat="50.55145" lon="3.3515">
        <ele>60.98</ele>
        <time>2023-05-12T18:04:14.058Z</time>
      </trkpt>
      <trkpt lat="50.55134" lon="3.35157">
        <ele>60.64</ele>
        <time>2023-05-12T18:04:33.038Z</time>
      </trkpt>
      <trkpt lat="50.55106" lon="3.35154">
        <ele>60.46</ele>
        <time>2023-05-12T18:04:52.022Z</time>
      </trkpt>
      <trkpt lat="50.55086" lon="3.35145">
        <ele>60.37</ele>
        <time>2023-05-12T18:05:11.010Z</time>
      </trkpt>
      <trkpt lat="50.55067" lon="3.35129">
        <ele>60.49</ele>
        <time>2023-05-12T18:05:30.001Z</time>
      </trkpt>
      <trkpt lat="50.55056" lon="3.35124">
        <ele>60.61</ele>
        <time>2023-05-12T18:05:48.994Z</time>
      </trkpt>
      <trkpt lat="50.5495" lon="3.35083">
        <ele>61.04</ele>
        <time>2023-05-12T18:06:08.005Z</time>
      </trkpt>
      <trkpt lat="50.54942" lon="3.3508">
        <ele>61.11</ele>
        <time>2023-05-12T18:06:27.017Z</time>
      </trkpt>
      <trkpt lat="50.54906" lon="3.35081">
        <ele>61.07</ele>
        <time>2023-05-12T18:06:46.035Z</time>
      </trkpt>
      <trkpt lat="50.54906" lon="3.35081">
        <ele>61</ele>
        <time>2023-05-12T18:07:05.053Z</time>
      </trkpt>
      <trkpt lat="50.54861" lon="3.35088">
        <ele>60.84</ele>
        <time>2023-05-12T18:07:24.078Z</time>
      </trkpt>
      <trkpt lat="50.54847" lon="3.35093">
        <ele>60.45</ele>
        <time>2023-05-12T18:07:43.105Z</time>
      </trkpt>
      <trkpt lat="50.54834" lon="3.35089">
        <ele>59.99</ele>
        <time>2023-05-12T18:08:02.134Z</time>
      </trkpt>
      <trkpt lat="50.54807" lon="3.35073">
        <ele>59.26</ele>
        <time>2023-05-12T18:08:21.168Z</time>
      </trkpt>
      <trkpt lat="50.54707" lon="3.35067">
        <ele>58.22</ele>
        <time>2023-05-12T18:08:40.218Z</time>
      </trkpt>
      <trkpt lat="50.54693" lon="3.35064">
        <ele>57.54</ele>
        <time>2023-05-12T18:08:59.270Z</time>
      </trkpt>
      <trkpt lat="50.5467" lon="3.3505">
        <ele>56.71</ele>
        <time>2023-05-12T18:09:18.326Z</time>
      </trkpt>
      <trkpt lat="50.54604" lon="3.34982">
        <ele>55.73</ele>
        <time>2023-05-12T18:09:37.395Z</time>
      </trkpt>
      <trkpt lat="50.5457" lon="3.34969">
        <ele>55.16</ele>
        <time>2023-05-12T18:09:56.469Z</time>
      </trkpt>
      <trkpt lat="50.54548" lon="3.34963">
        <ele>54.58</ele>
        <time>2023-05-12T18:10:15.547Z</time>
      </trkpt>
      <trkpt lat="50.54547" lon="3.34963">
        <ele>54.46</ele>
        <time>2023-05-12T18:10:34.625Z</time>
      </trkpt>
      <trkpt lat="50.54547" lon="3.34963">
        <ele>54.33</ele>
        <time>2023-05-12T18:10:53.703Z</time>
      </trkpt>
      <trkpt lat="50.54546" lon="3.34962">
        <ele>54.2</ele>
        <time>2023-05-12T18:11:12.781Z</time>
      </trkpt>
      <trkpt lat="50.54543" lon="3.34962">
        <ele>53.26</ele>
        <time>2023-05-12T18:11:31.860Z</time>
      </trkpt>
      <trkpt lat="50.54542" lon="3.34961">
        <ele>53.11</ele>
        <time>2023-05-12T18:11:50.939Z</time>
      </trkpt>
      <trkpt lat="50.54537" lon="3.3496">
        <ele>51.91</ele>
        <time>2023-05-12T18:12:10.019Z</time>
      </trkpt>
      <trkpt lat="50.54497" lon="3.34951">
        <ele>51.25</ele>
        <time>2023-05-12T18:12:29.105Z</time>
      </trkpt>
      <trkpt lat="50.5448" lon="3.3494">
        <ele>50.9</ele>
        <time>2023-05-12T18:12:48.194Z</time>
      </trkpt>
      <trkpt lat="50.54458" lon="3.34893">
        <ele>50.6</ele>
        <time>2023-05-12T18:13:07.289Z</time>
      </trkpt>
      <trkpt lat="50.54439" lon="3.34863">
        <ele>50.75</ele>
        <time>2023-05-12T18:13:26.388Z</time>
      </trkpt>
      <trkpt lat="50.54453" lon="3.34592">
        <ele>52.03</ele>
        <time>2023-05-12T18:13:45.515Z</time>
      </trkpt>
      <trkpt lat="50.54462" lon="3.34552">
        <ele>52.65</ele>
        <time>2023-05-12T18:14:04.646Z</time>
      </trkpt>
      <trkpt lat="50.54468" lon="3.34536">
        <ele>53.47</ele>
        <time>2023-05-12T18:14:23.779Z</time>
      </trkpt>
      <trkpt lat="50.54475" lon="3.34525">
        <ele>54.44</ele>
        <time>2023-05-12T18:14:42.914Z</time>
      </trkpt>
      <trkpt lat="50.54586" lon="3.3438">
        <ele>56.17</ele>
        <time>2023-05-12T18:15:02.072Z</time>
      </trkpt>
      <trkpt lat="50.54592" lon="3.34368">
        <ele>57.26</ele>
        <time>2023-05-12T18:15:21.232Z</time>
      </trkpt>
      <trkpt lat="50.54618" lon="3.3428">
        <ele>58.57</ele>
        <time>2023-05-12T18:15:40.401Z</time>
      </trkpt>
      <trkpt lat="50.54678" lon="3.34035">
        <ele>59.76</ele>
        <time>2023-05-12T18:15:59.597Z</time>
      </trkpt>
      <trkpt lat="50.54665" lon="3.34027">
        <ele>60.3</ele>
        <time>2023-05-12T18:16:18.795Z</time>
      </trkpt>
      <trkpt lat="50.5463" lon="3.34006">
        <ele>60.52</ele>
        <time>2023-05-12T18:16:37.999Z</time>
      </trkpt>
      <trkpt lat="50.5461" lon="3.33993">
        <ele>60.44</ele>
        <time>2023-05-12T18:16:57.207Z</time>
      </trkpt>
    </trkseg>
  </trk>
</gpx>